<?xml version="1.0" encoding="UTF-8" standalone="no" ?>
<gpx xmlns="http://www.topografix.com/GPX/1/1" xmlns:xsi="http://www.w3.org/2001/XMLSchema-instance" xsi:schemaLocation="http://www.topografix.com/GPX/1/1 http://www.topografix.com/GPX/1/1/gpx.xsd" version="1.1" creator="VisuGPX - https://www.visugpx.com">
  <metadata>
    <name>Pornichet 21/08/2022</name>
    <desc><![CDATA[Sortie dimanche 21 août 2022]]></desc>
  </metadata>
  <trk>
    <name><![CDATA[Pornichet Cyclisme]]></name>
    <trkseg>
      <trkpt lat="47.2636" lon="-2.31544">
        <ele>8.4</ele>
        <time>2022-08-21T06:55:46.000Z</time>
      </trkpt>
      <trkpt lat="47.2636" lon="-2.31557">
        <ele>8</ele>
        <time>2022-08-21T06:55:49.000Z</time>
      </trkpt>
      <trkpt lat="47.26361" lon="-2.31562">
        <ele>8</ele>
        <time>2022-08-21T06:55:50.000Z</time>
      </trkpt>
      <trkpt lat="47.26362" lon="-2.31573">
        <ele>8</ele>
        <time>2022-08-21T06:55:52.000Z</time>
      </trkpt>
      <trkpt lat="47.26366" lon="-2.31609">
        <ele>8.2</ele>
        <time>2022-08-21T06:55:58.000Z</time>
      </trkpt>
      <trkpt lat="47.26372" lon="-2.31635">
        <ele>8.4</ele>
        <time>2022-08-21T06:56:02.000Z</time>
      </trkpt>
      <trkpt lat="47.26373" lon="-2.31648">
        <ele>8.3</ele>
        <time>2022-08-21T06:56:05.000Z</time>
      </trkpt>
      <trkpt lat="47.26366" lon="-2.31657">
        <ele>8.1</ele>
        <time>2022-08-21T06:56:09.000Z</time>
      </trkpt>
      <trkpt lat="47.26363" lon="-2.31659">
        <ele>8</ele>
        <time>2022-08-21T06:56:10.000Z</time>
      </trkpt>
      <trkpt lat="47.26348" lon="-2.31666">
        <ele>-0.40000000596046</ele>
        <time>2022-08-21T06:56:14.000Z</time>
      </trkpt>
      <trkpt lat="47.26344" lon="-2.31669">
        <ele>-0.80000001192093</ele>
        <time>2022-08-21T06:56:15.000Z</time>
      </trkpt>
      <trkpt lat="47.2634" lon="-2.31672">
        <ele>-1.2000000476837</ele>
        <time>2022-08-21T06:56:16.000Z</time>
      </trkpt>
      <trkpt lat="47.26336" lon="-2.31675">
        <ele>-1.6000000238419</ele>
        <time>2022-08-21T06:56:17.000Z</time>
      </trkpt>
      <trkpt lat="47.26332" lon="-2.31677">
        <ele>-2</ele>
        <time>2022-08-21T06:56:18.000Z</time>
      </trkpt>
      <trkpt lat="47.26316" lon="-2.31688">
        <ele>-2</ele>
        <time>2022-08-21T06:56:22.000Z</time>
      </trkpt>
      <trkpt lat="47.26311" lon="-2.3169">
        <ele>-2</ele>
        <time>2022-08-21T06:56:23.000Z</time>
      </trkpt>
      <trkpt lat="47.26292" lon="-2.31702">
        <ele>-2</ele>
        <time>2022-08-21T06:56:27.000Z</time>
      </trkpt>
      <trkpt lat="47.26287" lon="-2.31705">
        <ele>-2.5999999046326</ele>
        <time>2022-08-21T06:56:28.000Z</time>
      </trkpt>
      <trkpt lat="47.26284" lon="-2.3171">
        <ele>-3</ele>
        <time>2022-08-21T06:56:29.000Z</time>
      </trkpt>
      <trkpt lat="47.26282" lon="-2.31715">
        <ele>-3.4000000953674</ele>
        <time>2022-08-21T06:56:30.000Z</time>
      </trkpt>
      <trkpt lat="47.26282" lon="-2.3172">
        <ele>-3.7999999523163</ele>
        <time>2022-08-21T06:56:31.000Z</time>
      </trkpt>
      <trkpt lat="47.26282" lon="-2.31725">
        <ele>-4.4000000953674</ele>
        <time>2022-08-21T06:56:32.000Z</time>
      </trkpt>
      <trkpt lat="47.26282" lon="-2.3173">
        <ele>-4.4000000953674</ele>
        <time>2022-08-21T06:56:33.000Z</time>
      </trkpt>
      <trkpt lat="47.26285" lon="-2.3174">
        <ele>-4.4000000953674</ele>
        <time>2022-08-21T06:56:35.000Z</time>
      </trkpt>
      <trkpt lat="47.26286" lon="-2.31746">
        <ele>-4.4000000953674</ele>
        <time>2022-08-21T06:56:36.000Z</time>
      </trkpt>
      <trkpt lat="47.2629" lon="-2.31763">
        <ele>-4.4000000953674</ele>
        <time>2022-08-21T06:56:40.000Z</time>
      </trkpt>
      <trkpt lat="47.26294" lon="-2.31793">
        <ele>-4.4000000953674</ele>
        <time>2022-08-21T06:56:47.000Z</time>
      </trkpt>
      <trkpt lat="47.26295" lon="-2.31838">
        <ele>-4.4000000953674</ele>
        <time>2022-08-21T06:56:55.000Z</time>
      </trkpt>
      <trkpt lat="47.26293" lon="-2.31847">
        <ele>-4.4000000953674</ele>
        <time>2022-08-21T06:56:58.000Z</time>
      </trkpt>
      <trkpt lat="47.26288" lon="-2.31857">
        <ele>-4.4000000953674</ele>
        <time>2022-08-21T06:57:00.000Z</time>
      </trkpt>
      <trkpt lat="47.26279" lon="-2.31869">
        <ele>-4.4000000953674</ele>
        <time>2022-08-21T06:57:03.000Z</time>
      </trkpt>
      <trkpt lat="47.26265" lon="-2.31887">
        <ele>-4.4000000953674</ele>
        <time>2022-08-21T06:57:07.000Z</time>
      </trkpt>
      <trkpt lat="47.26263" lon="-2.31892">
        <ele>-4.4000000953674</ele>
        <time>2022-08-21T06:57:08.000Z</time>
      </trkpt>
      <trkpt lat="47.26253" lon="-2.3191">
        <ele>-4.4000000953674</ele>
        <time>2022-08-21T06:57:12.000Z</time>
      </trkpt>
      <trkpt lat="47.26239" lon="-2.31928">
        <ele>-4.4000000953674</ele>
        <time>2022-08-21T06:57:17.000Z</time>
      </trkpt>
      <trkpt lat="47.26235" lon="-2.31932">
        <ele>-4.4000000953674</ele>
        <time>2022-08-21T06:57:18.000Z</time>
      </trkpt>
      <trkpt lat="47.26224" lon="-2.31945">
        <ele>-4.4000000953674</ele>
        <time>2022-08-21T06:57:22.000Z</time>
      </trkpt>
      <trkpt lat="47.26206" lon="-2.31963">
        <ele>-4.4000000953674</ele>
        <time>2022-08-21T06:57:28.000Z</time>
      </trkpt>
      <trkpt lat="47.262" lon="-2.31971">
        <ele>-4.4000000953674</ele>
        <time>2022-08-21T06:57:31.000Z</time>
      </trkpt>
      <trkpt lat="47.26199" lon="-2.31974">
        <ele>-4.4000000953674</ele>
        <time>2022-08-21T06:57:32.000Z</time>
      </trkpt>
      <trkpt lat="47.26193" lon="-2.31985">
        <ele>-4.4000000953674</ele>
        <time>2022-08-21T06:57:37.000Z</time>
      </trkpt>
      <trkpt lat="47.26182" lon="-2.31986">
        <ele>-4.4000000953674</ele>
        <time>2022-08-21T06:57:41.000Z</time>
      </trkpt>
      <trkpt lat="47.26179" lon="-2.31987">
        <ele>-4.4000000953674</ele>
        <time>2022-08-21T06:57:42.000Z</time>
      </trkpt>
      <trkpt lat="47.26161" lon="-2.32002">
        <ele>-4.4000000953674</ele>
        <time>2022-08-21T06:57:47.000Z</time>
      </trkpt>
      <trkpt lat="47.26154" lon="-2.32011">
        <ele>-4.4000000953674</ele>
        <time>2022-08-21T06:57:49.000Z</time>
      </trkpt>
      <trkpt lat="47.26144" lon="-2.3203">
        <ele>-4.4000000953674</ele>
        <time>2022-08-21T06:57:53.000Z</time>
      </trkpt>
      <trkpt lat="47.26135" lon="-2.32066">
        <ele>-4.4000000953674</ele>
        <time>2022-08-21T06:57:59.000Z</time>
      </trkpt>
      <trkpt lat="47.26126" lon="-2.32096">
        <ele>-4.4000000953674</ele>
        <time>2022-08-21T06:58:05.000Z</time>
      </trkpt>
      <trkpt lat="47.26116" lon="-2.32133">
        <ele>-4.4000000953674</ele>
        <time>2022-08-21T06:58:12.000Z</time>
      </trkpt>
      <trkpt lat="47.26114" lon="-2.32138">
        <ele>-4.4000000953674</ele>
        <time>2022-08-21T06:58:13.000Z</time>
      </trkpt>
      <trkpt lat="47.26103" lon="-2.32163">
        <ele>-4.4000000953674</ele>
        <time>2022-08-21T06:58:17.000Z</time>
      </trkpt>
      <trkpt lat="47.26094" lon="-2.3218">
        <ele>-4.4000000953674</ele>
        <time>2022-08-21T06:58:20.000Z</time>
      </trkpt>
      <trkpt lat="47.26083" lon="-2.32196">
        <ele>-4.4000000953674</ele>
        <time>2022-08-21T06:58:23.000Z</time>
      </trkpt>
      <trkpt lat="47.2606" lon="-2.32227">
        <ele>-4.4000000953674</ele>
        <time>2022-08-21T06:58:29.000Z</time>
      </trkpt>
      <trkpt lat="47.26026" lon="-2.32267">
        <ele>-4.4000000953674</ele>
        <time>2022-08-21T06:58:37.000Z</time>
      </trkpt>
      <trkpt lat="47.26002" lon="-2.32295">
        <ele>-4.4000000953674</ele>
        <time>2022-08-21T06:58:43.000Z</time>
      </trkpt>
      <trkpt lat="47.25998" lon="-2.323">
        <ele>-4.4000000953674</ele>
        <time>2022-08-21T06:58:44.000Z</time>
      </trkpt>
      <trkpt lat="47.25962" lon="-2.32347">
        <ele>-4.4000000953674</ele>
        <time>2022-08-21T06:58:53.000Z</time>
      </trkpt>
      <trkpt lat="47.25933" lon="-2.32387">
        <ele>-4.4000000953674</ele>
        <time>2022-08-21T06:59:01.000Z</time>
      </trkpt>
      <trkpt lat="47.25911" lon="-2.3242">
        <ele>-4.4000000953674</ele>
        <time>2022-08-21T06:59:08.000Z</time>
      </trkpt>
      <trkpt lat="47.2589" lon="-2.32452">
        <ele>-4.4000000953674</ele>
        <time>2022-08-21T06:59:15.000Z</time>
      </trkpt>
      <trkpt lat="47.25886" lon="-2.32455">
        <ele>-4.4000000953674</ele>
        <time>2022-08-21T06:59:16.000Z</time>
      </trkpt>
      <trkpt lat="47.25874" lon="-2.32462">
        <ele>-4.4000000953674</ele>
        <time>2022-08-21T06:59:19.000Z</time>
      </trkpt>
      <trkpt lat="47.25865" lon="-2.32465">
        <ele>-4.4000000953674</ele>
        <time>2022-08-21T06:59:21.000Z</time>
      </trkpt>
      <trkpt lat="47.25833" lon="-2.32465">
        <ele>-4.4000000953674</ele>
        <time>2022-08-21T06:59:28.000Z</time>
      </trkpt>
      <trkpt lat="47.25828" lon="-2.32463">
        <ele>-4.4000000953674</ele>
        <time>2022-08-21T06:59:29.000Z</time>
      </trkpt>
      <trkpt lat="47.25803" lon="-2.32452">
        <ele>-4.4000000953674</ele>
        <time>2022-08-21T06:59:35.000Z</time>
      </trkpt>
      <trkpt lat="47.25793" lon="-2.32451">
        <ele>-4.4000000953674</ele>
        <time>2022-08-21T06:59:39.000Z</time>
      </trkpt>
      <trkpt lat="47.25779" lon="-2.32453">
        <ele>-4.4000000953674</ele>
        <time>2022-08-21T06:59:44.000Z</time>
      </trkpt>
      <trkpt lat="47.25768" lon="-2.32437">
        <ele>-4.4000000953674</ele>
        <time>2022-08-21T06:59:48.000Z</time>
      </trkpt>
      <trkpt lat="47.25749" lon="-2.32424">
        <ele>-4.4000000953674</ele>
        <time>2022-08-21T06:59:53.000Z</time>
      </trkpt>
      <trkpt lat="47.25744" lon="-2.32424">
        <ele>-4.4000000953674</ele>
        <time>2022-08-21T06:59:54.000Z</time>
      </trkpt>
      <trkpt lat="47.25708" lon="-2.32425">
        <ele>-4.4000000953674</ele>
        <time>2022-08-21T07:00:01.000Z</time>
      </trkpt>
      <trkpt lat="47.25671" lon="-2.32423">
        <ele>-4.4000000953674</ele>
        <time>2022-08-21T07:00:09.000Z</time>
      </trkpt>
      <trkpt lat="47.25659" lon="-2.32425">
        <ele>-4.4000000953674</ele>
        <time>2022-08-21T07:00:12.000Z</time>
      </trkpt>
      <trkpt lat="47.25656" lon="-2.32437">
        <ele>-4.4000000953674</ele>
        <time>2022-08-21T07:00:14.000Z</time>
      </trkpt>
      <trkpt lat="47.2566" lon="-2.32456">
        <ele>-3.7999999523163</ele>
        <time>2022-08-21T07:00:17.000Z</time>
      </trkpt>
      <trkpt lat="47.25662" lon="-2.32461">
        <ele>-3.4000000953674</ele>
        <time>2022-08-21T07:00:18.000Z</time>
      </trkpt>
      <trkpt lat="47.25664" lon="-2.32467">
        <ele>-3</ele>
        <time>2022-08-21T07:00:19.000Z</time>
      </trkpt>
      <trkpt lat="47.25665" lon="-2.32473">
        <ele>-2.5999999046326</ele>
        <time>2022-08-21T07:00:20.000Z</time>
      </trkpt>
      <trkpt lat="47.25667" lon="-2.32479">
        <ele>-2.2000000476837</ele>
        <time>2022-08-21T07:00:21.000Z</time>
      </trkpt>
      <trkpt lat="47.25675" lon="-2.32503">
        <ele>-2.2000000476837</ele>
        <time>2022-08-21T07:00:25.000Z</time>
      </trkpt>
      <trkpt lat="47.25688" lon="-2.32542">
        <ele>-1.7999999523163</ele>
        <time>2022-08-21T07:00:32.000Z</time>
      </trkpt>
      <trkpt lat="47.2569" lon="-2.32547">
        <ele>-1.2000000476837</ele>
        <time>2022-08-21T07:00:33.000Z</time>
      </trkpt>
      <trkpt lat="47.25692" lon="-2.32553">
        <ele>-0.80000001192093</ele>
        <time>2022-08-21T07:00:34.000Z</time>
      </trkpt>
      <trkpt lat="47.25693" lon="-2.32558">
        <ele>-0.40000000596046</ele>
        <time>2022-08-21T07:00:35.000Z</time>
      </trkpt>
      <trkpt lat="47.25695" lon="-2.32564">
        <ele>9.3</ele>
        <time>2022-08-21T07:00:36.000Z</time>
      </trkpt>
      <trkpt lat="47.25707" lon="-2.32609">
        <ele>9.6</ele>
        <time>2022-08-21T07:00:44.000Z</time>
      </trkpt>
      <trkpt lat="47.25707" lon="-2.3262">
        <ele>9.6</ele>
        <time>2022-08-21T07:00:46.000Z</time>
      </trkpt>
      <trkpt lat="47.257" lon="-2.32628">
        <ele>9.8</ele>
        <time>2022-08-21T07:00:48.000Z</time>
      </trkpt>
      <trkpt lat="47.25693" lon="-2.32632">
        <ele>0.40000000596046</ele>
        <time>2022-08-21T07:00:50.000Z</time>
      </trkpt>
      <trkpt lat="47.25689" lon="-2.32633">
        <ele>0.80000001192093</ele>
        <time>2022-08-21T07:00:51.000Z</time>
      </trkpt>
      <trkpt lat="47.25685" lon="-2.32635">
        <ele>1.2000000476837</ele>
        <time>2022-08-21T07:00:52.000Z</time>
      </trkpt>
      <trkpt lat="47.25681" lon="-2.32637">
        <ele>1.6000000238419</ele>
        <time>2022-08-21T07:00:53.000Z</time>
      </trkpt>
      <trkpt lat="47.25678" lon="-2.32639">
        <ele>2</ele>
        <time>2022-08-21T07:00:54.000Z</time>
      </trkpt>
      <trkpt lat="47.25674" lon="-2.32641">
        <ele>2</ele>
        <time>2022-08-21T07:00:55.000Z</time>
      </trkpt>
      <trkpt lat="47.25651" lon="-2.32649">
        <ele>2</ele>
        <time>2022-08-21T07:01:01.000Z</time>
      </trkpt>
      <trkpt lat="47.25631" lon="-2.32656">
        <ele>2.4000000953674</ele>
        <time>2022-08-21T07:01:06.000Z</time>
      </trkpt>
      <trkpt lat="47.25628" lon="-2.32658">
        <ele>2.7999999523163</ele>
        <time>2022-08-21T07:01:07.000Z</time>
      </trkpt>
      <trkpt lat="47.25624" lon="-2.3266">
        <ele>3.2000000476837</ele>
        <time>2022-08-21T07:01:08.000Z</time>
      </trkpt>
      <trkpt lat="47.2562" lon="-2.32662">
        <ele>3.5999999046326</ele>
        <time>2022-08-21T07:01:09.000Z</time>
      </trkpt>
      <trkpt lat="47.25616" lon="-2.32663">
        <ele>4</ele>
        <time>2022-08-21T07:01:10.000Z</time>
      </trkpt>
      <trkpt lat="47.2558" lon="-2.32679">
        <ele>4</ele>
        <time>2022-08-21T07:01:19.000Z</time>
      </trkpt>
      <trkpt lat="47.25537" lon="-2.32695">
        <ele>4</ele>
        <time>2022-08-21T07:01:29.000Z</time>
      </trkpt>
      <trkpt lat="47.25501" lon="-2.32703">
        <ele>4</ele>
        <time>2022-08-21T07:01:37.000Z</time>
      </trkpt>
      <trkpt lat="47.25484" lon="-2.32708">
        <ele>4</ele>
        <time>2022-08-21T07:01:41.000Z</time>
      </trkpt>
      <trkpt lat="47.25476" lon="-2.32715">
        <ele>4</ele>
        <time>2022-08-21T07:01:43.000Z</time>
      </trkpt>
      <trkpt lat="47.25466" lon="-2.32729">
        <ele>4</ele>
        <time>2022-08-21T07:01:46.000Z</time>
      </trkpt>
      <trkpt lat="47.25455" lon="-2.32742">
        <ele>4</ele>
        <time>2022-08-21T07:01:49.000Z</time>
      </trkpt>
      <trkpt lat="47.25434" lon="-2.32777">
        <ele>4</ele>
        <time>2022-08-21T07:01:56.000Z</time>
      </trkpt>
      <trkpt lat="47.25432" lon="-2.32783">
        <ele>4</ele>
        <time>2022-08-21T07:01:57.000Z</time>
      </trkpt>
      <trkpt lat="47.25419" lon="-2.32801">
        <ele>4</ele>
        <time>2022-08-21T07:02:01.000Z</time>
      </trkpt>
      <trkpt lat="47.25416" lon="-2.32806">
        <ele>4</ele>
        <time>2022-08-21T07:02:02.000Z</time>
      </trkpt>
      <trkpt lat="47.25396" lon="-2.32833">
        <ele>4</ele>
        <time>2022-08-21T07:02:07.000Z</time>
      </trkpt>
      <trkpt lat="47.25364" lon="-2.3287">
        <ele>4</ele>
        <time>2022-08-21T07:02:15.000Z</time>
      </trkpt>
      <trkpt lat="47.2533" lon="-2.329">
        <ele>4</ele>
        <time>2022-08-21T07:02:23.000Z</time>
      </trkpt>
      <trkpt lat="47.25311" lon="-2.3292">
        <ele>4</ele>
        <time>2022-08-21T07:02:28.000Z</time>
      </trkpt>
      <trkpt lat="47.25307" lon="-2.32933">
        <ele>3.5999999046326</ele>
        <time>2022-08-21T07:02:30.000Z</time>
      </trkpt>
      <trkpt lat="47.25306" lon="-2.3294">
        <ele>3.2000000476837</ele>
        <time>2022-08-21T07:02:31.000Z</time>
      </trkpt>
      <trkpt lat="47.25307" lon="-2.32947">
        <ele>2.7999999523163</ele>
        <time>2022-08-21T07:02:32.000Z</time>
      </trkpt>
      <trkpt lat="47.25308" lon="-2.32954">
        <ele>2.4000000953674</ele>
        <time>2022-08-21T07:02:33.000Z</time>
      </trkpt>
      <trkpt lat="47.2531" lon="-2.32961">
        <ele>2</ele>
        <time>2022-08-21T07:02:34.000Z</time>
      </trkpt>
      <trkpt lat="47.25315" lon="-2.32973">
        <ele>2</ele>
        <time>2022-08-21T07:02:36.000Z</time>
      </trkpt>
      <trkpt lat="47.25322" lon="-2.32992">
        <ele>2</ele>
        <time>2022-08-21T07:02:39.000Z</time>
      </trkpt>
      <trkpt lat="47.25344" lon="-2.33048">
        <ele>2</ele>
        <time>2022-08-21T07:02:48.000Z</time>
      </trkpt>
      <trkpt lat="47.25361" lon="-2.33093">
        <ele>2</ele>
        <time>2022-08-21T07:02:55.000Z</time>
      </trkpt>
      <trkpt lat="47.25375" lon="-2.33126">
        <ele>2</ele>
        <time>2022-08-21T07:03:01.000Z</time>
      </trkpt>
      <trkpt lat="47.25377" lon="-2.33138">
        <ele>2</ele>
        <time>2022-08-21T07:03:05.000Z</time>
      </trkpt>
      <trkpt lat="47.25375" lon="-2.33141">
        <ele>2</ele>
        <time>2022-08-21T07:03:06.000Z</time>
      </trkpt>
      <trkpt lat="47.25371" lon="-2.33138">
        <ele>2</ele>
        <time>2022-08-21T07:03:08.000Z</time>
      </trkpt>
      <trkpt lat="47.25373" lon="-2.33129">
        <ele>2</ele>
        <time>2022-08-21T07:03:12.000Z</time>
      </trkpt>
      <trkpt lat="47.25374" lon="-2.3313">
        <ele>2</ele>
        <time>2022-08-21T07:03:13.000Z</time>
      </trkpt>
      <trkpt lat="47.25374" lon="-2.3313">
        <ele>2</ele>
        <time>2022-08-21T07:03:15.000Z</time>
      </trkpt>
      <trkpt lat="47.25377" lon="-2.33134">
        <ele>2</ele>
        <time>2022-08-21T07:08:55.000Z</time>
      </trkpt>
      <trkpt lat="47.25389" lon="-2.33133">
        <ele>2</ele>
        <time>2022-08-21T07:09:00.000Z</time>
      </trkpt>
      <trkpt lat="47.2541" lon="-2.33123">
        <ele>2</ele>
        <time>2022-08-21T07:09:06.000Z</time>
      </trkpt>
      <trkpt lat="47.25433" lon="-2.33114">
        <ele>2</ele>
        <time>2022-08-21T07:09:11.000Z</time>
      </trkpt>
      <trkpt lat="47.25475" lon="-2.33095">
        <ele>2</ele>
        <time>2022-08-21T07:09:20.000Z</time>
      </trkpt>
      <trkpt lat="47.25491" lon="-2.33082">
        <ele>2</ele>
        <time>2022-08-21T07:09:25.000Z</time>
      </trkpt>
      <trkpt lat="47.25496" lon="-2.33092">
        <ele>2</ele>
        <time>2022-08-21T07:09:28.000Z</time>
      </trkpt>
      <trkpt lat="47.25496" lon="-2.33097">
        <ele>2</ele>
        <time>2022-08-21T07:09:29.000Z</time>
      </trkpt>
      <trkpt lat="47.25497" lon="-2.33129">
        <ele>2</ele>
        <time>2022-08-21T07:09:35.000Z</time>
      </trkpt>
      <trkpt lat="47.25502" lon="-2.33165">
        <ele>2</ele>
        <time>2022-08-21T07:09:42.000Z</time>
      </trkpt>
      <trkpt lat="47.25507" lon="-2.33199">
        <ele>2</ele>
        <time>2022-08-21T07:09:49.000Z</time>
      </trkpt>
      <trkpt lat="47.25516" lon="-2.33253">
        <ele>2</ele>
        <time>2022-08-21T07:09:58.000Z</time>
      </trkpt>
      <trkpt lat="47.25524" lon="-2.33309">
        <ele>2</ele>
        <time>2022-08-21T07:10:07.000Z</time>
      </trkpt>
      <trkpt lat="47.25531" lon="-2.33355">
        <ele>2</ele>
        <time>2022-08-21T07:10:14.000Z</time>
      </trkpt>
      <trkpt lat="47.25533" lon="-2.33375">
        <ele>2</ele>
        <time>2022-08-21T07:10:17.000Z</time>
      </trkpt>
      <trkpt lat="47.25537" lon="-2.33395">
        <ele>2</ele>
        <time>2022-08-21T07:10:20.000Z</time>
      </trkpt>
      <trkpt lat="47.25549" lon="-2.33436">
        <ele>2</ele>
        <time>2022-08-21T07:10:26.000Z</time>
      </trkpt>
      <trkpt lat="47.25564" lon="-2.33472">
        <ele>2</ele>
        <time>2022-08-21T07:10:32.000Z</time>
      </trkpt>
      <trkpt lat="47.25588" lon="-2.33513">
        <ele>2</ele>
        <time>2022-08-21T07:10:39.000Z</time>
      </trkpt>
      <trkpt lat="47.25624" lon="-2.3355">
        <ele>2</ele>
        <time>2022-08-21T07:10:47.000Z</time>
      </trkpt>
      <trkpt lat="47.25654" lon="-2.33568">
        <ele>2</ele>
        <time>2022-08-21T07:10:53.000Z</time>
      </trkpt>
      <trkpt lat="47.25693" lon="-2.33578">
        <ele>2</ele>
        <time>2022-08-21T07:11:00.000Z</time>
      </trkpt>
      <trkpt lat="47.25733" lon="-2.33577">
        <ele>2</ele>
        <time>2022-08-21T07:11:07.000Z</time>
      </trkpt>
      <trkpt lat="47.25774" lon="-2.33574">
        <ele>2</ele>
        <time>2022-08-21T07:11:14.000Z</time>
      </trkpt>
      <trkpt lat="47.25823" lon="-2.33571">
        <ele>2</ele>
        <time>2022-08-21T07:11:23.000Z</time>
      </trkpt>
      <trkpt lat="47.25868" lon="-2.33567">
        <ele>2</ele>
        <time>2022-08-21T07:11:31.000Z</time>
      </trkpt>
      <trkpt lat="47.2589" lon="-2.33557">
        <ele>2</ele>
        <time>2022-08-21T07:11:35.000Z</time>
      </trkpt>
      <trkpt lat="47.25895" lon="-2.33554">
        <ele>2</ele>
        <time>2022-08-21T07:11:36.000Z</time>
      </trkpt>
      <trkpt lat="47.259" lon="-2.3355">
        <ele>1.6000000238419</ele>
        <time>2022-08-21T07:11:37.000Z</time>
      </trkpt>
      <trkpt lat="47.25906" lon="-2.33545">
        <ele>1.2000000476837</ele>
        <time>2022-08-21T07:11:38.000Z</time>
      </trkpt>
      <trkpt lat="47.25911" lon="-2.3354">
        <ele>0.80000001192093</ele>
        <time>2022-08-21T07:11:39.000Z</time>
      </trkpt>
      <trkpt lat="47.25917" lon="-2.33536">
        <ele>0.40000000596046</ele>
        <time>2022-08-21T07:11:40.000Z</time>
      </trkpt>
      <trkpt lat="47.25922" lon="-2.33531">
        <ele>4.8</ele>
        <time>2022-08-21T07:11:41.000Z</time>
      </trkpt>
      <trkpt lat="47.25947" lon="-2.33509">
        <ele>3.9</ele>
        <time>2022-08-21T07:11:46.000Z</time>
      </trkpt>
      <trkpt lat="47.25952" lon="-2.33504">
        <ele>3.7</ele>
        <time>2022-08-21T07:11:47.000Z</time>
      </trkpt>
      <trkpt lat="47.2596" lon="-2.33495">
        <ele>-0.40000000596046</ele>
        <time>2022-08-21T07:11:49.000Z</time>
      </trkpt>
      <trkpt lat="47.25965" lon="-2.33493">
        <ele>-0.80000001192093</ele>
        <time>2022-08-21T07:11:50.000Z</time>
      </trkpt>
      <trkpt lat="47.2597" lon="-2.33493">
        <ele>-1.3999999761581</ele>
        <time>2022-08-21T07:11:51.000Z</time>
      </trkpt>
      <trkpt lat="47.25976" lon="-2.33493">
        <ele>-1.7999999523163</ele>
        <time>2022-08-21T07:11:52.000Z</time>
      </trkpt>
      <trkpt lat="47.25981" lon="-2.33493">
        <ele>-2.2000000476837</ele>
        <time>2022-08-21T07:11:53.000Z</time>
      </trkpt>
      <trkpt lat="47.25987" lon="-2.33492">
        <ele>-2.2000000476837</ele>
        <time>2022-08-21T07:11:54.000Z</time>
      </trkpt>
      <trkpt lat="47.26025" lon="-2.33483">
        <ele>-2.2000000476837</ele>
        <time>2022-08-21T07:12:01.000Z</time>
      </trkpt>
      <trkpt lat="47.26037" lon="-2.3347">
        <ele>-2.2000000476837</ele>
        <time>2022-08-21T07:12:04.000Z</time>
      </trkpt>
      <trkpt lat="47.26042" lon="-2.33458">
        <ele>-2.2000000476837</ele>
        <time>2022-08-21T07:12:06.000Z</time>
      </trkpt>
      <trkpt lat="47.26045" lon="-2.33452">
        <ele>-2.2000000476837</ele>
        <time>2022-08-21T07:12:07.000Z</time>
      </trkpt>
      <trkpt lat="47.26048" lon="-2.33447">
        <ele>-2.2000000476837</ele>
        <time>2022-08-21T07:12:08.000Z</time>
      </trkpt>
      <trkpt lat="47.26063" lon="-2.33427">
        <ele>-2.2000000476837</ele>
        <time>2022-08-21T07:12:12.000Z</time>
      </trkpt>
      <trkpt lat="47.26066" lon="-2.33419">
        <ele>-2.2000000476837</ele>
        <time>2022-08-21T07:12:13.000Z</time>
      </trkpt>
      <trkpt lat="47.26068" lon="-2.33413">
        <ele>-2.2000000476837</ele>
        <time>2022-08-21T07:12:14.000Z</time>
      </trkpt>
      <trkpt lat="47.26079" lon="-2.33398">
        <ele>-2.2000000476837</ele>
        <time>2022-08-21T07:12:17.000Z</time>
      </trkpt>
      <trkpt lat="47.26094" lon="-2.33396">
        <ele>-2.2000000476837</ele>
        <time>2022-08-21T07:12:20.000Z</time>
      </trkpt>
      <trkpt lat="47.2611" lon="-2.33411">
        <ele>-2.2000000476837</ele>
        <time>2022-08-21T07:12:24.000Z</time>
      </trkpt>
      <trkpt lat="47.26116" lon="-2.33422">
        <ele>-2.2000000476837</ele>
        <time>2022-08-21T07:12:26.000Z</time>
      </trkpt>
      <trkpt lat="47.2612" lon="-2.33428">
        <ele>-2.2000000476837</ele>
        <time>2022-08-21T07:12:27.000Z</time>
      </trkpt>
      <trkpt lat="47.26124" lon="-2.33432">
        <ele>-2.2000000476837</ele>
        <time>2022-08-21T07:12:28.000Z</time>
      </trkpt>
      <trkpt lat="47.26137" lon="-2.33435">
        <ele>-2.2000000476837</ele>
        <time>2022-08-21T07:12:31.000Z</time>
      </trkpt>
      <trkpt lat="47.2615" lon="-2.33432">
        <ele>-2.2000000476837</ele>
        <time>2022-08-21T07:12:34.000Z</time>
      </trkpt>
      <trkpt lat="47.26159" lon="-2.33436">
        <ele>-2.2000000476837</ele>
        <time>2022-08-21T07:12:36.000Z</time>
      </trkpt>
      <trkpt lat="47.26169" lon="-2.33439">
        <ele>-2.2000000476837</ele>
        <time>2022-08-21T07:12:38.000Z</time>
      </trkpt>
      <trkpt lat="47.26178" lon="-2.33441">
        <ele>-2.2000000476837</ele>
        <time>2022-08-21T07:12:40.000Z</time>
      </trkpt>
      <trkpt lat="47.26194" lon="-2.3344">
        <ele>-2.2000000476837</ele>
        <time>2022-08-21T07:12:43.000Z</time>
      </trkpt>
      <trkpt lat="47.26206" lon="-2.33438">
        <ele>-2.2000000476837</ele>
        <time>2022-08-21T07:12:45.000Z</time>
      </trkpt>
      <trkpt lat="47.26245" lon="-2.3343">
        <ele>-2.2000000476837</ele>
        <time>2022-08-21T07:12:52.000Z</time>
      </trkpt>
      <trkpt lat="47.26276" lon="-2.33423">
        <ele>-2.2000000476837</ele>
        <time>2022-08-21T07:12:58.000Z</time>
      </trkpt>
      <trkpt lat="47.26303" lon="-2.33418">
        <ele>-2.2000000476837</ele>
        <time>2022-08-21T07:13:03.000Z</time>
      </trkpt>
      <trkpt lat="47.26317" lon="-2.33406">
        <ele>-2.2000000476837</ele>
        <time>2022-08-21T07:13:06.000Z</time>
      </trkpt>
      <trkpt lat="47.26337" lon="-2.33392">
        <ele>-2.2000000476837</ele>
        <time>2022-08-21T07:13:10.000Z</time>
      </trkpt>
      <trkpt lat="47.26381" lon="-2.33371">
        <ele>-2.2000000476837</ele>
        <time>2022-08-21T07:13:18.000Z</time>
      </trkpt>
      <trkpt lat="47.26421" lon="-2.33344">
        <ele>-2.2000000476837</ele>
        <time>2022-08-21T07:13:26.000Z</time>
      </trkpt>
      <trkpt lat="47.26449" lon="-2.33322">
        <ele>-2.2000000476837</ele>
        <time>2022-08-21T07:13:32.000Z</time>
      </trkpt>
      <trkpt lat="47.26472" lon="-2.33303">
        <ele>-2.2000000476837</ele>
        <time>2022-08-21T07:13:37.000Z</time>
      </trkpt>
      <trkpt lat="47.26478" lon="-2.33294">
        <ele>-2.2000000476837</ele>
        <time>2022-08-21T07:13:39.000Z</time>
      </trkpt>
      <trkpt lat="47.26485" lon="-2.33268">
        <ele>-2.2000000476837</ele>
        <time>2022-08-21T07:13:44.000Z</time>
      </trkpt>
      <trkpt lat="47.26491" lon="-2.33253">
        <ele>-2.2000000476837</ele>
        <time>2022-08-21T07:13:47.000Z</time>
      </trkpt>
      <trkpt lat="47.26494" lon="-2.33249">
        <ele>-2.2000000476837</ele>
        <time>2022-08-21T07:13:48.000Z</time>
      </trkpt>
      <trkpt lat="47.26497" lon="-2.33244">
        <ele>-2.2000000476837</ele>
        <time>2022-08-21T07:13:49.000Z</time>
      </trkpt>
      <trkpt lat="47.26508" lon="-2.33234">
        <ele>-2.2000000476837</ele>
        <time>2022-08-21T07:13:52.000Z</time>
      </trkpt>
      <trkpt lat="47.26512" lon="-2.33231">
        <ele>-2.2000000476837</ele>
        <time>2022-08-21T07:13:53.000Z</time>
      </trkpt>
      <trkpt lat="47.2652" lon="-2.33225">
        <ele>-2.2000000476837</ele>
        <time>2022-08-21T07:13:55.000Z</time>
      </trkpt>
      <trkpt lat="47.26538" lon="-2.33215">
        <ele>-2.2000000476837</ele>
        <time>2022-08-21T07:13:59.000Z</time>
      </trkpt>
      <trkpt lat="47.26572" lon="-2.33194">
        <ele>-2.2000000476837</ele>
        <time>2022-08-21T07:14:06.000Z</time>
      </trkpt>
      <trkpt lat="47.26577" lon="-2.3319">
        <ele>-2.2000000476837</ele>
        <time>2022-08-21T07:14:07.000Z</time>
      </trkpt>
      <trkpt lat="47.26586" lon="-2.33172">
        <ele>-2.2000000476837</ele>
        <time>2022-08-21T07:14:10.000Z</time>
      </trkpt>
      <trkpt lat="47.26588" lon="-2.33165">
        <ele>-2.2000000476837</ele>
        <time>2022-08-21T07:14:11.000Z</time>
      </trkpt>
      <trkpt lat="47.26591" lon="-2.33152">
        <ele>-2.2000000476837</ele>
        <time>2022-08-21T07:14:13.000Z</time>
      </trkpt>
      <trkpt lat="47.26594" lon="-2.33148">
        <ele>-2.2000000476837</ele>
        <time>2022-08-21T07:14:14.000Z</time>
      </trkpt>
      <trkpt lat="47.26606" lon="-2.33143">
        <ele>-2.2000000476837</ele>
        <time>2022-08-21T07:14:17.000Z</time>
      </trkpt>
      <trkpt lat="47.26619" lon="-2.33148">
        <ele>-2.2000000476837</ele>
        <time>2022-08-21T07:14:20.000Z</time>
      </trkpt>
      <trkpt lat="47.26624" lon="-2.33149">
        <ele>-2.2000000476837</ele>
        <time>2022-08-21T07:14:21.000Z</time>
      </trkpt>
      <trkpt lat="47.26629" lon="-2.3315">
        <ele>-2.2000000476837</ele>
        <time>2022-08-21T07:14:22.000Z</time>
      </trkpt>
      <trkpt lat="47.26641" lon="-2.33142">
        <ele>-2.2000000476837</ele>
        <time>2022-08-21T07:14:25.000Z</time>
      </trkpt>
      <trkpt lat="47.26676" lon="-2.33113">
        <ele>-2.2000000476837</ele>
        <time>2022-08-21T07:14:33.000Z</time>
      </trkpt>
      <trkpt lat="47.26686" lon="-2.33105">
        <ele>-2.2000000476837</ele>
        <time>2022-08-21T07:14:35.000Z</time>
      </trkpt>
      <trkpt lat="47.26695" lon="-2.33097">
        <ele>-2.2000000476837</ele>
        <time>2022-08-21T07:14:37.000Z</time>
      </trkpt>
      <trkpt lat="47.26699" lon="-2.33092">
        <ele>-2.2000000476837</ele>
        <time>2022-08-21T07:14:38.000Z</time>
      </trkpt>
      <trkpt lat="47.26719" lon="-2.3307">
        <ele>-2.2000000476837</ele>
        <time>2022-08-21T07:14:43.000Z</time>
      </trkpt>
      <trkpt lat="47.26722" lon="-2.33064">
        <ele>-2.2000000476837</ele>
        <time>2022-08-21T07:14:44.000Z</time>
      </trkpt>
      <trkpt lat="47.26732" lon="-2.3304">
        <ele>-2.2000000476837</ele>
        <time>2022-08-21T07:14:48.000Z</time>
      </trkpt>
      <trkpt lat="47.26734" lon="-2.33018">
        <ele>-2.2000000476837</ele>
        <time>2022-08-21T07:14:52.000Z</time>
      </trkpt>
      <trkpt lat="47.26737" lon="-2.32993">
        <ele>-2.2000000476837</ele>
        <time>2022-08-21T07:14:56.000Z</time>
      </trkpt>
      <trkpt lat="47.2674" lon="-2.32987">
        <ele>-2.2000000476837</ele>
        <time>2022-08-21T07:14:57.000Z</time>
      </trkpt>
      <trkpt lat="47.26742" lon="-2.32981">
        <ele>-2.2000000476837</ele>
        <time>2022-08-21T07:14:58.000Z</time>
      </trkpt>
      <trkpt lat="47.26753" lon="-2.32965">
        <ele>-2.2000000476837</ele>
        <time>2022-08-21T07:15:01.000Z</time>
      </trkpt>
      <trkpt lat="47.26777" lon="-2.32937">
        <ele>-2.2000000476837</ele>
        <time>2022-08-21T07:15:07.000Z</time>
      </trkpt>
      <trkpt lat="47.2678" lon="-2.32932">
        <ele>-2.2000000476837</ele>
        <time>2022-08-21T07:15:08.000Z</time>
      </trkpt>
      <trkpt lat="47.26787" lon="-2.32924">
        <ele>-2.2000000476837</ele>
        <time>2022-08-21T07:15:10.000Z</time>
      </trkpt>
      <trkpt lat="47.26794" lon="-2.32919">
        <ele>-2.2000000476837</ele>
        <time>2022-08-21T07:15:12.000Z</time>
      </trkpt>
      <trkpt lat="47.26805" lon="-2.32911">
        <ele>-2.2000000476837</ele>
        <time>2022-08-21T07:15:15.000Z</time>
      </trkpt>
      <trkpt lat="47.2682" lon="-2.32894">
        <ele>-2.2000000476837</ele>
        <time>2022-08-21T07:15:20.000Z</time>
      </trkpt>
      <trkpt lat="47.26829" lon="-2.32889">
        <ele>-2.2000000476837</ele>
        <time>2022-08-21T07:15:22.000Z</time>
      </trkpt>
      <trkpt lat="47.26845" lon="-2.32883">
        <ele>-2.2000000476837</ele>
        <time>2022-08-21T07:15:25.000Z</time>
      </trkpt>
      <trkpt lat="47.26851" lon="-2.32879">
        <ele>-2.2000000476837</ele>
        <time>2022-08-21T07:15:26.000Z</time>
      </trkpt>
      <trkpt lat="47.26856" lon="-2.32869">
        <ele>-2.2000000476837</ele>
        <time>2022-08-21T07:15:28.000Z</time>
      </trkpt>
      <trkpt lat="47.26856" lon="-2.32851">
        <ele>-2.2000000476837</ele>
        <time>2022-08-21T07:15:31.000Z</time>
      </trkpt>
      <trkpt lat="47.26854" lon="-2.32842">
        <ele>-1.7999999523163</ele>
        <time>2022-08-21T07:15:33.000Z</time>
      </trkpt>
      <trkpt lat="47.26853" lon="-2.32838">
        <ele>-1.2000000476837</ele>
        <time>2022-08-21T07:15:34.000Z</time>
      </trkpt>
      <trkpt lat="47.26852" lon="-2.32833">
        <ele>-0.80000001192093</ele>
        <time>2022-08-21T07:15:35.000Z</time>
      </trkpt>
      <trkpt lat="47.26851" lon="-2.32828">
        <ele>-0.40000000596046</ele>
        <time>2022-08-21T07:15:36.000Z</time>
      </trkpt>
      <trkpt lat="47.26849" lon="-2.32824">
        <ele>9.1</ele>
        <time>2022-08-21T07:15:37.000Z</time>
      </trkpt>
      <trkpt lat="47.26848" lon="-2.3282">
        <ele>0.40000000596046</ele>
        <time>2022-08-21T07:15:38.000Z</time>
      </trkpt>
      <trkpt lat="47.26846" lon="-2.32816">
        <ele>0.80000001192093</ele>
        <time>2022-08-21T07:15:39.000Z</time>
      </trkpt>
      <trkpt lat="47.26845" lon="-2.32812">
        <ele>1.2000000476837</ele>
        <time>2022-08-21T07:15:40.000Z</time>
      </trkpt>
      <trkpt lat="47.26845" lon="-2.32807">
        <ele>1.6000000238419</ele>
        <time>2022-08-21T07:15:41.000Z</time>
      </trkpt>
      <trkpt lat="47.26844" lon="-2.32803">
        <ele>2.2000000476837</ele>
        <time>2022-08-21T07:15:42.000Z</time>
      </trkpt>
      <trkpt lat="47.26841" lon="-2.32794">
        <ele>2.5999999046326</ele>
        <time>2022-08-21T07:15:44.000Z</time>
      </trkpt>
      <trkpt lat="47.2684" lon="-2.3279">
        <ele>3</ele>
        <time>2022-08-21T07:15:45.000Z</time>
      </trkpt>
      <trkpt lat="47.26839" lon="-2.32786">
        <ele>3.4000000953674</ele>
        <time>2022-08-21T07:15:46.000Z</time>
      </trkpt>
      <trkpt lat="47.26838" lon="-2.32782">
        <ele>3.7999999523163</ele>
        <time>2022-08-21T07:15:47.000Z</time>
      </trkpt>
      <trkpt lat="47.26837" lon="-2.32778">
        <ele>4.1999998092651</ele>
        <time>2022-08-21T07:15:48.000Z</time>
      </trkpt>
      <trkpt lat="47.26834" lon="-2.32771">
        <ele>4.5999999046326</ele>
        <time>2022-08-21T07:15:50.000Z</time>
      </trkpt>
      <trkpt lat="47.26833" lon="-2.32767">
        <ele>5</ele>
        <time>2022-08-21T07:15:51.000Z</time>
      </trkpt>
      <trkpt lat="47.26832" lon="-2.32762">
        <ele>5.4000000953674</ele>
        <time>2022-08-21T07:15:52.000Z</time>
      </trkpt>
      <trkpt lat="47.2683" lon="-2.32758">
        <ele>5.8000001907349</ele>
        <time>2022-08-21T07:15:53.000Z</time>
      </trkpt>
      <trkpt lat="47.26829" lon="-2.32754">
        <ele>6.1999998092651</ele>
        <time>2022-08-21T07:15:54.000Z</time>
      </trkpt>
      <trkpt lat="47.26826" lon="-2.32746">
        <ele>6.5999999046326</ele>
        <time>2022-08-21T07:15:56.000Z</time>
      </trkpt>
      <trkpt lat="47.26824" lon="-2.32742">
        <ele>7.1999998092651</ele>
        <time>2022-08-21T07:15:57.000Z</time>
      </trkpt>
      <trkpt lat="47.26822" lon="-2.32738">
        <ele>7.5999999046326</ele>
        <time>2022-08-21T07:15:58.000Z</time>
      </trkpt>
      <trkpt lat="47.2682" lon="-2.32734">
        <ele>8</ele>
        <time>2022-08-21T07:15:59.000Z</time>
      </trkpt>
      <trkpt lat="47.26818" lon="-2.3273">
        <ele>8.6000003814697</ele>
        <time>2022-08-21T07:16:00.000Z</time>
      </trkpt>
      <trkpt lat="47.26809" lon="-2.32708">
        <ele>8.6000003814697</ele>
        <time>2022-08-21T07:16:05.000Z</time>
      </trkpt>
      <trkpt lat="47.26805" lon="-2.32699">
        <ele>9</ele>
        <time>2022-08-21T07:16:07.000Z</time>
      </trkpt>
      <trkpt lat="47.26803" lon="-2.32694">
        <ele>9.3999996185303</ele>
        <time>2022-08-21T07:16:08.000Z</time>
      </trkpt>
      <trkpt lat="47.26802" lon="-2.32688">
        <ele>9.8000001907349</ele>
        <time>2022-08-21T07:16:09.000Z</time>
      </trkpt>
      <trkpt lat="47.26801" lon="-2.32683">
        <ele>10.199999809265</ele>
        <time>2022-08-21T07:16:10.000Z</time>
      </trkpt>
      <trkpt lat="47.26802" lon="-2.32678">
        <ele>10.60000038147</ele>
        <time>2022-08-21T07:16:11.000Z</time>
      </trkpt>
      <trkpt lat="47.26807" lon="-2.3267">
        <ele>10.60000038147</ele>
        <time>2022-08-21T07:16:13.000Z</time>
      </trkpt>
      <trkpt lat="47.26809" lon="-2.32664">
        <ele>10.60000038147</ele>
        <time>2022-08-21T07:16:14.000Z</time>
      </trkpt>
      <trkpt lat="47.2681" lon="-2.3265">
        <ele>10.60000038147</ele>
        <time>2022-08-21T07:16:16.000Z</time>
      </trkpt>
      <trkpt lat="47.26808" lon="-2.32637">
        <ele>10.60000038147</ele>
        <time>2022-08-21T07:16:18.000Z</time>
      </trkpt>
      <trkpt lat="47.26805" lon="-2.32611">
        <ele>10.60000038147</ele>
        <time>2022-08-21T07:16:22.000Z</time>
      </trkpt>
      <trkpt lat="47.26799" lon="-2.32568">
        <ele>10.60000038147</ele>
        <time>2022-08-21T07:16:28.000Z</time>
      </trkpt>
      <trkpt lat="47.26799" lon="-2.32561">
        <ele>10.60000038147</ele>
        <time>2022-08-21T07:16:29.000Z</time>
      </trkpt>
      <trkpt lat="47.26795" lon="-2.3251">
        <ele>10.60000038147</ele>
        <time>2022-08-21T07:16:37.000Z</time>
      </trkpt>
      <trkpt lat="47.26793" lon="-2.32497">
        <ele>10.60000038147</ele>
        <time>2022-08-21T07:16:39.000Z</time>
      </trkpt>
      <trkpt lat="47.2679" lon="-2.32473">
        <ele>10.60000038147</ele>
        <time>2022-08-21T07:16:43.000Z</time>
      </trkpt>
      <trkpt lat="47.26789" lon="-2.32461">
        <ele>10.60000038147</ele>
        <time>2022-08-21T07:16:45.000Z</time>
      </trkpt>
      <trkpt lat="47.26785" lon="-2.32438">
        <ele>10.60000038147</ele>
        <time>2022-08-21T07:16:49.000Z</time>
      </trkpt>
      <trkpt lat="47.26781" lon="-2.32409">
        <ele>10.60000038147</ele>
        <time>2022-08-21T07:16:54.000Z</time>
      </trkpt>
      <trkpt lat="47.26779" lon="-2.3237">
        <ele>10.60000038147</ele>
        <time>2022-08-21T07:17:01.000Z</time>
      </trkpt>
      <trkpt lat="47.26792" lon="-2.32362">
        <ele>10.60000038147</ele>
        <time>2022-08-21T07:17:04.000Z</time>
      </trkpt>
      <trkpt lat="47.26797" lon="-2.3236">
        <ele>10.60000038147</ele>
        <time>2022-08-21T07:17:05.000Z</time>
      </trkpt>
      <trkpt lat="47.26819" lon="-2.32353">
        <ele>10.60000038147</ele>
        <time>2022-08-21T07:17:09.000Z</time>
      </trkpt>
      <trkpt lat="47.26825" lon="-2.32352">
        <ele>10.60000038147</ele>
        <time>2022-08-21T07:17:10.000Z</time>
      </trkpt>
      <trkpt lat="47.26831" lon="-2.32351">
        <ele>10</ele>
        <time>2022-08-21T07:17:11.000Z</time>
      </trkpt>
      <trkpt lat="47.26836" lon="-2.32351">
        <ele>9.6000003814697</ele>
        <time>2022-08-21T07:17:12.000Z</time>
      </trkpt>
      <trkpt lat="47.26843" lon="-2.3235">
        <ele>9.1999998092651</ele>
        <time>2022-08-21T07:17:13.000Z</time>
      </trkpt>
      <trkpt lat="47.2685" lon="-2.32348">
        <ele>8.6000003814697</ele>
        <time>2022-08-21T07:17:14.000Z</time>
      </trkpt>
      <trkpt lat="47.26857" lon="-2.32347">
        <ele>8.1999998092651</ele>
        <time>2022-08-21T07:17:15.000Z</time>
      </trkpt>
      <trkpt lat="47.26864" lon="-2.32345">
        <ele>7.5999999046326</ele>
        <time>2022-08-21T07:17:16.000Z</time>
      </trkpt>
      <trkpt lat="47.26871" lon="-2.32343">
        <ele>7.1999998092651</ele>
        <time>2022-08-21T07:17:17.000Z</time>
      </trkpt>
      <trkpt lat="47.26877" lon="-2.32342">
        <ele>6.5999999046326</ele>
        <time>2022-08-21T07:17:18.000Z</time>
      </trkpt>
      <trkpt lat="47.26883" lon="-2.32341">
        <ele>6.1999998092651</ele>
        <time>2022-08-21T07:17:19.000Z</time>
      </trkpt>
      <trkpt lat="47.26895" lon="-2.32339">
        <ele>5.5999999046326</ele>
        <time>2022-08-21T07:17:21.000Z</time>
      </trkpt>
      <trkpt lat="47.269" lon="-2.32338">
        <ele>5.1999998092651</ele>
        <time>2022-08-21T07:17:22.000Z</time>
      </trkpt>
      <trkpt lat="47.26906" lon="-2.32335">
        <ele>4.8000001907349</ele>
        <time>2022-08-21T07:17:23.000Z</time>
      </trkpt>
      <trkpt lat="47.2691" lon="-2.32331">
        <ele>4.4000000953674</ele>
        <time>2022-08-21T07:17:24.000Z</time>
      </trkpt>
      <trkpt lat="47.26913" lon="-2.32326">
        <ele>3.7999999523163</ele>
        <time>2022-08-21T07:17:25.000Z</time>
      </trkpt>
      <trkpt lat="47.26914" lon="-2.32313">
        <ele>3.7999999523163</ele>
        <time>2022-08-21T07:17:27.000Z</time>
      </trkpt>
      <trkpt lat="47.26906" lon="-2.32291">
        <ele>3.7999999523163</ele>
        <time>2022-08-21T07:17:31.000Z</time>
      </trkpt>
      <trkpt lat="47.26887" lon="-2.32249">
        <ele>3.7999999523163</ele>
        <time>2022-08-21T07:17:39.000Z</time>
      </trkpt>
      <trkpt lat="47.26879" lon="-2.32236">
        <ele>3.7999999523163</ele>
        <time>2022-08-21T07:17:42.000Z</time>
      </trkpt>
      <trkpt lat="47.26871" lon="-2.3222">
        <ele>3.7999999523163</ele>
        <time>2022-08-21T07:17:45.000Z</time>
      </trkpt>
      <trkpt lat="47.26863" lon="-2.32204">
        <ele>3.7999999523163</ele>
        <time>2022-08-21T07:17:48.000Z</time>
      </trkpt>
      <trkpt lat="47.26852" lon="-2.32183">
        <ele>4.1999998092651</ele>
        <time>2022-08-21T07:17:52.000Z</time>
      </trkpt>
      <trkpt lat="47.2685" lon="-2.32178">
        <ele>4.8000001907349</ele>
        <time>2022-08-21T07:17:53.000Z</time>
      </trkpt>
      <trkpt lat="47.26848" lon="-2.32173">
        <ele>5.1999998092651</ele>
        <time>2022-08-21T07:17:54.000Z</time>
      </trkpt>
      <trkpt lat="47.26846" lon="-2.32167">
        <ele>5.5999999046326</ele>
        <time>2022-08-21T07:17:55.000Z</time>
      </trkpt>
      <trkpt lat="47.26844" lon="-2.32161">
        <ele>6</ele>
        <time>2022-08-21T07:17:56.000Z</time>
      </trkpt>
      <trkpt lat="47.26842" lon="-2.32156">
        <ele>6</ele>
        <time>2022-08-21T07:17:57.000Z</time>
      </trkpt>
      <trkpt lat="47.26839" lon="-2.32143">
        <ele>6</ele>
        <time>2022-08-21T07:17:59.000Z</time>
      </trkpt>
      <trkpt lat="47.26833" lon="-2.32118">
        <ele>6</ele>
        <time>2022-08-21T07:18:03.000Z</time>
      </trkpt>
      <trkpt lat="47.26826" lon="-2.32094">
        <ele>6</ele>
        <time>2022-08-21T07:18:07.000Z</time>
      </trkpt>
      <trkpt lat="47.26822" lon="-2.32075">
        <ele>6</ele>
        <time>2022-08-21T07:18:10.000Z</time>
      </trkpt>
      <trkpt lat="47.26817" lon="-2.32057">
        <ele>6.4000000953674</ele>
        <time>2022-08-21T07:18:13.000Z</time>
      </trkpt>
      <trkpt lat="47.26815" lon="-2.32051">
        <ele>6.8000001907349</ele>
        <time>2022-08-21T07:18:14.000Z</time>
      </trkpt>
      <trkpt lat="47.26814" lon="-2.32045">
        <ele>7.4000000953674</ele>
        <time>2022-08-21T07:18:15.000Z</time>
      </trkpt>
      <trkpt lat="47.26812" lon="-2.32038">
        <ele>7.8000001907349</ele>
        <time>2022-08-21T07:18:16.000Z</time>
      </trkpt>
      <trkpt lat="47.2681" lon="-2.32032">
        <ele>8.1999998092651</ele>
        <time>2022-08-21T07:18:17.000Z</time>
      </trkpt>
      <trkpt lat="47.26806" lon="-2.32021">
        <ele>8.1999998092651</ele>
        <time>2022-08-21T07:18:19.000Z</time>
      </trkpt>
      <trkpt lat="47.26799" lon="-2.32006">
        <ele>8.1999998092651</ele>
        <time>2022-08-21T07:18:22.000Z</time>
      </trkpt>
      <trkpt lat="47.2679" lon="-2.31991">
        <ele>8.1999998092651</ele>
        <time>2022-08-21T07:18:25.000Z</time>
      </trkpt>
      <trkpt lat="47.26783" lon="-2.31977">
        <ele>8.6000003814697</ele>
        <time>2022-08-21T07:18:28.000Z</time>
      </trkpt>
      <trkpt lat="47.26781" lon="-2.31973">
        <ele>9</ele>
        <time>2022-08-21T07:18:29.000Z</time>
      </trkpt>
      <trkpt lat="47.26779" lon="-2.31969">
        <ele>9.3999996185303</ele>
        <time>2022-08-21T07:18:30.000Z</time>
      </trkpt>
      <trkpt lat="47.26777" lon="-2.31964">
        <ele>9.8000001907349</ele>
        <time>2022-08-21T07:18:31.000Z</time>
      </trkpt>
      <trkpt lat="47.26775" lon="-2.3196">
        <ele>10.199999809265</ele>
        <time>2022-08-21T07:18:32.000Z</time>
      </trkpt>
      <trkpt lat="47.26765" lon="-2.31947">
        <ele>10.199999809265</ele>
        <time>2022-08-21T07:18:36.000Z</time>
      </trkpt>
      <trkpt lat="47.26757" lon="-2.31956">
        <ele>10.199999809265</ele>
        <time>2022-08-21T07:18:39.000Z</time>
      </trkpt>
      <trkpt lat="47.26755" lon="-2.3196">
        <ele>10.60000038147</ele>
        <time>2022-08-21T07:18:40.000Z</time>
      </trkpt>
      <trkpt lat="47.26753" lon="-2.31964">
        <ele>11</ele>
        <time>2022-08-21T07:18:41.000Z</time>
      </trkpt>
      <trkpt lat="47.26751" lon="-2.31968">
        <ele>11.39999961853</ele>
        <time>2022-08-21T07:18:42.000Z</time>
      </trkpt>
      <trkpt lat="47.26749" lon="-2.31972">
        <ele>11.800000190735</ele>
        <time>2022-08-21T07:18:43.000Z</time>
      </trkpt>
      <trkpt lat="47.26746" lon="-2.31975">
        <ele>12.39999961853</ele>
        <time>2022-08-21T07:18:44.000Z</time>
      </trkpt>
      <trkpt lat="47.26743" lon="-2.31979">
        <ele>12.39999961853</ele>
        <time>2022-08-21T07:18:45.000Z</time>
      </trkpt>
      <trkpt lat="47.26739" lon="-2.31981">
        <ele>12.39999961853</ele>
        <time>2022-08-21T07:18:46.000Z</time>
      </trkpt>
      <trkpt lat="47.26724" lon="-2.31992">
        <ele>12.39999961853</ele>
        <time>2022-08-21T07:18:50.000Z</time>
      </trkpt>
      <trkpt lat="47.26704" lon="-2.32005">
        <ele>12.39999961853</ele>
        <time>2022-08-21T07:18:56.000Z</time>
      </trkpt>
      <trkpt lat="47.26702" lon="-2.32009">
        <ele>12.800000190735</ele>
        <time>2022-08-21T07:18:57.000Z</time>
      </trkpt>
      <trkpt lat="47.267" lon="-2.32012">
        <ele>13.199999809265</ele>
        <time>2022-08-21T07:18:58.000Z</time>
      </trkpt>
      <trkpt lat="47.26697" lon="-2.32016">
        <ele>13.60000038147</ele>
        <time>2022-08-21T07:18:59.000Z</time>
      </trkpt>
      <trkpt lat="47.26695" lon="-2.32021">
        <ele>14.199999809265</ele>
        <time>2022-08-21T07:19:00.000Z</time>
      </trkpt>
      <trkpt lat="47.26693" lon="-2.32025">
        <ele>14.60000038147</ele>
        <time>2022-08-21T07:19:01.000Z</time>
      </trkpt>
      <trkpt lat="47.26686" lon="-2.32045">
        <ele>14.60000038147</ele>
        <time>2022-08-21T07:19:05.000Z</time>
      </trkpt>
      <trkpt lat="47.26685" lon="-2.32074">
        <ele>14.60000038147</ele>
        <time>2022-08-21T07:19:10.000Z</time>
      </trkpt>
      <trkpt lat="47.26684" lon="-2.32087">
        <ele>14.60000038147</ele>
        <time>2022-08-21T07:19:12.000Z</time>
      </trkpt>
      <trkpt lat="47.26683" lon="-2.32099">
        <ele>14.60000038147</ele>
        <time>2022-08-21T07:19:14.000Z</time>
      </trkpt>
      <trkpt lat="47.26683" lon="-2.32112">
        <ele>14.60000038147</ele>
        <time>2022-08-21T07:19:16.000Z</time>
      </trkpt>
      <trkpt lat="47.2668" lon="-2.32125">
        <ele>14.60000038147</ele>
        <time>2022-08-21T07:19:19.000Z</time>
      </trkpt>
      <trkpt lat="47.26678" lon="-2.32127">
        <ele>14.60000038147</ele>
        <time>2022-08-21T07:19:20.000Z</time>
      </trkpt>
      <trkpt lat="47.26672" lon="-2.32122">
        <ele>14.60000038147</ele>
        <time>2022-08-21T07:19:23.000Z</time>
      </trkpt>
      <trkpt lat="47.2667" lon="-2.32112">
        <ele>14.60000038147</ele>
        <time>2022-08-21T07:19:25.000Z</time>
      </trkpt>
      <trkpt lat="47.26665" lon="-2.32088">
        <ele>14.60000038147</ele>
        <time>2022-08-21T07:19:29.000Z</time>
      </trkpt>
      <trkpt lat="47.26654" lon="-2.32039">
        <ele>14.60000038147</ele>
        <time>2022-08-21T07:19:37.000Z</time>
      </trkpt>
      <trkpt lat="47.26645" lon="-2.32009">
        <ele>14.60000038147</ele>
        <time>2022-08-21T07:19:42.000Z</time>
      </trkpt>
      <trkpt lat="47.26642" lon="-2.32006">
        <ele>14.60000038147</ele>
        <time>2022-08-21T07:19:43.000Z</time>
      </trkpt>
      <trkpt lat="47.2663" lon="-2.32006">
        <ele>14.60000038147</ele>
        <time>2022-08-21T07:19:46.000Z</time>
      </trkpt>
      <trkpt lat="47.26622" lon="-2.32011">
        <ele>14.60000038147</ele>
        <time>2022-08-21T07:19:48.000Z</time>
      </trkpt>
      <trkpt lat="47.26613" lon="-2.32015">
        <ele>14.60000038147</ele>
        <time>2022-08-21T07:19:50.000Z</time>
      </trkpt>
      <trkpt lat="47.26609" lon="-2.32017">
        <ele>14.60000038147</ele>
        <time>2022-08-21T07:19:51.000Z</time>
      </trkpt>
      <trkpt lat="47.26574" lon="-2.3203">
        <ele>14.60000038147</ele>
        <time>2022-08-21T07:19:58.000Z</time>
      </trkpt>
      <trkpt lat="47.26549" lon="-2.32039">
        <ele>14.60000038147</ele>
        <time>2022-08-21T07:20:03.000Z</time>
      </trkpt>
      <trkpt lat="47.26543" lon="-2.32036">
        <ele>14.60000038147</ele>
        <time>2022-08-21T07:20:05.000Z</time>
      </trkpt>
      <trkpt lat="47.26542" lon="-2.32032">
        <ele>14.60000038147</ele>
        <time>2022-08-21T07:20:06.000Z</time>
      </trkpt>
      <trkpt lat="47.26541" lon="-2.32028">
        <ele>14.199999809265</ele>
        <time>2022-08-21T07:20:07.000Z</time>
      </trkpt>
      <trkpt lat="47.2654" lon="-2.32023">
        <ele>13.800000190735</ele>
        <time>2022-08-21T07:20:08.000Z</time>
      </trkpt>
      <trkpt lat="47.26539" lon="-2.32018">
        <ele>13.39999961853</ele>
        <time>2022-08-21T07:20:09.000Z</time>
      </trkpt>
      <trkpt lat="47.26537" lon="-2.32015">
        <ele>13</ele>
        <time>2022-08-21T07:20:10.000Z</time>
      </trkpt>
      <trkpt lat="47.26535" lon="-2.32011">
        <ele>12.39999961853</ele>
        <time>2022-08-21T07:20:11.000Z</time>
      </trkpt>
      <trkpt lat="47.26533" lon="-2.32007">
        <ele>12.39999961853</ele>
        <time>2022-08-21T07:20:12.000Z</time>
      </trkpt>
      <trkpt lat="47.26522" lon="-2.32">
        <ele>12.39999961853</ele>
        <time>2022-08-21T07:20:15.000Z</time>
      </trkpt>
      <trkpt lat="47.26512" lon="-2.31999">
        <ele>12</ele>
        <time>2022-08-21T07:20:18.000Z</time>
      </trkpt>
      <trkpt lat="47.26507" lon="-2.32">
        <ele>11.60000038147</ele>
        <time>2022-08-21T07:20:19.000Z</time>
      </trkpt>
      <trkpt lat="47.26502" lon="-2.31999">
        <ele>11.199999809265</ele>
        <time>2022-08-21T07:20:20.000Z</time>
      </trkpt>
      <trkpt lat="47.26496" lon="-2.32">
        <ele>10.800000190735</ele>
        <time>2022-08-21T07:20:21.000Z</time>
      </trkpt>
      <trkpt lat="47.26491" lon="-2.32">
        <ele>10.199999809265</ele>
        <time>2022-08-21T07:20:22.000Z</time>
      </trkpt>
      <trkpt lat="47.26487" lon="-2.32001">
        <ele>9.6000003814697</ele>
        <time>2022-08-21T07:20:23.000Z</time>
      </trkpt>
      <trkpt lat="47.26482" lon="-2.32001">
        <ele>9.1999998092651</ele>
        <time>2022-08-21T07:20:24.000Z</time>
      </trkpt>
      <trkpt lat="47.26479" lon="-2.32003">
        <ele>8.6000003814697</ele>
        <time>2022-08-21T07:20:25.000Z</time>
      </trkpt>
      <trkpt lat="47.26474" lon="-2.32004">
        <ele>8</ele>
        <time>2022-08-21T07:20:26.000Z</time>
      </trkpt>
      <trkpt lat="47.26463" lon="-2.32003">
        <ele>7.5999999046326</ele>
        <time>2022-08-21T07:20:28.000Z</time>
      </trkpt>
      <trkpt lat="47.26458" lon="-2.32002">
        <ele>7.1999998092651</ele>
        <time>2022-08-21T07:20:29.000Z</time>
      </trkpt>
      <trkpt lat="47.26453" lon="-2.32001">
        <ele>6.8000001907349</ele>
        <time>2022-08-21T07:20:30.000Z</time>
      </trkpt>
      <trkpt lat="47.26447" lon="-2.32001">
        <ele>6.4000000953674</ele>
        <time>2022-08-21T07:20:31.000Z</time>
      </trkpt>
      <trkpt lat="47.26442" lon="-2.32">
        <ele>5.8000001907349</ele>
        <time>2022-08-21T07:20:32.000Z</time>
      </trkpt>
      <trkpt lat="47.26429" lon="-2.31997">
        <ele>5.4000000953674</ele>
        <time>2022-08-21T07:20:34.000Z</time>
      </trkpt>
      <trkpt lat="47.26423" lon="-2.31995">
        <ele>5</ele>
        <time>2022-08-21T07:20:35.000Z</time>
      </trkpt>
      <trkpt lat="47.26418" lon="-2.31994">
        <ele>4.5999999046326</ele>
        <time>2022-08-21T07:20:36.000Z</time>
      </trkpt>
      <trkpt lat="47.26411" lon="-2.31992">
        <ele>4.1999998092651</ele>
        <time>2022-08-21T07:20:37.000Z</time>
      </trkpt>
      <trkpt lat="47.26405" lon="-2.3199">
        <ele>3.7999999523163</ele>
        <time>2022-08-21T07:20:38.000Z</time>
      </trkpt>
      <trkpt lat="47.26399" lon="-2.3199">
        <ele>3.7999999523163</ele>
        <time>2022-08-21T07:20:39.000Z</time>
      </trkpt>
      <trkpt lat="47.26393" lon="-2.3199">
        <ele>3.4000000953674</ele>
        <time>2022-08-21T07:20:40.000Z</time>
      </trkpt>
      <trkpt lat="47.26388" lon="-2.3199">
        <ele>2.7999999523163</ele>
        <time>2022-08-21T07:20:41.000Z</time>
      </trkpt>
      <trkpt lat="47.26382" lon="-2.3199">
        <ele>2.4000000953674</ele>
        <time>2022-08-21T07:20:42.000Z</time>
      </trkpt>
      <trkpt lat="47.26377" lon="-2.31988">
        <ele>1.7999999523163</ele>
        <time>2022-08-21T07:20:43.000Z</time>
      </trkpt>
      <trkpt lat="47.26373" lon="-2.31984">
        <ele>1.3999999761581</ele>
        <time>2022-08-21T07:20:44.000Z</time>
      </trkpt>
      <trkpt lat="47.26364" lon="-2.31965">
        <ele>1.3999999761581</ele>
        <time>2022-08-21T07:20:47.000Z</time>
      </trkpt>
      <trkpt lat="47.26362" lon="-2.3196">
        <ele>1</ele>
        <time>2022-08-21T07:20:48.000Z</time>
      </trkpt>
      <trkpt lat="47.26359" lon="-2.31953">
        <ele>0.40000000596046</ele>
        <time>2022-08-21T07:20:49.000Z</time>
      </trkpt>
      <trkpt lat="47.26355" lon="-2.31949">
        <ele>6.6</ele>
        <time>2022-08-21T07:20:50.000Z</time>
      </trkpt>
      <trkpt lat="47.26351" lon="-2.31946">
        <ele>-0.80000001192093</ele>
        <time>2022-08-21T07:20:51.000Z</time>
      </trkpt>
      <trkpt lat="47.26347" lon="-2.31944">
        <ele>-0.80000001192093</ele>
        <time>2022-08-21T07:20:52.000Z</time>
      </trkpt>
      <trkpt lat="47.26338" lon="-2.31943">
        <ele>-0.80000001192093</ele>
        <time>2022-08-21T07:20:54.000Z</time>
      </trkpt>
      <trkpt lat="47.26329" lon="-2.31943">
        <ele>-0.80000001192093</ele>
        <time>2022-08-21T07:20:56.000Z</time>
      </trkpt>
      <trkpt lat="47.26313" lon="-2.31938">
        <ele>-0.80000001192093</ele>
        <time>2022-08-21T07:21:00.000Z</time>
      </trkpt>
      <trkpt lat="47.26309" lon="-2.3192">
        <ele>-0.80000001192093</ele>
        <time>2022-08-21T07:21:04.000Z</time>
      </trkpt>
      <trkpt lat="47.26305" lon="-2.31892">
        <ele>-0.80000001192093</ele>
        <time>2022-08-21T07:21:09.000Z</time>
      </trkpt>
      <trkpt lat="47.26303" lon="-2.31855">
        <ele>-0.80000001192093</ele>
        <time>2022-08-21T07:21:14.000Z</time>
      </trkpt>
      <trkpt lat="47.26303" lon="-2.31826">
        <ele>-0.80000001192093</ele>
        <time>2022-08-21T07:21:18.000Z</time>
      </trkpt>
      <trkpt lat="47.26302" lon="-2.31805">
        <ele>-0.80000001192093</ele>
        <time>2022-08-21T07:21:21.000Z</time>
      </trkpt>
      <trkpt lat="47.26298" lon="-2.31764">
        <ele>-0.80000001192093</ele>
        <time>2022-08-21T07:21:27.000Z</time>
      </trkpt>
      <trkpt lat="47.26297" lon="-2.31757">
        <ele>-0.80000001192093</ele>
        <time>2022-08-21T07:21:28.000Z</time>
      </trkpt>
      <trkpt lat="47.26298" lon="-2.31737">
        <ele>-0.80000001192093</ele>
        <time>2022-08-21T07:21:31.000Z</time>
      </trkpt>
      <trkpt lat="47.26309" lon="-2.31722">
        <ele>-0.80000001192093</ele>
        <time>2022-08-21T07:21:34.000Z</time>
      </trkpt>
      <trkpt lat="47.26312" lon="-2.3172">
        <ele>-0.80000001192093</ele>
        <time>2022-08-21T07:21:35.000Z</time>
      </trkpt>
      <trkpt lat="47.26326" lon="-2.31711">
        <ele>-0.80000001192093</ele>
        <time>2022-08-21T07:21:39.000Z</time>
      </trkpt>
      <trkpt lat="47.26334" lon="-2.31706">
        <ele>-0.80000001192093</ele>
        <time>2022-08-21T07:21:41.000Z</time>
      </trkpt>
      <trkpt lat="47.26341" lon="-2.31702">
        <ele>-0.80000001192093</ele>
        <time>2022-08-21T07:21:43.000Z</time>
      </trkpt>
      <trkpt lat="47.26359" lon="-2.31689">
        <ele>-0.80000001192093</ele>
        <time>2022-08-21T07:21:48.000Z</time>
      </trkpt>
      <trkpt lat="47.26374" lon="-2.31678">
        <ele>-0.40000000596046</ele>
        <time>2022-08-21T07:21:52.000Z</time>
      </trkpt>
      <trkpt lat="47.26379" lon="-2.31676">
        <ele>7.7</ele>
        <time>2022-08-21T07:21:53.000Z</time>
      </trkpt>
      <trkpt lat="47.26382" lon="-2.31673">
        <ele>0.40000000596046</ele>
        <time>2022-08-21T07:21:54.000Z</time>
      </trkpt>
      <trkpt lat="47.26387" lon="-2.3167">
        <ele>0.80000001192093</ele>
        <time>2022-08-21T07:21:55.000Z</time>
      </trkpt>
      <trkpt lat="47.26391" lon="-2.31668">
        <ele>1.2000000476837</ele>
        <time>2022-08-21T07:21:56.000Z</time>
      </trkpt>
      <trkpt lat="47.26395" lon="-2.31666">
        <ele>1.2000000476837</ele>
        <time>2022-08-21T07:21:57.000Z</time>
      </trkpt>
      <trkpt lat="47.26408" lon="-2.31659">
        <ele>1.2000000476837</ele>
        <time>2022-08-21T07:22:00.000Z</time>
      </trkpt>
      <trkpt lat="47.26434" lon="-2.31653">
        <ele>1.2000000476837</ele>
        <time>2022-08-21T07:22:06.000Z</time>
      </trkpt>
      <trkpt lat="47.26437" lon="-2.31652">
        <ele>1.6000000238419</ele>
        <time>2022-08-21T07:22:07.000Z</time>
      </trkpt>
      <trkpt lat="47.26441" lon="-2.31651">
        <ele>2</ele>
        <time>2022-08-21T07:22:08.000Z</time>
      </trkpt>
      <trkpt lat="47.26445" lon="-2.31651">
        <ele>2.4000000953674</ele>
        <time>2022-08-21T07:22:09.000Z</time>
      </trkpt>
      <trkpt lat="47.26449" lon="-2.3165">
        <ele>2.7999999523163</ele>
        <time>2022-08-21T07:22:10.000Z</time>
      </trkpt>
      <trkpt lat="47.26454" lon="-2.31649">
        <ele>3.2000000476837</ele>
        <time>2022-08-21T07:22:11.000Z</time>
      </trkpt>
      <trkpt lat="47.26473" lon="-2.31645">
        <ele>3.2000000476837</ele>
        <time>2022-08-21T07:22:16.000Z</time>
      </trkpt>
      <trkpt lat="47.26489" lon="-2.31641">
        <ele>3.5999999046326</ele>
        <time>2022-08-21T07:22:20.000Z</time>
      </trkpt>
      <trkpt lat="47.26493" lon="-2.3164">
        <ele>4</ele>
        <time>2022-08-21T07:22:21.000Z</time>
      </trkpt>
      <trkpt lat="47.26497" lon="-2.31639">
        <ele>4.4000000953674</ele>
        <time>2022-08-21T07:22:22.000Z</time>
      </trkpt>
      <trkpt lat="47.26502" lon="-2.31637">
        <ele>4.8000001907349</ele>
        <time>2022-08-21T07:22:23.000Z</time>
      </trkpt>
      <trkpt lat="47.26506" lon="-2.31636">
        <ele>5.1999998092651</ele>
        <time>2022-08-21T07:22:24.000Z</time>
      </trkpt>
      <trkpt lat="47.26519" lon="-2.31632">
        <ele>5.1999998092651</ele>
        <time>2022-08-21T07:22:27.000Z</time>
      </trkpt>
      <trkpt lat="47.26527" lon="-2.31628">
        <ele>5.5999999046326</ele>
        <time>2022-08-21T07:22:29.000Z</time>
      </trkpt>
      <trkpt lat="47.26531" lon="-2.31626">
        <ele>6.5999999046326</ele>
        <time>2022-08-21T07:22:30.000Z</time>
      </trkpt>
      <trkpt lat="47.26534" lon="-2.31623">
        <ele>7</ele>
        <time>2022-08-21T07:22:31.000Z</time>
      </trkpt>
      <trkpt lat="47.26538" lon="-2.31621">
        <ele>7.4000000953674</ele>
        <time>2022-08-21T07:22:32.000Z</time>
      </trkpt>
      <trkpt lat="47.26543" lon="-2.31618">
        <ele>7.4000000953674</ele>
        <time>2022-08-21T07:22:33.000Z</time>
      </trkpt>
      <trkpt lat="47.26558" lon="-2.31608">
        <ele>7.8000001907349</ele>
        <time>2022-08-21T07:22:37.000Z</time>
      </trkpt>
      <trkpt lat="47.26562" lon="-2.31606">
        <ele>8.1999998092651</ele>
        <time>2022-08-21T07:22:38.000Z</time>
      </trkpt>
      <trkpt lat="47.26565" lon="-2.31603">
        <ele>8.6000003814697</ele>
        <time>2022-08-21T07:22:39.000Z</time>
      </trkpt>
      <trkpt lat="47.26568" lon="-2.31601">
        <ele>9</ele>
        <time>2022-08-21T07:22:40.000Z</time>
      </trkpt>
      <trkpt lat="47.26571" lon="-2.31599">
        <ele>9.6000003814697</ele>
        <time>2022-08-21T07:22:41.000Z</time>
      </trkpt>
      <trkpt lat="47.26585" lon="-2.31588">
        <ele>10</ele>
        <time>2022-08-21T07:22:45.000Z</time>
      </trkpt>
      <trkpt lat="47.26588" lon="-2.31586">
        <ele>10.39999961853</ele>
        <time>2022-08-21T07:22:46.000Z</time>
      </trkpt>
      <trkpt lat="47.26591" lon="-2.31584">
        <ele>10.800000190735</ele>
        <time>2022-08-21T07:22:47.000Z</time>
      </trkpt>
      <trkpt lat="47.26594" lon="-2.31582">
        <ele>11.199999809265</ele>
        <time>2022-08-21T07:22:48.000Z</time>
      </trkpt>
      <trkpt lat="47.26597" lon="-2.3158">
        <ele>11.60000038147</ele>
        <time>2022-08-21T07:22:49.000Z</time>
      </trkpt>
      <trkpt lat="47.26611" lon="-2.31571">
        <ele>12.199999809265</ele>
        <time>2022-08-21T07:22:53.000Z</time>
      </trkpt>
      <trkpt lat="47.26614" lon="-2.31569">
        <ele>13</ele>
        <time>2022-08-21T07:22:54.000Z</time>
      </trkpt>
      <trkpt lat="47.26617" lon="-2.31567">
        <ele>13.39999961853</ele>
        <time>2022-08-21T07:22:55.000Z</time>
      </trkpt>
      <trkpt lat="47.2662" lon="-2.31565">
        <ele>14</ele>
        <time>2022-08-21T07:22:56.000Z</time>
      </trkpt>
      <trkpt lat="47.26629" lon="-2.31557">
        <ele>14</ele>
        <time>2022-08-21T07:23:00.000Z</time>
      </trkpt>
      <trkpt lat="47.2663" lon="-2.31554">
        <ele>14.39999961853</ele>
        <time>2022-08-21T07:23:01.000Z</time>
      </trkpt>
      <trkpt lat="47.26631" lon="-2.31552">
        <ele>14.800000190735</ele>
        <time>2022-08-21T07:23:02.000Z</time>
      </trkpt>
      <trkpt lat="47.26631" lon="-2.31549">
        <ele>15.199999809265</ele>
        <time>2022-08-21T07:23:03.000Z</time>
      </trkpt>
      <trkpt lat="47.26631" lon="-2.31546">
        <ele>15.60000038147</ele>
        <time>2022-08-21T07:23:04.000Z</time>
      </trkpt>
      <trkpt lat="47.2663" lon="-2.31544">
        <ele>16</ele>
        <time>2022-08-21T07:23:05.000Z</time>
      </trkpt>
      <trkpt lat="47.26623" lon="-2.31532">
        <ele>16</ele>
        <time>2022-08-21T07:23:09.000Z</time>
      </trkpt>
      <trkpt lat="47.26613" lon="-2.31505">
        <ele>16</ele>
        <time>2022-08-21T07:23:16.000Z</time>
      </trkpt>
      <trkpt lat="47.26608" lon="-2.31481">
        <ele>16</ele>
        <time>2022-08-21T07:23:22.000Z</time>
      </trkpt>
      <trkpt lat="47.2662" lon="-2.31469">
        <ele>16.39999961853</ele>
        <time>2022-08-21T07:23:26.000Z</time>
      </trkpt>
      <trkpt lat="47.26623" lon="-2.31465">
        <ele>16.799999237061</ele>
        <time>2022-08-21T07:23:27.000Z</time>
      </trkpt>
      <trkpt lat="47.26627" lon="-2.31462">
        <ele>17.200000762939</ele>
        <time>2022-08-21T07:23:28.000Z</time>
      </trkpt>
      <trkpt lat="47.2663" lon="-2.31459">
        <ele>17.60000038147</ele>
        <time>2022-08-21T07:23:29.000Z</time>
      </trkpt>
      <trkpt lat="47.26633" lon="-2.31456">
        <ele>18</ele>
        <time>2022-08-21T07:23:30.000Z</time>
      </trkpt>
      <trkpt lat="47.26638" lon="-2.31451">
        <ele>18</ele>
        <time>2022-08-21T07:23:32.000Z</time>
      </trkpt>
      <trkpt lat="47.26659" lon="-2.31438">
        <ele>18</ele>
        <time>2022-08-21T07:23:38.000Z</time>
      </trkpt>
      <trkpt lat="47.26663" lon="-2.31436">
        <ele>18.39999961853</ele>
        <time>2022-08-21T07:23:39.000Z</time>
      </trkpt>
      <trkpt lat="47.26667" lon="-2.31433">
        <ele>18.799999237061</ele>
        <time>2022-08-21T07:23:40.000Z</time>
      </trkpt>
      <trkpt lat="47.2667" lon="-2.31431">
        <ele>19.39999961853</ele>
        <time>2022-08-21T07:23:41.000Z</time>
      </trkpt>
      <trkpt lat="47.26674" lon="-2.31429">
        <ele>19.799999237061</ele>
        <time>2022-08-21T07:23:42.000Z</time>
      </trkpt>
      <trkpt lat="47.26677" lon="-2.31427">
        <ele>20.200000762939</ele>
        <time>2022-08-21T07:23:43.000Z</time>
      </trkpt>
      <trkpt lat="47.26703" lon="-2.31413">
        <ele>20.200000762939</ele>
        <time>2022-08-21T07:23:49.000Z</time>
      </trkpt>
      <trkpt lat="47.26723" lon="-2.31401">
        <ele>20.60000038147</ele>
        <time>2022-08-21T07:23:54.000Z</time>
      </trkpt>
      <trkpt lat="47.26727" lon="-2.31398">
        <ele>21</ele>
        <time>2022-08-21T07:23:55.000Z</time>
      </trkpt>
      <trkpt lat="47.26731" lon="-2.31396">
        <ele>21.39999961853</ele>
        <time>2022-08-21T07:23:56.000Z</time>
      </trkpt>
      <trkpt lat="47.26735" lon="-2.31393">
        <ele>21.799999237061</ele>
        <time>2022-08-21T07:23:57.000Z</time>
      </trkpt>
      <trkpt lat="47.2674" lon="-2.31391">
        <ele>22.200000762939</ele>
        <time>2022-08-21T07:23:58.000Z</time>
      </trkpt>
      <trkpt lat="47.26752" lon="-2.31384">
        <ele>22.200000762939</ele>
        <time>2022-08-21T07:24:01.000Z</time>
      </trkpt>
      <trkpt lat="47.26756" lon="-2.31382">
        <ele>22.200000762939</ele>
        <time>2022-08-21T07:24:02.000Z</time>
      </trkpt>
      <trkpt lat="47.26776" lon="-2.31371">
        <ele>22.200000762939</ele>
        <time>2022-08-21T07:24:07.000Z</time>
      </trkpt>
      <trkpt lat="47.2678" lon="-2.31369">
        <ele>22.200000762939</ele>
        <time>2022-08-21T07:24:08.000Z</time>
      </trkpt>
      <trkpt lat="47.26801" lon="-2.31354">
        <ele>22.200000762939</ele>
        <time>2022-08-21T07:24:14.000Z</time>
      </trkpt>
      <trkpt lat="47.26821" lon="-2.31338">
        <ele>22.799999237061</ele>
        <time>2022-08-21T07:24:20.000Z</time>
      </trkpt>
      <trkpt lat="47.26825" lon="-2.31336">
        <ele>23.200000762939</ele>
        <time>2022-08-21T07:24:21.000Z</time>
      </trkpt>
      <trkpt lat="47.26828" lon="-2.31335">
        <ele>23.60000038147</ele>
        <time>2022-08-21T07:24:22.000Z</time>
      </trkpt>
      <trkpt lat="47.26831" lon="-2.31333">
        <ele>24</ele>
        <time>2022-08-21T07:24:23.000Z</time>
      </trkpt>
      <trkpt lat="47.26832" lon="-2.31329">
        <ele>24.39999961853</ele>
        <time>2022-08-21T07:24:24.000Z</time>
      </trkpt>
      <trkpt lat="47.26838" lon="-2.31307">
        <ele>24.39999961853</ele>
        <time>2022-08-21T07:24:28.000Z</time>
      </trkpt>
      <trkpt lat="47.26846" lon="-2.31266">
        <ele>24.39999961853</ele>
        <time>2022-08-21T07:24:34.000Z</time>
      </trkpt>
      <trkpt lat="47.26848" lon="-2.31224">
        <ele>24.39999961853</ele>
        <time>2022-08-21T07:24:40.000Z</time>
      </trkpt>
      <trkpt lat="47.26849" lon="-2.31209">
        <ele>24.39999961853</ele>
        <time>2022-08-21T07:24:42.000Z</time>
      </trkpt>
      <trkpt lat="47.2685" lon="-2.31195">
        <ele>24.39999961853</ele>
        <time>2022-08-21T07:24:44.000Z</time>
      </trkpt>
      <trkpt lat="47.26853" lon="-2.31149">
        <ele>24.39999961853</ele>
        <time>2022-08-21T07:24:50.000Z</time>
      </trkpt>
      <trkpt lat="47.26854" lon="-2.311">
        <ele>24.39999961853</ele>
        <time>2022-08-21T07:24:57.000Z</time>
      </trkpt>
      <trkpt lat="47.26853" lon="-2.31095">
        <ele>24.39999961853</ele>
        <time>2022-08-21T07:25:00.000Z</time>
      </trkpt>
      <trkpt lat="47.26853" lon="-2.31092">
        <ele>24.39999961853</ele>
        <time>2022-08-21T07:25:17.000Z</time>
      </trkpt>
      <trkpt lat="47.26852" lon="-2.31085">
        <ele>24.39999961853</ele>
        <time>2022-08-21T07:25:19.000Z</time>
      </trkpt>
      <trkpt lat="47.26851" lon="-2.31057">
        <ele>24.39999961853</ele>
        <time>2022-08-21T07:25:24.000Z</time>
      </trkpt>
      <trkpt lat="47.26848" lon="-2.30994">
        <ele>24.39999961853</ele>
        <time>2022-08-21T07:25:33.000Z</time>
      </trkpt>
      <trkpt lat="47.26842" lon="-2.30942">
        <ele>24.39999961853</ele>
        <time>2022-08-21T07:25:40.000Z</time>
      </trkpt>
      <trkpt lat="47.26833" lon="-2.30892">
        <ele>24.39999961853</ele>
        <time>2022-08-21T07:25:47.000Z</time>
      </trkpt>
      <trkpt lat="47.26829" lon="-2.30851">
        <ele>24.39999961853</ele>
        <time>2022-08-21T07:25:53.000Z</time>
      </trkpt>
      <trkpt lat="47.26829" lon="-2.30809">
        <ele>24.39999961853</ele>
        <time>2022-08-21T07:25:59.000Z</time>
      </trkpt>
      <trkpt lat="47.26828" lon="-2.30801">
        <ele>24.39999961853</ele>
        <time>2022-08-21T07:26:00.000Z</time>
      </trkpt>
      <trkpt lat="47.26822" lon="-2.30794">
        <ele>24.39999961853</ele>
        <time>2022-08-21T07:26:02.000Z</time>
      </trkpt>
      <trkpt lat="47.26812" lon="-2.30801">
        <ele>24.39999961853</ele>
        <time>2022-08-21T07:26:05.000Z</time>
      </trkpt>
      <trkpt lat="47.26788" lon="-2.30825">
        <ele>24.39999961853</ele>
        <time>2022-08-21T07:26:11.000Z</time>
      </trkpt>
      <trkpt lat="47.26775" lon="-2.30839">
        <ele>24.39999961853</ele>
        <time>2022-08-21T07:26:14.000Z</time>
      </trkpt>
      <trkpt lat="47.26767" lon="-2.30849">
        <ele>24.39999961853</ele>
        <time>2022-08-21T07:26:16.000Z</time>
      </trkpt>
      <trkpt lat="47.26764" lon="-2.30853">
        <ele>24.39999961853</ele>
        <time>2022-08-21T07:26:17.000Z</time>
      </trkpt>
      <trkpt lat="47.26751" lon="-2.30866">
        <ele>24.39999961853</ele>
        <time>2022-08-21T07:26:20.000Z</time>
      </trkpt>
      <trkpt lat="47.26742" lon="-2.30869">
        <ele>24.39999961853</ele>
        <time>2022-08-21T07:26:22.000Z</time>
      </trkpt>
      <trkpt lat="47.2673" lon="-2.30859">
        <ele>24.39999961853</ele>
        <time>2022-08-21T07:26:25.000Z</time>
      </trkpt>
      <trkpt lat="47.26718" lon="-2.30839">
        <ele>24.39999961853</ele>
        <time>2022-08-21T07:26:29.000Z</time>
      </trkpt>
      <trkpt lat="47.26713" lon="-2.30827">
        <ele>24.39999961853</ele>
        <time>2022-08-21T07:26:31.000Z</time>
      </trkpt>
      <trkpt lat="47.26702" lon="-2.30803">
        <ele>24.39999961853</ele>
        <time>2022-08-21T07:26:35.000Z</time>
      </trkpt>
      <trkpt lat="47.26697" lon="-2.30788">
        <ele>23.60000038147</ele>
        <time>2022-08-21T07:26:37.000Z</time>
      </trkpt>
      <trkpt lat="47.26694" lon="-2.30781">
        <ele>23.200000762939</ele>
        <time>2022-08-21T07:26:38.000Z</time>
      </trkpt>
      <trkpt lat="47.26691" lon="-2.30774">
        <ele>22.60000038147</ele>
        <time>2022-08-21T07:26:39.000Z</time>
      </trkpt>
      <trkpt lat="47.26688" lon="-2.30766">
        <ele>22.200000762939</ele>
        <time>2022-08-21T07:26:40.000Z</time>
      </trkpt>
      <trkpt lat="47.26674" lon="-2.30734">
        <ele>21.799999237061</ele>
        <time>2022-08-21T07:26:44.000Z</time>
      </trkpt>
      <trkpt lat="47.26671" lon="-2.30727">
        <ele>21.39999961853</ele>
        <time>2022-08-21T07:26:45.000Z</time>
      </trkpt>
      <trkpt lat="47.26667" lon="-2.3072">
        <ele>21</ele>
        <time>2022-08-21T07:26:46.000Z</time>
      </trkpt>
      <trkpt lat="47.26665" lon="-2.30714">
        <ele>20.39999961853</ele>
        <time>2022-08-21T07:26:47.000Z</time>
      </trkpt>
      <trkpt lat="47.26663" lon="-2.30708">
        <ele>20</ele>
        <time>2022-08-21T07:26:48.000Z</time>
      </trkpt>
      <trkpt lat="47.26661" lon="-2.30704">
        <ele>20</ele>
        <time>2022-08-21T07:26:49.000Z</time>
      </trkpt>
      <trkpt lat="47.26656" lon="-2.30699">
        <ele>20</ele>
        <time>2022-08-21T07:26:52.000Z</time>
      </trkpt>
      <trkpt lat="47.26654" lon="-2.30701">
        <ele>20</ele>
        <time>2022-08-21T07:26:53.000Z</time>
      </trkpt>
      <trkpt lat="47.26647" lon="-2.30715">
        <ele>20</ele>
        <time>2022-08-21T07:26:57.000Z</time>
      </trkpt>
      <trkpt lat="47.26641" lon="-2.30724">
        <ele>19.60000038147</ele>
        <time>2022-08-21T07:26:59.000Z</time>
      </trkpt>
      <trkpt lat="47.26638" lon="-2.30726">
        <ele>19.200000762939</ele>
        <time>2022-08-21T07:27:00.000Z</time>
      </trkpt>
      <trkpt lat="47.26635" lon="-2.30728">
        <ele>18.799999237061</ele>
        <time>2022-08-21T07:27:01.000Z</time>
      </trkpt>
      <trkpt lat="47.26631" lon="-2.30731">
        <ele>18</ele>
        <time>2022-08-21T07:27:02.000Z</time>
      </trkpt>
      <trkpt lat="47.26628" lon="-2.30734">
        <ele>18</ele>
        <time>2022-08-21T07:27:03.000Z</time>
      </trkpt>
      <trkpt lat="47.26622" lon="-2.3074">
        <ele>18</ele>
        <time>2022-08-21T07:27:05.000Z</time>
      </trkpt>
      <trkpt lat="47.26621" lon="-2.30745">
        <ele>18</ele>
        <time>2022-08-21T07:27:06.000Z</time>
      </trkpt>
      <trkpt lat="47.2662" lon="-2.30753">
        <ele>18</ele>
        <time>2022-08-21T07:27:08.000Z</time>
      </trkpt>
      <trkpt lat="47.26619" lon="-2.30755">
        <ele>18</ele>
        <time>2022-08-21T07:27:09.000Z</time>
      </trkpt>
      <trkpt lat="47.26613" lon="-2.30761">
        <ele>18</ele>
        <time>2022-08-21T07:27:11.000Z</time>
      </trkpt>
      <trkpt lat="47.26607" lon="-2.30769">
        <ele>18</ele>
        <time>2022-08-21T07:27:13.000Z</time>
      </trkpt>
      <trkpt lat="47.26601" lon="-2.30775">
        <ele>17.60000038147</ele>
        <time>2022-08-21T07:27:15.000Z</time>
      </trkpt>
      <trkpt lat="47.26598" lon="-2.3078">
        <ele>17.200000762939</ele>
        <time>2022-08-21T07:27:16.000Z</time>
      </trkpt>
      <trkpt lat="47.26595" lon="-2.30784">
        <ele>16.799999237061</ele>
        <time>2022-08-21T07:27:17.000Z</time>
      </trkpt>
      <trkpt lat="47.26593" lon="-2.30788">
        <ele>16.39999961853</ele>
        <time>2022-08-21T07:27:18.000Z</time>
      </trkpt>
      <trkpt lat="47.26589" lon="-2.30791">
        <ele>16</ele>
        <time>2022-08-21T07:27:19.000Z</time>
      </trkpt>
      <trkpt lat="47.26581" lon="-2.30807">
        <ele>16</ele>
        <time>2022-08-21T07:27:22.000Z</time>
      </trkpt>
      <trkpt lat="47.26573" lon="-2.30824">
        <ele>15.60000038147</ele>
        <time>2022-08-21T07:27:26.000Z</time>
      </trkpt>
      <trkpt lat="47.26571" lon="-2.30825">
        <ele>14.800000190735</ele>
        <time>2022-08-21T07:27:27.000Z</time>
      </trkpt>
      <trkpt lat="47.26568" lon="-2.30826">
        <ele>14.39999961853</ele>
        <time>2022-08-21T07:27:28.000Z</time>
      </trkpt>
      <trkpt lat="47.26566" lon="-2.30828">
        <ele>14</ele>
        <time>2022-08-21T07:27:29.000Z</time>
      </trkpt>
      <trkpt lat="47.26558" lon="-2.30835">
        <ele>14</ele>
        <time>2022-08-21T07:27:32.000Z</time>
      </trkpt>
      <trkpt lat="47.26556" lon="-2.30838">
        <ele>14</ele>
        <time>2022-08-21T07:27:33.000Z</time>
      </trkpt>
      <trkpt lat="47.26545" lon="-2.3085">
        <ele>14</ele>
        <time>2022-08-21T07:27:36.000Z</time>
      </trkpt>
      <trkpt lat="47.26534" lon="-2.30864">
        <ele>13.60000038147</ele>
        <time>2022-08-21T07:27:39.000Z</time>
      </trkpt>
      <trkpt lat="47.2653" lon="-2.30866">
        <ele>13</ele>
        <time>2022-08-21T07:27:40.000Z</time>
      </trkpt>
      <trkpt lat="47.26526" lon="-2.30867">
        <ele>12.60000038147</ele>
        <time>2022-08-21T07:27:41.000Z</time>
      </trkpt>
      <trkpt lat="47.26523" lon="-2.30864">
        <ele>12.199999809265</ele>
        <time>2022-08-21T07:27:42.000Z</time>
      </trkpt>
      <trkpt lat="47.26522" lon="-2.30861">
        <ele>11.800000190735</ele>
        <time>2022-08-21T07:27:43.000Z</time>
      </trkpt>
      <trkpt lat="47.26518" lon="-2.30856">
        <ele>11.800000190735</ele>
        <time>2022-08-21T07:27:46.000Z</time>
      </trkpt>
      <trkpt lat="47.26517" lon="-2.30855">
        <ele>11.800000190735</ele>
        <time>2022-08-21T07:27:47.000Z</time>
      </trkpt>
      <trkpt lat="47.26515" lon="-2.30855">
        <ele>11.800000190735</ele>
        <time>2022-08-21T07:27:48.000Z</time>
      </trkpt>
      <trkpt lat="47.26512" lon="-2.30853">
        <ele>12.199999809265</ele>
        <time>2022-08-21T07:27:49.000Z</time>
      </trkpt>
      <trkpt lat="47.26509" lon="-2.30852">
        <ele>12.60000038147</ele>
        <time>2022-08-21T07:27:50.000Z</time>
      </trkpt>
      <trkpt lat="47.26507" lon="-2.30849">
        <ele>13</ele>
        <time>2022-08-21T07:27:51.000Z</time>
      </trkpt>
      <trkpt lat="47.26506" lon="-2.30846">
        <ele>14</ele>
        <time>2022-08-21T07:27:52.000Z</time>
      </trkpt>
      <trkpt lat="47.26501" lon="-2.30838">
        <ele>14</ele>
        <time>2022-08-21T07:27:55.000Z</time>
      </trkpt>
      <trkpt lat="47.265" lon="-2.30834">
        <ele>14</ele>
        <time>2022-08-21T07:27:56.000Z</time>
      </trkpt>
      <trkpt lat="47.26494" lon="-2.3083">
        <ele>14.39999961853</ele>
        <time>2022-08-21T07:27:58.000Z</time>
      </trkpt>
      <trkpt lat="47.2649" lon="-2.30828">
        <ele>14.800000190735</ele>
        <time>2022-08-21T07:27:59.000Z</time>
      </trkpt>
      <trkpt lat="47.26487" lon="-2.30825">
        <ele>15.199999809265</ele>
        <time>2022-08-21T07:28:00.000Z</time>
      </trkpt>
      <trkpt lat="47.26484" lon="-2.30821">
        <ele>15.60000038147</ele>
        <time>2022-08-21T07:28:01.000Z</time>
      </trkpt>
      <trkpt lat="47.26481" lon="-2.30817">
        <ele>16</ele>
        <time>2022-08-21T07:28:02.000Z</time>
      </trkpt>
      <trkpt lat="47.26469" lon="-2.30797">
        <ele>16</ele>
        <time>2022-08-21T07:28:07.000Z</time>
      </trkpt>
      <trkpt lat="47.26461" lon="-2.30781">
        <ele>16.39999961853</ele>
        <time>2022-08-21T07:28:11.000Z</time>
      </trkpt>
      <trkpt lat="47.2646" lon="-2.30777">
        <ele>16.799999237061</ele>
        <time>2022-08-21T07:28:12.000Z</time>
      </trkpt>
      <trkpt lat="47.2646" lon="-2.30775">
        <ele>17.200000762939</ele>
        <time>2022-08-21T07:28:13.000Z</time>
      </trkpt>
      <trkpt lat="47.26458" lon="-2.30771">
        <ele>17.60000038147</ele>
        <time>2022-08-21T07:28:14.000Z</time>
      </trkpt>
      <trkpt lat="47.26457" lon="-2.30768">
        <ele>18</ele>
        <time>2022-08-21T07:28:15.000Z</time>
      </trkpt>
      <trkpt lat="47.26452" lon="-2.30755">
        <ele>18</ele>
        <time>2022-08-21T07:28:18.000Z</time>
      </trkpt>
      <trkpt lat="47.26445" lon="-2.30734">
        <ele>18</ele>
        <time>2022-08-21T07:28:23.000Z</time>
      </trkpt>
      <trkpt lat="47.26434" lon="-2.3071">
        <ele>18</ele>
        <time>2022-08-21T07:28:28.000Z</time>
      </trkpt>
      <trkpt lat="47.26431" lon="-2.30704">
        <ele>18</ele>
        <time>2022-08-21T07:28:30.000Z</time>
      </trkpt>
      <trkpt lat="47.26426" lon="-2.30695">
        <ele>18</ele>
        <time>2022-08-21T07:28:32.000Z</time>
      </trkpt>
      <trkpt lat="47.26424" lon="-2.30692">
        <ele>18.39999961853</ele>
        <time>2022-08-21T07:28:33.000Z</time>
      </trkpt>
      <trkpt lat="47.2642" lon="-2.3069">
        <ele>18.799999237061</ele>
        <time>2022-08-21T07:28:34.000Z</time>
      </trkpt>
      <trkpt lat="47.26416" lon="-2.30688">
        <ele>19.39999961853</ele>
        <time>2022-08-21T07:28:35.000Z</time>
      </trkpt>
      <trkpt lat="47.26412" lon="-2.30684">
        <ele>19.799999237061</ele>
        <time>2022-08-21T07:28:36.000Z</time>
      </trkpt>
      <trkpt lat="47.26407" lon="-2.30681">
        <ele>20.200000762939</ele>
        <time>2022-08-21T07:28:37.000Z</time>
      </trkpt>
      <trkpt lat="47.26403" lon="-2.30677">
        <ele>20.200000762939</ele>
        <time>2022-08-21T07:28:38.000Z</time>
      </trkpt>
      <trkpt lat="47.26389" lon="-2.30666">
        <ele>20.200000762939</ele>
        <time>2022-08-21T07:28:41.000Z</time>
      </trkpt>
      <trkpt lat="47.26386" lon="-2.30661">
        <ele>20.200000762939</ele>
        <time>2022-08-21T07:28:42.000Z</time>
      </trkpt>
      <trkpt lat="47.26375" lon="-2.30643">
        <ele>20.200000762939</ele>
        <time>2022-08-21T07:28:46.000Z</time>
      </trkpt>
      <trkpt lat="47.26358" lon="-2.30606">
        <ele>20.200000762939</ele>
        <time>2022-08-21T07:28:53.000Z</time>
      </trkpt>
      <trkpt lat="47.26349" lon="-2.30585">
        <ele>20.200000762939</ele>
        <time>2022-08-21T07:28:58.000Z</time>
      </trkpt>
      <trkpt lat="47.26349" lon="-2.30584">
        <ele>20.200000762939</ele>
        <time>2022-08-21T07:28:59.000Z</time>
      </trkpt>
      <trkpt lat="47.26349" lon="-2.30583">
        <ele>20.200000762939</ele>
        <time>2022-08-21T07:29:00.000Z</time>
      </trkpt>
      <trkpt lat="47.26348" lon="-2.30576">
        <ele>20.200000762939</ele>
        <time>2022-08-21T07:29:04.000Z</time>
      </trkpt>
      <trkpt lat="47.26347" lon="-2.30572">
        <ele>20.200000762939</ele>
        <time>2022-08-21T07:29:05.000Z</time>
      </trkpt>
      <trkpt lat="47.26341" lon="-2.30552">
        <ele>20.200000762939</ele>
        <time>2022-08-21T07:29:10.000Z</time>
      </trkpt>
      <trkpt lat="47.26336" lon="-2.3053">
        <ele>20.200000762939</ele>
        <time>2022-08-21T07:29:14.000Z</time>
      </trkpt>
      <trkpt lat="47.2633" lon="-2.30496">
        <ele>20.200000762939</ele>
        <time>2022-08-21T07:29:19.000Z</time>
      </trkpt>
      <trkpt lat="47.26327" lon="-2.3048">
        <ele>20.60000038147</ele>
        <time>2022-08-21T07:29:21.000Z</time>
      </trkpt>
      <trkpt lat="47.26325" lon="-2.30472">
        <ele>21</ele>
        <time>2022-08-21T07:29:22.000Z</time>
      </trkpt>
      <trkpt lat="47.26324" lon="-2.30465">
        <ele>21.39999961853</ele>
        <time>2022-08-21T07:29:23.000Z</time>
      </trkpt>
      <trkpt lat="47.26323" lon="-2.30458">
        <ele>21.799999237061</ele>
        <time>2022-08-21T07:29:24.000Z</time>
      </trkpt>
      <trkpt lat="47.26321" lon="-2.30451">
        <ele>22.200000762939</ele>
        <time>2022-08-21T07:29:25.000Z</time>
      </trkpt>
      <trkpt lat="47.2632" lon="-2.30444">
        <ele>22.200000762939</ele>
        <time>2022-08-21T07:29:26.000Z</time>
      </trkpt>
      <trkpt lat="47.26307" lon="-2.3038">
        <ele>22.200000762939</ele>
        <time>2022-08-21T07:29:34.000Z</time>
      </trkpt>
      <trkpt lat="47.263" lon="-2.30331">
        <ele>22.200000762939</ele>
        <time>2022-08-21T07:29:40.000Z</time>
      </trkpt>
      <trkpt lat="47.26295" lon="-2.30318">
        <ele>22.200000762939</ele>
        <time>2022-08-21T07:29:42.000Z</time>
      </trkpt>
      <trkpt lat="47.26286" lon="-2.3029">
        <ele>22.200000762939</ele>
        <time>2022-08-21T07:29:46.000Z</time>
      </trkpt>
      <trkpt lat="47.26276" lon="-2.30242">
        <ele>22.200000762939</ele>
        <time>2022-08-21T07:29:52.000Z</time>
      </trkpt>
      <trkpt lat="47.26268" lon="-2.30199">
        <ele>22.200000762939</ele>
        <time>2022-08-21T07:29:58.000Z</time>
      </trkpt>
      <trkpt lat="47.26257" lon="-2.30161">
        <ele>22.200000762939</ele>
        <time>2022-08-21T07:30:04.000Z</time>
      </trkpt>
      <trkpt lat="47.26253" lon="-2.30149">
        <ele>22.200000762939</ele>
        <time>2022-08-21T07:30:06.000Z</time>
      </trkpt>
      <trkpt lat="47.26248" lon="-2.30134">
        <ele>22.60000038147</ele>
        <time>2022-08-21T07:30:09.000Z</time>
      </trkpt>
      <trkpt lat="47.26244" lon="-2.30132">
        <ele>23</ele>
        <time>2022-08-21T07:30:10.000Z</time>
      </trkpt>
      <trkpt lat="47.26241" lon="-2.30133">
        <ele>23.60000038147</ele>
        <time>2022-08-21T07:30:11.000Z</time>
      </trkpt>
      <trkpt lat="47.26237" lon="-2.30135">
        <ele>24</ele>
        <time>2022-08-21T07:30:12.000Z</time>
      </trkpt>
      <trkpt lat="47.26232" lon="-2.30138">
        <ele>24.39999961853</ele>
        <time>2022-08-21T07:30:13.000Z</time>
      </trkpt>
      <trkpt lat="47.26217" lon="-2.30142">
        <ele>24.39999961853</ele>
        <time>2022-08-21T07:30:16.000Z</time>
      </trkpt>
      <trkpt lat="47.262" lon="-2.30149">
        <ele>24.39999961853</ele>
        <time>2022-08-21T07:30:19.000Z</time>
      </trkpt>
      <trkpt lat="47.2619" lon="-2.30153">
        <ele>24.39999961853</ele>
        <time>2022-08-21T07:30:21.000Z</time>
      </trkpt>
      <trkpt lat="47.26178" lon="-2.30158">
        <ele>24</ele>
        <time>2022-08-21T07:30:24.000Z</time>
      </trkpt>
      <trkpt lat="47.26176" lon="-2.30156">
        <ele>23.60000038147</ele>
        <time>2022-08-21T07:30:25.000Z</time>
      </trkpt>
      <trkpt lat="47.26174" lon="-2.30152">
        <ele>23</ele>
        <time>2022-08-21T07:30:26.000Z</time>
      </trkpt>
      <trkpt lat="47.26173" lon="-2.30149">
        <ele>22.60000038147</ele>
        <time>2022-08-21T07:30:27.000Z</time>
      </trkpt>
      <trkpt lat="47.26172" lon="-2.30146">
        <ele>22.200000762939</ele>
        <time>2022-08-21T07:30:28.000Z</time>
      </trkpt>
      <trkpt lat="47.26171" lon="-2.30147">
        <ele>22.200000762939</ele>
        <time>2022-08-21T07:30:29.000Z</time>
      </trkpt>
      <trkpt lat="47.26162" lon="-2.30151">
        <ele>22.200000762939</ele>
        <time>2022-08-21T07:30:32.000Z</time>
      </trkpt>
      <trkpt lat="47.26158" lon="-2.30152">
        <ele>22.200000762939</ele>
        <time>2022-08-21T07:30:33.000Z</time>
      </trkpt>
      <trkpt lat="47.26137" lon="-2.30159">
        <ele>21.799999237061</ele>
        <time>2022-08-21T07:30:37.000Z</time>
      </trkpt>
      <trkpt lat="47.26131" lon="-2.3016">
        <ele>21.39999961853</ele>
        <time>2022-08-21T07:30:38.000Z</time>
      </trkpt>
      <trkpt lat="47.26125" lon="-2.30162">
        <ele>21</ele>
        <time>2022-08-21T07:30:39.000Z</time>
      </trkpt>
      <trkpt lat="47.2612" lon="-2.30164">
        <ele>20.60000038147</ele>
        <time>2022-08-21T07:30:40.000Z</time>
      </trkpt>
      <trkpt lat="47.26115" lon="-2.30165">
        <ele>20.200000762939</ele>
        <time>2022-08-21T07:30:41.000Z</time>
      </trkpt>
      <trkpt lat="47.26111" lon="-2.30166">
        <ele>20.200000762939</ele>
        <time>2022-08-21T07:30:42.000Z</time>
      </trkpt>
      <trkpt lat="47.26106" lon="-2.30165">
        <ele>19.39999961853</ele>
        <time>2022-08-21T07:30:44.000Z</time>
      </trkpt>
      <trkpt lat="47.26104" lon="-2.30163">
        <ele>18.799999237061</ele>
        <time>2022-08-21T07:30:45.000Z</time>
      </trkpt>
      <trkpt lat="47.26102" lon="-2.3016">
        <ele>18.39999961853</ele>
        <time>2022-08-21T07:30:46.000Z</time>
      </trkpt>
      <trkpt lat="47.261" lon="-2.30159">
        <ele>18</ele>
        <time>2022-08-21T07:30:47.000Z</time>
      </trkpt>
      <trkpt lat="47.26093" lon="-2.30158">
        <ele>18</ele>
        <time>2022-08-21T07:30:49.000Z</time>
      </trkpt>
      <trkpt lat="47.26084" lon="-2.30159">
        <ele>18</ele>
        <time>2022-08-21T07:30:51.000Z</time>
      </trkpt>
      <trkpt lat="47.26079" lon="-2.30157">
        <ele>18</ele>
        <time>2022-08-21T07:30:52.000Z</time>
      </trkpt>
      <trkpt lat="47.26075" lon="-2.30153">
        <ele>17.60000038147</ele>
        <time>2022-08-21T07:30:53.000Z</time>
      </trkpt>
      <trkpt lat="47.26071" lon="-2.30148">
        <ele>17.200000762939</ele>
        <time>2022-08-21T07:30:54.000Z</time>
      </trkpt>
      <trkpt lat="47.26067" lon="-2.30144">
        <ele>16.799999237061</ele>
        <time>2022-08-21T07:30:55.000Z</time>
      </trkpt>
      <trkpt lat="47.26063" lon="-2.3014">
        <ele>16.39999961853</ele>
        <time>2022-08-21T07:30:56.000Z</time>
      </trkpt>
      <trkpt lat="47.26059" lon="-2.3014">
        <ele>16</ele>
        <time>2022-08-21T07:30:57.000Z</time>
      </trkpt>
      <trkpt lat="47.26057" lon="-2.30141">
        <ele>16</ele>
        <time>2022-08-21T07:30:58.000Z</time>
      </trkpt>
      <trkpt lat="47.26039" lon="-2.30138">
        <ele>16</ele>
        <time>2022-08-21T07:31:02.000Z</time>
      </trkpt>
      <trkpt lat="47.26035" lon="-2.30139">
        <ele>15.60000038147</ele>
        <time>2022-08-21T07:31:03.000Z</time>
      </trkpt>
      <trkpt lat="47.2603" lon="-2.30139">
        <ele>15.199999809265</ele>
        <time>2022-08-21T07:31:04.000Z</time>
      </trkpt>
      <trkpt lat="47.26025" lon="-2.3014">
        <ele>14.800000190735</ele>
        <time>2022-08-21T07:31:05.000Z</time>
      </trkpt>
      <trkpt lat="47.26021" lon="-2.3014">
        <ele>14.39999961853</ele>
        <time>2022-08-21T07:31:06.000Z</time>
      </trkpt>
      <trkpt lat="47.26017" lon="-2.30141">
        <ele>13.800000190735</ele>
        <time>2022-08-21T07:31:07.000Z</time>
      </trkpt>
      <trkpt lat="47.26004" lon="-2.30142">
        <ele>13.800000190735</ele>
        <time>2022-08-21T07:31:10.000Z</time>
      </trkpt>
      <trkpt lat="47.25995" lon="-2.30142">
        <ele>13.39999961853</ele>
        <time>2022-08-21T07:31:13.000Z</time>
      </trkpt>
      <trkpt lat="47.25992" lon="-2.30143">
        <ele>13</ele>
        <time>2022-08-21T07:31:14.000Z</time>
      </trkpt>
      <trkpt lat="47.25987" lon="-2.30147">
        <ele>12.60000038147</ele>
        <time>2022-08-21T07:31:15.000Z</time>
      </trkpt>
      <trkpt lat="47.25984" lon="-2.30151">
        <ele>12</ele>
        <time>2022-08-21T07:31:16.000Z</time>
      </trkpt>
      <trkpt lat="47.25979" lon="-2.30156">
        <ele>11.60000038147</ele>
        <time>2022-08-21T07:31:17.000Z</time>
      </trkpt>
      <trkpt lat="47.2597" lon="-2.30163">
        <ele>11.60000038147</ele>
        <time>2022-08-21T07:31:19.000Z</time>
      </trkpt>
      <trkpt lat="47.2596" lon="-2.30168">
        <ele>11.60000038147</ele>
        <time>2022-08-21T07:31:21.000Z</time>
      </trkpt>
      <trkpt lat="47.25955" lon="-2.3017">
        <ele>11.60000038147</ele>
        <time>2022-08-21T07:31:22.000Z</time>
      </trkpt>
      <trkpt lat="47.2595" lon="-2.3017">
        <ele>11.60000038147</ele>
        <time>2022-08-21T07:31:23.000Z</time>
      </trkpt>
      <trkpt lat="47.25907" lon="-2.30177">
        <ele>11.60000038147</ele>
        <time>2022-08-21T07:31:31.000Z</time>
      </trkpt>
      <trkpt lat="47.25898" lon="-2.30189">
        <ele>11.60000038147</ele>
        <time>2022-08-21T07:31:34.000Z</time>
      </trkpt>
      <trkpt lat="47.25896" lon="-2.30208">
        <ele>11.60000038147</ele>
        <time>2022-08-21T07:31:37.000Z</time>
      </trkpt>
      <trkpt lat="47.25897" lon="-2.30215">
        <ele>11.60000038147</ele>
        <time>2022-08-21T07:31:38.000Z</time>
      </trkpt>
      <trkpt lat="47.25899" lon="-2.30256">
        <ele>12</ele>
        <time>2022-08-21T07:31:44.000Z</time>
      </trkpt>
      <trkpt lat="47.25899" lon="-2.30263">
        <ele>12.39999961853</ele>
        <time>2022-08-21T07:31:45.000Z</time>
      </trkpt>
      <trkpt lat="47.25899" lon="-2.30269">
        <ele>12.800000190735</ele>
        <time>2022-08-21T07:31:46.000Z</time>
      </trkpt>
      <trkpt lat="47.25898" lon="-2.30276">
        <ele>13.199999809265</ele>
        <time>2022-08-21T07:31:47.000Z</time>
      </trkpt>
      <trkpt lat="47.25898" lon="-2.30283">
        <ele>13.60000038147</ele>
        <time>2022-08-21T07:31:48.000Z</time>
      </trkpt>
      <trkpt lat="47.25897" lon="-2.30296">
        <ele>13.60000038147</ele>
        <time>2022-08-21T07:31:50.000Z</time>
      </trkpt>
      <trkpt lat="47.25895" lon="-2.30302">
        <ele>13.60000038147</ele>
        <time>2022-08-21T07:31:51.000Z</time>
      </trkpt>
      <trkpt lat="47.25882" lon="-2.30309">
        <ele>13.60000038147</ele>
        <time>2022-08-21T07:31:54.000Z</time>
      </trkpt>
      <trkpt lat="47.2587" lon="-2.30298">
        <ele>13.60000038147</ele>
        <time>2022-08-21T07:31:57.000Z</time>
      </trkpt>
      <trkpt lat="47.25852" lon="-2.30279">
        <ele>13.60000038147</ele>
        <time>2022-08-21T07:32:01.000Z</time>
      </trkpt>
      <trkpt lat="47.25846" lon="-2.30276">
        <ele>13.60000038147</ele>
        <time>2022-08-21T07:32:02.000Z</time>
      </trkpt>
      <trkpt lat="47.25821" lon="-2.30263">
        <ele>13.60000038147</ele>
        <time>2022-08-21T07:32:06.000Z</time>
      </trkpt>
      <trkpt lat="47.25789" lon="-2.30248">
        <ele>13.199999809265</ele>
        <time>2022-08-21T07:32:11.000Z</time>
      </trkpt>
      <trkpt lat="47.25782" lon="-2.30246">
        <ele>12.800000190735</ele>
        <time>2022-08-21T07:32:12.000Z</time>
      </trkpt>
      <trkpt lat="47.25776" lon="-2.30243">
        <ele>12.39999961853</ele>
        <time>2022-08-21T07:32:13.000Z</time>
      </trkpt>
      <trkpt lat="47.2577" lon="-2.3024">
        <ele>12</ele>
        <time>2022-08-21T07:32:14.000Z</time>
      </trkpt>
      <trkpt lat="47.25765" lon="-2.30237">
        <ele>11.60000038147</ele>
        <time>2022-08-21T07:32:15.000Z</time>
      </trkpt>
      <trkpt lat="47.25726" lon="-2.30217">
        <ele>11.60000038147</ele>
        <time>2022-08-21T07:32:22.000Z</time>
      </trkpt>
      <trkpt lat="47.25721" lon="-2.30217">
        <ele>12</ele>
        <time>2022-08-21T07:32:23.000Z</time>
      </trkpt>
      <trkpt lat="47.25715" lon="-2.30217">
        <ele>12.39999961853</ele>
        <time>2022-08-21T07:32:24.000Z</time>
      </trkpt>
      <trkpt lat="47.2571" lon="-2.30219">
        <ele>12.800000190735</ele>
        <time>2022-08-21T07:32:25.000Z</time>
      </trkpt>
      <trkpt lat="47.25704" lon="-2.30222">
        <ele>13.199999809265</ele>
        <time>2022-08-21T07:32:26.000Z</time>
      </trkpt>
      <trkpt lat="47.257" lon="-2.30226">
        <ele>13.60000038147</ele>
        <time>2022-08-21T07:32:27.000Z</time>
      </trkpt>
      <trkpt lat="47.25692" lon="-2.30238">
        <ele>13.60000038147</ele>
        <time>2022-08-21T07:32:29.000Z</time>
      </trkpt>
      <trkpt lat="47.25686" lon="-2.30268">
        <ele>14</ele>
        <time>2022-08-21T07:32:33.000Z</time>
      </trkpt>
      <trkpt lat="47.25686" lon="-2.30276">
        <ele>14.39999961853</ele>
        <time>2022-08-21T07:32:34.000Z</time>
      </trkpt>
      <trkpt lat="47.25687" lon="-2.30283">
        <ele>14.800000190735</ele>
        <time>2022-08-21T07:32:35.000Z</time>
      </trkpt>
      <trkpt lat="47.25687" lon="-2.30291">
        <ele>15.199999809265</ele>
        <time>2022-08-21T07:32:36.000Z</time>
      </trkpt>
      <trkpt lat="47.25686" lon="-2.30299">
        <ele>15.800000190735</ele>
        <time>2022-08-21T07:32:37.000Z</time>
      </trkpt>
      <trkpt lat="47.25684" lon="-2.30306">
        <ele>15.800000190735</ele>
        <time>2022-08-21T07:32:38.000Z</time>
      </trkpt>
      <trkpt lat="47.2567" lon="-2.30318">
        <ele>15.800000190735</ele>
        <time>2022-08-21T07:32:41.000Z</time>
      </trkpt>
      <trkpt lat="47.25665" lon="-2.3032">
        <ele>15.800000190735</ele>
        <time>2022-08-21T07:32:42.000Z</time>
      </trkpt>
      <trkpt lat="47.25657" lon="-2.30328">
        <ele>15.800000190735</ele>
        <time>2022-08-21T07:32:44.000Z</time>
      </trkpt>
      <trkpt lat="47.25649" lon="-2.30337">
        <ele>15.800000190735</ele>
        <time>2022-08-21T07:32:46.000Z</time>
      </trkpt>
      <trkpt lat="47.25637" lon="-2.3035">
        <ele>15.800000190735</ele>
        <time>2022-08-21T07:32:49.000Z</time>
      </trkpt>
      <trkpt lat="47.2563" lon="-2.30347">
        <ele>15.800000190735</ele>
        <time>2022-08-21T07:32:51.000Z</time>
      </trkpt>
      <trkpt lat="47.25627" lon="-2.30327">
        <ele>15.800000190735</ele>
        <time>2022-08-21T07:32:54.000Z</time>
      </trkpt>
      <trkpt lat="47.25626" lon="-2.3032">
        <ele>15.800000190735</ele>
        <time>2022-08-21T07:32:55.000Z</time>
      </trkpt>
      <trkpt lat="47.25622" lon="-2.30283">
        <ele>15.800000190735</ele>
        <time>2022-08-21T07:33:00.000Z</time>
      </trkpt>
      <trkpt lat="47.25621" lon="-2.30275">
        <ele>15.800000190735</ele>
        <time>2022-08-21T07:33:01.000Z</time>
      </trkpt>
      <trkpt lat="47.25615" lon="-2.30236">
        <ele>15.800000190735</ele>
        <time>2022-08-21T07:33:06.000Z</time>
      </trkpt>
      <trkpt lat="47.25609" lon="-2.30223">
        <ele>15.800000190735</ele>
        <time>2022-08-21T07:33:08.000Z</time>
      </trkpt>
      <trkpt lat="47.25597" lon="-2.30207">
        <ele>15.800000190735</ele>
        <time>2022-08-21T07:33:11.000Z</time>
      </trkpt>
      <trkpt lat="47.25593" lon="-2.30203">
        <ele>15.800000190735</ele>
        <time>2022-08-21T07:33:12.000Z</time>
      </trkpt>
      <trkpt lat="47.25574" lon="-2.30189">
        <ele>15.800000190735</ele>
        <time>2022-08-21T07:33:17.000Z</time>
      </trkpt>
      <trkpt lat="47.25571" lon="-2.30184">
        <ele>15.800000190735</ele>
        <time>2022-08-21T07:33:18.000Z</time>
      </trkpt>
      <trkpt lat="47.25568" lon="-2.30171">
        <ele>15.800000190735</ele>
        <time>2022-08-21T07:33:20.000Z</time>
      </trkpt>
      <trkpt lat="47.25567" lon="-2.30157">
        <ele>15.800000190735</ele>
        <time>2022-08-21T07:33:22.000Z</time>
      </trkpt>
      <trkpt lat="47.25566" lon="-2.30144">
        <ele>16.200000762939</ele>
        <time>2022-08-21T07:33:24.000Z</time>
      </trkpt>
      <trkpt lat="47.25566" lon="-2.30138">
        <ele>16.60000038147</ele>
        <time>2022-08-21T07:33:25.000Z</time>
      </trkpt>
      <trkpt lat="47.25566" lon="-2.30132">
        <ele>17</ele>
        <time>2022-08-21T07:33:26.000Z</time>
      </trkpt>
      <trkpt lat="47.25566" lon="-2.30125">
        <ele>17.39999961853</ele>
        <time>2022-08-21T07:33:27.000Z</time>
      </trkpt>
      <trkpt lat="47.25567" lon="-2.30118">
        <ele>17.799999237061</ele>
        <time>2022-08-21T07:33:28.000Z</time>
      </trkpt>
      <trkpt lat="47.2557" lon="-2.30104">
        <ele>17.799999237061</ele>
        <time>2022-08-21T07:33:30.000Z</time>
      </trkpt>
      <trkpt lat="47.2558" lon="-2.30085">
        <ele>17.799999237061</ele>
        <time>2022-08-21T07:33:33.000Z</time>
      </trkpt>
      <trkpt lat="47.25584" lon="-2.3008">
        <ele>17.799999237061</ele>
        <time>2022-08-21T07:33:34.000Z</time>
      </trkpt>
      <trkpt lat="47.25608" lon="-2.30046">
        <ele>17.799999237061</ele>
        <time>2022-08-21T07:33:40.000Z</time>
      </trkpt>
      <trkpt lat="47.25612" lon="-2.30024">
        <ele>17.799999237061</ele>
        <time>2022-08-21T07:33:43.000Z</time>
      </trkpt>
      <trkpt lat="47.25611" lon="-2.30017">
        <ele>18.200000762939</ele>
        <time>2022-08-21T07:33:44.000Z</time>
      </trkpt>
      <trkpt lat="47.25608" lon="-2.30011">
        <ele>18.60000038147</ele>
        <time>2022-08-21T07:33:45.000Z</time>
      </trkpt>
      <trkpt lat="47.25605" lon="-2.30004">
        <ele>19</ele>
        <time>2022-08-21T07:33:46.000Z</time>
      </trkpt>
      <trkpt lat="47.25602" lon="-2.29998">
        <ele>19.39999961853</ele>
        <time>2022-08-21T07:33:47.000Z</time>
      </trkpt>
      <trkpt lat="47.25599" lon="-2.29992">
        <ele>19.799999237061</ele>
        <time>2022-08-21T07:33:48.000Z</time>
      </trkpt>
      <trkpt lat="47.25589" lon="-2.29976">
        <ele>19.799999237061</ele>
        <time>2022-08-21T07:33:51.000Z</time>
      </trkpt>
      <trkpt lat="47.25563" lon="-2.29932">
        <ele>20.200000762939</ele>
        <time>2022-08-21T07:33:59.000Z</time>
      </trkpt>
      <trkpt lat="47.25559" lon="-2.29927">
        <ele>20.60000038147</ele>
        <time>2022-08-21T07:34:00.000Z</time>
      </trkpt>
      <trkpt lat="47.25556" lon="-2.29922">
        <ele>21.39999961853</ele>
        <time>2022-08-21T07:34:01.000Z</time>
      </trkpt>
      <trkpt lat="47.25553" lon="-2.29917">
        <ele>21.799999237061</ele>
        <time>2022-08-21T07:34:02.000Z</time>
      </trkpt>
      <trkpt lat="47.25551" lon="-2.29912">
        <ele>21.799999237061</ele>
        <time>2022-08-21T07:34:03.000Z</time>
      </trkpt>
      <trkpt lat="47.25542" lon="-2.299">
        <ele>21.799999237061</ele>
        <time>2022-08-21T07:34:06.000Z</time>
      </trkpt>
      <trkpt lat="47.25539" lon="-2.29895">
        <ele>21.799999237061</ele>
        <time>2022-08-21T07:34:07.000Z</time>
      </trkpt>
      <trkpt lat="47.25534" lon="-2.2988">
        <ele>22.200000762939</ele>
        <time>2022-08-21T07:34:10.000Z</time>
      </trkpt>
      <trkpt lat="47.25535" lon="-2.29875">
        <ele>22.799999237061</ele>
        <time>2022-08-21T07:34:11.000Z</time>
      </trkpt>
      <trkpt lat="47.25538" lon="-2.2987">
        <ele>23.200000762939</ele>
        <time>2022-08-21T07:34:12.000Z</time>
      </trkpt>
      <trkpt lat="47.25541" lon="-2.29864">
        <ele>23.60000038147</ele>
        <time>2022-08-21T07:34:13.000Z</time>
      </trkpt>
      <trkpt lat="47.25545" lon="-2.29859">
        <ele>24</ele>
        <time>2022-08-21T07:34:14.000Z</time>
      </trkpt>
      <trkpt lat="47.25564" lon="-2.29832">
        <ele>24</ele>
        <time>2022-08-21T07:34:19.000Z</time>
      </trkpt>
      <trkpt lat="47.25567" lon="-2.29826">
        <ele>24</ele>
        <time>2022-08-21T07:34:20.000Z</time>
      </trkpt>
      <trkpt lat="47.25576" lon="-2.29813">
        <ele>23.60000038147</ele>
        <time>2022-08-21T07:34:23.000Z</time>
      </trkpt>
      <trkpt lat="47.25576" lon="-2.29807">
        <ele>23</ele>
        <time>2022-08-21T07:34:24.000Z</time>
      </trkpt>
      <trkpt lat="47.25575" lon="-2.29801">
        <ele>22.60000038147</ele>
        <time>2022-08-21T07:34:25.000Z</time>
      </trkpt>
      <trkpt lat="47.25572" lon="-2.29796">
        <ele>21.799999237061</ele>
        <time>2022-08-21T07:34:26.000Z</time>
      </trkpt>
      <trkpt lat="47.25568" lon="-2.29791">
        <ele>21.799999237061</ele>
        <time>2022-08-21T07:34:27.000Z</time>
      </trkpt>
      <trkpt lat="47.25554" lon="-2.29774">
        <ele>21.799999237061</ele>
        <time>2022-08-21T07:34:32.000Z</time>
      </trkpt>
      <trkpt lat="47.25544" lon="-2.29762">
        <ele>21.799999237061</ele>
        <time>2022-08-21T07:34:35.000Z</time>
      </trkpt>
      <trkpt lat="47.25538" lon="-2.29755">
        <ele>21.799999237061</ele>
        <time>2022-08-21T07:34:37.000Z</time>
      </trkpt>
      <trkpt lat="47.25529" lon="-2.29747">
        <ele>22.200000762939</ele>
        <time>2022-08-21T07:34:40.000Z</time>
      </trkpt>
      <trkpt lat="47.25526" lon="-2.29743">
        <ele>22.60000038147</ele>
        <time>2022-08-21T07:34:41.000Z</time>
      </trkpt>
      <trkpt lat="47.25524" lon="-2.2974">
        <ele>23</ele>
        <time>2022-08-21T07:34:42.000Z</time>
      </trkpt>
      <trkpt lat="47.25524" lon="-2.29737">
        <ele>23.39999961853</ele>
        <time>2022-08-21T07:34:43.000Z</time>
      </trkpt>
      <trkpt lat="47.25527" lon="-2.29736">
        <ele>23.799999237061</ele>
        <time>2022-08-21T07:34:44.000Z</time>
      </trkpt>
      <trkpt lat="47.25535" lon="-2.29731">
        <ele>23.799999237061</ele>
        <time>2022-08-21T07:34:46.000Z</time>
      </trkpt>
      <trkpt lat="47.25561" lon="-2.29716">
        <ele>23.799999237061</ele>
        <time>2022-08-21T07:34:51.000Z</time>
      </trkpt>
      <trkpt lat="47.25574" lon="-2.29712">
        <ele>23.39999961853</ele>
        <time>2022-08-21T07:34:53.000Z</time>
      </trkpt>
      <trkpt lat="47.2558" lon="-2.29711">
        <ele>23</ele>
        <time>2022-08-21T07:34:54.000Z</time>
      </trkpt>
      <trkpt lat="47.25586" lon="-2.2971">
        <ele>22.60000038147</ele>
        <time>2022-08-21T07:34:55.000Z</time>
      </trkpt>
      <trkpt lat="47.25591" lon="-2.29708">
        <ele>22.200000762939</ele>
        <time>2022-08-21T07:34:56.000Z</time>
      </trkpt>
      <trkpt lat="47.25597" lon="-2.29708">
        <ele>21.799999237061</ele>
        <time>2022-08-21T07:34:57.000Z</time>
      </trkpt>
      <trkpt lat="47.25626" lon="-2.29703">
        <ele>21.799999237061</ele>
        <time>2022-08-21T07:35:02.000Z</time>
      </trkpt>
      <trkpt lat="47.25638" lon="-2.29701">
        <ele>21.200000762939</ele>
        <time>2022-08-21T07:35:04.000Z</time>
      </trkpt>
      <trkpt lat="47.25644" lon="-2.29701">
        <ele>20.799999237061</ele>
        <time>2022-08-21T07:35:05.000Z</time>
      </trkpt>
      <trkpt lat="47.25649" lon="-2.297">
        <ele>20.39999961853</ele>
        <time>2022-08-21T07:35:06.000Z</time>
      </trkpt>
      <trkpt lat="47.25656" lon="-2.297">
        <ele>20</ele>
        <time>2022-08-21T07:35:07.000Z</time>
      </trkpt>
      <trkpt lat="47.25662" lon="-2.29699">
        <ele>19.60000038147</ele>
        <time>2022-08-21T07:35:08.000Z</time>
      </trkpt>
      <trkpt lat="47.25702" lon="-2.29699">
        <ele>19.60000038147</ele>
        <time>2022-08-21T07:35:14.000Z</time>
      </trkpt>
      <trkpt lat="47.25709" lon="-2.29697">
        <ele>18.799999237061</ele>
        <time>2022-08-21T07:35:15.000Z</time>
      </trkpt>
      <trkpt lat="47.25716" lon="-2.29694">
        <ele>18.39999961853</ele>
        <time>2022-08-21T07:35:16.000Z</time>
      </trkpt>
      <trkpt lat="47.25723" lon="-2.2969">
        <ele>18</ele>
        <time>2022-08-21T07:35:17.000Z</time>
      </trkpt>
      <trkpt lat="47.25729" lon="-2.29687">
        <ele>17.60000038147</ele>
        <time>2022-08-21T07:35:18.000Z</time>
      </trkpt>
      <trkpt lat="47.25748" lon="-2.29678">
        <ele>17.60000038147</ele>
        <time>2022-08-21T07:35:21.000Z</time>
      </trkpt>
      <trkpt lat="47.25759" lon="-2.29672">
        <ele>17.60000038147</ele>
        <time>2022-08-21T07:35:23.000Z</time>
      </trkpt>
      <trkpt lat="47.25783" lon="-2.29661">
        <ele>17.200000762939</ele>
        <time>2022-08-21T07:35:27.000Z</time>
      </trkpt>
      <trkpt lat="47.2579" lon="-2.29658">
        <ele>16.799999237061</ele>
        <time>2022-08-21T07:35:28.000Z</time>
      </trkpt>
      <trkpt lat="47.25796" lon="-2.29656">
        <ele>16.39999961853</ele>
        <time>2022-08-21T07:35:29.000Z</time>
      </trkpt>
      <trkpt lat="47.25802" lon="-2.29653">
        <ele>16</ele>
        <time>2022-08-21T07:35:30.000Z</time>
      </trkpt>
      <trkpt lat="47.25809" lon="-2.2965">
        <ele>15.60000038147</ele>
        <time>2022-08-21T07:35:31.000Z</time>
      </trkpt>
      <trkpt lat="47.25827" lon="-2.29643">
        <ele>15.60000038147</ele>
        <time>2022-08-21T07:35:34.000Z</time>
      </trkpt>
      <trkpt lat="47.25832" lon="-2.29641">
        <ele>15.60000038147</ele>
        <time>2022-08-21T07:35:35.000Z</time>
      </trkpt>
      <trkpt lat="47.25847" lon="-2.29633">
        <ele>15.60000038147</ele>
        <time>2022-08-21T07:35:38.000Z</time>
      </trkpt>
      <trkpt lat="47.25871" lon="-2.29622">
        <ele>15.60000038147</ele>
        <time>2022-08-21T07:35:43.000Z</time>
      </trkpt>
      <trkpt lat="47.25884" lon="-2.29614">
        <ele>15.60000038147</ele>
        <time>2022-08-21T07:35:46.000Z</time>
      </trkpt>
      <trkpt lat="47.25893" lon="-2.29606">
        <ele>15.60000038147</ele>
        <time>2022-08-21T07:35:49.000Z</time>
      </trkpt>
      <trkpt lat="47.25899" lon="-2.29599">
        <ele>15.60000038147</ele>
        <time>2022-08-21T07:35:51.000Z</time>
      </trkpt>
      <trkpt lat="47.259" lon="-2.29587">
        <ele>15.60000038147</ele>
        <time>2022-08-21T07:35:53.000Z</time>
      </trkpt>
      <trkpt lat="47.25903" lon="-2.29567">
        <ele>16</ele>
        <time>2022-08-21T07:35:56.000Z</time>
      </trkpt>
      <trkpt lat="47.25905" lon="-2.2956">
        <ele>16.39999961853</ele>
        <time>2022-08-21T07:35:57.000Z</time>
      </trkpt>
      <trkpt lat="47.25906" lon="-2.29552">
        <ele>16.799999237061</ele>
        <time>2022-08-21T07:35:58.000Z</time>
      </trkpt>
      <trkpt lat="47.25907" lon="-2.29545">
        <ele>17.200000762939</ele>
        <time>2022-08-21T07:35:59.000Z</time>
      </trkpt>
      <trkpt lat="47.25907" lon="-2.29537">
        <ele>17.60000038147</ele>
        <time>2022-08-21T07:36:00.000Z</time>
      </trkpt>
      <trkpt lat="47.25913" lon="-2.295">
        <ele>17.60000038147</ele>
        <time>2022-08-21T07:36:05.000Z</time>
      </trkpt>
      <trkpt lat="47.25914" lon="-2.29493">
        <ele>18</ele>
        <time>2022-08-21T07:36:06.000Z</time>
      </trkpt>
      <trkpt lat="47.25915" lon="-2.29486">
        <ele>18.39999961853</ele>
        <time>2022-08-21T07:36:07.000Z</time>
      </trkpt>
      <trkpt lat="47.25916" lon="-2.29479">
        <ele>18.799999237061</ele>
        <time>2022-08-21T07:36:08.000Z</time>
      </trkpt>
      <trkpt lat="47.25917" lon="-2.29472">
        <ele>19.39999961853</ele>
        <time>2022-08-21T07:36:09.000Z</time>
      </trkpt>
      <trkpt lat="47.25918" lon="-2.29465">
        <ele>19.799999237061</ele>
        <time>2022-08-21T07:36:10.000Z</time>
      </trkpt>
      <trkpt lat="47.25919" lon="-2.29451">
        <ele>19.799999237061</ele>
        <time>2022-08-21T07:36:12.000Z</time>
      </trkpt>
      <trkpt lat="47.25923" lon="-2.29422">
        <ele>20.200000762939</ele>
        <time>2022-08-21T07:36:16.000Z</time>
      </trkpt>
      <trkpt lat="47.25924" lon="-2.29415">
        <ele>20.60000038147</ele>
        <time>2022-08-21T07:36:17.000Z</time>
      </trkpt>
      <trkpt lat="47.25925" lon="-2.29408">
        <ele>21</ele>
        <time>2022-08-21T07:36:18.000Z</time>
      </trkpt>
      <trkpt lat="47.25926" lon="-2.29401">
        <ele>21.39999961853</ele>
        <time>2022-08-21T07:36:19.000Z</time>
      </trkpt>
      <trkpt lat="47.25927" lon="-2.29394">
        <ele>21.799999237061</ele>
        <time>2022-08-21T07:36:20.000Z</time>
      </trkpt>
      <trkpt lat="47.25929" lon="-2.29373">
        <ele>21.799999237061</ele>
        <time>2022-08-21T07:36:23.000Z</time>
      </trkpt>
      <trkpt lat="47.25931" lon="-2.29351">
        <ele>21.799999237061</ele>
        <time>2022-08-21T07:36:26.000Z</time>
      </trkpt>
      <trkpt lat="47.25932" lon="-2.29344">
        <ele>22.200000762939</ele>
        <time>2022-08-21T07:36:27.000Z</time>
      </trkpt>
      <trkpt lat="47.25932" lon="-2.29337">
        <ele>22.60000038147</ele>
        <time>2022-08-21T07:36:28.000Z</time>
      </trkpt>
      <trkpt lat="47.25933" lon="-2.2933">
        <ele>23.39999961853</ele>
        <time>2022-08-21T07:36:29.000Z</time>
      </trkpt>
      <trkpt lat="47.25934" lon="-2.29323">
        <ele>23.799999237061</ele>
        <time>2022-08-21T07:36:30.000Z</time>
      </trkpt>
      <trkpt lat="47.25938" lon="-2.29294">
        <ele>23.799999237061</ele>
        <time>2022-08-21T07:36:34.000Z</time>
      </trkpt>
      <trkpt lat="47.25941" lon="-2.29279">
        <ele>24.200000762939</ele>
        <time>2022-08-21T07:36:36.000Z</time>
      </trkpt>
      <trkpt lat="47.25942" lon="-2.29272">
        <ele>24.60000038147</ele>
        <time>2022-08-21T07:36:37.000Z</time>
      </trkpt>
      <trkpt lat="47.25943" lon="-2.29265">
        <ele>25</ele>
        <time>2022-08-21T07:36:38.000Z</time>
      </trkpt>
      <trkpt lat="47.25944" lon="-2.29258">
        <ele>25.39999961853</ele>
        <time>2022-08-21T07:36:39.000Z</time>
      </trkpt>
      <trkpt lat="47.25945" lon="-2.29251">
        <ele>25.799999237061</ele>
        <time>2022-08-21T07:36:40.000Z</time>
      </trkpt>
      <trkpt lat="47.25946" lon="-2.29236">
        <ele>25.799999237061</ele>
        <time>2022-08-21T07:36:42.000Z</time>
      </trkpt>
      <trkpt lat="47.25949" lon="-2.29209">
        <ele>26.39999961853</ele>
        <time>2022-08-21T07:36:46.000Z</time>
      </trkpt>
      <trkpt lat="47.25949" lon="-2.29201">
        <ele>26.799999237061</ele>
        <time>2022-08-21T07:36:47.000Z</time>
      </trkpt>
      <trkpt lat="47.25949" lon="-2.29194">
        <ele>27.200000762939</ele>
        <time>2022-08-21T07:36:48.000Z</time>
      </trkpt>
      <trkpt lat="47.2595" lon="-2.29187">
        <ele>27.60000038147</ele>
        <time>2022-08-21T07:36:49.000Z</time>
      </trkpt>
      <trkpt lat="47.2595" lon="-2.2918">
        <ele>28</ele>
        <time>2022-08-21T07:36:50.000Z</time>
      </trkpt>
      <trkpt lat="47.25951" lon="-2.29139">
        <ele>28.39999961853</ele>
        <time>2022-08-21T07:36:56.000Z</time>
      </trkpt>
      <trkpt lat="47.25951" lon="-2.29133">
        <ele>28.799999237061</ele>
        <time>2022-08-21T07:36:57.000Z</time>
      </trkpt>
      <trkpt lat="47.25951" lon="-2.29125">
        <ele>29.200000762939</ele>
        <time>2022-08-21T07:36:58.000Z</time>
      </trkpt>
      <trkpt lat="47.25951" lon="-2.29119">
        <ele>29.799999237061</ele>
        <time>2022-08-21T07:36:59.000Z</time>
      </trkpt>
      <trkpt lat="47.25952" lon="-2.29112">
        <ele>30.200000762939</ele>
        <time>2022-08-21T07:37:00.000Z</time>
      </trkpt>
      <trkpt lat="47.2595" lon="-2.29057">
        <ele>30.200000762939</ele>
        <time>2022-08-21T07:37:08.000Z</time>
      </trkpt>
      <trkpt lat="47.25949" lon="-2.29044">
        <ele>30.60000038147</ele>
        <time>2022-08-21T07:37:10.000Z</time>
      </trkpt>
      <trkpt lat="47.25949" lon="-2.29037">
        <ele>31</ele>
        <time>2022-08-21T07:37:11.000Z</time>
      </trkpt>
      <trkpt lat="47.25948" lon="-2.2903">
        <ele>31.39999961853</ele>
        <time>2022-08-21T07:37:12.000Z</time>
      </trkpt>
      <trkpt lat="47.25947" lon="-2.29023">
        <ele>31.799999237061</ele>
        <time>2022-08-21T07:37:13.000Z</time>
      </trkpt>
      <trkpt lat="47.25947" lon="-2.29016">
        <ele>32.200000762939</ele>
        <time>2022-08-21T07:37:14.000Z</time>
      </trkpt>
      <trkpt lat="47.25946" lon="-2.28997">
        <ele>32.200000762939</ele>
        <time>2022-08-21T07:37:17.000Z</time>
      </trkpt>
      <trkpt lat="47.25941" lon="-2.2895">
        <ele>32.200000762939</ele>
        <time>2022-08-21T07:37:24.000Z</time>
      </trkpt>
      <trkpt lat="47.25938" lon="-2.28929">
        <ele>32.599998474121</ele>
        <time>2022-08-21T07:37:27.000Z</time>
      </trkpt>
      <trkpt lat="47.25938" lon="-2.28922">
        <ele>33</ele>
        <time>2022-08-21T07:37:28.000Z</time>
      </trkpt>
      <trkpt lat="47.25937" lon="-2.28915">
        <ele>33.400001525879</ele>
        <time>2022-08-21T07:37:29.000Z</time>
      </trkpt>
      <trkpt lat="47.25936" lon="-2.28909">
        <ele>33.799999237061</ele>
        <time>2022-08-21T07:37:30.000Z</time>
      </trkpt>
      <trkpt lat="47.25935" lon="-2.28902">
        <ele>34.200000762939</ele>
        <time>2022-08-21T07:37:31.000Z</time>
      </trkpt>
      <trkpt lat="47.25931" lon="-2.28875">
        <ele>34.200000762939</ele>
        <time>2022-08-21T07:37:35.000Z</time>
      </trkpt>
      <trkpt lat="47.25929" lon="-2.28854">
        <ele>34.200000762939</ele>
        <time>2022-08-21T07:37:38.000Z</time>
      </trkpt>
      <trkpt lat="47.25927" lon="-2.2882">
        <ele>34.200000762939</ele>
        <time>2022-08-21T07:37:44.000Z</time>
      </trkpt>
      <trkpt lat="47.25923" lon="-2.2882">
        <ele>34.200000762939</ele>
        <time>2022-08-21T07:37:45.000Z</time>
      </trkpt>
      <trkpt lat="47.25914" lon="-2.2883">
        <ele>34.200000762939</ele>
        <time>2022-08-21T07:37:48.000Z</time>
      </trkpt>
      <trkpt lat="47.25896" lon="-2.28852">
        <ele>34.200000762939</ele>
        <time>2022-08-21T07:37:53.000Z</time>
      </trkpt>
      <trkpt lat="47.25881" lon="-2.2886">
        <ele>34.200000762939</ele>
        <time>2022-08-21T07:37:56.000Z</time>
      </trkpt>
      <trkpt lat="47.25871" lon="-2.28863">
        <ele>34.200000762939</ele>
        <time>2022-08-21T07:37:58.000Z</time>
      </trkpt>
      <trkpt lat="47.25862" lon="-2.28868">
        <ele>34.200000762939</ele>
        <time>2022-08-21T07:38:00.000Z</time>
      </trkpt>
      <trkpt lat="47.25857" lon="-2.28869">
        <ele>34.200000762939</ele>
        <time>2022-08-21T07:38:01.000Z</time>
      </trkpt>
      <trkpt lat="47.25851" lon="-2.2887">
        <ele>34.200000762939</ele>
        <time>2022-08-21T07:38:02.000Z</time>
      </trkpt>
      <trkpt lat="47.25812" lon="-2.28881">
        <ele>34.200000762939</ele>
        <time>2022-08-21T07:38:09.000Z</time>
      </trkpt>
      <trkpt lat="47.25766" lon="-2.28894">
        <ele>34.200000762939</ele>
        <time>2022-08-21T07:38:17.000Z</time>
      </trkpt>
      <trkpt lat="47.25761" lon="-2.28897">
        <ele>34.200000762939</ele>
        <time>2022-08-21T07:38:18.000Z</time>
      </trkpt>
      <trkpt lat="47.25747" lon="-2.28903">
        <ele>33.799999237061</ele>
        <time>2022-08-21T07:38:21.000Z</time>
      </trkpt>
      <trkpt lat="47.25742" lon="-2.28906">
        <ele>33.400001525879</ele>
        <time>2022-08-21T07:38:22.000Z</time>
      </trkpt>
      <trkpt lat="47.25736" lon="-2.28907">
        <ele>33</ele>
        <time>2022-08-21T07:38:23.000Z</time>
      </trkpt>
      <trkpt lat="47.2573" lon="-2.2891">
        <ele>32.599998474121</ele>
        <time>2022-08-21T07:38:24.000Z</time>
      </trkpt>
      <trkpt lat="47.25726" lon="-2.28915">
        <ele>32.200000762939</ele>
        <time>2022-08-21T07:38:25.000Z</time>
      </trkpt>
      <trkpt lat="47.25717" lon="-2.28939">
        <ele>32.200000762939</ele>
        <time>2022-08-21T07:38:28.000Z</time>
      </trkpt>
      <trkpt lat="47.25715" lon="-2.28958">
        <ele>32.200000762939</ele>
        <time>2022-08-21T07:38:30.000Z</time>
      </trkpt>
      <trkpt lat="47.25711" lon="-2.28975">
        <ele>32.200000762939</ele>
        <time>2022-08-21T07:38:32.000Z</time>
      </trkpt>
      <trkpt lat="47.25707" lon="-2.28981">
        <ele>32.200000762939</ele>
        <time>2022-08-21T07:38:33.000Z</time>
      </trkpt>
      <trkpt lat="47.25693" lon="-2.28991">
        <ele>31.799999237061</ele>
        <time>2022-08-21T07:38:36.000Z</time>
      </trkpt>
      <trkpt lat="47.25686" lon="-2.28993">
        <ele>31.39999961853</ele>
        <time>2022-08-21T07:38:37.000Z</time>
      </trkpt>
      <trkpt lat="47.2568" lon="-2.28993">
        <ele>31</ele>
        <time>2022-08-21T07:38:38.000Z</time>
      </trkpt>
      <trkpt lat="47.25674" lon="-2.28995">
        <ele>30.60000038147</ele>
        <time>2022-08-21T07:38:39.000Z</time>
      </trkpt>
      <trkpt lat="47.25667" lon="-2.28997">
        <ele>30.200000762939</ele>
        <time>2022-08-21T07:38:40.000Z</time>
      </trkpt>
      <trkpt lat="47.25659" lon="-2.28996">
        <ele>30.200000762939</ele>
        <time>2022-08-21T07:38:41.000Z</time>
      </trkpt>
      <trkpt lat="47.25641" lon="-2.28988">
        <ele>30.200000762939</ele>
        <time>2022-08-21T07:38:43.000Z</time>
      </trkpt>
      <trkpt lat="47.2563" lon="-2.28983">
        <ele>29.60000038147</ele>
        <time>2022-08-21T07:38:45.000Z</time>
      </trkpt>
      <trkpt lat="47.25623" lon="-2.2898">
        <ele>29.200000762939</ele>
        <time>2022-08-21T07:38:46.000Z</time>
      </trkpt>
      <trkpt lat="47.25617" lon="-2.28978">
        <ele>28.799999237061</ele>
        <time>2022-08-21T07:38:47.000Z</time>
      </trkpt>
      <trkpt lat="47.25611" lon="-2.28976">
        <ele>28.39999961853</ele>
        <time>2022-08-21T07:38:48.000Z</time>
      </trkpt>
      <trkpt lat="47.25605" lon="-2.28975">
        <ele>28</ele>
        <time>2022-08-21T07:38:49.000Z</time>
      </trkpt>
      <trkpt lat="47.25599" lon="-2.28977">
        <ele>28</ele>
        <time>2022-08-21T07:38:50.000Z</time>
      </trkpt>
      <trkpt lat="47.25588" lon="-2.28986">
        <ele>28</ele>
        <time>2022-08-21T07:38:52.000Z</time>
      </trkpt>
      <trkpt lat="47.25579" lon="-2.28994">
        <ele>28</ele>
        <time>2022-08-21T07:38:54.000Z</time>
      </trkpt>
      <trkpt lat="47.25562" lon="-2.29002">
        <ele>28</ele>
        <time>2022-08-21T07:38:57.000Z</time>
      </trkpt>
      <trkpt lat="47.25548" lon="-2.29013">
        <ele>28</ele>
        <time>2022-08-21T07:39:00.000Z</time>
      </trkpt>
      <trkpt lat="47.25545" lon="-2.29019">
        <ele>28</ele>
        <time>2022-08-21T07:39:01.000Z</time>
      </trkpt>
      <trkpt lat="47.25542" lon="-2.29041">
        <ele>28</ele>
        <time>2022-08-21T07:39:04.000Z</time>
      </trkpt>
      <trkpt lat="47.25544" lon="-2.29058">
        <ele>28</ele>
        <time>2022-08-21T07:39:06.000Z</time>
      </trkpt>
      <trkpt lat="47.25546" lon="-2.29074">
        <ele>28</ele>
        <time>2022-08-21T07:39:08.000Z</time>
      </trkpt>
      <trkpt lat="47.25547" lon="-2.29083">
        <ele>28</ele>
        <time>2022-08-21T07:39:09.000Z</time>
      </trkpt>
      <trkpt lat="47.25538" lon="-2.29105">
        <ele>28</ele>
        <time>2022-08-21T07:39:12.000Z</time>
      </trkpt>
      <trkpt lat="47.25523" lon="-2.29117">
        <ele>28</ele>
        <time>2022-08-21T07:39:15.000Z</time>
      </trkpt>
      <trkpt lat="47.25518" lon="-2.29119">
        <ele>28</ele>
        <time>2022-08-21T07:39:16.000Z</time>
      </trkpt>
      <trkpt lat="47.25496" lon="-2.29125">
        <ele>28</ele>
        <time>2022-08-21T07:39:20.000Z</time>
      </trkpt>
      <trkpt lat="47.25485" lon="-2.2913">
        <ele>28.39999961853</ele>
        <time>2022-08-21T07:39:22.000Z</time>
      </trkpt>
      <trkpt lat="47.2548" lon="-2.29133">
        <ele>28.799999237061</ele>
        <time>2022-08-21T07:39:23.000Z</time>
      </trkpt>
      <trkpt lat="47.25475" lon="-2.29135">
        <ele>29.200000762939</ele>
        <time>2022-08-21T07:39:24.000Z</time>
      </trkpt>
      <trkpt lat="47.2547" lon="-2.29139">
        <ele>29.60000038147</ele>
        <time>2022-08-21T07:39:25.000Z</time>
      </trkpt>
      <trkpt lat="47.25465" lon="-2.29142">
        <ele>30</ele>
        <time>2022-08-21T07:39:26.000Z</time>
      </trkpt>
      <trkpt lat="47.25451" lon="-2.29155">
        <ele>30</ele>
        <time>2022-08-21T07:39:29.000Z</time>
      </trkpt>
      <trkpt lat="47.25439" lon="-2.29169">
        <ele>30</ele>
        <time>2022-08-21T07:39:32.000Z</time>
      </trkpt>
      <trkpt lat="47.25427" lon="-2.29182">
        <ele>30</ele>
        <time>2022-08-21T07:39:35.000Z</time>
      </trkpt>
      <trkpt lat="47.25398" lon="-2.29203">
        <ele>30</ele>
        <time>2022-08-21T07:39:41.000Z</time>
      </trkpt>
      <trkpt lat="47.25387" lon="-2.29217">
        <ele>30.60000038147</ele>
        <time>2022-08-21T07:39:44.000Z</time>
      </trkpt>
      <trkpt lat="47.25383" lon="-2.29223">
        <ele>31</ele>
        <time>2022-08-21T07:39:45.000Z</time>
      </trkpt>
      <trkpt lat="47.2538" lon="-2.29229">
        <ele>31.39999961853</ele>
        <time>2022-08-21T07:39:46.000Z</time>
      </trkpt>
      <trkpt lat="47.25377" lon="-2.29234">
        <ele>32.200000762939</ele>
        <time>2022-08-21T07:39:47.000Z</time>
      </trkpt>
      <trkpt lat="47.25371" lon="-2.29247">
        <ele>32.200000762939</ele>
        <time>2022-08-21T07:39:49.000Z</time>
      </trkpt>
      <trkpt lat="47.25367" lon="-2.29261">
        <ele>32.200000762939</ele>
        <time>2022-08-21T07:39:51.000Z</time>
      </trkpt>
      <trkpt lat="47.25365" lon="-2.29275">
        <ele>32.200000762939</ele>
        <time>2022-08-21T07:39:53.000Z</time>
      </trkpt>
      <trkpt lat="47.2536" lon="-2.29297">
        <ele>32.200000762939</ele>
        <time>2022-08-21T07:39:56.000Z</time>
      </trkpt>
      <trkpt lat="47.25355" lon="-2.29328">
        <ele>32.200000762939</ele>
        <time>2022-08-21T07:40:00.000Z</time>
      </trkpt>
      <trkpt lat="47.2535" lon="-2.29358">
        <ele>32.200000762939</ele>
        <time>2022-08-21T07:40:04.000Z</time>
      </trkpt>
      <trkpt lat="47.25347" lon="-2.29373">
        <ele>32.200000762939</ele>
        <time>2022-08-21T07:40:06.000Z</time>
      </trkpt>
      <trkpt lat="47.25343" lon="-2.29414">
        <ele>32.200000762939</ele>
        <time>2022-08-21T07:40:11.000Z</time>
      </trkpt>
      <trkpt lat="47.25344" lon="-2.29428">
        <ele>32.200000762939</ele>
        <time>2022-08-21T07:40:13.000Z</time>
      </trkpt>
      <trkpt lat="47.25345" lon="-2.29441">
        <ele>32.200000762939</ele>
        <time>2022-08-21T07:40:15.000Z</time>
      </trkpt>
      <trkpt lat="47.25342" lon="-2.29472">
        <ele>32.200000762939</ele>
        <time>2022-08-21T07:40:19.000Z</time>
      </trkpt>
      <trkpt lat="47.25338" lon="-2.29488">
        <ele>32.200000762939</ele>
        <time>2022-08-21T07:40:21.000Z</time>
      </trkpt>
      <trkpt lat="47.25332" lon="-2.29502">
        <ele>32.200000762939</ele>
        <time>2022-08-21T07:40:23.000Z</time>
      </trkpt>
      <trkpt lat="47.25328" lon="-2.29507">
        <ele>32.200000762939</ele>
        <time>2022-08-21T07:40:24.000Z</time>
      </trkpt>
      <trkpt lat="47.2532" lon="-2.29517">
        <ele>32.200000762939</ele>
        <time>2022-08-21T07:40:26.000Z</time>
      </trkpt>
      <trkpt lat="47.253" lon="-2.29529">
        <ele>32.200000762939</ele>
        <time>2022-08-21T07:40:30.000Z</time>
      </trkpt>
      <trkpt lat="47.25269" lon="-2.29543">
        <ele>32.200000762939</ele>
        <time>2022-08-21T07:40:36.000Z</time>
      </trkpt>
      <trkpt lat="47.25239" lon="-2.29568">
        <ele>32.200000762939</ele>
        <time>2022-08-21T07:40:42.000Z</time>
      </trkpt>
      <trkpt lat="47.25229" lon="-2.29576">
        <ele>32.200000762939</ele>
        <time>2022-08-21T07:40:44.000Z</time>
      </trkpt>
      <trkpt lat="47.25213" lon="-2.29583">
        <ele>32.200000762939</ele>
        <time>2022-08-21T07:40:47.000Z</time>
      </trkpt>
      <trkpt lat="47.25202" lon="-2.29601">
        <ele>32.200000762939</ele>
        <time>2022-08-21T07:40:50.000Z</time>
      </trkpt>
      <trkpt lat="47.252" lon="-2.29609">
        <ele>32.200000762939</ele>
        <time>2022-08-21T07:40:51.000Z</time>
      </trkpt>
      <trkpt lat="47.25196" lon="-2.29623">
        <ele>32.200000762939</ele>
        <time>2022-08-21T07:40:53.000Z</time>
      </trkpt>
      <trkpt lat="47.25189" lon="-2.29635">
        <ele>32.200000762939</ele>
        <time>2022-08-21T07:40:55.000Z</time>
      </trkpt>
      <trkpt lat="47.25186" lon="-2.29658">
        <ele>32.200000762939</ele>
        <time>2022-08-21T07:40:58.000Z</time>
      </trkpt>
      <trkpt lat="47.25189" lon="-2.2968">
        <ele>32.200000762939</ele>
        <time>2022-08-21T07:41:01.000Z</time>
      </trkpt>
      <trkpt lat="47.2519" lon="-2.29688">
        <ele>32.200000762939</ele>
        <time>2022-08-21T07:41:02.000Z</time>
      </trkpt>
      <trkpt lat="47.25191" lon="-2.29696">
        <ele>32.200000762939</ele>
        <time>2022-08-21T07:41:03.000Z</time>
      </trkpt>
      <trkpt lat="47.25191" lon="-2.29745">
        <ele>32.200000762939</ele>
        <time>2022-08-21T07:41:10.000Z</time>
      </trkpt>
      <trkpt lat="47.25188" lon="-2.29751">
        <ele>32.200000762939</ele>
        <time>2022-08-21T07:41:12.000Z</time>
      </trkpt>
      <trkpt lat="47.25182" lon="-2.29751">
        <ele>32.200000762939</ele>
        <time>2022-08-21T07:41:14.000Z</time>
      </trkpt>
      <trkpt lat="47.25172" lon="-2.29746">
        <ele>32.200000762939</ele>
        <time>2022-08-21T07:41:17.000Z</time>
      </trkpt>
      <trkpt lat="47.25164" lon="-2.29744">
        <ele>32.200000762939</ele>
        <time>2022-08-21T07:41:19.000Z</time>
      </trkpt>
      <trkpt lat="47.25129" lon="-2.29728">
        <ele>32.200000762939</ele>
        <time>2022-08-21T07:41:26.000Z</time>
      </trkpt>
      <trkpt lat="47.25088" lon="-2.29716">
        <ele>32.200000762939</ele>
        <time>2022-08-21T07:41:34.000Z</time>
      </trkpt>
      <trkpt lat="47.25067" lon="-2.29715">
        <ele>32.200000762939</ele>
        <time>2022-08-21T07:41:38.000Z</time>
      </trkpt>
      <trkpt lat="47.2505" lon="-2.29717">
        <ele>32.200000762939</ele>
        <time>2022-08-21T07:41:41.000Z</time>
      </trkpt>
      <trkpt lat="47.2501" lon="-2.29725">
        <ele>32.200000762939</ele>
        <time>2022-08-21T07:41:48.000Z</time>
      </trkpt>
      <trkpt lat="47.24965" lon="-2.29737">
        <ele>32.200000762939</ele>
        <time>2022-08-21T07:41:56.000Z</time>
      </trkpt>
      <trkpt lat="47.24932" lon="-2.29748">
        <ele>32.599998474121</ele>
        <time>2022-08-21T07:42:02.000Z</time>
      </trkpt>
      <trkpt lat="47.24927" lon="-2.29751">
        <ele>33</ele>
        <time>2022-08-21T07:42:03.000Z</time>
      </trkpt>
      <trkpt lat="47.24922" lon="-2.29753">
        <ele>33.400001525879</ele>
        <time>2022-08-21T07:42:04.000Z</time>
      </trkpt>
      <trkpt lat="47.24917" lon="-2.29755">
        <ele>33.799999237061</ele>
        <time>2022-08-21T07:42:05.000Z</time>
      </trkpt>
      <trkpt lat="47.24911" lon="-2.29757">
        <ele>34.200000762939</ele>
        <time>2022-08-21T07:42:06.000Z</time>
      </trkpt>
      <trkpt lat="47.24882" lon="-2.29772">
        <ele>34.200000762939</ele>
        <time>2022-08-21T07:42:12.000Z</time>
      </trkpt>
      <trkpt lat="47.24871" lon="-2.29784">
        <ele>34.200000762939</ele>
        <time>2022-08-21T07:42:16.000Z</time>
      </trkpt>
      <trkpt lat="47.24867" lon="-2.29802">
        <ele>34.200000762939</ele>
        <time>2022-08-21T07:42:20.000Z</time>
      </trkpt>
      <trkpt lat="47.24865" lon="-2.29808">
        <ele>34.200000762939</ele>
        <time>2022-08-21T07:42:21.000Z</time>
      </trkpt>
      <trkpt lat="47.24857" lon="-2.29831">
        <ele>34.200000762939</ele>
        <time>2022-08-21T07:42:25.000Z</time>
      </trkpt>
      <trkpt lat="47.24842" lon="-2.29842">
        <ele>34.200000762939</ele>
        <time>2022-08-21T07:42:29.000Z</time>
      </trkpt>
      <trkpt lat="47.24828" lon="-2.29847">
        <ele>34.200000762939</ele>
        <time>2022-08-21T07:42:32.000Z</time>
      </trkpt>
      <trkpt lat="47.24813" lon="-2.29852">
        <ele>34.200000762939</ele>
        <time>2022-08-21T07:42:35.000Z</time>
      </trkpt>
      <trkpt lat="47.24781" lon="-2.29869">
        <ele>34.200000762939</ele>
        <time>2022-08-21T07:42:41.000Z</time>
      </trkpt>
      <trkpt lat="47.24761" lon="-2.29884">
        <ele>34.200000762939</ele>
        <time>2022-08-21T07:42:45.000Z</time>
      </trkpt>
      <trkpt lat="47.24752" lon="-2.29892">
        <ele>34.200000762939</ele>
        <time>2022-08-21T07:42:47.000Z</time>
      </trkpt>
      <trkpt lat="47.24746" lon="-2.29912">
        <ele>34.200000762939</ele>
        <time>2022-08-21T07:42:50.000Z</time>
      </trkpt>
      <trkpt lat="47.24746" lon="-2.29928">
        <ele>34.200000762939</ele>
        <time>2022-08-21T07:42:52.000Z</time>
      </trkpt>
      <trkpt lat="47.24744" lon="-2.29962">
        <ele>34.200000762939</ele>
        <time>2022-08-21T07:42:56.000Z</time>
      </trkpt>
      <trkpt lat="47.24741" lon="-2.2998">
        <ele>34.200000762939</ele>
        <time>2022-08-21T07:42:58.000Z</time>
      </trkpt>
      <trkpt lat="47.24732" lon="-2.30002">
        <ele>34.200000762939</ele>
        <time>2022-08-21T07:43:01.000Z</time>
      </trkpt>
      <trkpt lat="47.24728" lon="-2.30009">
        <ele>33.799999237061</ele>
        <time>2022-08-21T07:43:02.000Z</time>
      </trkpt>
      <trkpt lat="47.24723" lon="-2.30016">
        <ele>33.400001525879</ele>
        <time>2022-08-21T07:43:03.000Z</time>
      </trkpt>
      <trkpt lat="47.24718" lon="-2.30022">
        <ele>33</ele>
        <time>2022-08-21T07:43:04.000Z</time>
      </trkpt>
      <trkpt lat="47.24713" lon="-2.30027">
        <ele>32.200000762939</ele>
        <time>2022-08-21T07:43:05.000Z</time>
      </trkpt>
      <trkpt lat="47.24707" lon="-2.30033">
        <ele>32.200000762939</ele>
        <time>2022-08-21T07:43:06.000Z</time>
      </trkpt>
      <trkpt lat="47.2467" lon="-2.30063">
        <ele>32.200000762939</ele>
        <time>2022-08-21T07:43:13.000Z</time>
      </trkpt>
      <trkpt lat="47.2465" lon="-2.3008">
        <ele>31.799999237061</ele>
        <time>2022-08-21T07:43:18.000Z</time>
      </trkpt>
      <trkpt lat="47.24649" lon="-2.30082">
        <ele>31.39999961853</ele>
        <time>2022-08-21T07:43:19.000Z</time>
      </trkpt>
      <trkpt lat="47.24648" lon="-2.30083">
        <ele>31</ele>
        <time>2022-08-21T07:43:20.000Z</time>
      </trkpt>
      <trkpt lat="47.24646" lon="-2.30084">
        <ele>30.39999961853</ele>
        <time>2022-08-21T07:43:21.000Z</time>
      </trkpt>
      <trkpt lat="47.24645" lon="-2.30085">
        <ele>30</ele>
        <time>2022-08-21T07:43:22.000Z</time>
      </trkpt>
      <trkpt lat="47.24633" lon="-2.30095">
        <ele>30</ele>
        <time>2022-08-21T07:43:26.000Z</time>
      </trkpt>
      <trkpt lat="47.24613" lon="-2.30117">
        <ele>30</ele>
        <time>2022-08-21T07:43:31.000Z</time>
      </trkpt>
      <trkpt lat="47.24594" lon="-2.30138">
        <ele>30</ele>
        <time>2022-08-21T07:43:35.000Z</time>
      </trkpt>
      <trkpt lat="47.24586" lon="-2.3015">
        <ele>30</ele>
        <time>2022-08-21T07:43:37.000Z</time>
      </trkpt>
      <trkpt lat="47.24551" lon="-2.30201">
        <ele>30</ele>
        <time>2022-08-21T07:43:45.000Z</time>
      </trkpt>
      <trkpt lat="47.2452" lon="-2.30234">
        <ele>30</ele>
        <time>2022-08-21T07:43:52.000Z</time>
      </trkpt>
      <trkpt lat="47.24517" lon="-2.30237">
        <ele>29.60000038147</ele>
        <time>2022-08-21T07:43:53.000Z</time>
      </trkpt>
      <trkpt lat="47.24515" lon="-2.3024">
        <ele>28.799999237061</ele>
        <time>2022-08-21T07:43:54.000Z</time>
      </trkpt>
      <trkpt lat="47.24513" lon="-2.30242">
        <ele>28.39999961853</ele>
        <time>2022-08-21T07:43:55.000Z</time>
      </trkpt>
      <trkpt lat="47.24513" lon="-2.30242">
        <ele>28</ele>
        <time>2022-08-21T07:43:56.000Z</time>
      </trkpt>
      <trkpt lat="47.24511" lon="-2.30243">
        <ele>28</ele>
        <time>2022-08-21T07:44:11.000Z</time>
      </trkpt>
      <trkpt lat="47.24506" lon="-2.30245">
        <ele>28</ele>
        <time>2022-08-21T07:44:14.000Z</time>
      </trkpt>
      <trkpt lat="47.24504" lon="-2.30247">
        <ele>28</ele>
        <time>2022-08-21T07:44:15.000Z</time>
      </trkpt>
      <trkpt lat="47.24494" lon="-2.3025">
        <ele>28</ele>
        <time>2022-08-21T07:44:18.000Z</time>
      </trkpt>
      <trkpt lat="47.24484" lon="-2.3024">
        <ele>28</ele>
        <time>2022-08-21T07:44:21.000Z</time>
      </trkpt>
      <trkpt lat="47.24477" lon="-2.30224">
        <ele>28</ele>
        <time>2022-08-21T07:44:24.000Z</time>
      </trkpt>
      <trkpt lat="47.2447" lon="-2.30208">
        <ele>28</ele>
        <time>2022-08-21T07:44:27.000Z</time>
      </trkpt>
      <trkpt lat="47.24465" lon="-2.30198">
        <ele>28</ele>
        <time>2022-08-21T07:44:29.000Z</time>
      </trkpt>
      <trkpt lat="47.24457" lon="-2.30192">
        <ele>28</ele>
        <time>2022-08-21T07:44:31.000Z</time>
      </trkpt>
      <trkpt lat="47.24447" lon="-2.30182">
        <ele>28</ele>
        <time>2022-08-21T07:44:34.000Z</time>
      </trkpt>
      <trkpt lat="47.24445" lon="-2.30177">
        <ele>28</ele>
        <time>2022-08-21T07:44:35.000Z</time>
      </trkpt>
      <trkpt lat="47.24434" lon="-2.30157">
        <ele>28</ele>
        <time>2022-08-21T07:44:39.000Z</time>
      </trkpt>
      <trkpt lat="47.2443" lon="-2.30154">
        <ele>28</ele>
        <time>2022-08-21T07:44:40.000Z</time>
      </trkpt>
      <trkpt lat="47.24412" lon="-2.30144">
        <ele>28</ele>
        <time>2022-08-21T07:44:44.000Z</time>
      </trkpt>
      <trkpt lat="47.24399" lon="-2.30123">
        <ele>28</ele>
        <time>2022-08-21T07:44:48.000Z</time>
      </trkpt>
      <trkpt lat="47.24387" lon="-2.30097">
        <ele>28</ele>
        <time>2022-08-21T07:44:52.000Z</time>
      </trkpt>
      <trkpt lat="47.24383" lon="-2.30093">
        <ele>28</ele>
        <time>2022-08-21T07:44:53.000Z</time>
      </trkpt>
      <trkpt lat="47.2437" lon="-2.30095">
        <ele>28</ele>
        <time>2022-08-21T07:44:56.000Z</time>
      </trkpt>
      <trkpt lat="47.24365" lon="-2.30098">
        <ele>28</ele>
        <time>2022-08-21T07:44:57.000Z</time>
      </trkpt>
      <trkpt lat="47.24343" lon="-2.3012">
        <ele>28</ele>
        <time>2022-08-21T07:45:02.000Z</time>
      </trkpt>
      <trkpt lat="47.24333" lon="-2.30128">
        <ele>28</ele>
        <time>2022-08-21T07:45:04.000Z</time>
      </trkpt>
      <trkpt lat="47.24317" lon="-2.3013">
        <ele>28</ele>
        <time>2022-08-21T07:45:07.000Z</time>
      </trkpt>
      <trkpt lat="47.24308" lon="-2.30124">
        <ele>28</ele>
        <time>2022-08-21T07:45:09.000Z</time>
      </trkpt>
      <trkpt lat="47.24298" lon="-2.3012">
        <ele>28</ele>
        <time>2022-08-21T07:45:11.000Z</time>
      </trkpt>
      <trkpt lat="47.24293" lon="-2.3012">
        <ele>28</ele>
        <time>2022-08-21T07:45:12.000Z</time>
      </trkpt>
      <trkpt lat="47.24278" lon="-2.3013">
        <ele>28</ele>
        <time>2022-08-21T07:45:15.000Z</time>
      </trkpt>
      <trkpt lat="47.24274" lon="-2.30134">
        <ele>28</ele>
        <time>2022-08-21T07:45:16.000Z</time>
      </trkpt>
      <trkpt lat="47.2426" lon="-2.30151">
        <ele>27.60000038147</ele>
        <time>2022-08-21T07:45:19.000Z</time>
      </trkpt>
      <trkpt lat="47.24255" lon="-2.30157">
        <ele>27</ele>
        <time>2022-08-21T07:45:20.000Z</time>
      </trkpt>
      <trkpt lat="47.2425" lon="-2.30162">
        <ele>26.60000038147</ele>
        <time>2022-08-21T07:45:21.000Z</time>
      </trkpt>
      <trkpt lat="47.24246" lon="-2.30169">
        <ele>26.200000762939</ele>
        <time>2022-08-21T07:45:22.000Z</time>
      </trkpt>
      <trkpt lat="47.24242" lon="-2.30176">
        <ele>25.799999237061</ele>
        <time>2022-08-21T07:45:23.000Z</time>
      </trkpt>
      <trkpt lat="47.24238" lon="-2.30184">
        <ele>25.799999237061</ele>
        <time>2022-08-21T07:45:24.000Z</time>
      </trkpt>
      <trkpt lat="47.24235" lon="-2.30192">
        <ele>25.39999961853</ele>
        <time>2022-08-21T07:45:25.000Z</time>
      </trkpt>
      <trkpt lat="47.24232" lon="-2.302">
        <ele>25</ele>
        <time>2022-08-21T07:45:26.000Z</time>
      </trkpt>
      <trkpt lat="47.24228" lon="-2.30207">
        <ele>24.39999961853</ele>
        <time>2022-08-21T07:45:27.000Z</time>
      </trkpt>
      <trkpt lat="47.24224" lon="-2.30214">
        <ele>24</ele>
        <time>2022-08-21T07:45:28.000Z</time>
      </trkpt>
      <trkpt lat="47.2422" lon="-2.30218">
        <ele>23.60000038147</ele>
        <time>2022-08-21T07:45:29.000Z</time>
      </trkpt>
      <trkpt lat="47.24211" lon="-2.30224">
        <ele>23.60000038147</ele>
        <time>2022-08-21T07:45:31.000Z</time>
      </trkpt>
      <trkpt lat="47.24207" lon="-2.30227">
        <ele>22.799999237061</ele>
        <time>2022-08-21T07:45:32.000Z</time>
      </trkpt>
      <trkpt lat="47.24202" lon="-2.3023">
        <ele>22.200000762939</ele>
        <time>2022-08-21T07:45:33.000Z</time>
      </trkpt>
      <trkpt lat="47.24198" lon="-2.30233">
        <ele>21.799999237061</ele>
        <time>2022-08-21T07:45:34.000Z</time>
      </trkpt>
      <trkpt lat="47.24194" lon="-2.30237">
        <ele>21.39999961853</ele>
        <time>2022-08-21T07:45:35.000Z</time>
      </trkpt>
      <trkpt lat="47.24192" lon="-2.30243">
        <ele>20.799999237061</ele>
        <time>2022-08-21T07:45:36.000Z</time>
      </trkpt>
      <trkpt lat="47.24192" lon="-2.30251">
        <ele>20.39999961853</ele>
        <time>2022-08-21T07:45:37.000Z</time>
      </trkpt>
      <trkpt lat="47.24193" lon="-2.30257">
        <ele>19.799999237061</ele>
        <time>2022-08-21T07:45:38.000Z</time>
      </trkpt>
      <trkpt lat="47.24194" lon="-2.30265">
        <ele>19.39999961853</ele>
        <time>2022-08-21T07:45:39.000Z</time>
      </trkpt>
      <trkpt lat="47.24195" lon="-2.30272">
        <ele>19</ele>
        <time>2022-08-21T07:45:40.000Z</time>
      </trkpt>
      <trkpt lat="47.242" lon="-2.30304">
        <ele>19</ele>
        <time>2022-08-21T07:45:45.000Z</time>
      </trkpt>
      <trkpt lat="47.24201" lon="-2.30316">
        <ele>19</ele>
        <time>2022-08-21T07:45:47.000Z</time>
      </trkpt>
      <trkpt lat="47.24207" lon="-2.30328">
        <ele>19</ele>
        <time>2022-08-21T07:45:50.000Z</time>
      </trkpt>
      <trkpt lat="47.24214" lon="-2.30328">
        <ele>19</ele>
        <time>2022-08-21T07:45:53.000Z</time>
      </trkpt>
      <trkpt lat="47.24217" lon="-2.30328">
        <ele>19.39999961853</ele>
        <time>2022-08-21T07:45:54.000Z</time>
      </trkpt>
      <trkpt lat="47.24219" lon="-2.30327">
        <ele>19.799999237061</ele>
        <time>2022-08-21T07:45:55.000Z</time>
      </trkpt>
      <trkpt lat="47.24221" lon="-2.30326">
        <ele>20.200000762939</ele>
        <time>2022-08-21T07:45:56.000Z</time>
      </trkpt>
      <trkpt lat="47.24223" lon="-2.30324">
        <ele>21</ele>
        <time>2022-08-21T07:45:57.000Z</time>
      </trkpt>
      <trkpt lat="47.24227" lon="-2.30322">
        <ele>21.39999961853</ele>
        <time>2022-08-21T07:45:59.000Z</time>
      </trkpt>
      <trkpt lat="47.24229" lon="-2.30322">
        <ele>21.799999237061</ele>
        <time>2022-08-21T07:46:00.000Z</time>
      </trkpt>
      <trkpt lat="47.24232" lon="-2.30324">
        <ele>22.39999961853</ele>
        <time>2022-08-21T07:46:01.000Z</time>
      </trkpt>
      <trkpt lat="47.24233" lon="-2.30326">
        <ele>22.799999237061</ele>
        <time>2022-08-21T07:46:02.000Z</time>
      </trkpt>
      <trkpt lat="47.24235" lon="-2.30329">
        <ele>23.200000762939</ele>
        <time>2022-08-21T07:46:03.000Z</time>
      </trkpt>
      <trkpt lat="47.24237" lon="-2.30332">
        <ele>23.200000762939</ele>
        <time>2022-08-21T07:46:04.000Z</time>
      </trkpt>
      <trkpt lat="47.24239" lon="-2.30336">
        <ele>23.200000762939</ele>
        <time>2022-08-21T07:46:05.000Z</time>
      </trkpt>
      <trkpt lat="47.24246" lon="-2.30351">
        <ele>23.60000038147</ele>
        <time>2022-08-21T07:46:09.000Z</time>
      </trkpt>
      <trkpt lat="47.24248" lon="-2.30355">
        <ele>24</ele>
        <time>2022-08-21T07:46:10.000Z</time>
      </trkpt>
      <trkpt lat="47.2425" lon="-2.30358">
        <ele>24.39999961853</ele>
        <time>2022-08-21T07:46:11.000Z</time>
      </trkpt>
      <trkpt lat="47.24252" lon="-2.30362">
        <ele>24.799999237061</ele>
        <time>2022-08-21T07:46:12.000Z</time>
      </trkpt>
      <trkpt lat="47.24255" lon="-2.30366">
        <ele>25.200000762939</ele>
        <time>2022-08-21T07:46:13.000Z</time>
      </trkpt>
      <trkpt lat="47.24263" lon="-2.30381">
        <ele>25.200000762939</ele>
        <time>2022-08-21T07:46:16.000Z</time>
      </trkpt>
      <trkpt lat="47.2428" lon="-2.30405">
        <ele>25.200000762939</ele>
        <time>2022-08-21T07:46:22.000Z</time>
      </trkpt>
      <trkpt lat="47.24298" lon="-2.30416">
        <ele>25.200000762939</ele>
        <time>2022-08-21T07:46:27.000Z</time>
      </trkpt>
      <trkpt lat="47.24313" lon="-2.30431">
        <ele>25.200000762939</ele>
        <time>2022-08-21T07:46:31.000Z</time>
      </trkpt>
      <trkpt lat="47.24327" lon="-2.30437">
        <ele>25.200000762939</ele>
        <time>2022-08-21T07:46:35.000Z</time>
      </trkpt>
      <trkpt lat="47.24339" lon="-2.30438">
        <ele>25.200000762939</ele>
        <time>2022-08-21T07:46:38.000Z</time>
      </trkpt>
      <trkpt lat="47.24345" lon="-2.30437">
        <ele>25.200000762939</ele>
        <time>2022-08-21T07:46:39.000Z</time>
      </trkpt>
      <trkpt lat="47.24356" lon="-2.30436">
        <ele>24.799999237061</ele>
        <time>2022-08-21T07:46:41.000Z</time>
      </trkpt>
      <trkpt lat="47.24359" lon="-2.30438">
        <ele>24.39999961853</ele>
        <time>2022-08-21T07:46:42.000Z</time>
      </trkpt>
      <trkpt lat="47.24361" lon="-2.3044">
        <ele>24</ele>
        <time>2022-08-21T07:46:43.000Z</time>
      </trkpt>
      <trkpt lat="47.2436" lon="-2.30444">
        <ele>23.60000038147</ele>
        <time>2022-08-21T07:46:44.000Z</time>
      </trkpt>
      <trkpt lat="47.24359" lon="-2.30449">
        <ele>23.200000762939</ele>
        <time>2022-08-21T07:46:45.000Z</time>
      </trkpt>
      <trkpt lat="47.24358" lon="-2.30454">
        <ele>23.200000762939</ele>
        <time>2022-08-21T07:46:46.000Z</time>
      </trkpt>
      <trkpt lat="47.24357" lon="-2.30482">
        <ele>22.799999237061</ele>
        <time>2022-08-21T07:46:51.000Z</time>
      </trkpt>
      <trkpt lat="47.24356" lon="-2.30488">
        <ele>22.39999961853</ele>
        <time>2022-08-21T07:46:52.000Z</time>
      </trkpt>
      <trkpt lat="47.24355" lon="-2.30492">
        <ele>22</ele>
        <time>2022-08-21T07:46:53.000Z</time>
      </trkpt>
      <trkpt lat="47.24353" lon="-2.30497">
        <ele>21.60000038147</ele>
        <time>2022-08-21T07:46:54.000Z</time>
      </trkpt>
      <trkpt lat="47.24352" lon="-2.30502">
        <ele>21.200000762939</ele>
        <time>2022-08-21T07:46:55.000Z</time>
      </trkpt>
      <trkpt lat="47.24351" lon="-2.30507">
        <ele>21.200000762939</ele>
        <time>2022-08-21T07:46:56.000Z</time>
      </trkpt>
      <trkpt lat="47.24351" lon="-2.30513">
        <ele>20.799999237061</ele>
        <time>2022-08-21T07:46:57.000Z</time>
      </trkpt>
      <trkpt lat="47.24351" lon="-2.3052">
        <ele>20.200000762939</ele>
        <time>2022-08-21T07:46:58.000Z</time>
      </trkpt>
      <trkpt lat="47.24352" lon="-2.30527">
        <ele>19.60000038147</ele>
        <time>2022-08-21T07:46:59.000Z</time>
      </trkpt>
      <trkpt lat="47.24354" lon="-2.30533">
        <ele>19.200000762939</ele>
        <time>2022-08-21T07:47:00.000Z</time>
      </trkpt>
      <trkpt lat="47.24357" lon="-2.30538">
        <ele>18.60000038147</ele>
        <time>2022-08-21T07:47:01.000Z</time>
      </trkpt>
      <trkpt lat="47.24359" lon="-2.30542">
        <ele>18.200000762939</ele>
        <time>2022-08-21T07:47:02.000Z</time>
      </trkpt>
      <trkpt lat="47.24361" lon="-2.30545">
        <ele>17.799999237061</ele>
        <time>2022-08-21T07:47:03.000Z</time>
      </trkpt>
      <trkpt lat="47.24364" lon="-2.30547">
        <ele>17.39999961853</ele>
        <time>2022-08-21T07:47:04.000Z</time>
      </trkpt>
      <trkpt lat="47.24366" lon="-2.30549">
        <ele>17</ele>
        <time>2022-08-21T07:47:05.000Z</time>
      </trkpt>
      <trkpt lat="47.24371" lon="-2.30554">
        <ele>16.60000038147</ele>
        <time>2022-08-21T07:47:06.000Z</time>
      </trkpt>
      <trkpt lat="47.24386" lon="-2.30564">
        <ele>16.60000038147</ele>
        <time>2022-08-21T07:47:09.000Z</time>
      </trkpt>
      <trkpt lat="47.24392" lon="-2.30567">
        <ele>16.60000038147</ele>
        <time>2022-08-21T07:47:10.000Z</time>
      </trkpt>
      <trkpt lat="47.24405" lon="-2.30568">
        <ele>16.60000038147</ele>
        <time>2022-08-21T07:47:12.000Z</time>
      </trkpt>
      <trkpt lat="47.24418" lon="-2.30568">
        <ele>16.60000038147</ele>
        <time>2022-08-21T07:47:14.000Z</time>
      </trkpt>
      <trkpt lat="47.24423" lon="-2.30567">
        <ele>17</ele>
        <time>2022-08-21T07:47:15.000Z</time>
      </trkpt>
      <trkpt lat="47.24428" lon="-2.30565">
        <ele>17.39999961853</ele>
        <time>2022-08-21T07:47:16.000Z</time>
      </trkpt>
      <trkpt lat="47.24432" lon="-2.30562">
        <ele>17.799999237061</ele>
        <time>2022-08-21T07:47:17.000Z</time>
      </trkpt>
      <trkpt lat="47.24436" lon="-2.3056">
        <ele>18.39999961853</ele>
        <time>2022-08-21T07:47:18.000Z</time>
      </trkpt>
      <trkpt lat="47.24439" lon="-2.30559">
        <ele>18.799999237061</ele>
        <time>2022-08-21T07:47:19.000Z</time>
      </trkpt>
      <trkpt lat="47.24451" lon="-2.30551">
        <ele>18.799999237061</ele>
        <time>2022-08-21T07:47:22.000Z</time>
      </trkpt>
      <trkpt lat="47.24458" lon="-2.30546">
        <ele>19.200000762939</ele>
        <time>2022-08-21T07:47:24.000Z</time>
      </trkpt>
      <trkpt lat="47.2446" lon="-2.30545">
        <ele>19.60000038147</ele>
        <time>2022-08-21T07:47:25.000Z</time>
      </trkpt>
      <trkpt lat="47.24463" lon="-2.30544">
        <ele>20</ele>
        <time>2022-08-21T07:47:26.000Z</time>
      </trkpt>
      <trkpt lat="47.24466" lon="-2.30545">
        <ele>20.39999961853</ele>
        <time>2022-08-21T07:47:27.000Z</time>
      </trkpt>
      <trkpt lat="47.24468" lon="-2.30548">
        <ele>20.799999237061</ele>
        <time>2022-08-21T07:47:28.000Z</time>
      </trkpt>
      <trkpt lat="47.24468" lon="-2.30551">
        <ele>20.799999237061</ele>
        <time>2022-08-21T07:47:29.000Z</time>
      </trkpt>
      <trkpt lat="47.24467" lon="-2.30569">
        <ele>20.799999237061</ele>
        <time>2022-08-21T07:47:34.000Z</time>
      </trkpt>
      <trkpt lat="47.24466" lon="-2.30573">
        <ele>21.200000762939</ele>
        <time>2022-08-21T07:47:35.000Z</time>
      </trkpt>
      <trkpt lat="47.24466" lon="-2.30576">
        <ele>21.60000038147</ele>
        <time>2022-08-21T07:47:36.000Z</time>
      </trkpt>
      <trkpt lat="47.24465" lon="-2.3058">
        <ele>22</ele>
        <time>2022-08-21T07:47:37.000Z</time>
      </trkpt>
      <trkpt lat="47.24465" lon="-2.30583">
        <ele>22.39999961853</ele>
        <time>2022-08-21T07:47:38.000Z</time>
      </trkpt>
      <trkpt lat="47.24465" lon="-2.30586">
        <ele>22.799999237061</ele>
        <time>2022-08-21T07:47:39.000Z</time>
      </trkpt>
      <trkpt lat="47.24463" lon="-2.30589">
        <ele>22.799999237061</ele>
        <time>2022-08-21T07:47:40.000Z</time>
      </trkpt>
      <trkpt lat="47.24455" lon="-2.30596">
        <ele>22.799999237061</ele>
        <time>2022-08-21T07:47:44.000Z</time>
      </trkpt>
      <trkpt lat="47.2445" lon="-2.30601">
        <ele>22.799999237061</ele>
        <time>2022-08-21T07:47:47.000Z</time>
      </trkpt>
      <trkpt lat="47.24447" lon="-2.30605">
        <ele>22.799999237061</ele>
        <time>2022-08-21T07:47:49.000Z</time>
      </trkpt>
      <trkpt lat="47.24432" lon="-2.3062">
        <ele>22.799999237061</ele>
        <time>2022-08-21T07:47:54.000Z</time>
      </trkpt>
      <trkpt lat="47.24416" lon="-2.30635">
        <ele>22.799999237061</ele>
        <time>2022-08-21T07:47:59.000Z</time>
      </trkpt>
      <trkpt lat="47.24408" lon="-2.30641">
        <ele>22.799999237061</ele>
        <time>2022-08-21T07:48:01.000Z</time>
      </trkpt>
      <trkpt lat="47.24394" lon="-2.30649">
        <ele>22.799999237061</ele>
        <time>2022-08-21T07:48:04.000Z</time>
      </trkpt>
      <trkpt lat="47.24379" lon="-2.3066">
        <ele>22.799999237061</ele>
        <time>2022-08-21T07:48:07.000Z</time>
      </trkpt>
      <trkpt lat="47.24369" lon="-2.30667">
        <ele>22.799999237061</ele>
        <time>2022-08-21T07:48:09.000Z</time>
      </trkpt>
      <trkpt lat="47.24338" lon="-2.3069">
        <ele>22.799999237061</ele>
        <time>2022-08-21T07:48:15.000Z</time>
      </trkpt>
      <trkpt lat="47.24327" lon="-2.30699">
        <ele>22.799999237061</ele>
        <time>2022-08-21T07:48:17.000Z</time>
      </trkpt>
      <trkpt lat="47.24319" lon="-2.30703">
        <ele>22.39999961853</ele>
        <time>2022-08-21T07:48:18.000Z</time>
      </trkpt>
      <trkpt lat="47.24311" lon="-2.30707">
        <ele>22</ele>
        <time>2022-08-21T07:48:19.000Z</time>
      </trkpt>
      <trkpt lat="47.24304" lon="-2.3071">
        <ele>21.60000038147</ele>
        <time>2022-08-21T07:48:20.000Z</time>
      </trkpt>
      <trkpt lat="47.24296" lon="-2.30714">
        <ele>21.200000762939</ele>
        <time>2022-08-21T07:48:21.000Z</time>
      </trkpt>
      <trkpt lat="47.24289" lon="-2.30718">
        <ele>20.799999237061</ele>
        <time>2022-08-21T07:48:22.000Z</time>
      </trkpt>
      <trkpt lat="47.24268" lon="-2.30733">
        <ele>20.39999961853</ele>
        <time>2022-08-21T07:48:25.000Z</time>
      </trkpt>
      <trkpt lat="47.24261" lon="-2.30739">
        <ele>20</ele>
        <time>2022-08-21T07:48:26.000Z</time>
      </trkpt>
      <trkpt lat="47.24257" lon="-2.30746">
        <ele>19.60000038147</ele>
        <time>2022-08-21T07:48:27.000Z</time>
      </trkpt>
      <trkpt lat="47.24253" lon="-2.30755">
        <ele>19.200000762939</ele>
        <time>2022-08-21T07:48:28.000Z</time>
      </trkpt>
      <trkpt lat="47.24249" lon="-2.30764">
        <ele>18.799999237061</ele>
        <time>2022-08-21T07:48:29.000Z</time>
      </trkpt>
      <trkpt lat="47.24239" lon="-2.30794">
        <ele>18.200000762939</ele>
        <time>2022-08-21T07:48:32.000Z</time>
      </trkpt>
      <trkpt lat="47.24234" lon="-2.30803">
        <ele>17.799999237061</ele>
        <time>2022-08-21T07:48:33.000Z</time>
      </trkpt>
      <trkpt lat="47.24229" lon="-2.30813">
        <ele>17.39999961853</ele>
        <time>2022-08-21T07:48:34.000Z</time>
      </trkpt>
      <trkpt lat="47.24224" lon="-2.30823">
        <ele>17</ele>
        <time>2022-08-21T07:48:35.000Z</time>
      </trkpt>
      <trkpt lat="47.24219" lon="-2.30832">
        <ele>16.39999961853</ele>
        <time>2022-08-21T07:48:36.000Z</time>
      </trkpt>
      <trkpt lat="47.24214" lon="-2.30841">
        <ele>16</ele>
        <time>2022-08-21T07:48:37.000Z</time>
      </trkpt>
      <trkpt lat="47.24209" lon="-2.30849">
        <ele>15.39999961853</ele>
        <time>2022-08-21T07:48:38.000Z</time>
      </trkpt>
      <trkpt lat="47.24205" lon="-2.30858">
        <ele>14.800000190735</ele>
        <time>2022-08-21T07:48:39.000Z</time>
      </trkpt>
      <trkpt lat="47.24201" lon="-2.30866">
        <ele>14.199999809265</ele>
        <time>2022-08-21T07:48:40.000Z</time>
      </trkpt>
      <trkpt lat="47.24197" lon="-2.30873">
        <ele>13.39999961853</ele>
        <time>2022-08-21T07:48:41.000Z</time>
      </trkpt>
      <trkpt lat="47.24193" lon="-2.30879">
        <ele>12.800000190735</ele>
        <time>2022-08-21T07:48:42.000Z</time>
      </trkpt>
      <trkpt lat="47.2419" lon="-2.30884">
        <ele>12.199999809265</ele>
        <time>2022-08-21T07:48:43.000Z</time>
      </trkpt>
      <trkpt lat="47.24188" lon="-2.30888">
        <ele>11.800000190735</ele>
        <time>2022-08-21T07:48:44.000Z</time>
      </trkpt>
      <trkpt lat="47.24186" lon="-2.30891">
        <ele>11.199999809265</ele>
        <time>2022-08-21T07:48:45.000Z</time>
      </trkpt>
      <trkpt lat="47.24185" lon="-2.30895">
        <ele>10.60000038147</ele>
        <time>2022-08-21T07:48:46.000Z</time>
      </trkpt>
      <trkpt lat="47.24183" lon="-2.30899">
        <ele>10</ele>
        <time>2022-08-21T07:48:47.000Z</time>
      </trkpt>
      <trkpt lat="47.2417" lon="-2.30926">
        <ele>10</ele>
        <time>2022-08-21T07:48:52.000Z</time>
      </trkpt>
      <trkpt lat="47.24167" lon="-2.30932">
        <ele>9.6000003814697</ele>
        <time>2022-08-21T07:48:53.000Z</time>
      </trkpt>
      <trkpt lat="47.24164" lon="-2.30938">
        <ele>9.1999998092651</ele>
        <time>2022-08-21T07:48:54.000Z</time>
      </trkpt>
      <trkpt lat="47.24161" lon="-2.30945">
        <ele>8.8000001907349</ele>
        <time>2022-08-21T07:48:55.000Z</time>
      </trkpt>
      <trkpt lat="47.24158" lon="-2.3095">
        <ele>8.3999996185303</ele>
        <time>2022-08-21T07:48:56.000Z</time>
      </trkpt>
      <trkpt lat="47.24154" lon="-2.30957">
        <ele>8</ele>
        <time>2022-08-21T07:48:57.000Z</time>
      </trkpt>
      <trkpt lat="47.24126" lon="-2.31006">
        <ele>8</ele>
        <time>2022-08-21T07:49:04.000Z</time>
      </trkpt>
      <trkpt lat="47.24122" lon="-2.31019">
        <ele>8</ele>
        <time>2022-08-21T07:49:06.000Z</time>
      </trkpt>
      <trkpt lat="47.24122" lon="-2.31025">
        <ele>8</ele>
        <time>2022-08-21T07:49:07.000Z</time>
      </trkpt>
      <trkpt lat="47.2413" lon="-2.31039">
        <ele>8</ele>
        <time>2022-08-21T07:49:10.000Z</time>
      </trkpt>
      <trkpt lat="47.24141" lon="-2.3106">
        <ele>8</ele>
        <time>2022-08-21T07:49:14.000Z</time>
      </trkpt>
      <trkpt lat="47.2415" lon="-2.31076">
        <ele>8</ele>
        <time>2022-08-21T07:49:17.000Z</time>
      </trkpt>
      <trkpt lat="47.24174" lon="-2.31121">
        <ele>8</ele>
        <time>2022-08-21T07:49:25.000Z</time>
      </trkpt>
      <trkpt lat="47.24199" lon="-2.31168">
        <ele>8</ele>
        <time>2022-08-21T07:49:33.000Z</time>
      </trkpt>
      <trkpt lat="47.24223" lon="-2.31217">
        <ele>8</ele>
        <time>2022-08-21T07:49:41.000Z</time>
      </trkpt>
      <trkpt lat="47.24246" lon="-2.31259">
        <ele>8</ele>
        <time>2022-08-21T07:49:49.000Z</time>
      </trkpt>
      <trkpt lat="47.24257" lon="-2.3126">
        <ele>8</ele>
        <time>2022-08-21T07:49:54.000Z</time>
      </trkpt>
      <trkpt lat="47.24273" lon="-2.31249">
        <ele>8</ele>
        <time>2022-08-21T07:50:00.000Z</time>
      </trkpt>
      <trkpt lat="47.24288" lon="-2.31241">
        <ele>8</ele>
        <time>2022-08-21T07:50:05.000Z</time>
      </trkpt>
      <trkpt lat="47.24308" lon="-2.3123">
        <ele>8</ele>
        <time>2022-08-21T07:50:11.000Z</time>
      </trkpt>
      <trkpt lat="47.24315" lon="-2.31229">
        <ele>8</ele>
        <time>2022-08-21T07:50:14.000Z</time>
      </trkpt>
      <trkpt lat="47.2432" lon="-2.31232">
        <ele>8</ele>
        <time>2022-08-21T07:50:16.000Z</time>
      </trkpt>
      <trkpt lat="47.24324" lon="-2.31238">
        <ele>8</ele>
        <time>2022-08-21T07:50:18.000Z</time>
      </trkpt>
      <trkpt lat="47.24328" lon="-2.3125">
        <ele>8</ele>
        <time>2022-08-21T07:50:21.000Z</time>
      </trkpt>
      <trkpt lat="47.24339" lon="-2.31282">
        <ele>8</ele>
        <time>2022-08-21T07:50:27.000Z</time>
      </trkpt>
      <trkpt lat="47.24357" lon="-2.31324">
        <ele>8</ele>
        <time>2022-08-21T07:50:34.000Z</time>
      </trkpt>
      <trkpt lat="47.24363" lon="-2.31337">
        <ele>8</ele>
        <time>2022-08-21T07:50:37.000Z</time>
      </trkpt>
      <trkpt lat="47.24369" lon="-2.31339">
        <ele>8</ele>
        <time>2022-08-21T07:50:39.000Z</time>
      </trkpt>
      <trkpt lat="47.24378" lon="-2.31331">
        <ele>8</ele>
        <time>2022-08-21T07:50:42.000Z</time>
      </trkpt>
      <trkpt lat="47.24385" lon="-2.31325">
        <ele>8</ele>
        <time>2022-08-21T07:50:44.000Z</time>
      </trkpt>
      <trkpt lat="47.24392" lon="-2.31317">
        <ele>8</ele>
        <time>2022-08-21T07:50:46.000Z</time>
      </trkpt>
      <trkpt lat="47.24399" lon="-2.31311">
        <ele>8</ele>
        <time>2022-08-21T07:50:48.000Z</time>
      </trkpt>
      <trkpt lat="47.2441" lon="-2.31302">
        <ele>8</ele>
        <time>2022-08-21T07:50:51.000Z</time>
      </trkpt>
      <trkpt lat="47.24413" lon="-2.31299">
        <ele>8.3999996185303</ele>
        <time>2022-08-21T07:50:52.000Z</time>
      </trkpt>
      <trkpt lat="47.24417" lon="-2.31296">
        <ele>9</ele>
        <time>2022-08-21T07:50:53.000Z</time>
      </trkpt>
      <trkpt lat="47.2442" lon="-2.31293">
        <ele>9.3999996185303</ele>
        <time>2022-08-21T07:50:54.000Z</time>
      </trkpt>
      <trkpt lat="47.24424" lon="-2.3129">
        <ele>9.8000001907349</ele>
        <time>2022-08-21T07:50:55.000Z</time>
      </trkpt>
      <trkpt lat="47.24427" lon="-2.31287">
        <ele>10.199999809265</ele>
        <time>2022-08-21T07:50:56.000Z</time>
      </trkpt>
      <trkpt lat="47.24431" lon="-2.31284">
        <ele>10.199999809265</ele>
        <time>2022-08-21T07:50:57.000Z</time>
      </trkpt>
      <trkpt lat="47.24434" lon="-2.31282">
        <ele>10.199999809265</ele>
        <time>2022-08-21T07:50:58.000Z</time>
      </trkpt>
      <trkpt lat="47.24444" lon="-2.31275">
        <ele>10.60000038147</ele>
        <time>2022-08-21T07:51:01.000Z</time>
      </trkpt>
      <trkpt lat="47.24448" lon="-2.31272">
        <ele>11</ele>
        <time>2022-08-21T07:51:02.000Z</time>
      </trkpt>
      <trkpt lat="47.24452" lon="-2.31269">
        <ele>11.60000038147</ele>
        <time>2022-08-21T07:51:03.000Z</time>
      </trkpt>
      <trkpt lat="47.24455" lon="-2.31266">
        <ele>12</ele>
        <time>2022-08-21T07:51:04.000Z</time>
      </trkpt>
      <trkpt lat="47.24456" lon="-2.31263">
        <ele>12.39999961853</ele>
        <time>2022-08-21T07:51:05.000Z</time>
      </trkpt>
      <trkpt lat="47.24457" lon="-2.3126">
        <ele>12.39999961853</ele>
        <time>2022-08-21T07:51:06.000Z</time>
      </trkpt>
      <trkpt lat="47.24453" lon="-2.31245">
        <ele>12.39999961853</ele>
        <time>2022-08-21T07:51:10.000Z</time>
      </trkpt>
      <trkpt lat="47.24451" lon="-2.31241">
        <ele>12.39999961853</ele>
        <time>2022-08-21T07:51:11.000Z</time>
      </trkpt>
      <trkpt lat="47.24443" lon="-2.31222">
        <ele>12.39999961853</ele>
        <time>2022-08-21T07:51:16.000Z</time>
      </trkpt>
      <trkpt lat="47.24433" lon="-2.31226">
        <ele>12.39999961853</ele>
        <time>2022-08-21T07:51:19.000Z</time>
      </trkpt>
      <trkpt lat="47.2443" lon="-2.31226">
        <ele>12</ele>
        <time>2022-08-21T07:51:20.000Z</time>
      </trkpt>
      <trkpt lat="47.24428" lon="-2.31226">
        <ele>11.60000038147</ele>
        <time>2022-08-21T07:51:21.000Z</time>
      </trkpt>
      <trkpt lat="47.24427" lon="-2.31223">
        <ele>11.199999809265</ele>
        <time>2022-08-21T07:51:22.000Z</time>
      </trkpt>
      <trkpt lat="47.24425" lon="-2.31219">
        <ele>10.800000190735</ele>
        <time>2022-08-21T07:51:23.000Z</time>
      </trkpt>
      <trkpt lat="47.24423" lon="-2.31214">
        <ele>10.39999961853</ele>
        <time>2022-08-21T07:51:24.000Z</time>
      </trkpt>
      <trkpt lat="47.24418" lon="-2.31207">
        <ele>10.39999961853</ele>
        <time>2022-08-21T07:51:26.000Z</time>
      </trkpt>
      <trkpt lat="47.24416" lon="-2.31201">
        <ele>10.800000190735</ele>
        <time>2022-08-21T07:51:28.000Z</time>
      </trkpt>
      <trkpt lat="47.24414" lon="-2.31198">
        <ele>11.199999809265</ele>
        <time>2022-08-21T07:51:29.000Z</time>
      </trkpt>
      <trkpt lat="47.24412" lon="-2.31195">
        <ele>11.60000038147</ele>
        <time>2022-08-21T07:51:30.000Z</time>
      </trkpt>
      <trkpt lat="47.2441" lon="-2.31194">
        <ele>12</ele>
        <time>2022-08-21T07:51:31.000Z</time>
      </trkpt>
      <trkpt lat="47.24408" lon="-2.31192">
        <ele>12.39999961853</ele>
        <time>2022-08-21T07:51:32.000Z</time>
      </trkpt>
      <trkpt lat="47.24404" lon="-2.31188">
        <ele>12.39999961853</ele>
        <time>2022-08-21T07:51:34.000Z</time>
      </trkpt>
      <trkpt lat="47.24403" lon="-2.31186">
        <ele>12.39999961853</ele>
        <time>2022-08-21T07:51:35.000Z</time>
      </trkpt>
      <trkpt lat="47.24401" lon="-2.31184">
        <ele>12.800000190735</ele>
        <time>2022-08-21T07:51:36.000Z</time>
      </trkpt>
      <trkpt lat="47.244" lon="-2.31182">
        <ele>13.199999809265</ele>
        <time>2022-08-21T07:51:37.000Z</time>
      </trkpt>
      <trkpt lat="47.24398" lon="-2.31181">
        <ele>13.60000038147</ele>
        <time>2022-08-21T07:51:38.000Z</time>
      </trkpt>
      <trkpt lat="47.24397" lon="-2.31179">
        <ele>14</ele>
        <time>2022-08-21T07:51:39.000Z</time>
      </trkpt>
      <trkpt lat="47.24395" lon="-2.31177">
        <ele>14.39999961853</ele>
        <time>2022-08-21T07:51:40.000Z</time>
      </trkpt>
      <trkpt lat="47.24394" lon="-2.31175">
        <ele>14.39999961853</ele>
        <time>2022-08-21T07:51:41.000Z</time>
      </trkpt>
      <trkpt lat="47.24381" lon="-2.3116">
        <ele>14.39999961853</ele>
        <time>2022-08-21T07:51:49.000Z</time>
      </trkpt>
      <trkpt lat="47.24371" lon="-2.31145">
        <ele>14.39999961853</ele>
        <time>2022-08-21T07:51:55.000Z</time>
      </trkpt>
      <trkpt lat="47.24362" lon="-2.31131">
        <ele>14.39999961853</ele>
        <time>2022-08-21T07:52:00.000Z</time>
      </trkpt>
      <trkpt lat="47.24357" lon="-2.31117">
        <ele>14.39999961853</ele>
        <time>2022-08-21T07:52:05.000Z</time>
      </trkpt>
      <trkpt lat="47.24357" lon="-2.31116">
        <ele>14.39999961853</ele>
        <time>2022-08-21T07:52:06.000Z</time>
      </trkpt>
      <trkpt lat="47.24357" lon="-2.31115">
        <ele>14.39999961853</ele>
        <time>2022-08-21T07:52:34.000Z</time>
      </trkpt>
      <trkpt lat="47.24356" lon="-2.31107">
        <ele>14.39999961853</ele>
        <time>2022-08-21T07:52:37.000Z</time>
      </trkpt>
      <trkpt lat="47.24352" lon="-2.31092">
        <ele>14.39999961853</ele>
        <time>2022-08-21T07:52:42.000Z</time>
      </trkpt>
      <trkpt lat="47.24347" lon="-2.31079">
        <ele>14.39999961853</ele>
        <time>2022-08-21T07:52:48.000Z</time>
      </trkpt>
      <trkpt lat="47.2434" lon="-2.31058">
        <ele>14.39999961853</ele>
        <time>2022-08-21T07:52:54.000Z</time>
      </trkpt>
      <trkpt lat="47.2433" lon="-2.31044">
        <ele>14.39999961853</ele>
        <time>2022-08-21T07:52:59.000Z</time>
      </trkpt>
      <trkpt lat="47.24317" lon="-2.3104">
        <ele>14.39999961853</ele>
        <time>2022-08-21T07:53:02.000Z</time>
      </trkpt>
      <trkpt lat="47.24308" lon="-2.31038">
        <ele>14.39999961853</ele>
        <time>2022-08-21T07:53:04.000Z</time>
      </trkpt>
      <trkpt lat="47.24288" lon="-2.31037">
        <ele>14</ele>
        <time>2022-08-21T07:53:09.000Z</time>
      </trkpt>
      <trkpt lat="47.24285" lon="-2.31036">
        <ele>13.60000038147</ele>
        <time>2022-08-21T07:53:10.000Z</time>
      </trkpt>
      <trkpt lat="47.24283" lon="-2.31036">
        <ele>13.199999809265</ele>
        <time>2022-08-21T07:53:11.000Z</time>
      </trkpt>
      <trkpt lat="47.24282" lon="-2.31035">
        <ele>12.800000190735</ele>
        <time>2022-08-21T07:53:12.000Z</time>
      </trkpt>
      <trkpt lat="47.24281" lon="-2.31034">
        <ele>12.39999961853</ele>
        <time>2022-08-21T07:53:13.000Z</time>
      </trkpt>
      <trkpt lat="47.2428" lon="-2.31032">
        <ele>12.39999961853</ele>
        <time>2022-08-21T07:53:14.000Z</time>
      </trkpt>
      <trkpt lat="47.2428" lon="-2.31031">
        <ele>12.39999961853</ele>
        <time>2022-08-21T07:53:16.000Z</time>
      </trkpt>
      <trkpt lat="47.24279" lon="-2.31032">
        <ele>12.39999961853</ele>
        <time>2022-08-21T07:53:52.000Z</time>
      </trkpt>
      <trkpt lat="47.2427" lon="-2.31046">
        <ele>12.39999961853</ele>
        <time>2022-08-21T07:53:57.000Z</time>
      </trkpt>
      <trkpt lat="47.24262" lon="-2.31058">
        <ele>12</ele>
        <time>2022-08-21T07:54:00.000Z</time>
      </trkpt>
      <trkpt lat="47.24261" lon="-2.31063">
        <ele>11.60000038147</ele>
        <time>2022-08-21T07:54:01.000Z</time>
      </trkpt>
      <trkpt lat="47.24261" lon="-2.31067">
        <ele>11.199999809265</ele>
        <time>2022-08-21T07:54:02.000Z</time>
      </trkpt>
      <trkpt lat="47.24262" lon="-2.31071">
        <ele>10.800000190735</ele>
        <time>2022-08-21T07:54:03.000Z</time>
      </trkpt>
      <trkpt lat="47.24262" lon="-2.31075">
        <ele>10.199999809265</ele>
        <time>2022-08-21T07:54:04.000Z</time>
      </trkpt>
      <trkpt lat="47.24266" lon="-2.31083">
        <ele>10.199999809265</ele>
        <time>2022-08-21T07:54:06.000Z</time>
      </trkpt>
      <trkpt lat="47.24268" lon="-2.31088">
        <ele>10.199999809265</ele>
        <time>2022-08-21T07:54:07.000Z</time>
      </trkpt>
      <trkpt lat="47.24274" lon="-2.31102">
        <ele>10.199999809265</ele>
        <time>2022-08-21T07:54:10.000Z</time>
      </trkpt>
      <trkpt lat="47.2428" lon="-2.31117">
        <ele>10.199999809265</ele>
        <time>2022-08-21T07:54:13.000Z</time>
      </trkpt>
      <trkpt lat="47.24292" lon="-2.31147">
        <ele>10.199999809265</ele>
        <time>2022-08-21T07:54:19.000Z</time>
      </trkpt>
      <trkpt lat="47.24295" lon="-2.31153">
        <ele>10.199999809265</ele>
        <time>2022-08-21T07:54:20.000Z</time>
      </trkpt>
      <trkpt lat="47.24304" lon="-2.31176">
        <ele>10.199999809265</ele>
        <time>2022-08-21T07:54:24.000Z</time>
      </trkpt>
      <trkpt lat="47.24311" lon="-2.31193">
        <ele>10.199999809265</ele>
        <time>2022-08-21T07:54:27.000Z</time>
      </trkpt>
      <trkpt lat="47.24321" lon="-2.31215">
        <ele>10.199999809265</ele>
        <time>2022-08-21T07:54:32.000Z</time>
      </trkpt>
      <trkpt lat="47.24322" lon="-2.31218">
        <ele>10.199999809265</ele>
        <time>2022-08-21T07:54:35.000Z</time>
      </trkpt>
      <trkpt lat="47.24321" lon="-2.31222">
        <ele>10.199999809265</ele>
        <time>2022-08-21T07:55:16.000Z</time>
      </trkpt>
      <trkpt lat="47.24318" lon="-2.31227">
        <ele>10.199999809265</ele>
        <time>2022-08-21T07:55:18.000Z</time>
      </trkpt>
      <trkpt lat="47.24312" lon="-2.31245">
        <ele>9.8000001907349</ele>
        <time>2022-08-21T07:55:23.000Z</time>
      </trkpt>
      <trkpt lat="47.24311" lon="-2.3125">
        <ele>9.3999996185303</ele>
        <time>2022-08-21T07:55:24.000Z</time>
      </trkpt>
      <trkpt lat="47.24309" lon="-2.31254">
        <ele>8.6000003814697</ele>
        <time>2022-08-21T07:55:25.000Z</time>
      </trkpt>
      <trkpt lat="47.24307" lon="-2.3126">
        <ele>8.1999998092651</ele>
        <time>2022-08-21T07:55:26.000Z</time>
      </trkpt>
      <trkpt lat="47.24303" lon="-2.3127">
        <ele>8.1999998092651</ele>
        <time>2022-08-21T07:55:28.000Z</time>
      </trkpt>
      <trkpt lat="47.24295" lon="-2.31292">
        <ele>8.1999998092651</ele>
        <time>2022-08-21T07:55:32.000Z</time>
      </trkpt>
      <trkpt lat="47.24292" lon="-2.31296">
        <ele>8.1999998092651</ele>
        <time>2022-08-21T07:55:33.000Z</time>
      </trkpt>
      <trkpt lat="47.24279" lon="-2.31297">
        <ele>8.1999998092651</ele>
        <time>2022-08-21T07:55:36.000Z</time>
      </trkpt>
      <trkpt lat="47.2427" lon="-2.31295">
        <ele>8.1999998092651</ele>
        <time>2022-08-21T07:55:38.000Z</time>
      </trkpt>
      <trkpt lat="47.24261" lon="-2.3129">
        <ele>8.1999998092651</ele>
        <time>2022-08-21T07:55:40.000Z</time>
      </trkpt>
      <trkpt lat="47.24255" lon="-2.31283">
        <ele>8.1999998092651</ele>
        <time>2022-08-21T07:55:42.000Z</time>
      </trkpt>
      <trkpt lat="47.24251" lon="-2.31274">
        <ele>8.1999998092651</ele>
        <time>2022-08-21T07:55:44.000Z</time>
      </trkpt>
      <trkpt lat="47.24244" lon="-2.31259">
        <ele>8.1999998092651</ele>
        <time>2022-08-21T07:55:48.000Z</time>
      </trkpt>
      <trkpt lat="47.24234" lon="-2.31243">
        <ele>8.1999998092651</ele>
        <time>2022-08-21T07:55:53.000Z</time>
      </trkpt>
      <trkpt lat="47.24221" lon="-2.31216">
        <ele>8.1999998092651</ele>
        <time>2022-08-21T07:56:01.000Z</time>
      </trkpt>
      <trkpt lat="47.24207" lon="-2.31188">
        <ele>8.1999998092651</ele>
        <time>2022-08-21T07:56:08.000Z</time>
      </trkpt>
      <trkpt lat="47.24192" lon="-2.31159">
        <ele>8.1999998092651</ele>
        <time>2022-08-21T07:56:15.000Z</time>
      </trkpt>
      <trkpt lat="47.24177" lon="-2.31127">
        <ele>8.1999998092651</ele>
        <time>2022-08-21T07:56:22.000Z</time>
      </trkpt>
      <trkpt lat="47.24172" lon="-2.31118">
        <ele>8.1999998092651</ele>
        <time>2022-08-21T07:56:24.000Z</time>
      </trkpt>
      <trkpt lat="47.2416" lon="-2.31098">
        <ele>8.1999998092651</ele>
        <time>2022-08-21T07:56:28.000Z</time>
      </trkpt>
      <trkpt lat="47.24134" lon="-2.31053">
        <ele>8.1999998092651</ele>
        <time>2022-08-21T07:56:37.000Z</time>
      </trkpt>
      <trkpt lat="47.2412" lon="-2.3103">
        <ele>8.1999998092651</ele>
        <time>2022-08-21T07:56:42.000Z</time>
      </trkpt>
      <trkpt lat="47.24118" lon="-2.31019">
        <ele>8.1999998092651</ele>
        <time>2022-08-21T07:56:44.000Z</time>
      </trkpt>
      <trkpt lat="47.24125" lon="-2.31003">
        <ele>8.1999998092651</ele>
        <time>2022-08-21T07:56:47.000Z</time>
      </trkpt>
      <trkpt lat="47.24128" lon="-2.30998">
        <ele>8.1999998092651</ele>
        <time>2022-08-21T07:56:48.000Z</time>
      </trkpt>
      <trkpt lat="47.24145" lon="-2.30966">
        <ele>8.1999998092651</ele>
        <time>2022-08-21T07:56:54.000Z</time>
      </trkpt>
      <trkpt lat="47.24156" lon="-2.30948">
        <ele>8.1999998092651</ele>
        <time>2022-08-21T07:56:58.000Z</time>
      </trkpt>
      <trkpt lat="47.24159" lon="-2.30943">
        <ele>8.1999998092651</ele>
        <time>2022-08-21T07:56:59.000Z</time>
      </trkpt>
      <trkpt lat="47.24171" lon="-2.30918">
        <ele>8.1999998092651</ele>
        <time>2022-08-21T07:57:05.000Z</time>
      </trkpt>
      <trkpt lat="47.24175" lon="-2.30908">
        <ele>8.1999998092651</ele>
        <time>2022-08-21T07:57:10.000Z</time>
      </trkpt>
      <trkpt lat="47.24175" lon="-2.30908">
        <ele>8.1999998092651</ele>
        <time>2022-08-21T07:57:11.000Z</time>
      </trkpt>
      <trkpt lat="47.24176" lon="-2.30904">
        <ele>8.1999998092651</ele>
        <time>2022-08-21T07:57:13.000Z</time>
      </trkpt>
      <trkpt lat="47.24178" lon="-2.30898">
        <ele>8.1999998092651</ele>
        <time>2022-08-21T07:57:15.000Z</time>
      </trkpt>
      <trkpt lat="47.24187" lon="-2.3088">
        <ele>8.1999998092651</ele>
        <time>2022-08-21T07:57:20.000Z</time>
      </trkpt>
      <trkpt lat="47.24193" lon="-2.30864">
        <ele>8.6000003814697</ele>
        <time>2022-08-21T07:57:24.000Z</time>
      </trkpt>
      <trkpt lat="47.24195" lon="-2.30859">
        <ele>9.1999998092651</ele>
        <time>2022-08-21T07:57:25.000Z</time>
      </trkpt>
      <trkpt lat="47.24197" lon="-2.30855">
        <ele>9.6000003814697</ele>
        <time>2022-08-21T07:57:26.000Z</time>
      </trkpt>
      <trkpt lat="47.24199" lon="-2.30851">
        <ele>10</ele>
        <time>2022-08-21T07:57:27.000Z</time>
      </trkpt>
      <trkpt lat="47.24201" lon="-2.30847">
        <ele>10.60000038147</ele>
        <time>2022-08-21T07:57:28.000Z</time>
      </trkpt>
      <trkpt lat="47.24202" lon="-2.30843">
        <ele>11</ele>
        <time>2022-08-21T07:57:29.000Z</time>
      </trkpt>
      <trkpt lat="47.24204" lon="-2.30838">
        <ele>11.39999961853</ele>
        <time>2022-08-21T07:57:30.000Z</time>
      </trkpt>
      <trkpt lat="47.24206" lon="-2.30834">
        <ele>11.800000190735</ele>
        <time>2022-08-21T07:57:31.000Z</time>
      </trkpt>
      <trkpt lat="47.24208" lon="-2.3083">
        <ele>12.199999809265</ele>
        <time>2022-08-21T07:57:32.000Z</time>
      </trkpt>
      <trkpt lat="47.2421" lon="-2.30826">
        <ele>12.60000038147</ele>
        <time>2022-08-21T07:57:33.000Z</time>
      </trkpt>
      <trkpt lat="47.24217" lon="-2.30813">
        <ele>13</ele>
        <time>2022-08-21T07:57:36.000Z</time>
      </trkpt>
      <trkpt lat="47.24219" lon="-2.30808">
        <ele>13.39999961853</ele>
        <time>2022-08-21T07:57:37.000Z</time>
      </trkpt>
      <trkpt lat="47.24221" lon="-2.30803">
        <ele>13.800000190735</ele>
        <time>2022-08-21T07:57:38.000Z</time>
      </trkpt>
      <trkpt lat="47.24223" lon="-2.30798">
        <ele>14.199999809265</ele>
        <time>2022-08-21T07:57:39.000Z</time>
      </trkpt>
      <trkpt lat="47.24224" lon="-2.30792">
        <ele>14.60000038147</ele>
        <time>2022-08-21T07:57:40.000Z</time>
      </trkpt>
      <trkpt lat="47.24234" lon="-2.30766">
        <ele>15</ele>
        <time>2022-08-21T07:57:45.000Z</time>
      </trkpt>
      <trkpt lat="47.24236" lon="-2.30761">
        <ele>15.39999961853</ele>
        <time>2022-08-21T07:57:46.000Z</time>
      </trkpt>
      <trkpt lat="47.24238" lon="-2.30755">
        <ele>15.800000190735</ele>
        <time>2022-08-21T07:57:47.000Z</time>
      </trkpt>
      <trkpt lat="47.2424" lon="-2.30751">
        <ele>16.200000762939</ele>
        <time>2022-08-21T07:57:48.000Z</time>
      </trkpt>
      <trkpt lat="47.24242" lon="-2.30746">
        <ele>16.60000038147</ele>
        <time>2022-08-21T07:57:49.000Z</time>
      </trkpt>
      <trkpt lat="47.24247" lon="-2.30737">
        <ele>16.60000038147</ele>
        <time>2022-08-21T07:57:51.000Z</time>
      </trkpt>
      <trkpt lat="47.24261" lon="-2.30724">
        <ele>16.60000038147</ele>
        <time>2022-08-21T07:57:55.000Z</time>
      </trkpt>
      <trkpt lat="47.24265" lon="-2.30721">
        <ele>17</ele>
        <time>2022-08-21T07:57:56.000Z</time>
      </trkpt>
      <trkpt lat="47.24269" lon="-2.30718">
        <ele>17.39999961853</ele>
        <time>2022-08-21T07:57:57.000Z</time>
      </trkpt>
      <trkpt lat="47.24273" lon="-2.30716">
        <ele>17.799999237061</ele>
        <time>2022-08-21T07:57:58.000Z</time>
      </trkpt>
      <trkpt lat="47.24277" lon="-2.30714">
        <ele>18.200000762939</ele>
        <time>2022-08-21T07:57:59.000Z</time>
      </trkpt>
      <trkpt lat="47.24281" lon="-2.30712">
        <ele>18.60000038147</ele>
        <time>2022-08-21T07:58:00.000Z</time>
      </trkpt>
      <trkpt lat="47.24287" lon="-2.30708">
        <ele>18.60000038147</ele>
        <time>2022-08-21T07:58:02.000Z</time>
      </trkpt>
      <trkpt lat="47.24301" lon="-2.30699">
        <ele>18.60000038147</ele>
        <time>2022-08-21T07:58:06.000Z</time>
      </trkpt>
      <trkpt lat="47.24322" lon="-2.30686">
        <ele>19</ele>
        <time>2022-08-21T07:58:11.000Z</time>
      </trkpt>
      <trkpt lat="47.24326" lon="-2.30683">
        <ele>19.39999961853</ele>
        <time>2022-08-21T07:58:12.000Z</time>
      </trkpt>
      <trkpt lat="47.24329" lon="-2.30681">
        <ele>19.799999237061</ele>
        <time>2022-08-21T07:58:13.000Z</time>
      </trkpt>
      <trkpt lat="47.24332" lon="-2.3068">
        <ele>20.200000762939</ele>
        <time>2022-08-21T07:58:14.000Z</time>
      </trkpt>
      <trkpt lat="47.24335" lon="-2.30678">
        <ele>20.799999237061</ele>
        <time>2022-08-21T07:58:15.000Z</time>
      </trkpt>
      <trkpt lat="47.24346" lon="-2.30672">
        <ele>21.200000762939</ele>
        <time>2022-08-21T07:58:18.000Z</time>
      </trkpt>
      <trkpt lat="47.24349" lon="-2.3067">
        <ele>21.60000038147</ele>
        <time>2022-08-21T07:58:19.000Z</time>
      </trkpt>
      <trkpt lat="47.24354" lon="-2.30667">
        <ele>22</ele>
        <time>2022-08-21T07:58:20.000Z</time>
      </trkpt>
      <trkpt lat="47.24358" lon="-2.30665">
        <ele>22.39999961853</ele>
        <time>2022-08-21T07:58:21.000Z</time>
      </trkpt>
      <trkpt lat="47.24362" lon="-2.30663">
        <ele>22.799999237061</ele>
        <time>2022-08-21T07:58:22.000Z</time>
      </trkpt>
      <trkpt lat="47.2437" lon="-2.30658">
        <ele>22.799999237061</ele>
        <time>2022-08-21T07:58:24.000Z</time>
      </trkpt>
      <trkpt lat="47.24374" lon="-2.30655">
        <ele>22.799999237061</ele>
        <time>2022-08-21T07:58:25.000Z</time>
      </trkpt>
      <trkpt lat="47.24385" lon="-2.30647">
        <ele>22.799999237061</ele>
        <time>2022-08-21T07:58:28.000Z</time>
      </trkpt>
      <trkpt lat="47.24402" lon="-2.30635">
        <ele>22.799999237061</ele>
        <time>2022-08-21T07:58:33.000Z</time>
      </trkpt>
      <trkpt lat="47.24418" lon="-2.30617">
        <ele>22.799999237061</ele>
        <time>2022-08-21T07:58:39.000Z</time>
      </trkpt>
      <trkpt lat="47.24435" lon="-2.306">
        <ele>22.799999237061</ele>
        <time>2022-08-21T07:58:45.000Z</time>
      </trkpt>
      <trkpt lat="47.24455" lon="-2.30574">
        <ele>22.799999237061</ele>
        <time>2022-08-21T07:58:50.000Z</time>
      </trkpt>
      <trkpt lat="47.24465" lon="-2.3055">
        <ele>22.799999237061</ele>
        <time>2022-08-21T07:58:55.000Z</time>
      </trkpt>
      <trkpt lat="47.24465" lon="-2.30547">
        <ele>22.799999237061</ele>
        <time>2022-08-21T07:58:56.000Z</time>
      </trkpt>
      <trkpt lat="47.24462" lon="-2.30547">
        <ele>22.799999237061</ele>
        <time>2022-08-21T07:58:58.000Z</time>
      </trkpt>
      <trkpt lat="47.24457" lon="-2.30552">
        <ele>22.39999961853</ele>
        <time>2022-08-21T07:59:00.000Z</time>
      </trkpt>
      <trkpt lat="47.24454" lon="-2.30557">
        <ele>22</ele>
        <time>2022-08-21T07:59:01.000Z</time>
      </trkpt>
      <trkpt lat="47.24451" lon="-2.30561">
        <ele>21.60000038147</ele>
        <time>2022-08-21T07:59:02.000Z</time>
      </trkpt>
      <trkpt lat="47.24448" lon="-2.30564">
        <ele>21.200000762939</ele>
        <time>2022-08-21T07:59:03.000Z</time>
      </trkpt>
      <trkpt lat="47.24444" lon="-2.30568">
        <ele>20.799999237061</ele>
        <time>2022-08-21T07:59:04.000Z</time>
      </trkpt>
      <trkpt lat="47.24437" lon="-2.30575">
        <ele>20.799999237061</ele>
        <time>2022-08-21T07:59:06.000Z</time>
      </trkpt>
      <trkpt lat="47.24433" lon="-2.30578">
        <ele>20.799999237061</ele>
        <time>2022-08-21T07:59:07.000Z</time>
      </trkpt>
      <trkpt lat="47.24429" lon="-2.30581">
        <ele>20.39999961853</ele>
        <time>2022-08-21T07:59:08.000Z</time>
      </trkpt>
      <trkpt lat="47.24425" lon="-2.30584">
        <ele>20</ele>
        <time>2022-08-21T07:59:09.000Z</time>
      </trkpt>
      <trkpt lat="47.2442" lon="-2.30586">
        <ele>19.39999961853</ele>
        <time>2022-08-21T07:59:10.000Z</time>
      </trkpt>
      <trkpt lat="47.24416" lon="-2.30588">
        <ele>19</ele>
        <time>2022-08-21T07:59:11.000Z</time>
      </trkpt>
      <trkpt lat="47.24411" lon="-2.3059">
        <ele>18.60000038147</ele>
        <time>2022-08-21T07:59:12.000Z</time>
      </trkpt>
      <trkpt lat="47.24399" lon="-2.30587">
        <ele>18.60000038147</ele>
        <time>2022-08-21T07:59:15.000Z</time>
      </trkpt>
      <trkpt lat="47.24394" lon="-2.30585">
        <ele>18.60000038147</ele>
        <time>2022-08-21T07:59:16.000Z</time>
      </trkpt>
      <trkpt lat="47.2439" lon="-2.30583">
        <ele>18.60000038147</ele>
        <time>2022-08-21T07:59:17.000Z</time>
      </trkpt>
      <trkpt lat="47.24386" lon="-2.3058">
        <ele>18.200000762939</ele>
        <time>2022-08-21T07:59:18.000Z</time>
      </trkpt>
      <trkpt lat="47.24383" lon="-2.30575">
        <ele>17.799999237061</ele>
        <time>2022-08-21T07:59:19.000Z</time>
      </trkpt>
      <trkpt lat="47.2438" lon="-2.30568">
        <ele>17.39999961853</ele>
        <time>2022-08-21T07:59:20.000Z</time>
      </trkpt>
      <trkpt lat="47.24379" lon="-2.30562">
        <ele>17</ele>
        <time>2022-08-21T07:59:21.000Z</time>
      </trkpt>
      <trkpt lat="47.24377" lon="-2.30554">
        <ele>16.39999961853</ele>
        <time>2022-08-21T07:59:22.000Z</time>
      </trkpt>
      <trkpt lat="47.24375" lon="-2.30546">
        <ele>16.39999961853</ele>
        <time>2022-08-21T07:59:23.000Z</time>
      </trkpt>
      <trkpt lat="47.24372" lon="-2.30537">
        <ele>16.39999961853</ele>
        <time>2022-08-21T07:59:24.000Z</time>
      </trkpt>
      <trkpt lat="47.2437" lon="-2.3052">
        <ele>17</ele>
        <time>2022-08-21T07:59:27.000Z</time>
      </trkpt>
      <trkpt lat="47.2437" lon="-2.30514">
        <ele>17.39999961853</ele>
        <time>2022-08-21T07:59:28.000Z</time>
      </trkpt>
      <trkpt lat="47.24371" lon="-2.30508">
        <ele>17.799999237061</ele>
        <time>2022-08-21T07:59:29.000Z</time>
      </trkpt>
      <trkpt lat="47.24372" lon="-2.30503">
        <ele>18.39999961853</ele>
        <time>2022-08-21T07:59:30.000Z</time>
      </trkpt>
      <trkpt lat="47.24373" lon="-2.30498">
        <ele>18.799999237061</ele>
        <time>2022-08-21T07:59:31.000Z</time>
      </trkpt>
      <trkpt lat="47.24374" lon="-2.30494">
        <ele>19.200000762939</ele>
        <time>2022-08-21T07:59:32.000Z</time>
      </trkpt>
      <trkpt lat="47.24375" lon="-2.30489">
        <ele>19.60000038147</ele>
        <time>2022-08-21T07:59:33.000Z</time>
      </trkpt>
      <trkpt lat="47.24376" lon="-2.30484">
        <ele>20</ele>
        <time>2022-08-21T07:59:34.000Z</time>
      </trkpt>
      <trkpt lat="47.24377" lon="-2.30479">
        <ele>20.39999961853</ele>
        <time>2022-08-21T07:59:35.000Z</time>
      </trkpt>
      <trkpt lat="47.24378" lon="-2.30474">
        <ele>20.799999237061</ele>
        <time>2022-08-21T07:59:36.000Z</time>
      </trkpt>
      <trkpt lat="47.24378" lon="-2.30464">
        <ele>20.799999237061</ele>
        <time>2022-08-21T07:59:38.000Z</time>
      </trkpt>
      <trkpt lat="47.24378" lon="-2.30453">
        <ele>21.200000762939</ele>
        <time>2022-08-21T07:59:42.000Z</time>
      </trkpt>
      <trkpt lat="47.24376" lon="-2.30453">
        <ele>21.60000038147</ele>
        <time>2022-08-21T07:59:43.000Z</time>
      </trkpt>
      <trkpt lat="47.24374" lon="-2.30455">
        <ele>22</ele>
        <time>2022-08-21T07:59:44.000Z</time>
      </trkpt>
      <trkpt lat="47.24373" lon="-2.30455">
        <ele>22.60000038147</ele>
        <time>2022-08-21T07:59:45.000Z</time>
      </trkpt>
      <trkpt lat="47.24371" lon="-2.30455">
        <ele>23</ele>
        <time>2022-08-21T07:59:46.000Z</time>
      </trkpt>
      <trkpt lat="47.24364" lon="-2.30455">
        <ele>23</ele>
        <time>2022-08-21T07:59:49.000Z</time>
      </trkpt>
      <trkpt lat="47.24359" lon="-2.30453">
        <ele>23</ele>
        <time>2022-08-21T07:59:51.000Z</time>
      </trkpt>
      <trkpt lat="47.24347" lon="-2.30446">
        <ele>23</ele>
        <time>2022-08-21T07:59:55.000Z</time>
      </trkpt>
      <trkpt lat="47.24344" lon="-2.30445">
        <ele>23</ele>
        <time>2022-08-21T07:59:56.000Z</time>
      </trkpt>
      <trkpt lat="47.2433" lon="-2.30436">
        <ele>23</ele>
        <time>2022-08-21T08:00:01.000Z</time>
      </trkpt>
      <trkpt lat="47.24323" lon="-2.30432">
        <ele>23.39999961853</ele>
        <time>2022-08-21T08:00:04.000Z</time>
      </trkpt>
      <trkpt lat="47.24321" lon="-2.3043">
        <ele>23.799999237061</ele>
        <time>2022-08-21T08:00:05.000Z</time>
      </trkpt>
      <trkpt lat="47.24318" lon="-2.30428">
        <ele>24.200000762939</ele>
        <time>2022-08-21T08:00:06.000Z</time>
      </trkpt>
      <trkpt lat="47.24315" lon="-2.30427">
        <ele>24.60000038147</ele>
        <time>2022-08-21T08:00:07.000Z</time>
      </trkpt>
      <trkpt lat="47.24312" lon="-2.30425">
        <ele>25</ele>
        <time>2022-08-21T08:00:08.000Z</time>
      </trkpt>
      <trkpt lat="47.24298" lon="-2.30415">
        <ele>25</ele>
        <time>2022-08-21T08:00:12.000Z</time>
      </trkpt>
      <trkpt lat="47.24277" lon="-2.30391">
        <ele>25</ele>
        <time>2022-08-21T08:00:19.000Z</time>
      </trkpt>
      <trkpt lat="47.24258" lon="-2.30361">
        <ele>25</ele>
        <time>2022-08-21T08:00:26.000Z</time>
      </trkpt>
      <trkpt lat="47.24244" lon="-2.30337">
        <ele>25</ele>
        <time>2022-08-21T08:00:31.000Z</time>
      </trkpt>
      <trkpt lat="47.24238" lon="-2.3033">
        <ele>25</ele>
        <time>2022-08-21T08:00:33.000Z</time>
      </trkpt>
      <trkpt lat="47.24233" lon="-2.30332">
        <ele>25</ele>
        <time>2022-08-21T08:00:35.000Z</time>
      </trkpt>
      <trkpt lat="47.24217" lon="-2.30337">
        <ele>24.39999961853</ele>
        <time>2022-08-21T08:00:40.000Z</time>
      </trkpt>
      <trkpt lat="47.24214" lon="-2.30337">
        <ele>24</ele>
        <time>2022-08-21T08:00:41.000Z</time>
      </trkpt>
      <trkpt lat="47.24211" lon="-2.30337">
        <ele>23.39999961853</ele>
        <time>2022-08-21T08:00:42.000Z</time>
      </trkpt>
      <trkpt lat="47.24209" lon="-2.30336">
        <ele>23</ele>
        <time>2022-08-21T08:00:43.000Z</time>
      </trkpt>
      <trkpt lat="47.24208" lon="-2.30334">
        <ele>22.39999961853</ele>
        <time>2022-08-21T08:00:44.000Z</time>
      </trkpt>
      <trkpt lat="47.24206" lon="-2.30331">
        <ele>22</ele>
        <time>2022-08-21T08:00:45.000Z</time>
      </trkpt>
      <trkpt lat="47.24204" lon="-2.30324">
        <ele>21.200000762939</ele>
        <time>2022-08-21T08:00:46.000Z</time>
      </trkpt>
      <trkpt lat="47.24203" lon="-2.30317">
        <ele>20.799999237061</ele>
        <time>2022-08-21T08:00:47.000Z</time>
      </trkpt>
      <trkpt lat="47.24202" lon="-2.3031">
        <ele>20.39999961853</ele>
        <time>2022-08-21T08:00:48.000Z</time>
      </trkpt>
      <trkpt lat="47.24196" lon="-2.30282">
        <ele>20.39999961853</ele>
        <time>2022-08-21T08:00:52.000Z</time>
      </trkpt>
      <trkpt lat="47.24195" lon="-2.30274">
        <ele>20.39999961853</ele>
        <time>2022-08-21T08:00:53.000Z</time>
      </trkpt>
      <trkpt lat="47.24187" lon="-2.30242">
        <ele>20.39999961853</ele>
        <time>2022-08-21T08:00:59.000Z</time>
      </trkpt>
      <trkpt lat="47.24178" lon="-2.30246">
        <ele>20.39999961853</ele>
        <time>2022-08-21T08:01:02.000Z</time>
      </trkpt>
      <trkpt lat="47.24165" lon="-2.30243">
        <ele>20.39999961853</ele>
        <time>2022-08-21T08:01:07.000Z</time>
      </trkpt>
      <trkpt lat="47.24159" lon="-2.30232">
        <ele>20.39999961853</ele>
        <time>2022-08-21T08:01:11.000Z</time>
      </trkpt>
      <trkpt lat="47.24156" lon="-2.30224">
        <ele>20.39999961853</ele>
        <time>2022-08-21T08:01:13.000Z</time>
      </trkpt>
      <trkpt lat="47.24148" lon="-2.30203">
        <ele>20.39999961853</ele>
        <time>2022-08-21T08:01:19.000Z</time>
      </trkpt>
      <trkpt lat="47.2414" lon="-2.30188">
        <ele>20.799999237061</ele>
        <time>2022-08-21T08:01:24.000Z</time>
      </trkpt>
      <trkpt lat="47.24138" lon="-2.30184">
        <ele>21.200000762939</ele>
        <time>2022-08-21T08:01:25.000Z</time>
      </trkpt>
      <trkpt lat="47.24136" lon="-2.3018">
        <ele>21.799999237061</ele>
        <time>2022-08-21T08:01:26.000Z</time>
      </trkpt>
      <trkpt lat="47.24135" lon="-2.30179">
        <ele>22.200000762939</ele>
        <time>2022-08-21T08:01:27.000Z</time>
      </trkpt>
      <trkpt lat="47.24134" lon="-2.30177">
        <ele>22.799999237061</ele>
        <time>2022-08-21T08:01:28.000Z</time>
      </trkpt>
      <trkpt lat="47.24133" lon="-2.30175">
        <ele>23.39999961853</ele>
        <time>2022-08-21T08:01:29.000Z</time>
      </trkpt>
      <trkpt lat="47.24133" lon="-2.30173">
        <ele>24</ele>
        <time>2022-08-21T08:01:30.000Z</time>
      </trkpt>
      <trkpt lat="47.24133" lon="-2.30172">
        <ele>24.60000038147</ele>
        <time>2022-08-21T08:01:31.000Z</time>
      </trkpt>
      <trkpt lat="47.24132" lon="-2.30172">
        <ele>25.200000762939</ele>
        <time>2022-08-21T08:01:32.000Z</time>
      </trkpt>
      <trkpt lat="47.24122" lon="-2.30166">
        <ele>25.200000762939</ele>
        <time>2022-08-21T08:07:10.000Z</time>
      </trkpt>
      <trkpt lat="47.2412" lon="-2.30165">
        <ele>25.200000762939</ele>
        <time>2022-08-21T08:07:11.000Z</time>
      </trkpt>
      <trkpt lat="47.24113" lon="-2.30165">
        <ele>25.200000762939</ele>
        <time>2022-08-21T08:07:15.000Z</time>
      </trkpt>
      <trkpt lat="47.24107" lon="-2.30165">
        <ele>25.200000762939</ele>
        <time>2022-08-21T08:07:17.000Z</time>
      </trkpt>
      <trkpt lat="47.24099" lon="-2.30166">
        <ele>25.200000762939</ele>
        <time>2022-08-21T08:07:21.000Z</time>
      </trkpt>
      <trkpt lat="47.24097" lon="-2.30167">
        <ele>25.200000762939</ele>
        <time>2022-08-21T08:07:22.000Z</time>
      </trkpt>
      <trkpt lat="47.24083" lon="-2.30168">
        <ele>25.200000762939</ele>
        <time>2022-08-21T08:07:28.000Z</time>
      </trkpt>
      <trkpt lat="47.24076" lon="-2.30162">
        <ele>25.200000762939</ele>
        <time>2022-08-21T08:07:33.000Z</time>
      </trkpt>
      <trkpt lat="47.24078" lon="-2.3016">
        <ele>25.200000762939</ele>
        <time>2022-08-21T08:07:36.000Z</time>
      </trkpt>
      <trkpt lat="47.24079" lon="-2.30159">
        <ele>25.200000762939</ele>
        <time>2022-08-21T08:07:38.000Z</time>
      </trkpt>
      <trkpt lat="47.24087" lon="-2.30153">
        <ele>25.200000762939</ele>
        <time>2022-08-21T08:07:44.000Z</time>
      </trkpt>
      <trkpt lat="47.24092" lon="-2.30151">
        <ele>25.200000762939</ele>
        <time>2022-08-21T08:07:48.000Z</time>
      </trkpt>
      <trkpt lat="47.24102" lon="-2.30148">
        <ele>25.200000762939</ele>
        <time>2022-08-21T08:07:54.000Z</time>
      </trkpt>
      <trkpt lat="47.24107" lon="-2.30148">
        <ele>25.200000762939</ele>
        <time>2022-08-21T08:08:00.000Z</time>
      </trkpt>
      <trkpt lat="47.2411" lon="-2.30143">
        <ele>23.39999961853</ele>
        <time>2022-08-21T08:08:04.000Z</time>
      </trkpt>
      <trkpt lat="47.24111" lon="-2.30141">
        <ele>23</ele>
        <time>2022-08-21T08:08:05.000Z</time>
      </trkpt>
      <trkpt lat="47.24113" lon="-2.30129">
        <ele>22.60000038147</ele>
        <time>2022-08-21T08:08:08.000Z</time>
      </trkpt>
      <trkpt lat="47.24113" lon="-2.30125">
        <ele>22.200000762939</ele>
        <time>2022-08-21T08:08:09.000Z</time>
      </trkpt>
      <trkpt lat="47.24114" lon="-2.30121">
        <ele>21.799999237061</ele>
        <time>2022-08-21T08:08:10.000Z</time>
      </trkpt>
      <trkpt lat="47.24114" lon="-2.30117">
        <ele>21</ele>
        <time>2022-08-21T08:08:11.000Z</time>
      </trkpt>
      <trkpt lat="47.2412" lon="-2.30101">
        <ele>21</ele>
        <time>2022-08-21T08:08:15.000Z</time>
      </trkpt>
      <trkpt lat="47.24124" lon="-2.30092">
        <ele>21</ele>
        <time>2022-08-21T08:08:18.000Z</time>
      </trkpt>
      <trkpt lat="47.24124" lon="-2.30089">
        <ele>21.39999961853</ele>
        <time>2022-08-21T08:08:19.000Z</time>
      </trkpt>
      <trkpt lat="47.24124" lon="-2.30086">
        <ele>21.799999237061</ele>
        <time>2022-08-21T08:08:20.000Z</time>
      </trkpt>
      <trkpt lat="47.24126" lon="-2.30082">
        <ele>22.200000762939</ele>
        <time>2022-08-21T08:08:21.000Z</time>
      </trkpt>
      <trkpt lat="47.24126" lon="-2.30079">
        <ele>22.60000038147</ele>
        <time>2022-08-21T08:08:22.000Z</time>
      </trkpt>
      <trkpt lat="47.24127" lon="-2.30075">
        <ele>23</ele>
        <time>2022-08-21T08:08:23.000Z</time>
      </trkpt>
      <trkpt lat="47.24127" lon="-2.30072">
        <ele>23</ele>
        <time>2022-08-21T08:08:24.000Z</time>
      </trkpt>
      <trkpt lat="47.24131" lon="-2.30058">
        <ele>23</ele>
        <time>2022-08-21T08:08:28.000Z</time>
      </trkpt>
      <trkpt lat="47.24132" lon="-2.30049">
        <ele>23.60000038147</ele>
        <time>2022-08-21T08:08:30.000Z</time>
      </trkpt>
      <trkpt lat="47.2413" lon="-2.30045">
        <ele>24</ele>
        <time>2022-08-21T08:08:31.000Z</time>
      </trkpt>
      <trkpt lat="47.24129" lon="-2.3004">
        <ele>24.39999961853</ele>
        <time>2022-08-21T08:08:32.000Z</time>
      </trkpt>
      <trkpt lat="47.24128" lon="-2.30036">
        <ele>24.799999237061</ele>
        <time>2022-08-21T08:08:33.000Z</time>
      </trkpt>
      <trkpt lat="47.24127" lon="-2.30031">
        <ele>25.39999961853</ele>
        <time>2022-08-21T08:08:34.000Z</time>
      </trkpt>
      <trkpt lat="47.24128" lon="-2.30017">
        <ele>25.39999961853</ele>
        <time>2022-08-21T08:08:38.000Z</time>
      </trkpt>
      <trkpt lat="47.2413" lon="-2.30014">
        <ele>25.799999237061</ele>
        <time>2022-08-21T08:08:39.000Z</time>
      </trkpt>
      <trkpt lat="47.24134" lon="-2.30011">
        <ele>26.200000762939</ele>
        <time>2022-08-21T08:08:40.000Z</time>
      </trkpt>
      <trkpt lat="47.24136" lon="-2.30012">
        <ele>26.60000038147</ele>
        <time>2022-08-21T08:08:41.000Z</time>
      </trkpt>
      <trkpt lat="47.24138" lon="-2.3001">
        <ele>27</ele>
        <time>2022-08-21T08:08:42.000Z</time>
      </trkpt>
      <trkpt lat="47.24141" lon="-2.30012">
        <ele>27.39999961853</ele>
        <time>2022-08-21T08:08:43.000Z</time>
      </trkpt>
      <trkpt lat="47.24144" lon="-2.30015">
        <ele>27.39999961853</ele>
        <time>2022-08-21T08:08:46.000Z</time>
      </trkpt>
      <trkpt lat="47.24148" lon="-2.30019">
        <ele>26.799999237061</ele>
        <time>2022-08-21T08:08:50.000Z</time>
      </trkpt>
      <trkpt lat="47.24149" lon="-2.3002">
        <ele>26.39999961853</ele>
        <time>2022-08-21T08:08:51.000Z</time>
      </trkpt>
      <trkpt lat="47.24149" lon="-2.30023">
        <ele>26</ele>
        <time>2022-08-21T08:08:52.000Z</time>
      </trkpt>
      <trkpt lat="47.24151" lon="-2.30027">
        <ele>25.60000038147</ele>
        <time>2022-08-21T08:08:53.000Z</time>
      </trkpt>
      <trkpt lat="47.2415" lon="-2.30029">
        <ele>25</ele>
        <time>2022-08-21T08:08:54.000Z</time>
      </trkpt>
      <trkpt lat="47.2415" lon="-2.30031">
        <ele>25</ele>
        <time>2022-08-21T08:08:56.000Z</time>
      </trkpt>
      <trkpt lat="47.24153" lon="-2.30037">
        <ele>25</ele>
        <time>2022-08-21T08:09:01.000Z</time>
      </trkpt>
      <trkpt lat="47.24155" lon="-2.30039">
        <ele>25</ele>
        <time>2022-08-21T08:09:03.000Z</time>
      </trkpt>
      <trkpt lat="47.24156" lon="-2.30035">
        <ele>25</ele>
        <time>2022-08-21T08:09:13.000Z</time>
      </trkpt>
      <trkpt lat="47.24155" lon="-2.30031">
        <ele>25</ele>
        <time>2022-08-21T08:09:14.000Z</time>
      </trkpt>
      <trkpt lat="47.24147" lon="-2.30017">
        <ele>25</ele>
        <time>2022-08-21T08:09:19.000Z</time>
      </trkpt>
      <trkpt lat="47.24143" lon="-2.3">
        <ele>25</ele>
        <time>2022-08-21T08:09:24.000Z</time>
      </trkpt>
      <trkpt lat="47.24143" lon="-2.29973">
        <ele>25</ele>
        <time>2022-08-21T08:09:29.000Z</time>
      </trkpt>
      <trkpt lat="47.24143" lon="-2.29962">
        <ele>25</ele>
        <time>2022-08-21T08:09:31.000Z</time>
      </trkpt>
      <trkpt lat="47.24146" lon="-2.29951">
        <ele>25</ele>
        <time>2022-08-21T08:09:33.000Z</time>
      </trkpt>
      <trkpt lat="47.24145" lon="-2.29946">
        <ele>25</ele>
        <time>2022-08-21T08:09:34.000Z</time>
      </trkpt>
      <trkpt lat="47.24143" lon="-2.29935">
        <ele>25</ele>
        <time>2022-08-21T08:09:37.000Z</time>
      </trkpt>
      <trkpt lat="47.24137" lon="-2.2991">
        <ele>25</ele>
        <time>2022-08-21T08:09:42.000Z</time>
      </trkpt>
      <trkpt lat="47.24135" lon="-2.29894">
        <ele>25</ele>
        <time>2022-08-21T08:09:45.000Z</time>
      </trkpt>
      <trkpt lat="47.24136" lon="-2.29888">
        <ele>25</ele>
        <time>2022-08-21T08:09:46.000Z</time>
      </trkpt>
      <trkpt lat="47.24134" lon="-2.29885">
        <ele>25</ele>
        <time>2022-08-21T08:09:47.000Z</time>
      </trkpt>
      <trkpt lat="47.24132" lon="-2.29878">
        <ele>25</ele>
        <time>2022-08-21T08:09:49.000Z</time>
      </trkpt>
      <trkpt lat="47.24136" lon="-2.29864">
        <ele>25</ele>
        <time>2022-08-21T08:09:52.000Z</time>
      </trkpt>
      <trkpt lat="47.24137" lon="-2.29846">
        <ele>25</ele>
        <time>2022-08-21T08:09:56.000Z</time>
      </trkpt>
      <trkpt lat="47.24135" lon="-2.29838">
        <ele>25</ele>
        <time>2022-08-21T08:09:59.000Z</time>
      </trkpt>
      <trkpt lat="47.24134" lon="-2.29837">
        <ele>25</ele>
        <time>2022-08-21T08:10:00.000Z</time>
      </trkpt>
      <trkpt lat="47.24128" lon="-2.29829">
        <ele>25</ele>
        <time>2022-08-21T08:10:05.000Z</time>
      </trkpt>
      <trkpt lat="47.24122" lon="-2.29828">
        <ele>25</ele>
        <time>2022-08-21T08:10:09.000Z</time>
      </trkpt>
      <trkpt lat="47.24122" lon="-2.29833">
        <ele>25</ele>
        <time>2022-08-21T08:10:14.000Z</time>
      </trkpt>
      <trkpt lat="47.24123" lon="-2.29832">
        <ele>25</ele>
        <time>2022-08-21T08:10:16.000Z</time>
      </trkpt>
      <trkpt lat="47.24121" lon="-2.29829">
        <ele>25</ele>
        <time>2022-08-21T08:11:02.000Z</time>
      </trkpt>
      <trkpt lat="47.24121" lon="-2.29827">
        <ele>25</ele>
        <time>2022-08-21T08:11:03.000Z</time>
      </trkpt>
      <trkpt lat="47.24122" lon="-2.29825">
        <ele>25</ele>
        <time>2022-08-21T08:11:06.000Z</time>
      </trkpt>
      <trkpt lat="47.24142" lon="-2.29813">
        <ele>25</ele>
        <time>2022-08-21T08:11:26.000Z</time>
      </trkpt>
      <trkpt lat="47.24145" lon="-2.29813">
        <ele>25</ele>
        <time>2022-08-21T08:11:27.000Z</time>
      </trkpt>
      <trkpt lat="47.24145" lon="-2.29818">
        <ele>25</ele>
        <time>2022-08-21T08:11:31.000Z</time>
      </trkpt>
      <trkpt lat="47.24143" lon="-2.29829">
        <ele>25</ele>
        <time>2022-08-21T08:11:35.000Z</time>
      </trkpt>
      <trkpt lat="47.24137" lon="-2.29836">
        <ele>25</ele>
        <time>2022-08-21T08:11:40.000Z</time>
      </trkpt>
      <trkpt lat="47.24125" lon="-2.29842">
        <ele>25</ele>
        <time>2022-08-21T08:11:46.000Z</time>
      </trkpt>
      <trkpt lat="47.24112" lon="-2.29845">
        <ele>25</ele>
        <time>2022-08-21T08:11:51.000Z</time>
      </trkpt>
      <trkpt lat="47.24098" lon="-2.29841">
        <ele>25</ele>
        <time>2022-08-21T08:11:57.000Z</time>
      </trkpt>
      <trkpt lat="47.24095" lon="-2.29845">
        <ele>25</ele>
        <time>2022-08-21T08:12:01.000Z</time>
      </trkpt>
      <trkpt lat="47.24094" lon="-2.2985">
        <ele>25</ele>
        <time>2022-08-21T08:12:04.000Z</time>
      </trkpt>
      <trkpt lat="47.24091" lon="-2.29861">
        <ele>25</ele>
        <time>2022-08-21T08:12:07.000Z</time>
      </trkpt>
      <trkpt lat="47.24088" lon="-2.29892">
        <ele>25</ele>
        <time>2022-08-21T08:12:14.000Z</time>
      </trkpt>
      <trkpt lat="47.24086" lon="-2.29918">
        <ele>25</ele>
        <time>2022-08-21T08:12:19.000Z</time>
      </trkpt>
      <trkpt lat="47.24084" lon="-2.29934">
        <ele>25</ele>
        <time>2022-08-21T08:12:23.000Z</time>
      </trkpt>
      <trkpt lat="47.2407" lon="-2.2996">
        <ele>25</ele>
        <time>2022-08-21T08:12:29.000Z</time>
      </trkpt>
      <trkpt lat="47.24071" lon="-2.29977">
        <ele>25</ele>
        <time>2022-08-21T08:12:33.000Z</time>
      </trkpt>
      <trkpt lat="47.24071" lon="-2.29982">
        <ele>25</ele>
        <time>2022-08-21T08:12:34.000Z</time>
      </trkpt>
      <trkpt lat="47.2407" lon="-2.29996">
        <ele>25</ele>
        <time>2022-08-21T08:12:37.000Z</time>
      </trkpt>
      <trkpt lat="47.24069" lon="-2.30005">
        <ele>25</ele>
        <time>2022-08-21T08:12:39.000Z</time>
      </trkpt>
      <trkpt lat="47.24067" lon="-2.3002">
        <ele>25</ele>
        <time>2022-08-21T08:12:44.000Z</time>
      </trkpt>
      <trkpt lat="47.24067" lon="-2.30024">
        <ele>24.60000038147</ele>
        <time>2022-08-21T08:12:45.000Z</time>
      </trkpt>
      <trkpt lat="47.24067" lon="-2.30027">
        <ele>24.200000762939</ele>
        <time>2022-08-21T08:12:46.000Z</time>
      </trkpt>
      <trkpt lat="47.24068" lon="-2.30029">
        <ele>23.799999237061</ele>
        <time>2022-08-21T08:12:47.000Z</time>
      </trkpt>
      <trkpt lat="47.24069" lon="-2.3003">
        <ele>23.39999961853</ele>
        <time>2022-08-21T08:12:48.000Z</time>
      </trkpt>
      <trkpt lat="47.24068" lon="-2.30033">
        <ele>23</ele>
        <time>2022-08-21T08:12:49.000Z</time>
      </trkpt>
      <trkpt lat="47.24073" lon="-2.30032">
        <ele>23</ele>
        <time>2022-08-21T08:12:53.000Z</time>
      </trkpt>
      <trkpt lat="47.24076" lon="-2.30028">
        <ele>23</ele>
        <time>2022-08-21T08:12:55.000Z</time>
      </trkpt>
      <trkpt lat="47.24081" lon="-2.30019">
        <ele>23</ele>
        <time>2022-08-21T08:12:59.000Z</time>
      </trkpt>
      <trkpt lat="47.24093" lon="-2.30018">
        <ele>23</ele>
        <time>2022-08-21T08:13:05.000Z</time>
      </trkpt>
      <trkpt lat="47.241" lon="-2.30012">
        <ele>23</ele>
        <time>2022-08-21T08:13:10.000Z</time>
      </trkpt>
      <trkpt lat="47.24108" lon="-2.30002">
        <ele>23</ele>
        <time>2022-08-21T08:13:15.000Z</time>
      </trkpt>
      <trkpt lat="47.24108" lon="-2.29999">
        <ele>23</ele>
        <time>2022-08-21T08:13:17.000Z</time>
      </trkpt>
      <trkpt lat="47.24109" lon="-2.2999">
        <ele>23</ele>
        <time>2022-08-21T08:13:20.000Z</time>
      </trkpt>
      <trkpt lat="47.24113" lon="-2.29987">
        <ele>23</ele>
        <time>2022-08-21T08:13:23.000Z</time>
      </trkpt>
      <trkpt lat="47.24114" lon="-2.29986">
        <ele>23</ele>
        <time>2022-08-21T08:13:24.000Z</time>
      </trkpt>
      <trkpt lat="47.24125" lon="-2.29985">
        <ele>23</ele>
        <time>2022-08-21T08:13:29.000Z</time>
      </trkpt>
      <trkpt lat="47.24133" lon="-2.29982">
        <ele>23</ele>
        <time>2022-08-21T08:13:33.000Z</time>
      </trkpt>
      <trkpt lat="47.2415" lon="-2.29977">
        <ele>23</ele>
        <time>2022-08-21T08:13:39.000Z</time>
      </trkpt>
      <trkpt lat="47.24165" lon="-2.29972">
        <ele>23</ele>
        <time>2022-08-21T08:13:44.000Z</time>
      </trkpt>
      <trkpt lat="47.24186" lon="-2.29961">
        <ele>23</ele>
        <time>2022-08-21T08:13:49.000Z</time>
      </trkpt>
      <trkpt lat="47.24196" lon="-2.29956">
        <ele>23</ele>
        <time>2022-08-21T08:13:53.000Z</time>
      </trkpt>
      <trkpt lat="47.24206" lon="-2.29952">
        <ele>23</ele>
        <time>2022-08-21T08:13:59.000Z</time>
      </trkpt>
      <trkpt lat="47.24215" lon="-2.29947">
        <ele>22.60000038147</ele>
        <time>2022-08-21T08:14:02.000Z</time>
      </trkpt>
      <trkpt lat="47.2422" lon="-2.29943">
        <ele>22.200000762939</ele>
        <time>2022-08-21T08:14:03.000Z</time>
      </trkpt>
      <trkpt lat="47.24224" lon="-2.29939">
        <ele>21.799999237061</ele>
        <time>2022-08-21T08:14:04.000Z</time>
      </trkpt>
      <trkpt lat="47.24229" lon="-2.29934">
        <ele>21.39999961853</ele>
        <time>2022-08-21T08:14:05.000Z</time>
      </trkpt>
      <trkpt lat="47.24235" lon="-2.29929">
        <ele>21</ele>
        <time>2022-08-21T08:14:06.000Z</time>
      </trkpt>
      <trkpt lat="47.24241" lon="-2.29925">
        <ele>21</ele>
        <time>2022-08-21T08:14:07.000Z</time>
      </trkpt>
      <trkpt lat="47.24247" lon="-2.29922">
        <ele>21</ele>
        <time>2022-08-21T08:14:08.000Z</time>
      </trkpt>
      <trkpt lat="47.24268" lon="-2.29905">
        <ele>21</ele>
        <time>2022-08-21T08:14:13.000Z</time>
      </trkpt>
      <trkpt lat="47.24293" lon="-2.29884">
        <ele>21</ele>
        <time>2022-08-21T08:14:18.000Z</time>
      </trkpt>
      <trkpt lat="47.24304" lon="-2.29868">
        <ele>21</ele>
        <time>2022-08-21T08:14:21.000Z</time>
      </trkpt>
      <trkpt lat="47.24306" lon="-2.29862">
        <ele>21</ele>
        <time>2022-08-21T08:14:22.000Z</time>
      </trkpt>
      <trkpt lat="47.24308" lon="-2.29832">
        <ele>21</ele>
        <time>2022-08-21T08:14:26.000Z</time>
      </trkpt>
      <trkpt lat="47.24314" lon="-2.29824">
        <ele>21</ele>
        <time>2022-08-21T08:14:27.000Z</time>
      </trkpt>
      <trkpt lat="47.24329" lon="-2.2981">
        <ele>21</ele>
        <time>2022-08-21T08:14:30.000Z</time>
      </trkpt>
      <trkpt lat="47.24334" lon="-2.29808">
        <ele>21.39999961853</ele>
        <time>2022-08-21T08:14:31.000Z</time>
      </trkpt>
      <trkpt lat="47.24339" lon="-2.29807">
        <ele>21.799999237061</ele>
        <time>2022-08-21T08:14:32.000Z</time>
      </trkpt>
      <trkpt lat="47.24344" lon="-2.29805">
        <ele>22.200000762939</ele>
        <time>2022-08-21T08:14:33.000Z</time>
      </trkpt>
      <trkpt lat="47.24349" lon="-2.29803">
        <ele>22.60000038147</ele>
        <time>2022-08-21T08:14:34.000Z</time>
      </trkpt>
      <trkpt lat="47.24352" lon="-2.29799">
        <ele>23</ele>
        <time>2022-08-21T08:14:35.000Z</time>
      </trkpt>
      <trkpt lat="47.24363" lon="-2.29785">
        <ele>23</ele>
        <time>2022-08-21T08:14:38.000Z</time>
      </trkpt>
      <trkpt lat="47.24369" lon="-2.29772">
        <ele>23</ele>
        <time>2022-08-21T08:14:40.000Z</time>
      </trkpt>
      <trkpt lat="47.24388" lon="-2.29728">
        <ele>23</ele>
        <time>2022-08-21T08:14:47.000Z</time>
      </trkpt>
      <trkpt lat="47.24391" lon="-2.29721">
        <ele>23</ele>
        <time>2022-08-21T08:14:48.000Z</time>
      </trkpt>
      <trkpt lat="47.24396" lon="-2.2971">
        <ele>23</ele>
        <time>2022-08-21T08:14:50.000Z</time>
      </trkpt>
      <trkpt lat="47.244" lon="-2.29705">
        <ele>23</ele>
        <time>2022-08-21T08:14:51.000Z</time>
      </trkpt>
      <trkpt lat="47.24416" lon="-2.29696">
        <ele>23</ele>
        <time>2022-08-21T08:14:55.000Z</time>
      </trkpt>
      <trkpt lat="47.2442" lon="-2.29695">
        <ele>23</ele>
        <time>2022-08-21T08:14:56.000Z</time>
      </trkpt>
      <trkpt lat="47.24425" lon="-2.29693">
        <ele>23</ele>
        <time>2022-08-21T08:14:57.000Z</time>
      </trkpt>
      <trkpt lat="47.24433" lon="-2.29698">
        <ele>23</ele>
        <time>2022-08-21T08:14:59.000Z</time>
      </trkpt>
      <trkpt lat="47.24439" lon="-2.29714">
        <ele>23</ele>
        <time>2022-08-21T08:15:02.000Z</time>
      </trkpt>
      <trkpt lat="47.2444" lon="-2.29719">
        <ele>23</ele>
        <time>2022-08-21T08:15:03.000Z</time>
      </trkpt>
      <trkpt lat="47.24444" lon="-2.2973">
        <ele>23</ele>
        <time>2022-08-21T08:15:05.000Z</time>
      </trkpt>
      <trkpt lat="47.2445" lon="-2.29742">
        <ele>23</ele>
        <time>2022-08-21T08:15:07.000Z</time>
      </trkpt>
      <trkpt lat="47.24455" lon="-2.29754">
        <ele>23</ele>
        <time>2022-08-21T08:15:09.000Z</time>
      </trkpt>
      <trkpt lat="47.2446" lon="-2.29775">
        <ele>23</ele>
        <time>2022-08-21T08:15:12.000Z</time>
      </trkpt>
      <trkpt lat="47.24462" lon="-2.29782">
        <ele>23</ele>
        <time>2022-08-21T08:15:13.000Z</time>
      </trkpt>
      <trkpt lat="47.24467" lon="-2.29797">
        <ele>23</ele>
        <time>2022-08-21T08:15:15.000Z</time>
      </trkpt>
      <trkpt lat="47.24473" lon="-2.29809">
        <ele>23.39999961853</ele>
        <time>2022-08-21T08:15:17.000Z</time>
      </trkpt>
      <trkpt lat="47.24477" lon="-2.29816">
        <ele>23.799999237061</ele>
        <time>2022-08-21T08:15:18.000Z</time>
      </trkpt>
      <trkpt lat="47.2448" lon="-2.29821">
        <ele>24.200000762939</ele>
        <time>2022-08-21T08:15:19.000Z</time>
      </trkpt>
      <trkpt lat="47.24483" lon="-2.29826">
        <ele>24.60000038147</ele>
        <time>2022-08-21T08:15:20.000Z</time>
      </trkpt>
      <trkpt lat="47.24486" lon="-2.2983">
        <ele>25</ele>
        <time>2022-08-21T08:15:21.000Z</time>
      </trkpt>
      <trkpt lat="47.24489" lon="-2.29834">
        <ele>25</ele>
        <time>2022-08-21T08:15:22.000Z</time>
      </trkpt>
      <trkpt lat="47.24496" lon="-2.29841">
        <ele>25</ele>
        <time>2022-08-21T08:15:24.000Z</time>
      </trkpt>
      <trkpt lat="47.24507" lon="-2.29849">
        <ele>25</ele>
        <time>2022-08-21T08:15:27.000Z</time>
      </trkpt>
      <trkpt lat="47.24541" lon="-2.29866">
        <ele>25</ele>
        <time>2022-08-21T08:15:35.000Z</time>
      </trkpt>
      <trkpt lat="47.24558" lon="-2.29876">
        <ele>25</ele>
        <time>2022-08-21T08:15:40.000Z</time>
      </trkpt>
      <trkpt lat="47.2456" lon="-2.29877">
        <ele>25</ele>
        <time>2022-08-21T08:15:41.000Z</time>
      </trkpt>
      <trkpt lat="47.24562" lon="-2.29877">
        <ele>25</ele>
        <time>2022-08-21T08:15:43.000Z</time>
      </trkpt>
      <trkpt lat="47.24562" lon="-2.29877">
        <ele>25</ele>
        <time>2022-08-21T08:15:44.000Z</time>
      </trkpt>
      <trkpt lat="47.24563" lon="-2.29877">
        <ele>25</ele>
        <time>2022-08-21T08:15:56.000Z</time>
      </trkpt>
      <trkpt lat="47.24565" lon="-2.29881">
        <ele>25</ele>
        <time>2022-08-21T08:15:58.000Z</time>
      </trkpt>
      <trkpt lat="47.24573" lon="-2.29901">
        <ele>25</ele>
        <time>2022-08-21T08:16:03.000Z</time>
      </trkpt>
      <trkpt lat="47.24593" lon="-2.29937">
        <ele>25</ele>
        <time>2022-08-21T08:16:10.000Z</time>
      </trkpt>
      <trkpt lat="47.24606" lon="-2.2994">
        <ele>25</ele>
        <time>2022-08-21T08:16:13.000Z</time>
      </trkpt>
      <trkpt lat="47.24611" lon="-2.29939">
        <ele>25</ele>
        <time>2022-08-21T08:16:14.000Z</time>
      </trkpt>
      <trkpt lat="47.24642" lon="-2.2993">
        <ele>25</ele>
        <time>2022-08-21T08:16:20.000Z</time>
      </trkpt>
      <trkpt lat="47.24662" lon="-2.29922">
        <ele>25.39999961853</ele>
        <time>2022-08-21T08:16:24.000Z</time>
      </trkpt>
      <trkpt lat="47.24667" lon="-2.2992">
        <ele>25.799999237061</ele>
        <time>2022-08-21T08:16:25.000Z</time>
      </trkpt>
      <trkpt lat="47.24672" lon="-2.29918">
        <ele>26.200000762939</ele>
        <time>2022-08-21T08:16:26.000Z</time>
      </trkpt>
      <trkpt lat="47.24677" lon="-2.29916">
        <ele>26.60000038147</ele>
        <time>2022-08-21T08:16:27.000Z</time>
      </trkpt>
      <trkpt lat="47.24682" lon="-2.29915">
        <ele>27.200000762939</ele>
        <time>2022-08-21T08:16:28.000Z</time>
      </trkpt>
      <trkpt lat="47.24718" lon="-2.29903">
        <ele>27.200000762939</ele>
        <time>2022-08-21T08:16:35.000Z</time>
      </trkpt>
      <trkpt lat="47.24749" lon="-2.29891">
        <ele>27.200000762939</ele>
        <time>2022-08-21T08:16:41.000Z</time>
      </trkpt>
      <trkpt lat="47.24777" lon="-2.29869">
        <ele>27.200000762939</ele>
        <time>2022-08-21T08:16:47.000Z</time>
      </trkpt>
      <trkpt lat="47.24782" lon="-2.29866">
        <ele>27.60000038147</ele>
        <time>2022-08-21T08:16:48.000Z</time>
      </trkpt>
      <trkpt lat="47.24787" lon="-2.29862">
        <ele>28</ele>
        <time>2022-08-21T08:16:49.000Z</time>
      </trkpt>
      <trkpt lat="47.24791" lon="-2.29859">
        <ele>28.39999961853</ele>
        <time>2022-08-21T08:16:50.000Z</time>
      </trkpt>
      <trkpt lat="47.24796" lon="-2.29856">
        <ele>28.799999237061</ele>
        <time>2022-08-21T08:16:51.000Z</time>
      </trkpt>
      <trkpt lat="47.248" lon="-2.29854">
        <ele>29.200000762939</ele>
        <time>2022-08-21T08:16:52.000Z</time>
      </trkpt>
      <trkpt lat="47.24815" lon="-2.29846">
        <ele>29.200000762939</ele>
        <time>2022-08-21T08:16:55.000Z</time>
      </trkpt>
      <trkpt lat="47.2482" lon="-2.29845">
        <ele>29.200000762939</ele>
        <time>2022-08-21T08:16:56.000Z</time>
      </trkpt>
      <trkpt lat="47.24838" lon="-2.29841">
        <ele>29.200000762939</ele>
        <time>2022-08-21T08:17:00.000Z</time>
      </trkpt>
      <trkpt lat="47.24843" lon="-2.29839">
        <ele>29.200000762939</ele>
        <time>2022-08-21T08:17:01.000Z</time>
      </trkpt>
      <trkpt lat="47.24855" lon="-2.29832">
        <ele>29.200000762939</ele>
        <time>2022-08-21T08:17:04.000Z</time>
      </trkpt>
      <trkpt lat="47.24859" lon="-2.2983">
        <ele>29.200000762939</ele>
        <time>2022-08-21T08:17:05.000Z</time>
      </trkpt>
      <trkpt lat="47.24865" lon="-2.29834">
        <ele>29.200000762939</ele>
        <time>2022-08-21T08:17:07.000Z</time>
      </trkpt>
      <trkpt lat="47.24869" lon="-2.29852">
        <ele>29.200000762939</ele>
        <time>2022-08-21T08:17:10.000Z</time>
      </trkpt>
      <trkpt lat="47.2487" lon="-2.29859">
        <ele>29.200000762939</ele>
        <time>2022-08-21T08:17:11.000Z</time>
      </trkpt>
      <trkpt lat="47.24875" lon="-2.2988">
        <ele>29.200000762939</ele>
        <time>2022-08-21T08:17:14.000Z</time>
      </trkpt>
      <trkpt lat="47.24876" lon="-2.29887">
        <ele>29.200000762939</ele>
        <time>2022-08-21T08:17:15.000Z</time>
      </trkpt>
      <trkpt lat="47.24881" lon="-2.29936">
        <ele>29.200000762939</ele>
        <time>2022-08-21T08:17:21.000Z</time>
      </trkpt>
      <trkpt lat="47.24893" lon="-2.29987">
        <ele>29.200000762939</ele>
        <time>2022-08-21T08:17:27.000Z</time>
      </trkpt>
      <trkpt lat="47.249" lon="-2.30012">
        <ele>29.200000762939</ele>
        <time>2022-08-21T08:17:30.000Z</time>
      </trkpt>
      <trkpt lat="47.24902" lon="-2.30028">
        <ele>29.200000762939</ele>
        <time>2022-08-21T08:17:32.000Z</time>
      </trkpt>
      <trkpt lat="47.24903" lon="-2.30035">
        <ele>29.200000762939</ele>
        <time>2022-08-21T08:17:33.000Z</time>
      </trkpt>
      <trkpt lat="47.24906" lon="-2.30053">
        <ele>29.200000762939</ele>
        <time>2022-08-21T08:17:36.000Z</time>
      </trkpt>
      <trkpt lat="47.24909" lon="-2.30055">
        <ele>29.200000762939</ele>
        <time>2022-08-21T08:17:37.000Z</time>
      </trkpt>
      <trkpt lat="47.24922" lon="-2.30054">
        <ele>29.200000762939</ele>
        <time>2022-08-21T08:17:40.000Z</time>
      </trkpt>
      <trkpt lat="47.24926" lon="-2.30054">
        <ele>29.200000762939</ele>
        <time>2022-08-21T08:17:41.000Z</time>
      </trkpt>
      <trkpt lat="47.24957" lon="-2.30053">
        <ele>29.200000762939</ele>
        <time>2022-08-21T08:17:47.000Z</time>
      </trkpt>
      <trkpt lat="47.24995" lon="-2.3005">
        <ele>29.200000762939</ele>
        <time>2022-08-21T08:17:54.000Z</time>
      </trkpt>
      <trkpt lat="47.25" lon="-2.3005">
        <ele>29.200000762939</ele>
        <time>2022-08-21T08:17:55.000Z</time>
      </trkpt>
      <trkpt lat="47.2502" lon="-2.30051">
        <ele>29.200000762939</ele>
        <time>2022-08-21T08:17:59.000Z</time>
      </trkpt>
      <trkpt lat="47.25063" lon="-2.30054">
        <ele>29.200000762939</ele>
        <time>2022-08-21T08:18:07.000Z</time>
      </trkpt>
      <trkpt lat="47.25071" lon="-2.30064">
        <ele>29.200000762939</ele>
        <time>2022-08-21T08:18:10.000Z</time>
      </trkpt>
      <trkpt lat="47.2507" lon="-2.30075">
        <ele>28.799999237061</ele>
        <time>2022-08-21T08:18:12.000Z</time>
      </trkpt>
      <trkpt lat="47.25069" lon="-2.30082">
        <ele>28.39999961853</ele>
        <time>2022-08-21T08:18:13.000Z</time>
      </trkpt>
      <trkpt lat="47.25068" lon="-2.30089">
        <ele>28</ele>
        <time>2022-08-21T08:18:14.000Z</time>
      </trkpt>
      <trkpt lat="47.25068" lon="-2.30096">
        <ele>27.60000038147</ele>
        <time>2022-08-21T08:18:15.000Z</time>
      </trkpt>
      <trkpt lat="47.25067" lon="-2.30103">
        <ele>27.200000762939</ele>
        <time>2022-08-21T08:18:16.000Z</time>
      </trkpt>
      <trkpt lat="47.25067" lon="-2.30124">
        <ele>27.200000762939</ele>
        <time>2022-08-21T08:18:19.000Z</time>
      </trkpt>
      <trkpt lat="47.25071" lon="-2.30134">
        <ele>27.200000762939</ele>
        <time>2022-08-21T08:18:21.000Z</time>
      </trkpt>
      <trkpt lat="47.25086" lon="-2.30136">
        <ele>27.200000762939</ele>
        <time>2022-08-21T08:18:24.000Z</time>
      </trkpt>
      <trkpt lat="47.25095" lon="-2.30135">
        <ele>27.200000762939</ele>
        <time>2022-08-21T08:18:26.000Z</time>
      </trkpt>
      <trkpt lat="47.25111" lon="-2.3013">
        <ele>27.200000762939</ele>
        <time>2022-08-21T08:18:29.000Z</time>
      </trkpt>
      <trkpt lat="47.25116" lon="-2.3013">
        <ele>27.200000762939</ele>
        <time>2022-08-21T08:18:30.000Z</time>
      </trkpt>
      <trkpt lat="47.25127" lon="-2.30128">
        <ele>27.200000762939</ele>
        <time>2022-08-21T08:18:32.000Z</time>
      </trkpt>
      <trkpt lat="47.25133" lon="-2.30127">
        <ele>27.200000762939</ele>
        <time>2022-08-21T08:18:33.000Z</time>
      </trkpt>
      <trkpt lat="47.25164" lon="-2.30118">
        <ele>26.799999237061</ele>
        <time>2022-08-21T08:18:38.000Z</time>
      </trkpt>
      <trkpt lat="47.25171" lon="-2.30117">
        <ele>26.39999961853</ele>
        <time>2022-08-21T08:18:39.000Z</time>
      </trkpt>
      <trkpt lat="47.25177" lon="-2.30119">
        <ele>26</ele>
        <time>2022-08-21T08:18:40.000Z</time>
      </trkpt>
      <trkpt lat="47.25181" lon="-2.30122">
        <ele>25.60000038147</ele>
        <time>2022-08-21T08:18:41.000Z</time>
      </trkpt>
      <trkpt lat="47.25184" lon="-2.30128">
        <ele>25.200000762939</ele>
        <time>2022-08-21T08:18:42.000Z</time>
      </trkpt>
      <trkpt lat="47.25187" lon="-2.30135">
        <ele>25.200000762939</ele>
        <time>2022-08-21T08:18:43.000Z</time>
      </trkpt>
      <trkpt lat="47.25191" lon="-2.30141">
        <ele>25.200000762939</ele>
        <time>2022-08-21T08:18:44.000Z</time>
      </trkpt>
      <trkpt lat="47.2521" lon="-2.30164">
        <ele>25.200000762939</ele>
        <time>2022-08-21T08:18:48.000Z</time>
      </trkpt>
      <trkpt lat="47.25221" lon="-2.30172">
        <ele>24.60000038147</ele>
        <time>2022-08-21T08:18:50.000Z</time>
      </trkpt>
      <trkpt lat="47.25227" lon="-2.30174">
        <ele>24.200000762939</ele>
        <time>2022-08-21T08:18:51.000Z</time>
      </trkpt>
      <trkpt lat="47.25233" lon="-2.30176">
        <ele>23.39999961853</ele>
        <time>2022-08-21T08:18:52.000Z</time>
      </trkpt>
      <trkpt lat="47.25238" lon="-2.30178">
        <ele>23</ele>
        <time>2022-08-21T08:18:53.000Z</time>
      </trkpt>
      <trkpt lat="47.25259" lon="-2.30188">
        <ele>23</ele>
        <time>2022-08-21T08:18:57.000Z</time>
      </trkpt>
      <trkpt lat="47.25269" lon="-2.30194">
        <ele>23</ele>
        <time>2022-08-21T08:18:59.000Z</time>
      </trkpt>
      <trkpt lat="47.25278" lon="-2.30199">
        <ele>22.60000038147</ele>
        <time>2022-08-21T08:19:01.000Z</time>
      </trkpt>
      <trkpt lat="47.25283" lon="-2.30201">
        <ele>22.200000762939</ele>
        <time>2022-08-21T08:19:02.000Z</time>
      </trkpt>
      <trkpt lat="47.25287" lon="-2.30203">
        <ele>21.799999237061</ele>
        <time>2022-08-21T08:19:03.000Z</time>
      </trkpt>
      <trkpt lat="47.2529" lon="-2.30204">
        <ele>21.39999961853</ele>
        <time>2022-08-21T08:19:04.000Z</time>
      </trkpt>
      <trkpt lat="47.25294" lon="-2.30203">
        <ele>21</ele>
        <time>2022-08-21T08:19:05.000Z</time>
      </trkpt>
      <trkpt lat="47.25302" lon="-2.30199">
        <ele>21</ele>
        <time>2022-08-21T08:19:08.000Z</time>
      </trkpt>
      <trkpt lat="47.25309" lon="-2.30202">
        <ele>21</ele>
        <time>2022-08-21T08:19:10.000Z</time>
      </trkpt>
      <trkpt lat="47.2532" lon="-2.30204">
        <ele>21</ele>
        <time>2022-08-21T08:19:12.000Z</time>
      </trkpt>
      <trkpt lat="47.25354" lon="-2.30208">
        <ele>20.60000038147</ele>
        <time>2022-08-21T08:19:17.000Z</time>
      </trkpt>
      <trkpt lat="47.2536" lon="-2.30209">
        <ele>20.200000762939</ele>
        <time>2022-08-21T08:19:18.000Z</time>
      </trkpt>
      <trkpt lat="47.25365" lon="-2.3021">
        <ele>19.799999237061</ele>
        <time>2022-08-21T08:19:19.000Z</time>
      </trkpt>
      <trkpt lat="47.25371" lon="-2.30211">
        <ele>19.39999961853</ele>
        <time>2022-08-21T08:19:20.000Z</time>
      </trkpt>
      <trkpt lat="47.25375" lon="-2.30213">
        <ele>19</ele>
        <time>2022-08-21T08:19:21.000Z</time>
      </trkpt>
      <trkpt lat="47.25379" lon="-2.30213">
        <ele>19</ele>
        <time>2022-08-21T08:19:22.000Z</time>
      </trkpt>
      <trkpt lat="47.25399" lon="-2.3022">
        <ele>19</ele>
        <time>2022-08-21T08:19:27.000Z</time>
      </trkpt>
      <trkpt lat="47.25404" lon="-2.30221">
        <ele>19</ele>
        <time>2022-08-21T08:19:28.000Z</time>
      </trkpt>
      <trkpt lat="47.25414" lon="-2.30225">
        <ele>19</ele>
        <time>2022-08-21T08:19:30.000Z</time>
      </trkpt>
      <trkpt lat="47.25419" lon="-2.30227">
        <ele>19</ele>
        <time>2022-08-21T08:19:31.000Z</time>
      </trkpt>
      <trkpt lat="47.2544" lon="-2.30232">
        <ele>19</ele>
        <time>2022-08-21T08:19:35.000Z</time>
      </trkpt>
      <trkpt lat="47.25456" lon="-2.30239">
        <ele>18.39999961853</ele>
        <time>2022-08-21T08:19:39.000Z</time>
      </trkpt>
      <trkpt lat="47.25458" lon="-2.30238">
        <ele>18</ele>
        <time>2022-08-21T08:19:40.000Z</time>
      </trkpt>
      <trkpt lat="47.25459" lon="-2.30236">
        <ele>17.200000762939</ele>
        <time>2022-08-21T08:19:41.000Z</time>
      </trkpt>
      <trkpt lat="47.25459" lon="-2.30232">
        <ele>16.60000038147</ele>
        <time>2022-08-21T08:19:42.000Z</time>
      </trkpt>
      <trkpt lat="47.25461" lon="-2.30221">
        <ele>16.60000038147</ele>
        <time>2022-08-21T08:19:45.000Z</time>
      </trkpt>
      <trkpt lat="47.25464" lon="-2.30216">
        <ele>16.60000038147</ele>
        <time>2022-08-21T08:19:46.000Z</time>
      </trkpt>
      <trkpt lat="47.25473" lon="-2.30206">
        <ele>16.60000038147</ele>
        <time>2022-08-21T08:19:48.000Z</time>
      </trkpt>
      <trkpt lat="47.25481" lon="-2.302">
        <ele>16.60000038147</ele>
        <time>2022-08-21T08:19:51.000Z</time>
      </trkpt>
      <trkpt lat="47.25492" lon="-2.30196">
        <ele>16.60000038147</ele>
        <time>2022-08-21T08:19:55.000Z</time>
      </trkpt>
      <trkpt lat="47.25495" lon="-2.30194">
        <ele>16.60000038147</ele>
        <time>2022-08-21T08:19:56.000Z</time>
      </trkpt>
      <trkpt lat="47.255" lon="-2.30192">
        <ele>16.60000038147</ele>
        <time>2022-08-21T08:19:57.000Z</time>
      </trkpt>
      <trkpt lat="47.25512" lon="-2.30189">
        <ele>16.60000038147</ele>
        <time>2022-08-21T08:19:59.000Z</time>
      </trkpt>
      <trkpt lat="47.25545" lon="-2.30184">
        <ele>16.60000038147</ele>
        <time>2022-08-21T08:20:05.000Z</time>
      </trkpt>
      <trkpt lat="47.2555" lon="-2.30184">
        <ele>16.200000762939</ele>
        <time>2022-08-21T08:20:06.000Z</time>
      </trkpt>
      <trkpt lat="47.25554" lon="-2.30183">
        <ele>15.800000190735</ele>
        <time>2022-08-21T08:20:07.000Z</time>
      </trkpt>
      <trkpt lat="47.25557" lon="-2.30183">
        <ele>15.39999961853</ele>
        <time>2022-08-21T08:20:08.000Z</time>
      </trkpt>
      <trkpt lat="47.25559" lon="-2.30184">
        <ele>15</ele>
        <time>2022-08-21T08:20:09.000Z</time>
      </trkpt>
      <trkpt lat="47.25562" lon="-2.30185">
        <ele>14.60000038147</ele>
        <time>2022-08-21T08:20:10.000Z</time>
      </trkpt>
      <trkpt lat="47.25572" lon="-2.30192">
        <ele>14.60000038147</ele>
        <time>2022-08-21T08:20:15.000Z</time>
      </trkpt>
      <trkpt lat="47.25583" lon="-2.30201">
        <ele>14.60000038147</ele>
        <time>2022-08-21T08:20:19.000Z</time>
      </trkpt>
      <trkpt lat="47.25588" lon="-2.30206">
        <ele>14.60000038147</ele>
        <time>2022-08-21T08:20:21.000Z</time>
      </trkpt>
      <trkpt lat="47.25602" lon="-2.30225">
        <ele>14.60000038147</ele>
        <time>2022-08-21T08:20:26.000Z</time>
      </trkpt>
      <trkpt lat="47.2561" lon="-2.3025">
        <ele>14.60000038147</ele>
        <time>2022-08-21T08:20:30.000Z</time>
      </trkpt>
      <trkpt lat="47.25612" lon="-2.30256">
        <ele>14.60000038147</ele>
        <time>2022-08-21T08:20:31.000Z</time>
      </trkpt>
      <trkpt lat="47.25619" lon="-2.30284">
        <ele>14.60000038147</ele>
        <time>2022-08-21T08:20:35.000Z</time>
      </trkpt>
      <trkpt lat="47.25624" lon="-2.30307">
        <ele>14.60000038147</ele>
        <time>2022-08-21T08:20:38.000Z</time>
      </trkpt>
      <trkpt lat="47.25626" lon="-2.30327">
        <ele>14.60000038147</ele>
        <time>2022-08-21T08:20:41.000Z</time>
      </trkpt>
      <trkpt lat="47.25632" lon="-2.30336">
        <ele>14.60000038147</ele>
        <time>2022-08-21T08:20:44.000Z</time>
      </trkpt>
      <trkpt lat="47.2564" lon="-2.30329">
        <ele>14.60000038147</ele>
        <time>2022-08-21T08:20:47.000Z</time>
      </trkpt>
      <trkpt lat="47.25652" lon="-2.30303">
        <ele>14.60000038147</ele>
        <time>2022-08-21T08:20:53.000Z</time>
      </trkpt>
      <trkpt lat="47.25653" lon="-2.30286">
        <ele>14.60000038147</ele>
        <time>2022-08-21T08:20:56.000Z</time>
      </trkpt>
      <trkpt lat="47.25655" lon="-2.30281">
        <ele>14.60000038147</ele>
        <time>2022-08-21T08:20:57.000Z</time>
      </trkpt>
      <trkpt lat="47.2567" lon="-2.3026">
        <ele>14.60000038147</ele>
        <time>2022-08-21T08:21:02.000Z</time>
      </trkpt>
      <trkpt lat="47.25672" lon="-2.30255">
        <ele>14.60000038147</ele>
        <time>2022-08-21T08:21:03.000Z</time>
      </trkpt>
      <trkpt lat="47.25678" lon="-2.30243">
        <ele>14.60000038147</ele>
        <time>2022-08-21T08:21:05.000Z</time>
      </trkpt>
      <trkpt lat="47.25687" lon="-2.30223">
        <ele>14.60000038147</ele>
        <time>2022-08-21T08:21:08.000Z</time>
      </trkpt>
      <trkpt lat="47.25696" lon="-2.30213">
        <ele>14.60000038147</ele>
        <time>2022-08-21T08:21:10.000Z</time>
      </trkpt>
      <trkpt lat="47.25701" lon="-2.3021">
        <ele>14.199999809265</ele>
        <time>2022-08-21T08:21:11.000Z</time>
      </trkpt>
      <trkpt lat="47.25706" lon="-2.30207">
        <ele>13.800000190735</ele>
        <time>2022-08-21T08:21:12.000Z</time>
      </trkpt>
      <trkpt lat="47.25712" lon="-2.30205">
        <ele>13.39999961853</ele>
        <time>2022-08-21T08:21:13.000Z</time>
      </trkpt>
      <trkpt lat="47.25718" lon="-2.30205">
        <ele>13</ele>
        <time>2022-08-21T08:21:14.000Z</time>
      </trkpt>
      <trkpt lat="47.25724" lon="-2.30205">
        <ele>12.60000038147</ele>
        <time>2022-08-21T08:21:15.000Z</time>
      </trkpt>
      <trkpt lat="47.25737" lon="-2.3021">
        <ele>12.60000038147</ele>
        <time>2022-08-21T08:21:17.000Z</time>
      </trkpt>
      <trkpt lat="47.25743" lon="-2.30213">
        <ele>12.60000038147</ele>
        <time>2022-08-21T08:21:18.000Z</time>
      </trkpt>
      <trkpt lat="47.25762" lon="-2.30222">
        <ele>12.199999809265</ele>
        <time>2022-08-21T08:21:21.000Z</time>
      </trkpt>
      <trkpt lat="47.25769" lon="-2.30225">
        <ele>11.800000190735</ele>
        <time>2022-08-21T08:21:22.000Z</time>
      </trkpt>
      <trkpt lat="47.25776" lon="-2.30229">
        <ele>11.39999961853</ele>
        <time>2022-08-21T08:21:23.000Z</time>
      </trkpt>
      <trkpt lat="47.25783" lon="-2.30233">
        <ele>11</ele>
        <time>2022-08-21T08:21:24.000Z</time>
      </trkpt>
      <trkpt lat="47.2579" lon="-2.30237">
        <ele>10.60000038147</ele>
        <time>2022-08-21T08:21:25.000Z</time>
      </trkpt>
      <trkpt lat="47.25822" lon="-2.30253">
        <ele>10.60000038147</ele>
        <time>2022-08-21T08:21:30.000Z</time>
      </trkpt>
      <trkpt lat="47.25853" lon="-2.30266">
        <ele>10.60000038147</ele>
        <time>2022-08-21T08:21:36.000Z</time>
      </trkpt>
      <trkpt lat="47.2587" lon="-2.30273">
        <ele>10.60000038147</ele>
        <time>2022-08-21T08:21:40.000Z</time>
      </trkpt>
      <trkpt lat="47.25877" lon="-2.30267">
        <ele>10.60000038147</ele>
        <time>2022-08-21T08:21:42.000Z</time>
      </trkpt>
      <trkpt lat="47.25887" lon="-2.30255">
        <ele>10.60000038147</ele>
        <time>2022-08-21T08:21:45.000Z</time>
      </trkpt>
      <trkpt lat="47.2589" lon="-2.30249">
        <ele>10.60000038147</ele>
        <time>2022-08-21T08:21:46.000Z</time>
      </trkpt>
      <trkpt lat="47.25892" lon="-2.30242">
        <ele>10.60000038147</ele>
        <time>2022-08-21T08:21:47.000Z</time>
      </trkpt>
      <trkpt lat="47.25889" lon="-2.30212">
        <ele>10.60000038147</ele>
        <time>2022-08-21T08:21:51.000Z</time>
      </trkpt>
      <trkpt lat="47.25888" lon="-2.30205">
        <ele>10.60000038147</ele>
        <time>2022-08-21T08:21:52.000Z</time>
      </trkpt>
      <trkpt lat="47.25886" lon="-2.30199">
        <ele>10.60000038147</ele>
        <time>2022-08-21T08:21:53.000Z</time>
      </trkpt>
      <trkpt lat="47.25882" lon="-2.3018">
        <ele>10.60000038147</ele>
        <time>2022-08-21T08:21:56.000Z</time>
      </trkpt>
      <trkpt lat="47.2589" lon="-2.3017">
        <ele>10.60000038147</ele>
        <time>2022-08-21T08:21:59.000Z</time>
      </trkpt>
      <trkpt lat="47.25904" lon="-2.30171">
        <ele>10.60000038147</ele>
        <time>2022-08-21T08:22:02.000Z</time>
      </trkpt>
      <trkpt lat="47.25915" lon="-2.30168">
        <ele>10.60000038147</ele>
        <time>2022-08-21T08:22:04.000Z</time>
      </trkpt>
      <trkpt lat="47.25926" lon="-2.30166">
        <ele>10.60000038147</ele>
        <time>2022-08-21T08:22:06.000Z</time>
      </trkpt>
      <trkpt lat="47.2594" lon="-2.30163">
        <ele>10.60000038147</ele>
        <time>2022-08-21T08:22:08.000Z</time>
      </trkpt>
      <trkpt lat="47.25952" lon="-2.30154">
        <ele>10.60000038147</ele>
        <time>2022-08-21T08:22:10.000Z</time>
      </trkpt>
      <trkpt lat="47.25957" lon="-2.30148">
        <ele>10.199999809265</ele>
        <time>2022-08-21T08:22:11.000Z</time>
      </trkpt>
      <trkpt lat="47.2596" lon="-2.30141">
        <ele>9.8000001907349</ele>
        <time>2022-08-21T08:22:12.000Z</time>
      </trkpt>
      <trkpt lat="47.25963" lon="-2.30133">
        <ele>9.1999998092651</ele>
        <time>2022-08-21T08:22:13.000Z</time>
      </trkpt>
      <trkpt lat="47.25964" lon="-2.30124">
        <ele>8.8000001907349</ele>
        <time>2022-08-21T08:22:14.000Z</time>
      </trkpt>
      <trkpt lat="47.25965" lon="-2.30115">
        <ele>8.3999996185303</ele>
        <time>2022-08-21T08:22:15.000Z</time>
      </trkpt>
      <trkpt lat="47.25965" lon="-2.30107">
        <ele>8.3999996185303</ele>
        <time>2022-08-21T08:22:16.000Z</time>
      </trkpt>
      <trkpt lat="47.25966" lon="-2.30098">
        <ele>8.3999996185303</ele>
        <time>2022-08-21T08:22:17.000Z</time>
      </trkpt>
      <trkpt lat="47.25967" lon="-2.30045">
        <ele>8.3999996185303</ele>
        <time>2022-08-21T08:22:23.000Z</time>
      </trkpt>
      <trkpt lat="47.2597" lon="-2.29987">
        <ele>8.3999996185303</ele>
        <time>2022-08-21T08:22:30.000Z</time>
      </trkpt>
      <trkpt lat="47.25974" lon="-2.29956">
        <ele>8.3999996185303</ele>
        <time>2022-08-21T08:22:34.000Z</time>
      </trkpt>
      <trkpt lat="47.25975" lon="-2.29949">
        <ele>8.3999996185303</ele>
        <time>2022-08-21T08:22:35.000Z</time>
      </trkpt>
      <trkpt lat="47.25981" lon="-2.29934">
        <ele>8.3999996185303</ele>
        <time>2022-08-21T08:22:38.000Z</time>
      </trkpt>
      <trkpt lat="47.25986" lon="-2.29929">
        <ele>8.3999996185303</ele>
        <time>2022-08-21T08:22:40.000Z</time>
      </trkpt>
      <trkpt lat="47.25992" lon="-2.2992">
        <ele>8.3999996185303</ele>
        <time>2022-08-21T08:22:43.000Z</time>
      </trkpt>
      <trkpt lat="47.25993" lon="-2.2992">
        <ele>8.3999996185303</ele>
        <time>2022-08-21T08:22:45.000Z</time>
      </trkpt>
      <trkpt lat="47.25993" lon="-2.29918">
        <ele>10.39999961853</ele>
        <time>2022-08-21T08:23:57.000Z</time>
      </trkpt>
      <trkpt lat="47.26003" lon="-2.2991">
        <ele>10.39999961853</ele>
        <time>2022-08-21T08:24:02.000Z</time>
      </trkpt>
      <trkpt lat="47.26015" lon="-2.29898">
        <ele>10.39999961853</ele>
        <time>2022-08-21T08:24:06.000Z</time>
      </trkpt>
      <trkpt lat="47.26039" lon="-2.29886">
        <ele>10.39999961853</ele>
        <time>2022-08-21T08:24:13.000Z</time>
      </trkpt>
      <trkpt lat="47.26049" lon="-2.29884">
        <ele>10.800000190735</ele>
        <time>2022-08-21T08:24:16.000Z</time>
      </trkpt>
      <trkpt lat="47.26052" lon="-2.29883">
        <ele>11.199999809265</ele>
        <time>2022-08-21T08:24:17.000Z</time>
      </trkpt>
      <trkpt lat="47.26056" lon="-2.29882">
        <ele>11.60000038147</ele>
        <time>2022-08-21T08:24:18.000Z</time>
      </trkpt>
      <trkpt lat="47.2606" lon="-2.2988">
        <ele>12</ele>
        <time>2022-08-21T08:24:19.000Z</time>
      </trkpt>
      <trkpt lat="47.26063" lon="-2.29879">
        <ele>12.39999961853</ele>
        <time>2022-08-21T08:24:20.000Z</time>
      </trkpt>
      <trkpt lat="47.26085" lon="-2.29872">
        <ele>12.39999961853</ele>
        <time>2022-08-21T08:24:26.000Z</time>
      </trkpt>
      <trkpt lat="47.26092" lon="-2.29868">
        <ele>13</ele>
        <time>2022-08-21T08:24:28.000Z</time>
      </trkpt>
      <trkpt lat="47.26096" lon="-2.29867">
        <ele>13.39999961853</ele>
        <time>2022-08-21T08:24:29.000Z</time>
      </trkpt>
      <trkpt lat="47.261" lon="-2.29865">
        <ele>13.800000190735</ele>
        <time>2022-08-21T08:24:30.000Z</time>
      </trkpt>
      <trkpt lat="47.26104" lon="-2.29864">
        <ele>14.199999809265</ele>
        <time>2022-08-21T08:24:31.000Z</time>
      </trkpt>
      <trkpt lat="47.26108" lon="-2.29863">
        <ele>14.60000038147</ele>
        <time>2022-08-21T08:24:32.000Z</time>
      </trkpt>
      <trkpt lat="47.2613" lon="-2.29854">
        <ele>15.39999961853</ele>
        <time>2022-08-21T08:24:38.000Z</time>
      </trkpt>
      <trkpt lat="47.26132" lon="-2.29853">
        <ele>15.800000190735</ele>
        <time>2022-08-21T08:24:39.000Z</time>
      </trkpt>
      <trkpt lat="47.26135" lon="-2.29852">
        <ele>16.39999961853</ele>
        <time>2022-08-21T08:24:40.000Z</time>
      </trkpt>
      <trkpt lat="47.26138" lon="-2.2985">
        <ele>16.799999237061</ele>
        <time>2022-08-21T08:24:41.000Z</time>
      </trkpt>
      <trkpt lat="47.2615" lon="-2.29845">
        <ele>16.799999237061</ele>
        <time>2022-08-21T08:24:45.000Z</time>
      </trkpt>
      <trkpt lat="47.26162" lon="-2.29839">
        <ele>17.200000762939</ele>
        <time>2022-08-21T08:24:49.000Z</time>
      </trkpt>
      <trkpt lat="47.26165" lon="-2.29838">
        <ele>17.60000038147</ele>
        <time>2022-08-21T08:24:50.000Z</time>
      </trkpt>
      <trkpt lat="47.26168" lon="-2.29837">
        <ele>18</ele>
        <time>2022-08-21T08:24:51.000Z</time>
      </trkpt>
      <trkpt lat="47.2617" lon="-2.29836">
        <ele>18.39999961853</ele>
        <time>2022-08-21T08:24:52.000Z</time>
      </trkpt>
      <trkpt lat="47.26173" lon="-2.29835">
        <ele>19</ele>
        <time>2022-08-21T08:24:53.000Z</time>
      </trkpt>
      <trkpt lat="47.26184" lon="-2.29835">
        <ele>19</ele>
        <time>2022-08-21T08:24:56.000Z</time>
      </trkpt>
      <trkpt lat="47.26189" lon="-2.29835">
        <ele>19</ele>
        <time>2022-08-21T08:24:57.000Z</time>
      </trkpt>
      <trkpt lat="47.26193" lon="-2.29834">
        <ele>19.39999961853</ele>
        <time>2022-08-21T08:24:58.000Z</time>
      </trkpt>
      <trkpt lat="47.26197" lon="-2.29834">
        <ele>19.799999237061</ele>
        <time>2022-08-21T08:24:59.000Z</time>
      </trkpt>
      <trkpt lat="47.26201" lon="-2.29834">
        <ele>20.200000762939</ele>
        <time>2022-08-21T08:25:00.000Z</time>
      </trkpt>
      <trkpt lat="47.26205" lon="-2.29834">
        <ele>20.60000038147</ele>
        <time>2022-08-21T08:25:01.000Z</time>
      </trkpt>
      <trkpt lat="47.26209" lon="-2.29834">
        <ele>21.200000762939</ele>
        <time>2022-08-21T08:25:02.000Z</time>
      </trkpt>
      <trkpt lat="47.26226" lon="-2.29833">
        <ele>21.60000038147</ele>
        <time>2022-08-21T08:25:06.000Z</time>
      </trkpt>
      <trkpt lat="47.2623" lon="-2.29831">
        <ele>22</ele>
        <time>2022-08-21T08:25:07.000Z</time>
      </trkpt>
      <trkpt lat="47.26234" lon="-2.29831">
        <ele>22.39999961853</ele>
        <time>2022-08-21T08:25:08.000Z</time>
      </trkpt>
      <trkpt lat="47.26238" lon="-2.2983">
        <ele>22.799999237061</ele>
        <time>2022-08-21T08:25:09.000Z</time>
      </trkpt>
      <trkpt lat="47.26241" lon="-2.2983">
        <ele>23.200000762939</ele>
        <time>2022-08-21T08:25:10.000Z</time>
      </trkpt>
      <trkpt lat="47.26257" lon="-2.29825">
        <ele>23.200000762939</ele>
        <time>2022-08-21T08:25:14.000Z</time>
      </trkpt>
      <trkpt lat="47.26269" lon="-2.29822">
        <ele>23.60000038147</ele>
        <time>2022-08-21T08:25:17.000Z</time>
      </trkpt>
      <trkpt lat="47.26272" lon="-2.29821">
        <ele>24</ele>
        <time>2022-08-21T08:25:18.000Z</time>
      </trkpt>
      <trkpt lat="47.26276" lon="-2.2982">
        <ele>24.60000038147</ele>
        <time>2022-08-21T08:25:19.000Z</time>
      </trkpt>
      <trkpt lat="47.2628" lon="-2.29819">
        <ele>25</ele>
        <time>2022-08-21T08:25:20.000Z</time>
      </trkpt>
      <trkpt lat="47.26284" lon="-2.29817">
        <ele>25.39999961853</ele>
        <time>2022-08-21T08:25:21.000Z</time>
      </trkpt>
      <trkpt lat="47.26306" lon="-2.29809">
        <ele>25.39999961853</ele>
        <time>2022-08-21T08:25:27.000Z</time>
      </trkpt>
      <trkpt lat="47.26313" lon="-2.29805">
        <ele>25.799999237061</ele>
        <time>2022-08-21T08:25:30.000Z</time>
      </trkpt>
      <trkpt lat="47.26316" lon="-2.29803">
        <ele>26.200000762939</ele>
        <time>2022-08-21T08:25:31.000Z</time>
      </trkpt>
      <trkpt lat="47.26318" lon="-2.29802">
        <ele>26.60000038147</ele>
        <time>2022-08-21T08:25:32.000Z</time>
      </trkpt>
      <trkpt lat="47.26321" lon="-2.298">
        <ele>27</ele>
        <time>2022-08-21T08:25:33.000Z</time>
      </trkpt>
      <trkpt lat="47.26323" lon="-2.29799">
        <ele>27.39999961853</ele>
        <time>2022-08-21T08:25:34.000Z</time>
      </trkpt>
      <trkpt lat="47.26335" lon="-2.29787">
        <ele>27.39999961853</ele>
        <time>2022-08-21T08:25:38.000Z</time>
      </trkpt>
      <trkpt lat="47.26337" lon="-2.29767">
        <ele>27.39999961853</ele>
        <time>2022-08-21T08:25:42.000Z</time>
      </trkpt>
      <trkpt lat="47.26336" lon="-2.29762">
        <ele>27.39999961853</ele>
        <time>2022-08-21T08:25:43.000Z</time>
      </trkpt>
      <trkpt lat="47.26334" lon="-2.2975">
        <ele>27.39999961853</ele>
        <time>2022-08-21T08:25:45.000Z</time>
      </trkpt>
      <trkpt lat="47.26331" lon="-2.29731">
        <ele>27.39999961853</ele>
        <time>2022-08-21T08:25:48.000Z</time>
      </trkpt>
      <trkpt lat="47.26328" lon="-2.29718">
        <ele>27.799999237061</ele>
        <time>2022-08-21T08:25:50.000Z</time>
      </trkpt>
      <trkpt lat="47.26327" lon="-2.29712">
        <ele>28.200000762939</ele>
        <time>2022-08-21T08:25:51.000Z</time>
      </trkpt>
      <trkpt lat="47.26325" lon="-2.29706">
        <ele>28.60000038147</ele>
        <time>2022-08-21T08:25:52.000Z</time>
      </trkpt>
      <trkpt lat="47.26323" lon="-2.297">
        <ele>29.60000038147</ele>
        <time>2022-08-21T08:25:53.000Z</time>
      </trkpt>
      <trkpt lat="47.2632" lon="-2.29694">
        <ele>29.60000038147</ele>
        <time>2022-08-21T08:25:54.000Z</time>
      </trkpt>
      <trkpt lat="47.26318" lon="-2.2969">
        <ele>29.60000038147</ele>
        <time>2022-08-21T08:25:55.000Z</time>
      </trkpt>
      <trkpt lat="47.26306" lon="-2.29681">
        <ele>29.60000038147</ele>
        <time>2022-08-21T08:25:58.000Z</time>
      </trkpt>
      <trkpt lat="47.26301" lon="-2.2968">
        <ele>29.60000038147</ele>
        <time>2022-08-21T08:25:59.000Z</time>
      </trkpt>
      <trkpt lat="47.26264" lon="-2.2967">
        <ele>29.60000038147</ele>
        <time>2022-08-21T08:26:07.000Z</time>
      </trkpt>
      <trkpt lat="47.26239" lon="-2.29664">
        <ele>29.60000038147</ele>
        <time>2022-08-21T08:26:12.000Z</time>
      </trkpt>
      <trkpt lat="47.2623" lon="-2.29659">
        <ele>29.60000038147</ele>
        <time>2022-08-21T08:26:14.000Z</time>
      </trkpt>
      <trkpt lat="47.26217" lon="-2.29638">
        <ele>29.60000038147</ele>
        <time>2022-08-21T08:26:18.000Z</time>
      </trkpt>
      <trkpt lat="47.26215" lon="-2.29632">
        <ele>29.60000038147</ele>
        <time>2022-08-21T08:26:19.000Z</time>
      </trkpt>
      <trkpt lat="47.26204" lon="-2.296">
        <ele>29.60000038147</ele>
        <time>2022-08-21T08:26:24.000Z</time>
      </trkpt>
      <trkpt lat="47.26201" lon="-2.29587">
        <ele>29.60000038147</ele>
        <time>2022-08-21T08:26:26.000Z</time>
      </trkpt>
      <trkpt lat="47.262" lon="-2.29581">
        <ele>29.200000762939</ele>
        <time>2022-08-21T08:26:27.000Z</time>
      </trkpt>
      <trkpt lat="47.262" lon="-2.2958">
        <ele>28.60000038147</ele>
        <time>2022-08-21T08:26:28.000Z</time>
      </trkpt>
      <trkpt lat="47.262" lon="-2.2958">
        <ele>28.200000762939</ele>
        <time>2022-08-21T08:26:29.000Z</time>
      </trkpt>
      <trkpt lat="47.26198" lon="-2.29578">
        <ele>27.39999961853</ele>
        <time>2022-08-21T08:27:03.000Z</time>
      </trkpt>
      <trkpt lat="47.26197" lon="-2.29575">
        <ele>27.39999961853</ele>
        <time>2022-08-21T08:27:04.000Z</time>
      </trkpt>
      <trkpt lat="47.26191" lon="-2.29557">
        <ele>27.39999961853</ele>
        <time>2022-08-21T08:27:08.000Z</time>
      </trkpt>
      <trkpt lat="47.26186" lon="-2.29546">
        <ele>27.39999961853</ele>
        <time>2022-08-21T08:27:10.000Z</time>
      </trkpt>
      <trkpt lat="47.26183" lon="-2.29541">
        <ele>27.39999961853</ele>
        <time>2022-08-21T08:27:11.000Z</time>
      </trkpt>
      <trkpt lat="47.26179" lon="-2.29536">
        <ele>27.39999961853</ele>
        <time>2022-08-21T08:27:12.000Z</time>
      </trkpt>
      <trkpt lat="47.26164" lon="-2.29527">
        <ele>27.39999961853</ele>
        <time>2022-08-21T08:27:15.000Z</time>
      </trkpt>
      <trkpt lat="47.26158" lon="-2.29524">
        <ele>27.39999961853</ele>
        <time>2022-08-21T08:27:16.000Z</time>
      </trkpt>
      <trkpt lat="47.26153" lon="-2.2952">
        <ele>27.39999961853</ele>
        <time>2022-08-21T08:27:17.000Z</time>
      </trkpt>
      <trkpt lat="47.26141" lon="-2.295">
        <ele>27.39999961853</ele>
        <time>2022-08-21T08:27:20.000Z</time>
      </trkpt>
      <trkpt lat="47.26137" lon="-2.29493">
        <ele>27.39999961853</ele>
        <time>2022-08-21T08:27:21.000Z</time>
      </trkpt>
      <trkpt lat="47.26124" lon="-2.29455">
        <ele>27</ele>
        <time>2022-08-21T08:27:26.000Z</time>
      </trkpt>
      <trkpt lat="47.26123" lon="-2.29448">
        <ele>26.60000038147</ele>
        <time>2022-08-21T08:27:27.000Z</time>
      </trkpt>
      <trkpt lat="47.26123" lon="-2.2944">
        <ele>26.200000762939</ele>
        <time>2022-08-21T08:27:29.000Z</time>
      </trkpt>
      <trkpt lat="47.26123" lon="-2.29432">
        <ele>25.799999237061</ele>
        <time>2022-08-21T08:27:30.000Z</time>
      </trkpt>
      <trkpt lat="47.26123" lon="-2.29424">
        <ele>25.39999961853</ele>
        <time>2022-08-21T08:27:31.000Z</time>
      </trkpt>
      <trkpt lat="47.26126" lon="-2.29397">
        <ele>25.39999961853</ele>
        <time>2022-08-21T08:27:35.000Z</time>
      </trkpt>
      <trkpt lat="47.26129" lon="-2.29384">
        <ele>25.39999961853</ele>
        <time>2022-08-21T08:27:37.000Z</time>
      </trkpt>
      <trkpt lat="47.26138" lon="-2.2935">
        <ele>25.39999961853</ele>
        <time>2022-08-21T08:27:44.000Z</time>
      </trkpt>
      <trkpt lat="47.26139" lon="-2.29349">
        <ele>25.39999961853</ele>
        <time>2022-08-21T08:27:45.000Z</time>
      </trkpt>
      <trkpt lat="47.26143" lon="-2.29352">
        <ele>25.39999961853</ele>
        <time>2022-08-21T08:27:47.000Z</time>
      </trkpt>
      <trkpt lat="47.26153" lon="-2.29356">
        <ele>25.39999961853</ele>
        <time>2022-08-21T08:27:51.000Z</time>
      </trkpt>
      <trkpt lat="47.26159" lon="-2.29357">
        <ele>25.39999961853</ele>
        <time>2022-08-21T08:27:53.000Z</time>
      </trkpt>
      <trkpt lat="47.26171" lon="-2.29355">
        <ele>25.39999961853</ele>
        <time>2022-08-21T08:27:57.000Z</time>
      </trkpt>
      <trkpt lat="47.26175" lon="-2.29353">
        <ele>25.799999237061</ele>
        <time>2022-08-21T08:27:58.000Z</time>
      </trkpt>
      <trkpt lat="47.26179" lon="-2.2935">
        <ele>26.200000762939</ele>
        <time>2022-08-21T08:27:59.000Z</time>
      </trkpt>
      <trkpt lat="47.26182" lon="-2.29348">
        <ele>26.60000038147</ele>
        <time>2022-08-21T08:28:00.000Z</time>
      </trkpt>
      <trkpt lat="47.26185" lon="-2.29345">
        <ele>27</ele>
        <time>2022-08-21T08:28:01.000Z</time>
      </trkpt>
      <trkpt lat="47.26188" lon="-2.29343">
        <ele>27.39999961853</ele>
        <time>2022-08-21T08:28:02.000Z</time>
      </trkpt>
      <trkpt lat="47.26191" lon="-2.29341">
        <ele>27.39999961853</ele>
        <time>2022-08-21T08:28:03.000Z</time>
      </trkpt>
      <trkpt lat="47.26202" lon="-2.29331">
        <ele>27.39999961853</ele>
        <time>2022-08-21T08:28:07.000Z</time>
      </trkpt>
      <trkpt lat="47.26219" lon="-2.29315">
        <ele>27.39999961853</ele>
        <time>2022-08-21T08:28:12.000Z</time>
      </trkpt>
      <trkpt lat="47.26225" lon="-2.29312">
        <ele>27.39999961853</ele>
        <time>2022-08-21T08:28:13.000Z</time>
      </trkpt>
      <trkpt lat="47.2623" lon="-2.29309">
        <ele>27.799999237061</ele>
        <time>2022-08-21T08:28:14.000Z</time>
      </trkpt>
      <trkpt lat="47.26235" lon="-2.29306">
        <ele>28.200000762939</ele>
        <time>2022-08-21T08:28:15.000Z</time>
      </trkpt>
      <trkpt lat="47.2624" lon="-2.29303">
        <ele>28.60000038147</ele>
        <time>2022-08-21T08:28:16.000Z</time>
      </trkpt>
      <trkpt lat="47.26246" lon="-2.293">
        <ele>29</ele>
        <time>2022-08-21T08:28:17.000Z</time>
      </trkpt>
      <trkpt lat="47.2625" lon="-2.29296">
        <ele>29.39999961853</ele>
        <time>2022-08-21T08:28:18.000Z</time>
      </trkpt>
      <trkpt lat="47.26275" lon="-2.29283">
        <ele>29.39999961853</ele>
        <time>2022-08-21T08:28:23.000Z</time>
      </trkpt>
      <trkpt lat="47.26303" lon="-2.29274">
        <ele>29.799999237061</ele>
        <time>2022-08-21T08:28:29.000Z</time>
      </trkpt>
      <trkpt lat="47.26308" lon="-2.29273">
        <ele>30.200000762939</ele>
        <time>2022-08-21T08:28:30.000Z</time>
      </trkpt>
      <trkpt lat="47.26312" lon="-2.29272">
        <ele>30.60000038147</ele>
        <time>2022-08-21T08:28:31.000Z</time>
      </trkpt>
      <trkpt lat="47.26317" lon="-2.29272">
        <ele>31</ele>
        <time>2022-08-21T08:28:32.000Z</time>
      </trkpt>
      <trkpt lat="47.26322" lon="-2.29271">
        <ele>31.39999961853</ele>
        <time>2022-08-21T08:28:33.000Z</time>
      </trkpt>
      <trkpt lat="47.26335" lon="-2.29271">
        <ele>31.39999961853</ele>
        <time>2022-08-21T08:28:36.000Z</time>
      </trkpt>
      <trkpt lat="47.26344" lon="-2.29274">
        <ele>31.39999961853</ele>
        <time>2022-08-21T08:28:38.000Z</time>
      </trkpt>
      <trkpt lat="47.26372" lon="-2.29284">
        <ele>31.39999961853</ele>
        <time>2022-08-21T08:28:44.000Z</time>
      </trkpt>
      <trkpt lat="47.26404" lon="-2.29302">
        <ele>31.39999961853</ele>
        <time>2022-08-21T08:28:51.000Z</time>
      </trkpt>
      <trkpt lat="47.26423" lon="-2.29313">
        <ele>31.39999961853</ele>
        <time>2022-08-21T08:28:55.000Z</time>
      </trkpt>
      <trkpt lat="47.26432" lon="-2.29319">
        <ele>32</ele>
        <time>2022-08-21T08:28:57.000Z</time>
      </trkpt>
      <trkpt lat="47.26437" lon="-2.29321">
        <ele>32.400001525879</ele>
        <time>2022-08-21T08:28:58.000Z</time>
      </trkpt>
      <trkpt lat="47.26442" lon="-2.29325">
        <ele>32.799999237061</ele>
        <time>2022-08-21T08:28:59.000Z</time>
      </trkpt>
      <trkpt lat="47.26447" lon="-2.29328">
        <ele>33.200000762939</ele>
        <time>2022-08-21T08:29:00.000Z</time>
      </trkpt>
      <trkpt lat="47.26453" lon="-2.2933">
        <ele>33.599998474121</ele>
        <time>2022-08-21T08:29:01.000Z</time>
      </trkpt>
      <trkpt lat="47.26458" lon="-2.29332">
        <ele>33.599998474121</ele>
        <time>2022-08-21T08:29:02.000Z</time>
      </trkpt>
      <trkpt lat="47.26473" lon="-2.29336">
        <ele>33.599998474121</ele>
        <time>2022-08-21T08:29:05.000Z</time>
      </trkpt>
      <trkpt lat="47.26485" lon="-2.29337">
        <ele>33.599998474121</ele>
        <time>2022-08-21T08:29:07.000Z</time>
      </trkpt>
      <trkpt lat="47.26513" lon="-2.29332">
        <ele>33.599998474121</ele>
        <time>2022-08-21T08:29:12.000Z</time>
      </trkpt>
      <trkpt lat="47.26519" lon="-2.29329">
        <ele>33.599998474121</ele>
        <time>2022-08-21T08:29:13.000Z</time>
      </trkpt>
      <trkpt lat="47.26564" lon="-2.29305">
        <ele>33.599998474121</ele>
        <time>2022-08-21T08:29:21.000Z</time>
      </trkpt>
      <trkpt lat="47.26616" lon="-2.29275">
        <ele>33.599998474121</ele>
        <time>2022-08-21T08:29:30.000Z</time>
      </trkpt>
      <trkpt lat="47.26622" lon="-2.2927">
        <ele>33.599998474121</ele>
        <time>2022-08-21T08:29:31.000Z</time>
      </trkpt>
      <trkpt lat="47.26644" lon="-2.29252">
        <ele>33.200000762939</ele>
        <time>2022-08-21T08:29:35.000Z</time>
      </trkpt>
      <trkpt lat="47.26649" lon="-2.29247">
        <ele>32.400001525879</ele>
        <time>2022-08-21T08:29:36.000Z</time>
      </trkpt>
      <trkpt lat="47.26654" lon="-2.29241">
        <ele>32</ele>
        <time>2022-08-21T08:29:37.000Z</time>
      </trkpt>
      <trkpt lat="47.26659" lon="-2.29235">
        <ele>31.39999961853</ele>
        <time>2022-08-21T08:29:38.000Z</time>
      </trkpt>
      <trkpt lat="47.26682" lon="-2.29212">
        <ele>31.39999961853</ele>
        <time>2022-08-21T08:29:42.000Z</time>
      </trkpt>
      <trkpt lat="47.26699" lon="-2.29196">
        <ele>31</ele>
        <time>2022-08-21T08:29:45.000Z</time>
      </trkpt>
      <trkpt lat="47.26705" lon="-2.2919">
        <ele>30.60000038147</ele>
        <time>2022-08-21T08:29:46.000Z</time>
      </trkpt>
      <trkpt lat="47.26711" lon="-2.29184">
        <ele>30.200000762939</ele>
        <time>2022-08-21T08:29:47.000Z</time>
      </trkpt>
      <trkpt lat="47.26716" lon="-2.29179">
        <ele>29.799999237061</ele>
        <time>2022-08-21T08:29:48.000Z</time>
      </trkpt>
      <trkpt lat="47.26722" lon="-2.29173">
        <ele>29.39999961853</ele>
        <time>2022-08-21T08:29:49.000Z</time>
      </trkpt>
      <trkpt lat="47.26745" lon="-2.2915">
        <ele>29.39999961853</ele>
        <time>2022-08-21T08:29:53.000Z</time>
      </trkpt>
      <trkpt lat="47.2675" lon="-2.29144">
        <ele>29</ele>
        <time>2022-08-21T08:29:54.000Z</time>
      </trkpt>
      <trkpt lat="47.26755" lon="-2.29139">
        <ele>28.60000038147</ele>
        <time>2022-08-21T08:29:55.000Z</time>
      </trkpt>
      <trkpt lat="47.2676" lon="-2.29133">
        <ele>28.200000762939</ele>
        <time>2022-08-21T08:29:56.000Z</time>
      </trkpt>
      <trkpt lat="47.26766" lon="-2.29127">
        <ele>27.799999237061</ele>
        <time>2022-08-21T08:29:57.000Z</time>
      </trkpt>
      <trkpt lat="47.26772" lon="-2.29121">
        <ele>27.39999961853</ele>
        <time>2022-08-21T08:29:58.000Z</time>
      </trkpt>
      <trkpt lat="47.26796" lon="-2.29095">
        <ele>27</ele>
        <time>2022-08-21T08:30:02.000Z</time>
      </trkpt>
      <trkpt lat="47.26802" lon="-2.29088">
        <ele>26.60000038147</ele>
        <time>2022-08-21T08:30:03.000Z</time>
      </trkpt>
      <trkpt lat="47.26809" lon="-2.29083">
        <ele>26</ele>
        <time>2022-08-21T08:30:04.000Z</time>
      </trkpt>
      <trkpt lat="47.26816" lon="-2.29077">
        <ele>25.60000038147</ele>
        <time>2022-08-21T08:30:05.000Z</time>
      </trkpt>
      <trkpt lat="47.26823" lon="-2.29071">
        <ele>25.200000762939</ele>
        <time>2022-08-21T08:30:06.000Z</time>
      </trkpt>
      <trkpt lat="47.26855" lon="-2.29041">
        <ele>25.200000762939</ele>
        <time>2022-08-21T08:30:11.000Z</time>
      </trkpt>
      <trkpt lat="47.26885" lon="-2.29014">
        <ele>24.799999237061</ele>
        <time>2022-08-21T08:30:16.000Z</time>
      </trkpt>
      <trkpt lat="47.2689" lon="-2.2901">
        <ele>24.39999961853</ele>
        <time>2022-08-21T08:30:17.000Z</time>
      </trkpt>
      <trkpt lat="47.26896" lon="-2.29006">
        <ele>23.799999237061</ele>
        <time>2022-08-21T08:30:18.000Z</time>
      </trkpt>
      <trkpt lat="47.26901" lon="-2.29002">
        <ele>23.39999961853</ele>
        <time>2022-08-21T08:30:19.000Z</time>
      </trkpt>
      <trkpt lat="47.26907" lon="-2.28998">
        <ele>23</ele>
        <time>2022-08-21T08:30:20.000Z</time>
      </trkpt>
      <trkpt lat="47.26916" lon="-2.28993">
        <ele>23</ele>
        <time>2022-08-21T08:30:22.000Z</time>
      </trkpt>
      <trkpt lat="47.26922" lon="-2.2899">
        <ele>23</ele>
        <time>2022-08-21T08:30:24.000Z</time>
      </trkpt>
      <trkpt lat="47.26924" lon="-2.28987">
        <ele>23</ele>
        <time>2022-08-21T08:30:25.000Z</time>
      </trkpt>
      <trkpt lat="47.26923" lon="-2.28982">
        <ele>23</ele>
        <time>2022-08-21T08:30:27.000Z</time>
      </trkpt>
      <trkpt lat="47.26919" lon="-2.28979">
        <ele>23</ele>
        <time>2022-08-21T08:30:29.000Z</time>
      </trkpt>
      <trkpt lat="47.26913" lon="-2.28976">
        <ele>23</ele>
        <time>2022-08-21T08:30:31.000Z</time>
      </trkpt>
      <trkpt lat="47.26896" lon="-2.28971">
        <ele>23</ele>
        <time>2022-08-21T08:30:35.000Z</time>
      </trkpt>
      <trkpt lat="47.26863" lon="-2.28955">
        <ele>23</ele>
        <time>2022-08-21T08:30:42.000Z</time>
      </trkpt>
      <trkpt lat="47.26841" lon="-2.28942">
        <ele>23</ele>
        <time>2022-08-21T08:30:47.000Z</time>
      </trkpt>
      <trkpt lat="47.26836" lon="-2.28939">
        <ele>23</ele>
        <time>2022-08-21T08:30:48.000Z</time>
      </trkpt>
      <trkpt lat="47.26821" lon="-2.2893">
        <ele>23</ele>
        <time>2022-08-21T08:30:51.000Z</time>
      </trkpt>
      <trkpt lat="47.26813" lon="-2.28924">
        <ele>23</ele>
        <time>2022-08-21T08:30:53.000Z</time>
      </trkpt>
      <trkpt lat="47.26808" lon="-2.28922">
        <ele>23</ele>
        <time>2022-08-21T08:30:54.000Z</time>
      </trkpt>
      <trkpt lat="47.2679" lon="-2.2891">
        <ele>23</ele>
        <time>2022-08-21T08:30:58.000Z</time>
      </trkpt>
      <trkpt lat="47.26772" lon="-2.28898">
        <ele>23</ele>
        <time>2022-08-21T08:31:01.000Z</time>
      </trkpt>
      <trkpt lat="47.26767" lon="-2.28894">
        <ele>23</ele>
        <time>2022-08-21T08:31:02.000Z</time>
      </trkpt>
      <trkpt lat="47.26747" lon="-2.28876">
        <ele>23</ele>
        <time>2022-08-21T08:31:06.000Z</time>
      </trkpt>
      <trkpt lat="47.26719" lon="-2.28856">
        <ele>23</ele>
        <time>2022-08-21T08:31:11.000Z</time>
      </trkpt>
      <trkpt lat="47.26709" lon="-2.28847">
        <ele>23.39999961853</ele>
        <time>2022-08-21T08:31:13.000Z</time>
      </trkpt>
      <trkpt lat="47.26703" lon="-2.28842">
        <ele>23.799999237061</ele>
        <time>2022-08-21T08:31:14.000Z</time>
      </trkpt>
      <trkpt lat="47.26699" lon="-2.28838">
        <ele>24.60000038147</ele>
        <time>2022-08-21T08:31:15.000Z</time>
      </trkpt>
      <trkpt lat="47.26694" lon="-2.28833">
        <ele>25</ele>
        <time>2022-08-21T08:31:16.000Z</time>
      </trkpt>
      <trkpt lat="47.26679" lon="-2.28819">
        <ele>25</ele>
        <time>2022-08-21T08:31:19.000Z</time>
      </trkpt>
      <trkpt lat="47.26675" lon="-2.28814">
        <ele>25</ele>
        <time>2022-08-21T08:31:20.000Z</time>
      </trkpt>
      <trkpt lat="47.26661" lon="-2.28799">
        <ele>25</ele>
        <time>2022-08-21T08:31:23.000Z</time>
      </trkpt>
      <trkpt lat="47.26657" lon="-2.28794">
        <ele>25</ele>
        <time>2022-08-21T08:31:24.000Z</time>
      </trkpt>
      <trkpt lat="47.26644" lon="-2.28779">
        <ele>25</ele>
        <time>2022-08-21T08:31:27.000Z</time>
      </trkpt>
      <trkpt lat="47.26628" lon="-2.28764">
        <ele>25</ele>
        <time>2022-08-21T08:31:30.000Z</time>
      </trkpt>
      <trkpt lat="47.26616" lon="-2.28752">
        <ele>25</ele>
        <time>2022-08-21T08:31:33.000Z</time>
      </trkpt>
      <trkpt lat="47.26612" lon="-2.28747">
        <ele>25</ele>
        <time>2022-08-21T08:31:34.000Z</time>
      </trkpt>
      <trkpt lat="47.26607" lon="-2.28742">
        <ele>25</ele>
        <time>2022-08-21T08:31:35.000Z</time>
      </trkpt>
      <trkpt lat="47.26602" lon="-2.28738">
        <ele>25.39999961853</ele>
        <time>2022-08-21T08:31:36.000Z</time>
      </trkpt>
      <trkpt lat="47.26598" lon="-2.28732">
        <ele>25.799999237061</ele>
        <time>2022-08-21T08:31:37.000Z</time>
      </trkpt>
      <trkpt lat="47.26593" lon="-2.28727">
        <ele>26.200000762939</ele>
        <time>2022-08-21T08:31:38.000Z</time>
      </trkpt>
      <trkpt lat="47.26588" lon="-2.28722">
        <ele>27</ele>
        <time>2022-08-21T08:31:39.000Z</time>
      </trkpt>
      <trkpt lat="47.26575" lon="-2.28705">
        <ele>27</ele>
        <time>2022-08-21T08:31:42.000Z</time>
      </trkpt>
      <trkpt lat="47.26571" lon="-2.287">
        <ele>27</ele>
        <time>2022-08-21T08:31:43.000Z</time>
      </trkpt>
      <trkpt lat="47.26552" lon="-2.2868">
        <ele>27</ele>
        <time>2022-08-21T08:31:47.000Z</time>
      </trkpt>
      <trkpt lat="47.26544" lon="-2.28672">
        <ele>27</ele>
        <time>2022-08-21T08:31:49.000Z</time>
      </trkpt>
      <trkpt lat="47.2654" lon="-2.28667">
        <ele>27</ele>
        <time>2022-08-21T08:31:50.000Z</time>
      </trkpt>
      <trkpt lat="47.26536" lon="-2.28662">
        <ele>27.39999961853</ele>
        <time>2022-08-21T08:31:51.000Z</time>
      </trkpt>
      <trkpt lat="47.26533" lon="-2.28657">
        <ele>28</ele>
        <time>2022-08-21T08:31:52.000Z</time>
      </trkpt>
      <trkpt lat="47.26529" lon="-2.28652">
        <ele>28.39999961853</ele>
        <time>2022-08-21T08:31:53.000Z</time>
      </trkpt>
      <trkpt lat="47.26526" lon="-2.28646">
        <ele>28.799999237061</ele>
        <time>2022-08-21T08:31:54.000Z</time>
      </trkpt>
      <trkpt lat="47.26523" lon="-2.28642">
        <ele>29.200000762939</ele>
        <time>2022-08-21T08:31:55.000Z</time>
      </trkpt>
      <trkpt lat="47.26514" lon="-2.2863">
        <ele>29.200000762939</ele>
        <time>2022-08-21T08:31:58.000Z</time>
      </trkpt>
      <trkpt lat="47.26506" lon="-2.28618">
        <ele>29.200000762939</ele>
        <time>2022-08-21T08:32:01.000Z</time>
      </trkpt>
      <trkpt lat="47.26506" lon="-2.28612">
        <ele>29.200000762939</ele>
        <time>2022-08-21T08:32:02.000Z</time>
      </trkpt>
      <trkpt lat="47.26502" lon="-2.28586">
        <ele>29.200000762939</ele>
        <time>2022-08-21T08:32:06.000Z</time>
      </trkpt>
      <trkpt lat="47.26499" lon="-2.28579">
        <ele>29.200000762939</ele>
        <time>2022-08-21T08:32:07.000Z</time>
      </trkpt>
      <trkpt lat="47.26488" lon="-2.28554">
        <ele>29.200000762939</ele>
        <time>2022-08-21T08:32:11.000Z</time>
      </trkpt>
      <trkpt lat="47.26482" lon="-2.2854">
        <ele>29.200000762939</ele>
        <time>2022-08-21T08:32:13.000Z</time>
      </trkpt>
      <trkpt lat="47.26472" lon="-2.28522">
        <ele>29.60000038147</ele>
        <time>2022-08-21T08:32:16.000Z</time>
      </trkpt>
      <trkpt lat="47.2647" lon="-2.28516">
        <ele>30</ele>
        <time>2022-08-21T08:32:17.000Z</time>
      </trkpt>
      <trkpt lat="47.26467" lon="-2.2851">
        <ele>30.39999961853</ele>
        <time>2022-08-21T08:32:18.000Z</time>
      </trkpt>
      <trkpt lat="47.26463" lon="-2.28503">
        <ele>30.799999237061</ele>
        <time>2022-08-21T08:32:19.000Z</time>
      </trkpt>
      <trkpt lat="47.2646" lon="-2.28498">
        <ele>31.200000762939</ele>
        <time>2022-08-21T08:32:20.000Z</time>
      </trkpt>
      <trkpt lat="47.26456" lon="-2.28491">
        <ele>31.200000762939</ele>
        <time>2022-08-21T08:32:21.000Z</time>
      </trkpt>
      <trkpt lat="47.26433" lon="-2.28444">
        <ele>31.200000762939</ele>
        <time>2022-08-21T08:32:29.000Z</time>
      </trkpt>
      <trkpt lat="47.26428" lon="-2.28433">
        <ele>31.200000762939</ele>
        <time>2022-08-21T08:32:31.000Z</time>
      </trkpt>
      <trkpt lat="47.26426" lon="-2.28427">
        <ele>31.60000038147</ele>
        <time>2022-08-21T08:32:32.000Z</time>
      </trkpt>
      <trkpt lat="47.26423" lon="-2.28423">
        <ele>32</ele>
        <time>2022-08-21T08:32:33.000Z</time>
      </trkpt>
      <trkpt lat="47.26421" lon="-2.28418">
        <ele>32.400001525879</ele>
        <time>2022-08-21T08:32:34.000Z</time>
      </trkpt>
      <trkpt lat="47.26419" lon="-2.28414">
        <ele>32.799999237061</ele>
        <time>2022-08-21T08:32:35.000Z</time>
      </trkpt>
      <trkpt lat="47.26417" lon="-2.2841">
        <ele>33.200000762939</ele>
        <time>2022-08-21T08:32:36.000Z</time>
      </trkpt>
      <trkpt lat="47.26414" lon="-2.28402">
        <ele>33.200000762939</ele>
        <time>2022-08-21T08:32:39.000Z</time>
      </trkpt>
      <trkpt lat="47.26404" lon="-2.2838">
        <ele>33.200000762939</ele>
        <time>2022-08-21T08:32:44.000Z</time>
      </trkpt>
      <trkpt lat="47.26393" lon="-2.28357">
        <ele>33.200000762939</ele>
        <time>2022-08-21T08:32:48.000Z</time>
      </trkpt>
      <trkpt lat="47.26386" lon="-2.28339">
        <ele>33.200000762939</ele>
        <time>2022-08-21T08:32:51.000Z</time>
      </trkpt>
      <trkpt lat="47.26376" lon="-2.28313">
        <ele>33.200000762939</ele>
        <time>2022-08-21T08:32:55.000Z</time>
      </trkpt>
      <trkpt lat="47.26371" lon="-2.283">
        <ele>33.200000762939</ele>
        <time>2022-08-21T08:32:57.000Z</time>
      </trkpt>
      <trkpt lat="47.26353" lon="-2.28236">
        <ele>33.200000762939</ele>
        <time>2022-08-21T08:33:06.000Z</time>
      </trkpt>
      <trkpt lat="47.26345" lon="-2.28193">
        <ele>33.200000762939</ele>
        <time>2022-08-21T08:33:12.000Z</time>
      </trkpt>
      <trkpt lat="47.26336" lon="-2.28144">
        <ele>33.200000762939</ele>
        <time>2022-08-21T08:33:18.000Z</time>
      </trkpt>
      <trkpt lat="47.26322" lon="-2.28065">
        <ele>33.200000762939</ele>
        <time>2022-08-21T08:33:27.000Z</time>
      </trkpt>
      <trkpt lat="47.26305" lon="-2.28015">
        <ele>32.799999237061</ele>
        <time>2022-08-21T08:33:33.000Z</time>
      </trkpt>
      <trkpt lat="47.26303" lon="-2.28008">
        <ele>32.400001525879</ele>
        <time>2022-08-21T08:33:34.000Z</time>
      </trkpt>
      <trkpt lat="47.263" lon="-2.28">
        <ele>32</ele>
        <time>2022-08-21T08:33:35.000Z</time>
      </trkpt>
      <trkpt lat="47.26297" lon="-2.27993">
        <ele>31.60000038147</ele>
        <time>2022-08-21T08:33:36.000Z</time>
      </trkpt>
      <trkpt lat="47.26295" lon="-2.27986">
        <ele>31.200000762939</ele>
        <time>2022-08-21T08:33:37.000Z</time>
      </trkpt>
      <trkpt lat="47.2629" lon="-2.27976">
        <ele>31.200000762939</ele>
        <time>2022-08-21T08:33:39.000Z</time>
      </trkpt>
      <trkpt lat="47.26287" lon="-2.27973">
        <ele>31.200000762939</ele>
        <time>2022-08-21T08:33:40.000Z</time>
      </trkpt>
      <trkpt lat="47.26281" lon="-2.27966">
        <ele>31.200000762939</ele>
        <time>2022-08-21T08:33:42.000Z</time>
      </trkpt>
      <trkpt lat="47.26274" lon="-2.27956">
        <ele>31.200000762939</ele>
        <time>2022-08-21T08:33:44.000Z</time>
      </trkpt>
      <trkpt lat="47.26268" lon="-2.27945">
        <ele>31.200000762939</ele>
        <time>2022-08-21T08:33:46.000Z</time>
      </trkpt>
      <trkpt lat="47.26246" lon="-2.27902">
        <ele>31.200000762939</ele>
        <time>2022-08-21T08:33:53.000Z</time>
      </trkpt>
      <trkpt lat="47.26219" lon="-2.27847">
        <ele>31.200000762939</ele>
        <time>2022-08-21T08:34:01.000Z</time>
      </trkpt>
      <trkpt lat="47.26208" lon="-2.27826">
        <ele>31.200000762939</ele>
        <time>2022-08-21T08:34:04.000Z</time>
      </trkpt>
      <trkpt lat="47.26198" lon="-2.27805">
        <ele>31.200000762939</ele>
        <time>2022-08-21T08:34:07.000Z</time>
      </trkpt>
      <trkpt lat="47.2618" lon="-2.27761">
        <ele>31.200000762939</ele>
        <time>2022-08-21T08:34:13.000Z</time>
      </trkpt>
      <trkpt lat="47.26161" lon="-2.27698">
        <ele>31.200000762939</ele>
        <time>2022-08-21T08:34:21.000Z</time>
      </trkpt>
      <trkpt lat="47.26147" lon="-2.2765">
        <ele>31.200000762939</ele>
        <time>2022-08-21T08:34:27.000Z</time>
      </trkpt>
      <trkpt lat="47.2614" lon="-2.27601">
        <ele>31.200000762939</ele>
        <time>2022-08-21T08:34:33.000Z</time>
      </trkpt>
      <trkpt lat="47.26138" lon="-2.27594">
        <ele>31.200000762939</ele>
        <time>2022-08-21T08:34:34.000Z</time>
      </trkpt>
      <trkpt lat="47.26128" lon="-2.27585">
        <ele>31.200000762939</ele>
        <time>2022-08-21T08:34:36.000Z</time>
      </trkpt>
      <trkpt lat="47.26112" lon="-2.27591">
        <ele>31.200000762939</ele>
        <time>2022-08-21T08:34:39.000Z</time>
      </trkpt>
      <trkpt lat="47.26107" lon="-2.27594">
        <ele>31.200000762939</ele>
        <time>2022-08-21T08:34:40.000Z</time>
      </trkpt>
      <trkpt lat="47.26077" lon="-2.27612">
        <ele>31.60000038147</ele>
        <time>2022-08-21T08:34:46.000Z</time>
      </trkpt>
      <trkpt lat="47.26072" lon="-2.27614">
        <ele>32</ele>
        <time>2022-08-21T08:34:47.000Z</time>
      </trkpt>
      <trkpt lat="47.26068" lon="-2.27616">
        <ele>32.400001525879</ele>
        <time>2022-08-21T08:34:48.000Z</time>
      </trkpt>
      <trkpt lat="47.26063" lon="-2.27619">
        <ele>32.799999237061</ele>
        <time>2022-08-21T08:34:49.000Z</time>
      </trkpt>
      <trkpt lat="47.26058" lon="-2.27621">
        <ele>33.200000762939</ele>
        <time>2022-08-21T08:34:50.000Z</time>
      </trkpt>
      <trkpt lat="47.26047" lon="-2.27622">
        <ele>33.200000762939</ele>
        <time>2022-08-21T08:34:52.000Z</time>
      </trkpt>
      <trkpt lat="47.26043" lon="-2.27619">
        <ele>33.200000762939</ele>
        <time>2022-08-21T08:34:53.000Z</time>
      </trkpt>
      <trkpt lat="47.26035" lon="-2.27601">
        <ele>33.200000762939</ele>
        <time>2022-08-21T08:34:56.000Z</time>
      </trkpt>
      <trkpt lat="47.26032" lon="-2.27593">
        <ele>33.200000762939</ele>
        <time>2022-08-21T08:34:57.000Z</time>
      </trkpt>
      <trkpt lat="47.26022" lon="-2.27557">
        <ele>33.200000762939</ele>
        <time>2022-08-21T08:35:02.000Z</time>
      </trkpt>
      <trkpt lat="47.26016" lon="-2.27535">
        <ele>33.200000762939</ele>
        <time>2022-08-21T08:35:05.000Z</time>
      </trkpt>
      <trkpt lat="47.26018" lon="-2.27525">
        <ele>33.200000762939</ele>
        <time>2022-08-21T08:35:07.000Z</time>
      </trkpt>
      <trkpt lat="47.26027" lon="-2.27495">
        <ele>33.200000762939</ele>
        <time>2022-08-21T08:35:12.000Z</time>
      </trkpt>
      <trkpt lat="47.2603" lon="-2.27487">
        <ele>33.200000762939</ele>
        <time>2022-08-21T08:35:13.000Z</time>
      </trkpt>
      <trkpt lat="47.26036" lon="-2.27474">
        <ele>33.200000762939</ele>
        <time>2022-08-21T08:35:15.000Z</time>
      </trkpt>
      <trkpt lat="47.26039" lon="-2.27468">
        <ele>33.200000762939</ele>
        <time>2022-08-21T08:35:16.000Z</time>
      </trkpt>
      <trkpt lat="47.26053" lon="-2.27438">
        <ele>33.200000762939</ele>
        <time>2022-08-21T08:35:20.000Z</time>
      </trkpt>
      <trkpt lat="47.26074" lon="-2.27403">
        <ele>33.200000762939</ele>
        <time>2022-08-21T08:35:25.000Z</time>
      </trkpt>
      <trkpt lat="47.26085" lon="-2.2739">
        <ele>33.200000762939</ele>
        <time>2022-08-21T08:35:27.000Z</time>
      </trkpt>
      <trkpt lat="47.26103" lon="-2.27369">
        <ele>33.200000762939</ele>
        <time>2022-08-21T08:35:30.000Z</time>
      </trkpt>
      <trkpt lat="47.26124" lon="-2.27343">
        <ele>33.200000762939</ele>
        <time>2022-08-21T08:35:34.000Z</time>
      </trkpt>
      <trkpt lat="47.26134" lon="-2.27331">
        <ele>33.200000762939</ele>
        <time>2022-08-21T08:35:36.000Z</time>
      </trkpt>
      <trkpt lat="47.26145" lon="-2.27323">
        <ele>33.200000762939</ele>
        <time>2022-08-21T08:35:38.000Z</time>
      </trkpt>
      <trkpt lat="47.26156" lon="-2.27324">
        <ele>33.200000762939</ele>
        <time>2022-08-21T08:35:40.000Z</time>
      </trkpt>
      <trkpt lat="47.26182" lon="-2.27321">
        <ele>33.200000762939</ele>
        <time>2022-08-21T08:35:44.000Z</time>
      </trkpt>
      <trkpt lat="47.26201" lon="-2.27318">
        <ele>33.200000762939</ele>
        <time>2022-08-21T08:35:47.000Z</time>
      </trkpt>
      <trkpt lat="47.26214" lon="-2.2732">
        <ele>33.200000762939</ele>
        <time>2022-08-21T08:35:49.000Z</time>
      </trkpt>
      <trkpt lat="47.26239" lon="-2.27323">
        <ele>33.200000762939</ele>
        <time>2022-08-21T08:35:53.000Z</time>
      </trkpt>
      <trkpt lat="47.26245" lon="-2.27324">
        <ele>32.799999237061</ele>
        <time>2022-08-21T08:35:54.000Z</time>
      </trkpt>
      <trkpt lat="47.26251" lon="-2.27324">
        <ele>32.400001525879</ele>
        <time>2022-08-21T08:35:55.000Z</time>
      </trkpt>
      <trkpt lat="47.26257" lon="-2.27324">
        <ele>32</ele>
        <time>2022-08-21T08:35:56.000Z</time>
      </trkpt>
      <trkpt lat="47.26263" lon="-2.27324">
        <ele>31.60000038147</ele>
        <time>2022-08-21T08:35:57.000Z</time>
      </trkpt>
      <trkpt lat="47.26271" lon="-2.27324">
        <ele>31.200000762939</ele>
        <time>2022-08-21T08:35:58.000Z</time>
      </trkpt>
      <trkpt lat="47.26284" lon="-2.27325">
        <ele>31.200000762939</ele>
        <time>2022-08-21T08:36:00.000Z</time>
      </trkpt>
      <trkpt lat="47.26318" lon="-2.27329">
        <ele>31.200000762939</ele>
        <time>2022-08-21T08:36:05.000Z</time>
      </trkpt>
      <trkpt lat="47.26325" lon="-2.27329">
        <ele>31.200000762939</ele>
        <time>2022-08-21T08:36:06.000Z</time>
      </trkpt>
      <trkpt lat="47.26338" lon="-2.27331">
        <ele>31.200000762939</ele>
        <time>2022-08-21T08:36:08.000Z</time>
      </trkpt>
      <trkpt lat="47.26344" lon="-2.27331">
        <ele>31.200000762939</ele>
        <time>2022-08-21T08:36:09.000Z</time>
      </trkpt>
      <trkpt lat="47.26383" lon="-2.27329">
        <ele>31.200000762939</ele>
        <time>2022-08-21T08:36:15.000Z</time>
      </trkpt>
      <trkpt lat="47.26389" lon="-2.27329">
        <ele>30.799999237061</ele>
        <time>2022-08-21T08:36:16.000Z</time>
      </trkpt>
      <trkpt lat="47.26396" lon="-2.27329">
        <ele>30.39999961853</ele>
        <time>2022-08-21T08:36:17.000Z</time>
      </trkpt>
      <trkpt lat="47.26403" lon="-2.27331">
        <ele>30</ele>
        <time>2022-08-21T08:36:18.000Z</time>
      </trkpt>
      <trkpt lat="47.2641" lon="-2.27334">
        <ele>29.60000038147</ele>
        <time>2022-08-21T08:36:19.000Z</time>
      </trkpt>
      <trkpt lat="47.26417" lon="-2.27335">
        <ele>29.200000762939</ele>
        <time>2022-08-21T08:36:20.000Z</time>
      </trkpt>
      <trkpt lat="47.26435" lon="-2.27349">
        <ele>29.200000762939</ele>
        <time>2022-08-21T08:36:23.000Z</time>
      </trkpt>
      <trkpt lat="47.26446" lon="-2.27374">
        <ele>29.200000762939</ele>
        <time>2022-08-21T08:36:26.000Z</time>
      </trkpt>
      <trkpt lat="47.26449" lon="-2.27382">
        <ele>29.200000762939</ele>
        <time>2022-08-21T08:36:27.000Z</time>
      </trkpt>
      <trkpt lat="47.26456" lon="-2.27409">
        <ele>29.200000762939</ele>
        <time>2022-08-21T08:36:30.000Z</time>
      </trkpt>
      <trkpt lat="47.26458" lon="-2.27418">
        <ele>28.799999237061</ele>
        <time>2022-08-21T08:36:31.000Z</time>
      </trkpt>
      <trkpt lat="47.2646" lon="-2.27428">
        <ele>28.39999961853</ele>
        <time>2022-08-21T08:36:32.000Z</time>
      </trkpt>
      <trkpt lat="47.26463" lon="-2.27438">
        <ele>28</ele>
        <time>2022-08-21T08:36:33.000Z</time>
      </trkpt>
      <trkpt lat="47.26465" lon="-2.27448">
        <ele>27.39999961853</ele>
        <time>2022-08-21T08:36:34.000Z</time>
      </trkpt>
      <trkpt lat="47.26468" lon="-2.27457">
        <ele>27</ele>
        <time>2022-08-21T08:36:35.000Z</time>
      </trkpt>
      <trkpt lat="47.26471" lon="-2.27468">
        <ele>27</ele>
        <time>2022-08-21T08:36:36.000Z</time>
      </trkpt>
      <trkpt lat="47.26485" lon="-2.27515">
        <ele>26.60000038147</ele>
        <time>2022-08-21T08:36:41.000Z</time>
      </trkpt>
      <trkpt lat="47.26487" lon="-2.27524">
        <ele>26.200000762939</ele>
        <time>2022-08-21T08:36:42.000Z</time>
      </trkpt>
      <trkpt lat="47.26489" lon="-2.27534">
        <ele>25.799999237061</ele>
        <time>2022-08-21T08:36:43.000Z</time>
      </trkpt>
      <trkpt lat="47.2649" lon="-2.27543">
        <ele>25.39999961853</ele>
        <time>2022-08-21T08:36:44.000Z</time>
      </trkpt>
      <trkpt lat="47.26491" lon="-2.27552">
        <ele>25</ele>
        <time>2022-08-21T08:36:45.000Z</time>
      </trkpt>
      <trkpt lat="47.26498" lon="-2.27573">
        <ele>25</ele>
        <time>2022-08-21T08:36:48.000Z</time>
      </trkpt>
      <trkpt lat="47.26511" lon="-2.27578">
        <ele>25</ele>
        <time>2022-08-21T08:36:51.000Z</time>
      </trkpt>
      <trkpt lat="47.26527" lon="-2.27576">
        <ele>25</ele>
        <time>2022-08-21T08:36:55.000Z</time>
      </trkpt>
      <trkpt lat="47.26533" lon="-2.27579">
        <ele>25</ele>
        <time>2022-08-21T08:36:58.000Z</time>
      </trkpt>
      <trkpt lat="47.26537" lon="-2.27579">
        <ele>25</ele>
        <time>2022-08-21T08:37:02.000Z</time>
      </trkpt>
      <trkpt lat="47.26539" lon="-2.27581">
        <ele>24.200000762939</ele>
        <time>2022-08-21T08:37:17.000Z</time>
      </trkpt>
      <trkpt lat="47.26541" lon="-2.27581">
        <ele>23.799999237061</ele>
        <time>2022-08-21T08:37:18.000Z</time>
      </trkpt>
      <trkpt lat="47.26543" lon="-2.27581">
        <ele>23.39999961853</ele>
        <time>2022-08-21T08:37:19.000Z</time>
      </trkpt>
      <trkpt lat="47.26546" lon="-2.27581">
        <ele>23</ele>
        <time>2022-08-21T08:37:20.000Z</time>
      </trkpt>
      <trkpt lat="47.26549" lon="-2.27581">
        <ele>23</ele>
        <time>2022-08-21T08:37:21.000Z</time>
      </trkpt>
      <trkpt lat="47.26561" lon="-2.2758">
        <ele>23</ele>
        <time>2022-08-21T08:37:24.000Z</time>
      </trkpt>
      <trkpt lat="47.2657" lon="-2.27582">
        <ele>23</ele>
        <time>2022-08-21T08:37:26.000Z</time>
      </trkpt>
      <trkpt lat="47.2658" lon="-2.27584">
        <ele>23</ele>
        <time>2022-08-21T08:37:28.000Z</time>
      </trkpt>
      <trkpt lat="47.26593" lon="-2.27591">
        <ele>23</ele>
        <time>2022-08-21T08:37:31.000Z</time>
      </trkpt>
      <trkpt lat="47.26597" lon="-2.27592">
        <ele>23</ele>
        <time>2022-08-21T08:37:32.000Z</time>
      </trkpt>
      <trkpt lat="47.26611" lon="-2.276">
        <ele>23</ele>
        <time>2022-08-21T08:37:35.000Z</time>
      </trkpt>
      <trkpt lat="47.2662" lon="-2.27604">
        <ele>23</ele>
        <time>2022-08-21T08:37:37.000Z</time>
      </trkpt>
      <trkpt lat="47.26644" lon="-2.27616">
        <ele>23</ele>
        <time>2022-08-21T08:37:42.000Z</time>
      </trkpt>
      <trkpt lat="47.26667" lon="-2.27625">
        <ele>23</ele>
        <time>2022-08-21T08:37:46.000Z</time>
      </trkpt>
      <trkpt lat="47.26677" lon="-2.27628">
        <ele>23</ele>
        <time>2022-08-21T08:37:48.000Z</time>
      </trkpt>
      <trkpt lat="47.26683" lon="-2.2763">
        <ele>23</ele>
        <time>2022-08-21T08:37:49.000Z</time>
      </trkpt>
      <trkpt lat="47.26705" lon="-2.27641">
        <ele>23</ele>
        <time>2022-08-21T08:37:53.000Z</time>
      </trkpt>
      <trkpt lat="47.26711" lon="-2.27642">
        <ele>23</ele>
        <time>2022-08-21T08:37:54.000Z</time>
      </trkpt>
      <trkpt lat="47.26732" lon="-2.27649">
        <ele>23</ele>
        <time>2022-08-21T08:37:58.000Z</time>
      </trkpt>
      <trkpt lat="47.26748" lon="-2.27654">
        <ele>23</ele>
        <time>2022-08-21T08:38:01.000Z</time>
      </trkpt>
      <trkpt lat="47.26753" lon="-2.27653">
        <ele>23</ele>
        <time>2022-08-21T08:38:02.000Z</time>
      </trkpt>
      <trkpt lat="47.26762" lon="-2.27645">
        <ele>23</ele>
        <time>2022-08-21T08:38:05.000Z</time>
      </trkpt>
      <trkpt lat="47.26761" lon="-2.27629">
        <ele>23</ele>
        <time>2022-08-21T08:38:08.000Z</time>
      </trkpt>
      <trkpt lat="47.2676" lon="-2.27623">
        <ele>23</ele>
        <time>2022-08-21T08:38:09.000Z</time>
      </trkpt>
      <trkpt lat="47.26755" lon="-2.27588">
        <ele>23</ele>
        <time>2022-08-21T08:38:14.000Z</time>
      </trkpt>
      <trkpt lat="47.26752" lon="-2.27536">
        <ele>23</ele>
        <time>2022-08-21T08:38:21.000Z</time>
      </trkpt>
      <trkpt lat="47.26752" lon="-2.27514">
        <ele>23.39999961853</ele>
        <time>2022-08-21T08:38:24.000Z</time>
      </trkpt>
      <trkpt lat="47.26752" lon="-2.27506">
        <ele>23.799999237061</ele>
        <time>2022-08-21T08:38:25.000Z</time>
      </trkpt>
      <trkpt lat="47.26752" lon="-2.27499">
        <ele>24.39999961853</ele>
        <time>2022-08-21T08:38:26.000Z</time>
      </trkpt>
      <trkpt lat="47.26752" lon="-2.27491">
        <ele>24.799999237061</ele>
        <time>2022-08-21T08:38:27.000Z</time>
      </trkpt>
      <trkpt lat="47.26753" lon="-2.27484">
        <ele>25.200000762939</ele>
        <time>2022-08-21T08:38:28.000Z</time>
      </trkpt>
      <trkpt lat="47.26752" lon="-2.27422">
        <ele>25.200000762939</ele>
        <time>2022-08-21T08:38:36.000Z</time>
      </trkpt>
      <trkpt lat="47.26754" lon="-2.27416">
        <ele>25.200000762939</ele>
        <time>2022-08-21T08:38:37.000Z</time>
      </trkpt>
      <trkpt lat="47.26762" lon="-2.27413">
        <ele>25.200000762939</ele>
        <time>2022-08-21T08:38:39.000Z</time>
      </trkpt>
      <trkpt lat="47.26771" lon="-2.27413">
        <ele>25.200000762939</ele>
        <time>2022-08-21T08:38:41.000Z</time>
      </trkpt>
      <trkpt lat="47.26783" lon="-2.27413">
        <ele>25.200000762939</ele>
        <time>2022-08-21T08:38:43.000Z</time>
      </trkpt>
      <trkpt lat="47.26808" lon="-2.27413">
        <ele>25.200000762939</ele>
        <time>2022-08-21T08:38:47.000Z</time>
      </trkpt>
      <trkpt lat="47.26832" lon="-2.27412">
        <ele>24.799999237061</ele>
        <time>2022-08-21T08:38:51.000Z</time>
      </trkpt>
      <trkpt lat="47.26839" lon="-2.27411">
        <ele>24.39999961853</ele>
        <time>2022-08-21T08:38:52.000Z</time>
      </trkpt>
      <trkpt lat="47.26845" lon="-2.2741">
        <ele>24</ele>
        <time>2022-08-21T08:38:53.000Z</time>
      </trkpt>
      <trkpt lat="47.26851" lon="-2.27407">
        <ele>23.60000038147</ele>
        <time>2022-08-21T08:38:54.000Z</time>
      </trkpt>
      <trkpt lat="47.26856" lon="-2.27405">
        <ele>23.200000762939</ele>
        <time>2022-08-21T08:38:55.000Z</time>
      </trkpt>
      <trkpt lat="47.26861" lon="-2.27402">
        <ele>23.200000762939</ele>
        <time>2022-08-21T08:38:56.000Z</time>
      </trkpt>
      <trkpt lat="47.26865" lon="-2.27401">
        <ele>23.200000762939</ele>
        <time>2022-08-21T08:38:57.000Z</time>
      </trkpt>
      <trkpt lat="47.26881" lon="-2.27394">
        <ele>22.799999237061</ele>
        <time>2022-08-21T08:39:00.000Z</time>
      </trkpt>
      <trkpt lat="47.26886" lon="-2.27391">
        <ele>22.200000762939</ele>
        <time>2022-08-21T08:39:01.000Z</time>
      </trkpt>
      <trkpt lat="47.26891" lon="-2.27388">
        <ele>21.799999237061</ele>
        <time>2022-08-21T08:39:02.000Z</time>
      </trkpt>
      <trkpt lat="47.26896" lon="-2.27385">
        <ele>21.39999961853</ele>
        <time>2022-08-21T08:39:03.000Z</time>
      </trkpt>
      <trkpt lat="47.26899" lon="-2.27382">
        <ele>21</ele>
        <time>2022-08-21T08:39:04.000Z</time>
      </trkpt>
      <trkpt lat="47.26903" lon="-2.2738">
        <ele>21</ele>
        <time>2022-08-21T08:39:05.000Z</time>
      </trkpt>
      <trkpt lat="47.26907" lon="-2.27374">
        <ele>20.39999961853</ele>
        <time>2022-08-21T08:39:07.000Z</time>
      </trkpt>
      <trkpt lat="47.26909" lon="-2.27371">
        <ele>20</ele>
        <time>2022-08-21T08:39:08.000Z</time>
      </trkpt>
      <trkpt lat="47.26909" lon="-2.27368">
        <ele>19.60000038147</ele>
        <time>2022-08-21T08:39:09.000Z</time>
      </trkpt>
      <trkpt lat="47.26909" lon="-2.27364">
        <ele>19.200000762939</ele>
        <time>2022-08-21T08:39:10.000Z</time>
      </trkpt>
      <trkpt lat="47.26909" lon="-2.27361">
        <ele>18.799999237061</ele>
        <time>2022-08-21T08:39:11.000Z</time>
      </trkpt>
      <trkpt lat="47.26911" lon="-2.27349">
        <ele>18.799999237061</ele>
        <time>2022-08-21T08:39:15.000Z</time>
      </trkpt>
      <trkpt lat="47.26915" lon="-2.27333">
        <ele>18.799999237061</ele>
        <time>2022-08-21T08:39:21.000Z</time>
      </trkpt>
      <trkpt lat="47.26919" lon="-2.27315">
        <ele>18.799999237061</ele>
        <time>2022-08-21T08:39:26.000Z</time>
      </trkpt>
      <trkpt lat="47.26919" lon="-2.27304">
        <ele>19.200000762939</ele>
        <time>2022-08-21T08:39:29.000Z</time>
      </trkpt>
      <trkpt lat="47.26921" lon="-2.273">
        <ele>20</ele>
        <time>2022-08-21T08:39:30.000Z</time>
      </trkpt>
      <trkpt lat="47.26922" lon="-2.27297">
        <ele>20.39999961853</ele>
        <time>2022-08-21T08:39:31.000Z</time>
      </trkpt>
      <trkpt lat="47.26923" lon="-2.27293">
        <ele>20.799999237061</ele>
        <time>2022-08-21T08:39:32.000Z</time>
      </trkpt>
      <trkpt lat="47.26928" lon="-2.27287">
        <ele>20.799999237061</ele>
        <time>2022-08-21T08:39:34.000Z</time>
      </trkpt>
      <trkpt lat="47.26936" lon="-2.27279">
        <ele>20.39999961853</ele>
        <time>2022-08-21T08:39:37.000Z</time>
      </trkpt>
      <trkpt lat="47.26939" lon="-2.27278">
        <ele>19.799999237061</ele>
        <time>2022-08-21T08:39:38.000Z</time>
      </trkpt>
      <trkpt lat="47.26942" lon="-2.27276">
        <ele>19.39999961853</ele>
        <time>2022-08-21T08:39:39.000Z</time>
      </trkpt>
      <trkpt lat="47.26944" lon="-2.27274">
        <ele>19</ele>
        <time>2022-08-21T08:39:40.000Z</time>
      </trkpt>
      <trkpt lat="47.26945" lon="-2.27272">
        <ele>18.60000038147</ele>
        <time>2022-08-21T08:39:41.000Z</time>
      </trkpt>
      <trkpt lat="47.26949" lon="-2.27265">
        <ele>18.60000038147</ele>
        <time>2022-08-21T08:39:43.000Z</time>
      </trkpt>
      <trkpt lat="47.26958" lon="-2.27247">
        <ele>18.60000038147</ele>
        <time>2022-08-21T08:39:49.000Z</time>
      </trkpt>
      <trkpt lat="47.26957" lon="-2.27232">
        <ele>18.60000038147</ele>
        <time>2022-08-21T08:39:53.000Z</time>
      </trkpt>
      <trkpt lat="47.26962" lon="-2.27228">
        <ele>18.60000038147</ele>
        <time>2022-08-21T08:39:56.000Z</time>
      </trkpt>
      <trkpt lat="47.26964" lon="-2.27225">
        <ele>18.60000038147</ele>
        <time>2022-08-21T08:39:57.000Z</time>
      </trkpt>
      <trkpt lat="47.2697" lon="-2.27212">
        <ele>18.60000038147</ele>
        <time>2022-08-21T08:40:01.000Z</time>
      </trkpt>
      <trkpt lat="47.26977" lon="-2.27207">
        <ele>18.60000038147</ele>
        <time>2022-08-21T08:40:04.000Z</time>
      </trkpt>
      <trkpt lat="47.26978" lon="-2.27207">
        <ele>18.60000038147</ele>
        <time>2022-08-21T08:40:05.000Z</time>
      </trkpt>
      <trkpt lat="47.26982" lon="-2.27202">
        <ele>18.60000038147</ele>
        <time>2022-08-21T08:40:10.000Z</time>
      </trkpt>
      <trkpt lat="47.26984" lon="-2.27198">
        <ele>18.60000038147</ele>
        <time>2022-08-21T08:40:11.000Z</time>
      </trkpt>
      <trkpt lat="47.26991" lon="-2.27191">
        <ele>18.60000038147</ele>
        <time>2022-08-21T08:40:14.000Z</time>
      </trkpt>
      <trkpt lat="47.26993" lon="-2.27192">
        <ele>18.60000038147</ele>
        <time>2022-08-21T08:40:15.000Z</time>
      </trkpt>
      <trkpt lat="47.26996" lon="-2.27195">
        <ele>18.60000038147</ele>
        <time>2022-08-21T08:40:18.000Z</time>
      </trkpt>
      <trkpt lat="47.26998" lon="-2.27194">
        <ele>17.60000038147</ele>
        <time>2022-08-21T08:40:20.000Z</time>
      </trkpt>
      <trkpt lat="47.26999" lon="-2.27192">
        <ele>17.200000762939</ele>
        <time>2022-08-21T08:40:21.000Z</time>
      </trkpt>
      <trkpt lat="47.27001" lon="-2.2719">
        <ele>16.799999237061</ele>
        <time>2022-08-21T08:40:22.000Z</time>
      </trkpt>
      <trkpt lat="47.27003" lon="-2.27188">
        <ele>16.39999961853</ele>
        <time>2022-08-21T08:40:23.000Z</time>
      </trkpt>
      <trkpt lat="47.27009" lon="-2.2718">
        <ele>16.39999961853</ele>
        <time>2022-08-21T08:40:27.000Z</time>
      </trkpt>
      <trkpt lat="47.27011" lon="-2.2718">
        <ele>16.39999961853</ele>
        <time>2022-08-21T08:40:28.000Z</time>
      </trkpt>
      <trkpt lat="47.27016" lon="-2.27174">
        <ele>16</ele>
        <time>2022-08-21T08:40:31.000Z</time>
      </trkpt>
      <trkpt lat="47.27017" lon="-2.27172">
        <ele>15.60000038147</ele>
        <time>2022-08-21T08:40:32.000Z</time>
      </trkpt>
      <trkpt lat="47.27019" lon="-2.2717">
        <ele>15</ele>
        <time>2022-08-21T08:40:33.000Z</time>
      </trkpt>
      <trkpt lat="47.2702" lon="-2.27167">
        <ele>14.60000038147</ele>
        <time>2022-08-21T08:40:34.000Z</time>
      </trkpt>
      <trkpt lat="47.2702" lon="-2.27167">
        <ele>14.199999809265</ele>
        <time>2022-08-21T08:40:35.000Z</time>
      </trkpt>
      <trkpt lat="47.27031" lon="-2.27179">
        <ele>14.199999809265</ele>
        <time>2022-08-21T08:40:47.000Z</time>
      </trkpt>
      <trkpt lat="47.27033" lon="-2.27181">
        <ele>14.199999809265</ele>
        <time>2022-08-21T08:40:48.000Z</time>
      </trkpt>
      <trkpt lat="47.27047" lon="-2.27192">
        <ele>14.199999809265</ele>
        <time>2022-08-21T08:40:54.000Z</time>
      </trkpt>
      <trkpt lat="47.27049" lon="-2.27195">
        <ele>14.60000038147</ele>
        <time>2022-08-21T08:40:55.000Z</time>
      </trkpt>
      <trkpt lat="47.27052" lon="-2.27198">
        <ele>15</ele>
        <time>2022-08-21T08:40:56.000Z</time>
      </trkpt>
      <trkpt lat="47.27055" lon="-2.27201">
        <ele>15.39999961853</ele>
        <time>2022-08-21T08:40:57.000Z</time>
      </trkpt>
      <trkpt lat="47.27058" lon="-2.27204">
        <ele>16</ele>
        <time>2022-08-21T08:40:58.000Z</time>
      </trkpt>
      <trkpt lat="47.2706" lon="-2.27208">
        <ele>16.39999961853</ele>
        <time>2022-08-21T08:40:59.000Z</time>
      </trkpt>
      <trkpt lat="47.27077" lon="-2.27231">
        <ele>16.799999237061</ele>
        <time>2022-08-21T08:41:05.000Z</time>
      </trkpt>
      <trkpt lat="47.2708" lon="-2.27236">
        <ele>17.200000762939</ele>
        <time>2022-08-21T08:41:06.000Z</time>
      </trkpt>
      <trkpt lat="47.27083" lon="-2.2724">
        <ele>17.60000038147</ele>
        <time>2022-08-21T08:41:07.000Z</time>
      </trkpt>
      <trkpt lat="47.27085" lon="-2.27244">
        <ele>18</ele>
        <time>2022-08-21T08:41:08.000Z</time>
      </trkpt>
      <trkpt lat="47.27087" lon="-2.27247">
        <ele>18.39999961853</ele>
        <time>2022-08-21T08:41:09.000Z</time>
      </trkpt>
      <trkpt lat="47.27092" lon="-2.27256">
        <ele>18.39999961853</ele>
        <time>2022-08-21T08:41:13.000Z</time>
      </trkpt>
      <trkpt lat="47.27094" lon="-2.27257">
        <ele>18.39999961853</ele>
        <time>2022-08-21T08:41:16.000Z</time>
      </trkpt>
      <trkpt lat="47.27098" lon="-2.2726">
        <ele>18.39999961853</ele>
        <time>2022-08-21T08:41:20.000Z</time>
      </trkpt>
      <trkpt lat="47.27099" lon="-2.27261">
        <ele>18.39999961853</ele>
        <time>2022-08-21T08:41:21.000Z</time>
      </trkpt>
      <trkpt lat="47.27108" lon="-2.27277">
        <ele>18.39999961853</ele>
        <time>2022-08-21T08:41:25.000Z</time>
      </trkpt>
      <trkpt lat="47.27113" lon="-2.27286">
        <ele>18.799999237061</ele>
        <time>2022-08-21T08:41:27.000Z</time>
      </trkpt>
      <trkpt lat="47.27116" lon="-2.2729">
        <ele>19.200000762939</ele>
        <time>2022-08-21T08:41:28.000Z</time>
      </trkpt>
      <trkpt lat="47.27119" lon="-2.27295">
        <ele>19.60000038147</ele>
        <time>2022-08-21T08:41:29.000Z</time>
      </trkpt>
      <trkpt lat="47.27121" lon="-2.27299">
        <ele>20</ele>
        <time>2022-08-21T08:41:30.000Z</time>
      </trkpt>
      <trkpt lat="47.27122" lon="-2.27305">
        <ele>20.60000038147</ele>
        <time>2022-08-21T08:41:31.000Z</time>
      </trkpt>
      <trkpt lat="47.27125" lon="-2.27323">
        <ele>20.60000038147</ele>
        <time>2022-08-21T08:41:34.000Z</time>
      </trkpt>
      <trkpt lat="47.27126" lon="-2.27329">
        <ele>20.60000038147</ele>
        <time>2022-08-21T08:41:35.000Z</time>
      </trkpt>
      <trkpt lat="47.2713" lon="-2.27361">
        <ele>20.60000038147</ele>
        <time>2022-08-21T08:41:40.000Z</time>
      </trkpt>
      <trkpt lat="47.27136" lon="-2.27395">
        <ele>20.60000038147</ele>
        <time>2022-08-21T08:41:45.000Z</time>
      </trkpt>
      <trkpt lat="47.27138" lon="-2.27402">
        <ele>20.60000038147</ele>
        <time>2022-08-21T08:41:46.000Z</time>
      </trkpt>
      <trkpt lat="47.27143" lon="-2.27442">
        <ele>21</ele>
        <time>2022-08-21T08:41:52.000Z</time>
      </trkpt>
      <trkpt lat="47.27144" lon="-2.27449">
        <ele>21.39999961853</ele>
        <time>2022-08-21T08:41:53.000Z</time>
      </trkpt>
      <trkpt lat="47.27145" lon="-2.27455">
        <ele>21.799999237061</ele>
        <time>2022-08-21T08:41:54.000Z</time>
      </trkpt>
      <trkpt lat="47.27145" lon="-2.2746">
        <ele>22.200000762939</ele>
        <time>2022-08-21T08:41:55.000Z</time>
      </trkpt>
      <trkpt lat="47.27146" lon="-2.27467">
        <ele>22.60000038147</ele>
        <time>2022-08-21T08:41:56.000Z</time>
      </trkpt>
      <trkpt lat="47.27147" lon="-2.27475">
        <ele>22.60000038147</ele>
        <time>2022-08-21T08:41:57.000Z</time>
      </trkpt>
      <trkpt lat="47.27151" lon="-2.27527">
        <ele>22.60000038147</ele>
        <time>2022-08-21T08:42:04.000Z</time>
      </trkpt>
      <trkpt lat="47.27152" lon="-2.27549">
        <ele>22.60000038147</ele>
        <time>2022-08-21T08:42:07.000Z</time>
      </trkpt>
      <trkpt lat="47.27152" lon="-2.27564">
        <ele>22.60000038147</ele>
        <time>2022-08-21T08:42:09.000Z</time>
      </trkpt>
      <trkpt lat="47.2715" lon="-2.27571">
        <ele>22.60000038147</ele>
        <time>2022-08-21T08:42:10.000Z</time>
      </trkpt>
      <trkpt lat="47.27147" lon="-2.27593">
        <ele>22.60000038147</ele>
        <time>2022-08-21T08:42:13.000Z</time>
      </trkpt>
      <trkpt lat="47.27144" lon="-2.27597">
        <ele>22.60000038147</ele>
        <time>2022-08-21T08:42:14.000Z</time>
      </trkpt>
      <trkpt lat="47.27128" lon="-2.27612">
        <ele>22.60000038147</ele>
        <time>2022-08-21T08:42:18.000Z</time>
      </trkpt>
      <trkpt lat="47.27123" lon="-2.27614">
        <ele>22.60000038147</ele>
        <time>2022-08-21T08:42:19.000Z</time>
      </trkpt>
      <trkpt lat="47.27095" lon="-2.27632">
        <ele>22.60000038147</ele>
        <time>2022-08-21T08:42:24.000Z</time>
      </trkpt>
      <trkpt lat="47.27066" lon="-2.27657">
        <ele>22.60000038147</ele>
        <time>2022-08-21T08:42:30.000Z</time>
      </trkpt>
      <trkpt lat="47.27039" lon="-2.27688">
        <ele>22.60000038147</ele>
        <time>2022-08-21T08:42:37.000Z</time>
      </trkpt>
      <trkpt lat="47.27033" lon="-2.27699">
        <ele>22.60000038147</ele>
        <time>2022-08-21T08:42:39.000Z</time>
      </trkpt>
      <trkpt lat="47.27031" lon="-2.27716">
        <ele>22.60000038147</ele>
        <time>2022-08-21T08:42:42.000Z</time>
      </trkpt>
      <trkpt lat="47.27037" lon="-2.27724">
        <ele>22.60000038147</ele>
        <time>2022-08-21T08:42:45.000Z</time>
      </trkpt>
      <trkpt lat="47.27049" lon="-2.27729">
        <ele>22.60000038147</ele>
        <time>2022-08-21T08:42:48.000Z</time>
      </trkpt>
      <trkpt lat="47.27076" lon="-2.27742">
        <ele>22.60000038147</ele>
        <time>2022-08-21T08:42:54.000Z</time>
      </trkpt>
      <trkpt lat="47.27085" lon="-2.27746">
        <ele>23</ele>
        <time>2022-08-21T08:42:56.000Z</time>
      </trkpt>
      <trkpt lat="47.2709" lon="-2.27749">
        <ele>23.39999961853</ele>
        <time>2022-08-21T08:42:57.000Z</time>
      </trkpt>
      <trkpt lat="47.27094" lon="-2.27753">
        <ele>23.799999237061</ele>
        <time>2022-08-21T08:42:58.000Z</time>
      </trkpt>
      <trkpt lat="47.27098" lon="-2.27757">
        <ele>24.200000762939</ele>
        <time>2022-08-21T08:42:59.000Z</time>
      </trkpt>
      <trkpt lat="47.27102" lon="-2.27761">
        <ele>24.60000038147</ele>
        <time>2022-08-21T08:43:00.000Z</time>
      </trkpt>
      <trkpt lat="47.27106" lon="-2.27765">
        <ele>24.60000038147</ele>
        <time>2022-08-21T08:43:01.000Z</time>
      </trkpt>
      <trkpt lat="47.27118" lon="-2.27786">
        <ele>24.60000038147</ele>
        <time>2022-08-21T08:43:05.000Z</time>
      </trkpt>
      <trkpt lat="47.2712" lon="-2.27792">
        <ele>24.60000038147</ele>
        <time>2022-08-21T08:43:06.000Z</time>
      </trkpt>
      <trkpt lat="47.27121" lon="-2.27812">
        <ele>24.60000038147</ele>
        <time>2022-08-21T08:43:09.000Z</time>
      </trkpt>
      <trkpt lat="47.27116" lon="-2.27836">
        <ele>25</ele>
        <time>2022-08-21T08:43:13.000Z</time>
      </trkpt>
      <trkpt lat="47.27115" lon="-2.27842">
        <ele>25.39999961853</ele>
        <time>2022-08-21T08:43:14.000Z</time>
      </trkpt>
      <trkpt lat="47.27113" lon="-2.27849">
        <ele>25.799999237061</ele>
        <time>2022-08-21T08:43:15.000Z</time>
      </trkpt>
      <trkpt lat="47.27111" lon="-2.27855">
        <ele>26.200000762939</ele>
        <time>2022-08-21T08:43:16.000Z</time>
      </trkpt>
      <trkpt lat="47.27109" lon="-2.27861">
        <ele>26.60000038147</ele>
        <time>2022-08-21T08:43:17.000Z</time>
      </trkpt>
      <trkpt lat="47.27104" lon="-2.27879">
        <ele>26.60000038147</ele>
        <time>2022-08-21T08:43:20.000Z</time>
      </trkpt>
      <trkpt lat="47.27101" lon="-2.27883">
        <ele>26.60000038147</ele>
        <time>2022-08-21T08:43:21.000Z</time>
      </trkpt>
      <trkpt lat="47.27097" lon="-2.27887">
        <ele>27</ele>
        <time>2022-08-21T08:43:22.000Z</time>
      </trkpt>
      <trkpt lat="47.27093" lon="-2.2789">
        <ele>27.39999961853</ele>
        <time>2022-08-21T08:43:23.000Z</time>
      </trkpt>
      <trkpt lat="47.27089" lon="-2.27894">
        <ele>27.799999237061</ele>
        <time>2022-08-21T08:43:24.000Z</time>
      </trkpt>
      <trkpt lat="47.27086" lon="-2.27898">
        <ele>28.200000762939</ele>
        <time>2022-08-21T08:43:25.000Z</time>
      </trkpt>
      <trkpt lat="47.27083" lon="-2.27904">
        <ele>28.60000038147</ele>
        <time>2022-08-21T08:43:26.000Z</time>
      </trkpt>
      <trkpt lat="47.27077" lon="-2.27914">
        <ele>28.60000038147</ele>
        <time>2022-08-21T08:43:28.000Z</time>
      </trkpt>
      <trkpt lat="47.27074" lon="-2.27937">
        <ele>28.60000038147</ele>
        <time>2022-08-21T08:43:32.000Z</time>
      </trkpt>
      <trkpt lat="47.27075" lon="-2.27955">
        <ele>29</ele>
        <time>2022-08-21T08:43:35.000Z</time>
      </trkpt>
      <trkpt lat="47.27076" lon="-2.2796">
        <ele>29.60000038147</ele>
        <time>2022-08-21T08:43:36.000Z</time>
      </trkpt>
      <trkpt lat="47.27078" lon="-2.27965">
        <ele>30.39999961853</ele>
        <time>2022-08-21T08:43:37.000Z</time>
      </trkpt>
      <trkpt lat="47.27081" lon="-2.2797">
        <ele>30.799999237061</ele>
        <time>2022-08-21T08:43:38.000Z</time>
      </trkpt>
      <trkpt lat="47.27096" lon="-2.27984">
        <ele>30.799999237061</ele>
        <time>2022-08-21T08:43:42.000Z</time>
      </trkpt>
      <trkpt lat="47.27106" lon="-2.27987">
        <ele>30.799999237061</ele>
        <time>2022-08-21T08:43:44.000Z</time>
      </trkpt>
      <trkpt lat="47.27111" lon="-2.27991">
        <ele>30.799999237061</ele>
        <time>2022-08-21T08:43:45.000Z</time>
      </trkpt>
      <trkpt lat="47.27114" lon="-2.27997">
        <ele>30.799999237061</ele>
        <time>2022-08-21T08:43:46.000Z</time>
      </trkpt>
      <trkpt lat="47.2712" lon="-2.28021">
        <ele>30.799999237061</ele>
        <time>2022-08-21T08:43:49.000Z</time>
      </trkpt>
      <trkpt lat="47.27121" lon="-2.28029">
        <ele>30.799999237061</ele>
        <time>2022-08-21T08:43:50.000Z</time>
      </trkpt>
      <trkpt lat="47.27125" lon="-2.28073">
        <ele>30.39999961853</ele>
        <time>2022-08-21T08:43:55.000Z</time>
      </trkpt>
      <trkpt lat="47.27125" lon="-2.28082">
        <ele>30</ele>
        <time>2022-08-21T08:43:56.000Z</time>
      </trkpt>
      <trkpt lat="47.27125" lon="-2.28092">
        <ele>29.60000038147</ele>
        <time>2022-08-21T08:43:57.000Z</time>
      </trkpt>
      <trkpt lat="47.27125" lon="-2.28102">
        <ele>29.200000762939</ele>
        <time>2022-08-21T08:43:58.000Z</time>
      </trkpt>
      <trkpt lat="47.27125" lon="-2.28111">
        <ele>28.799999237061</ele>
        <time>2022-08-21T08:43:59.000Z</time>
      </trkpt>
      <trkpt lat="47.27126" lon="-2.28155">
        <ele>28.799999237061</ele>
        <time>2022-08-21T08:44:04.000Z</time>
      </trkpt>
      <trkpt lat="47.27126" lon="-2.28175">
        <ele>28.39999961853</ele>
        <time>2022-08-21T08:44:06.000Z</time>
      </trkpt>
      <trkpt lat="47.27125" lon="-2.28183">
        <ele>28</ele>
        <time>2022-08-21T08:44:07.000Z</time>
      </trkpt>
      <trkpt lat="47.27124" lon="-2.28193">
        <ele>27.60000038147</ele>
        <time>2022-08-21T08:44:08.000Z</time>
      </trkpt>
      <trkpt lat="47.27123" lon="-2.28202">
        <ele>27.200000762939</ele>
        <time>2022-08-21T08:44:09.000Z</time>
      </trkpt>
      <trkpt lat="47.27121" lon="-2.28211">
        <ele>26.799999237061</ele>
        <time>2022-08-21T08:44:10.000Z</time>
      </trkpt>
      <trkpt lat="47.27119" lon="-2.2824">
        <ele>26.799999237061</ele>
        <time>2022-08-21T08:44:13.000Z</time>
      </trkpt>
      <trkpt lat="47.2712" lon="-2.28249">
        <ele>26.799999237061</ele>
        <time>2022-08-21T08:44:14.000Z</time>
      </trkpt>
      <trkpt lat="47.27136" lon="-2.2831">
        <ele>26.799999237061</ele>
        <time>2022-08-21T08:44:21.000Z</time>
      </trkpt>
      <trkpt lat="47.27144" lon="-2.28364">
        <ele>26.799999237061</ele>
        <time>2022-08-21T08:44:27.000Z</time>
      </trkpt>
      <trkpt lat="47.27148" lon="-2.2841">
        <ele>26.799999237061</ele>
        <time>2022-08-21T08:44:32.000Z</time>
      </trkpt>
      <trkpt lat="47.2715" lon="-2.28428">
        <ele>26.799999237061</ele>
        <time>2022-08-21T08:44:34.000Z</time>
      </trkpt>
      <trkpt lat="47.27153" lon="-2.28454">
        <ele>26.799999237061</ele>
        <time>2022-08-21T08:44:37.000Z</time>
      </trkpt>
      <trkpt lat="47.27158" lon="-2.28502">
        <ele>26.799999237061</ele>
        <time>2022-08-21T08:44:42.000Z</time>
      </trkpt>
      <trkpt lat="47.2716" lon="-2.28521">
        <ele>26.200000762939</ele>
        <time>2022-08-21T08:44:44.000Z</time>
      </trkpt>
      <trkpt lat="47.27162" lon="-2.28531">
        <ele>25.799999237061</ele>
        <time>2022-08-21T08:44:45.000Z</time>
      </trkpt>
      <trkpt lat="47.27163" lon="-2.2854">
        <ele>25.39999961853</ele>
        <time>2022-08-21T08:44:46.000Z</time>
      </trkpt>
      <trkpt lat="47.27164" lon="-2.28548">
        <ele>25</ele>
        <time>2022-08-21T08:44:47.000Z</time>
      </trkpt>
      <trkpt lat="47.27166" lon="-2.28557">
        <ele>24.60000038147</ele>
        <time>2022-08-21T08:44:48.000Z</time>
      </trkpt>
      <trkpt lat="47.27172" lon="-2.28579">
        <ele>24.60000038147</ele>
        <time>2022-08-21T08:44:51.000Z</time>
      </trkpt>
      <trkpt lat="47.27177" lon="-2.28583">
        <ele>24.60000038147</ele>
        <time>2022-08-21T08:44:52.000Z</time>
      </trkpt>
      <trkpt lat="47.27194" lon="-2.28582">
        <ele>24.60000038147</ele>
        <time>2022-08-21T08:44:55.000Z</time>
      </trkpt>
      <trkpt lat="47.27213" lon="-2.28579">
        <ele>24.200000762939</ele>
        <time>2022-08-21T08:44:58.000Z</time>
      </trkpt>
      <trkpt lat="47.27219" lon="-2.28579">
        <ele>23.799999237061</ele>
        <time>2022-08-21T08:44:59.000Z</time>
      </trkpt>
      <trkpt lat="47.27226" lon="-2.28578">
        <ele>23.39999961853</ele>
        <time>2022-08-21T08:45:00.000Z</time>
      </trkpt>
      <trkpt lat="47.27233" lon="-2.28578">
        <ele>23</ele>
        <time>2022-08-21T08:45:01.000Z</time>
      </trkpt>
      <trkpt lat="47.2724" lon="-2.28579">
        <ele>22.60000038147</ele>
        <time>2022-08-21T08:45:02.000Z</time>
      </trkpt>
      <trkpt lat="47.27268" lon="-2.28581">
        <ele>22.60000038147</ele>
        <time>2022-08-21T08:45:06.000Z</time>
      </trkpt>
      <trkpt lat="47.27274" lon="-2.28582">
        <ele>22.60000038147</ele>
        <time>2022-08-21T08:45:07.000Z</time>
      </trkpt>
      <trkpt lat="47.27309" lon="-2.28592">
        <ele>22.60000038147</ele>
        <time>2022-08-21T08:45:13.000Z</time>
      </trkpt>
      <trkpt lat="47.27321" lon="-2.28595">
        <ele>22.60000038147</ele>
        <time>2022-08-21T08:45:15.000Z</time>
      </trkpt>
      <trkpt lat="47.27332" lon="-2.28599">
        <ele>22.60000038147</ele>
        <time>2022-08-21T08:45:17.000Z</time>
      </trkpt>
      <trkpt lat="47.27343" lon="-2.28603">
        <ele>22.200000762939</ele>
        <time>2022-08-21T08:45:19.000Z</time>
      </trkpt>
      <trkpt lat="47.2735" lon="-2.28606">
        <ele>21.60000038147</ele>
        <time>2022-08-21T08:45:20.000Z</time>
      </trkpt>
      <trkpt lat="47.27356" lon="-2.28608">
        <ele>21.200000762939</ele>
        <time>2022-08-21T08:45:21.000Z</time>
      </trkpt>
      <trkpt lat="47.27362" lon="-2.28611">
        <ele>20.799999237061</ele>
        <time>2022-08-21T08:45:22.000Z</time>
      </trkpt>
      <trkpt lat="47.27368" lon="-2.28614">
        <ele>20.39999961853</ele>
        <time>2022-08-21T08:45:23.000Z</time>
      </trkpt>
      <trkpt lat="47.27393" lon="-2.28626">
        <ele>20.39999961853</ele>
        <time>2022-08-21T08:45:27.000Z</time>
      </trkpt>
      <trkpt lat="47.27421" lon="-2.28636">
        <ele>20.39999961853</ele>
        <time>2022-08-21T08:45:32.000Z</time>
      </trkpt>
      <trkpt lat="47.27426" lon="-2.28637">
        <ele>20.39999961853</ele>
        <time>2022-08-21T08:45:33.000Z</time>
      </trkpt>
      <trkpt lat="47.2744" lon="-2.28628">
        <ele>20.39999961853</ele>
        <time>2022-08-21T08:45:36.000Z</time>
      </trkpt>
      <trkpt lat="47.27451" lon="-2.28611">
        <ele>20.39999961853</ele>
        <time>2022-08-21T08:45:39.000Z</time>
      </trkpt>
      <trkpt lat="47.27457" lon="-2.28599">
        <ele>20.39999961853</ele>
        <time>2022-08-21T08:45:41.000Z</time>
      </trkpt>
      <trkpt lat="47.27473" lon="-2.28552">
        <ele>20.39999961853</ele>
        <time>2022-08-21T08:45:47.000Z</time>
      </trkpt>
      <trkpt lat="47.27487" lon="-2.28524">
        <ele>20.39999961853</ele>
        <time>2022-08-21T08:45:51.000Z</time>
      </trkpt>
      <trkpt lat="47.2749" lon="-2.28517">
        <ele>20.39999961853</ele>
        <time>2022-08-21T08:45:52.000Z</time>
      </trkpt>
      <trkpt lat="47.27494" lon="-2.28511">
        <ele>20.39999961853</ele>
        <time>2022-08-21T08:45:53.000Z</time>
      </trkpt>
      <trkpt lat="47.27502" lon="-2.2849">
        <ele>20.39999961853</ele>
        <time>2022-08-21T08:45:56.000Z</time>
      </trkpt>
      <trkpt lat="47.27521" lon="-2.28448">
        <ele>20.39999961853</ele>
        <time>2022-08-21T08:46:02.000Z</time>
      </trkpt>
      <trkpt lat="47.27526" lon="-2.28442">
        <ele>20.39999961853</ele>
        <time>2022-08-21T08:46:03.000Z</time>
      </trkpt>
      <trkpt lat="47.27538" lon="-2.28425">
        <ele>20.39999961853</ele>
        <time>2022-08-21T08:46:06.000Z</time>
      </trkpt>
      <trkpt lat="47.27566" lon="-2.28394">
        <ele>20.39999961853</ele>
        <time>2022-08-21T08:46:12.000Z</time>
      </trkpt>
      <trkpt lat="47.27588" lon="-2.28366">
        <ele>20.39999961853</ele>
        <time>2022-08-21T08:46:17.000Z</time>
      </trkpt>
      <trkpt lat="47.27619" lon="-2.28332">
        <ele>20.39999961853</ele>
        <time>2022-08-21T08:46:23.000Z</time>
      </trkpt>
      <trkpt lat="47.27624" lon="-2.28327">
        <ele>20.39999961853</ele>
        <time>2022-08-21T08:46:24.000Z</time>
      </trkpt>
      <trkpt lat="47.27638" lon="-2.28315">
        <ele>20.39999961853</ele>
        <time>2022-08-21T08:46:27.000Z</time>
      </trkpt>
      <trkpt lat="47.27644" lon="-2.28308">
        <ele>20.39999961853</ele>
        <time>2022-08-21T08:46:29.000Z</time>
      </trkpt>
      <trkpt lat="47.27649" lon="-2.28303">
        <ele>20.39999961853</ele>
        <time>2022-08-21T08:46:31.000Z</time>
      </trkpt>
      <trkpt lat="47.2766" lon="-2.28285">
        <ele>20.39999961853</ele>
        <time>2022-08-21T08:46:37.000Z</time>
      </trkpt>
      <trkpt lat="47.27675" lon="-2.2826">
        <ele>20.39999961853</ele>
        <time>2022-08-21T08:46:45.000Z</time>
      </trkpt>
      <trkpt lat="47.27685" lon="-2.28245">
        <ele>20.39999961853</ele>
        <time>2022-08-21T08:46:50.000Z</time>
      </trkpt>
      <trkpt lat="47.27695" lon="-2.28229">
        <ele>20.39999961853</ele>
        <time>2022-08-21T08:46:54.000Z</time>
      </trkpt>
      <trkpt lat="47.27707" lon="-2.28213">
        <ele>20.39999961853</ele>
        <time>2022-08-21T08:46:59.000Z</time>
      </trkpt>
      <trkpt lat="47.27715" lon="-2.28201">
        <ele>20.39999961853</ele>
        <time>2022-08-21T08:47:03.000Z</time>
      </trkpt>
      <trkpt lat="47.27725" lon="-2.28178">
        <ele>20.39999961853</ele>
        <time>2022-08-21T08:47:08.000Z</time>
      </trkpt>
      <trkpt lat="47.27727" lon="-2.28172">
        <ele>20.39999961853</ele>
        <time>2022-08-21T08:47:09.000Z</time>
      </trkpt>
      <trkpt lat="47.27736" lon="-2.28146">
        <ele>20.39999961853</ele>
        <time>2022-08-21T08:47:13.000Z</time>
      </trkpt>
      <trkpt lat="47.27742" lon="-2.28107">
        <ele>20.39999961853</ele>
        <time>2022-08-21T08:47:18.000Z</time>
      </trkpt>
      <trkpt lat="47.27743" lon="-2.28098">
        <ele>20.39999961853</ele>
        <time>2022-08-21T08:47:19.000Z</time>
      </trkpt>
      <trkpt lat="47.27748" lon="-2.28044">
        <ele>20.39999961853</ele>
        <time>2022-08-21T08:47:26.000Z</time>
      </trkpt>
      <trkpt lat="47.2775" lon="-2.28">
        <ele>20.39999961853</ele>
        <time>2022-08-21T08:47:32.000Z</time>
      </trkpt>
      <trkpt lat="47.27751" lon="-2.27987">
        <ele>20.39999961853</ele>
        <time>2022-08-21T08:47:34.000Z</time>
      </trkpt>
      <trkpt lat="47.27754" lon="-2.27973">
        <ele>20.39999961853</ele>
        <time>2022-08-21T08:47:36.000Z</time>
      </trkpt>
      <trkpt lat="47.27755" lon="-2.27966">
        <ele>20.39999961853</ele>
        <time>2022-08-21T08:47:37.000Z</time>
      </trkpt>
      <trkpt lat="47.27757" lon="-2.27953">
        <ele>20.39999961853</ele>
        <time>2022-08-21T08:47:39.000Z</time>
      </trkpt>
      <trkpt lat="47.27762" lon="-2.27939">
        <ele>20.39999961853</ele>
        <time>2022-08-21T08:47:42.000Z</time>
      </trkpt>
      <trkpt lat="47.27765" lon="-2.27935">
        <ele>20.39999961853</ele>
        <time>2022-08-21T08:47:43.000Z</time>
      </trkpt>
      <trkpt lat="47.27769" lon="-2.27921">
        <ele>20.39999961853</ele>
        <time>2022-08-21T08:47:46.000Z</time>
      </trkpt>
      <trkpt lat="47.27773" lon="-2.27909">
        <ele>20.39999961853</ele>
        <time>2022-08-21T08:47:48.000Z</time>
      </trkpt>
      <trkpt lat="47.27779" lon="-2.27897">
        <ele>20.39999961853</ele>
        <time>2022-08-21T08:47:50.000Z</time>
      </trkpt>
      <trkpt lat="47.27782" lon="-2.27891">
        <ele>20.39999961853</ele>
        <time>2022-08-21T08:47:51.000Z</time>
      </trkpt>
      <trkpt lat="47.278" lon="-2.27854">
        <ele>20.39999961853</ele>
        <time>2022-08-21T08:47:57.000Z</time>
      </trkpt>
      <trkpt lat="47.27816" lon="-2.27821">
        <ele>20.39999961853</ele>
        <time>2022-08-21T08:48:02.000Z</time>
      </trkpt>
      <trkpt lat="47.2782" lon="-2.27814">
        <ele>20.39999961853</ele>
        <time>2022-08-21T08:48:03.000Z</time>
      </trkpt>
      <trkpt lat="47.27846" lon="-2.27759">
        <ele>20.39999961853</ele>
        <time>2022-08-21T08:48:11.000Z</time>
      </trkpt>
      <trkpt lat="47.27875" lon="-2.277">
        <ele>20.39999961853</ele>
        <time>2022-08-21T08:48:19.000Z</time>
      </trkpt>
      <trkpt lat="47.27885" lon="-2.27678">
        <ele>20.39999961853</ele>
        <time>2022-08-21T08:48:22.000Z</time>
      </trkpt>
      <trkpt lat="47.27892" lon="-2.27653">
        <ele>20.39999961853</ele>
        <time>2022-08-21T08:48:25.000Z</time>
      </trkpt>
      <trkpt lat="47.27908" lon="-2.27595">
        <ele>20.39999961853</ele>
        <time>2022-08-21T08:48:32.000Z</time>
      </trkpt>
      <trkpt lat="47.27925" lon="-2.2757">
        <ele>20.39999961853</ele>
        <time>2022-08-21T08:48:36.000Z</time>
      </trkpt>
      <trkpt lat="47.27934" lon="-2.27564">
        <ele>20.39999961853</ele>
        <time>2022-08-21T08:48:38.000Z</time>
      </trkpt>
      <trkpt lat="47.27941" lon="-2.27559">
        <ele>20.39999961853</ele>
        <time>2022-08-21T08:48:40.000Z</time>
      </trkpt>
      <trkpt lat="47.27952" lon="-2.27553">
        <ele>20.39999961853</ele>
        <time>2022-08-21T08:48:44.000Z</time>
      </trkpt>
      <trkpt lat="47.27972" lon="-2.27553">
        <ele>20.39999961853</ele>
        <time>2022-08-21T08:48:49.000Z</time>
      </trkpt>
      <trkpt lat="47.28004" lon="-2.27555">
        <ele>20.39999961853</ele>
        <time>2022-08-21T08:48:56.000Z</time>
      </trkpt>
      <trkpt lat="47.28013" lon="-2.27556">
        <ele>20.799999237061</ele>
        <time>2022-08-21T08:48:58.000Z</time>
      </trkpt>
      <trkpt lat="47.28017" lon="-2.27555">
        <ele>21.39999961853</ele>
        <time>2022-08-21T08:48:59.000Z</time>
      </trkpt>
      <trkpt lat="47.28021" lon="-2.27555">
        <ele>21.799999237061</ele>
        <time>2022-08-21T08:49:00.000Z</time>
      </trkpt>
      <trkpt lat="47.28026" lon="-2.27555">
        <ele>22.200000762939</ele>
        <time>2022-08-21T08:49:01.000Z</time>
      </trkpt>
      <trkpt lat="47.2803" lon="-2.27554">
        <ele>22.60000038147</ele>
        <time>2022-08-21T08:49:02.000Z</time>
      </trkpt>
      <trkpt lat="47.28034" lon="-2.27553">
        <ele>22.60000038147</ele>
        <time>2022-08-21T08:49:03.000Z</time>
      </trkpt>
      <trkpt lat="47.28038" lon="-2.27552">
        <ele>22.60000038147</ele>
        <time>2022-08-21T08:49:04.000Z</time>
      </trkpt>
      <trkpt lat="47.28046" lon="-2.27548">
        <ele>22.60000038147</ele>
        <time>2022-08-21T08:49:06.000Z</time>
      </trkpt>
      <trkpt lat="47.2805" lon="-2.27545">
        <ele>23</ele>
        <time>2022-08-21T08:49:07.000Z</time>
      </trkpt>
      <trkpt lat="47.28054" lon="-2.27542">
        <ele>23.39999961853</ele>
        <time>2022-08-21T08:49:08.000Z</time>
      </trkpt>
      <trkpt lat="47.28058" lon="-2.27537">
        <ele>23.799999237061</ele>
        <time>2022-08-21T08:49:09.000Z</time>
      </trkpt>
      <trkpt lat="47.28062" lon="-2.27533">
        <ele>24.200000762939</ele>
        <time>2022-08-21T08:49:10.000Z</time>
      </trkpt>
      <trkpt lat="47.28066" lon="-2.27528">
        <ele>24.60000038147</ele>
        <time>2022-08-21T08:49:11.000Z</time>
      </trkpt>
      <trkpt lat="47.28071" lon="-2.27517">
        <ele>24.60000038147</ele>
        <time>2022-08-21T08:49:13.000Z</time>
      </trkpt>
      <trkpt lat="47.28077" lon="-2.27502">
        <ele>25.200000762939</ele>
        <time>2022-08-21T08:49:16.000Z</time>
      </trkpt>
      <trkpt lat="47.28078" lon="-2.27497">
        <ele>25.60000038147</ele>
        <time>2022-08-21T08:49:17.000Z</time>
      </trkpt>
      <trkpt lat="47.2808" lon="-2.27491">
        <ele>26</ele>
        <time>2022-08-21T08:49:18.000Z</time>
      </trkpt>
      <trkpt lat="47.28082" lon="-2.27486">
        <ele>26.39999961853</ele>
        <time>2022-08-21T08:49:19.000Z</time>
      </trkpt>
      <trkpt lat="47.28083" lon="-2.2748">
        <ele>26.799999237061</ele>
        <time>2022-08-21T08:49:20.000Z</time>
      </trkpt>
      <trkpt lat="47.28089" lon="-2.27463">
        <ele>27.200000762939</ele>
        <time>2022-08-21T08:49:23.000Z</time>
      </trkpt>
      <trkpt lat="47.2809" lon="-2.27457">
        <ele>27.60000038147</ele>
        <time>2022-08-21T08:49:24.000Z</time>
      </trkpt>
      <trkpt lat="47.28093" lon="-2.27451">
        <ele>28</ele>
        <time>2022-08-21T08:49:25.000Z</time>
      </trkpt>
      <trkpt lat="47.28095" lon="-2.27445">
        <ele>28.60000038147</ele>
        <time>2022-08-21T08:49:26.000Z</time>
      </trkpt>
      <trkpt lat="47.28097" lon="-2.27439">
        <ele>29</ele>
        <time>2022-08-21T08:49:27.000Z</time>
      </trkpt>
      <trkpt lat="47.2811" lon="-2.27405">
        <ele>29</ele>
        <time>2022-08-21T08:49:33.000Z</time>
      </trkpt>
      <trkpt lat="47.28115" lon="-2.27394">
        <ele>29.39999961853</ele>
        <time>2022-08-21T08:49:35.000Z</time>
      </trkpt>
      <trkpt lat="47.28118" lon="-2.27389">
        <ele>29.799999237061</ele>
        <time>2022-08-21T08:49:36.000Z</time>
      </trkpt>
      <trkpt lat="47.28121" lon="-2.27384">
        <ele>30.39999961853</ele>
        <time>2022-08-21T08:49:37.000Z</time>
      </trkpt>
      <trkpt lat="47.28125" lon="-2.2738">
        <ele>30.799999237061</ele>
        <time>2022-08-21T08:49:38.000Z</time>
      </trkpt>
      <trkpt lat="47.28128" lon="-2.27378">
        <ele>31.200000762939</ele>
        <time>2022-08-21T08:49:39.000Z</time>
      </trkpt>
      <trkpt lat="47.28148" lon="-2.27369">
        <ele>31.200000762939</ele>
        <time>2022-08-21T08:49:44.000Z</time>
      </trkpt>
      <trkpt lat="47.2816" lon="-2.27367">
        <ele>31.200000762939</ele>
        <time>2022-08-21T08:49:47.000Z</time>
      </trkpt>
      <trkpt lat="47.28175" lon="-2.27364">
        <ele>31.200000762939</ele>
        <time>2022-08-21T08:49:50.000Z</time>
      </trkpt>
      <trkpt lat="47.282" lon="-2.27358">
        <ele>31.200000762939</ele>
        <time>2022-08-21T08:49:55.000Z</time>
      </trkpt>
      <trkpt lat="47.28235" lon="-2.27352">
        <ele>31.200000762939</ele>
        <time>2022-08-21T08:50:01.000Z</time>
      </trkpt>
      <trkpt lat="47.28259" lon="-2.27347">
        <ele>31.200000762939</ele>
        <time>2022-08-21T08:50:05.000Z</time>
      </trkpt>
      <trkpt lat="47.28265" lon="-2.27347">
        <ele>31.200000762939</ele>
        <time>2022-08-21T08:50:06.000Z</time>
      </trkpt>
      <trkpt lat="47.28279" lon="-2.27348">
        <ele>30.799999237061</ele>
        <time>2022-08-21T08:50:08.000Z</time>
      </trkpt>
      <trkpt lat="47.28286" lon="-2.27348">
        <ele>30.200000762939</ele>
        <time>2022-08-21T08:50:09.000Z</time>
      </trkpt>
      <trkpt lat="47.28293" lon="-2.27348">
        <ele>29.39999961853</ele>
        <time>2022-08-21T08:50:10.000Z</time>
      </trkpt>
      <trkpt lat="47.28302" lon="-2.27348">
        <ele>29</ele>
        <time>2022-08-21T08:50:11.000Z</time>
      </trkpt>
      <trkpt lat="47.2831" lon="-2.27348">
        <ele>29</ele>
        <time>2022-08-21T08:50:12.000Z</time>
      </trkpt>
      <trkpt lat="47.28317" lon="-2.27347">
        <ele>28.39999961853</ele>
        <time>2022-08-21T08:50:13.000Z</time>
      </trkpt>
      <trkpt lat="47.28325" lon="-2.27347">
        <ele>28</ele>
        <time>2022-08-21T08:50:14.000Z</time>
      </trkpt>
      <trkpt lat="47.28332" lon="-2.27347">
        <ele>27.39999961853</ele>
        <time>2022-08-21T08:50:15.000Z</time>
      </trkpt>
      <trkpt lat="47.28341" lon="-2.27346">
        <ele>27</ele>
        <time>2022-08-21T08:50:16.000Z</time>
      </trkpt>
      <trkpt lat="47.28349" lon="-2.27346">
        <ele>26.39999961853</ele>
        <time>2022-08-21T08:50:17.000Z</time>
      </trkpt>
      <trkpt lat="47.28357" lon="-2.27347">
        <ele>26</ele>
        <time>2022-08-21T08:50:18.000Z</time>
      </trkpt>
      <trkpt lat="47.28364" lon="-2.27348">
        <ele>25.39999961853</ele>
        <time>2022-08-21T08:50:19.000Z</time>
      </trkpt>
      <trkpt lat="47.2837" lon="-2.27349">
        <ele>24.799999237061</ele>
        <time>2022-08-21T08:50:20.000Z</time>
      </trkpt>
      <trkpt lat="47.28376" lon="-2.2735">
        <ele>24.200000762939</ele>
        <time>2022-08-21T08:50:21.000Z</time>
      </trkpt>
      <trkpt lat="47.2838" lon="-2.27352">
        <ele>23.60000038147</ele>
        <time>2022-08-21T08:50:22.000Z</time>
      </trkpt>
      <trkpt lat="47.28384" lon="-2.27356">
        <ele>23</ele>
        <time>2022-08-21T08:50:23.000Z</time>
      </trkpt>
      <trkpt lat="47.28385" lon="-2.27362">
        <ele>22.39999961853</ele>
        <time>2022-08-21T08:50:24.000Z</time>
      </trkpt>
      <trkpt lat="47.28385" lon="-2.27367">
        <ele>21.799999237061</ele>
        <time>2022-08-21T08:50:25.000Z</time>
      </trkpt>
      <trkpt lat="47.28385" lon="-2.27373">
        <ele>21.200000762939</ele>
        <time>2022-08-21T08:50:26.000Z</time>
      </trkpt>
      <trkpt lat="47.28384" lon="-2.27378">
        <ele>20.60000038147</ele>
        <time>2022-08-21T08:50:27.000Z</time>
      </trkpt>
      <trkpt lat="47.28384" lon="-2.27383">
        <ele>20</ele>
        <time>2022-08-21T08:50:28.000Z</time>
      </trkpt>
      <trkpt lat="47.2838" lon="-2.27406">
        <ele>20.39999961853</ele>
        <time>2022-08-21T08:50:33.000Z</time>
      </trkpt>
      <trkpt lat="47.28379" lon="-2.27411">
        <ele>20.799999237061</ele>
        <time>2022-08-21T08:50:34.000Z</time>
      </trkpt>
      <trkpt lat="47.28378" lon="-2.27416">
        <ele>21.799999237061</ele>
        <time>2022-08-21T08:50:35.000Z</time>
      </trkpt>
      <trkpt lat="47.28377" lon="-2.27421">
        <ele>22.200000762939</ele>
        <time>2022-08-21T08:50:36.000Z</time>
      </trkpt>
      <trkpt lat="47.2837" lon="-2.2746">
        <ele>22.200000762939</ele>
        <time>2022-08-21T08:50:43.000Z</time>
      </trkpt>
      <trkpt lat="47.28369" lon="-2.27466">
        <ele>22.799999237061</ele>
        <time>2022-08-21T08:50:44.000Z</time>
      </trkpt>
      <trkpt lat="47.28368" lon="-2.27471">
        <ele>23.200000762939</ele>
        <time>2022-08-21T08:50:45.000Z</time>
      </trkpt>
      <trkpt lat="47.28367" lon="-2.27477">
        <ele>23.60000038147</ele>
        <time>2022-08-21T08:50:46.000Z</time>
      </trkpt>
      <trkpt lat="47.28366" lon="-2.27483">
        <ele>24</ele>
        <time>2022-08-21T08:50:47.000Z</time>
      </trkpt>
      <trkpt lat="47.28365" lon="-2.27489">
        <ele>24.39999961853</ele>
        <time>2022-08-21T08:50:48.000Z</time>
      </trkpt>
      <trkpt lat="47.28364" lon="-2.27495">
        <ele>24.39999961853</ele>
        <time>2022-08-21T08:50:49.000Z</time>
      </trkpt>
      <trkpt lat="47.28363" lon="-2.27501">
        <ele>24.39999961853</ele>
        <time>2022-08-21T08:50:50.000Z</time>
      </trkpt>
      <trkpt lat="47.28357" lon="-2.27539">
        <ele>24.39999961853</ele>
        <time>2022-08-21T08:50:56.000Z</time>
      </trkpt>
      <trkpt lat="47.28356" lon="-2.27545">
        <ele>24.39999961853</ele>
        <time>2022-08-21T08:50:57.000Z</time>
      </trkpt>
      <trkpt lat="47.28353" lon="-2.27565">
        <ele>24.39999961853</ele>
        <time>2022-08-21T08:51:00.000Z</time>
      </trkpt>
      <trkpt lat="47.28349" lon="-2.27584">
        <ele>24.39999961853</ele>
        <time>2022-08-21T08:51:03.000Z</time>
      </trkpt>
      <trkpt lat="47.28349" lon="-2.27605">
        <ele>24.39999961853</ele>
        <time>2022-08-21T08:51:06.000Z</time>
      </trkpt>
      <trkpt lat="47.28348" lon="-2.27626">
        <ele>24.39999961853</ele>
        <time>2022-08-21T08:51:09.000Z</time>
      </trkpt>
      <trkpt lat="47.28346" lon="-2.27648">
        <ele>24.39999961853</ele>
        <time>2022-08-21T08:51:12.000Z</time>
      </trkpt>
      <trkpt lat="47.28344" lon="-2.27671">
        <ele>24.39999961853</ele>
        <time>2022-08-21T08:51:15.000Z</time>
      </trkpt>
      <trkpt lat="47.28341" lon="-2.2771">
        <ele>24.39999961853</ele>
        <time>2022-08-21T08:51:20.000Z</time>
      </trkpt>
      <trkpt lat="47.2834" lon="-2.27719">
        <ele>24</ele>
        <time>2022-08-21T08:51:21.000Z</time>
      </trkpt>
      <trkpt lat="47.2834" lon="-2.27728">
        <ele>23.60000038147</ele>
        <time>2022-08-21T08:51:22.000Z</time>
      </trkpt>
      <trkpt lat="47.28339" lon="-2.27736">
        <ele>23.200000762939</ele>
        <time>2022-08-21T08:51:23.000Z</time>
      </trkpt>
      <trkpt lat="47.28339" lon="-2.27744">
        <ele>22.60000038147</ele>
        <time>2022-08-21T08:51:24.000Z</time>
      </trkpt>
      <trkpt lat="47.28338" lon="-2.27753">
        <ele>22.200000762939</ele>
        <time>2022-08-21T08:51:25.000Z</time>
      </trkpt>
      <trkpt lat="47.28337" lon="-2.27758">
        <ele>22.200000762939</ele>
        <time>2022-08-21T08:51:26.000Z</time>
      </trkpt>
      <trkpt lat="47.28334" lon="-2.27807">
        <ele>22.200000762939</ele>
        <time>2022-08-21T08:51:33.000Z</time>
      </trkpt>
      <trkpt lat="47.28329" lon="-2.27861">
        <ele>22.200000762939</ele>
        <time>2022-08-21T08:51:41.000Z</time>
      </trkpt>
      <trkpt lat="47.28325" lon="-2.27915">
        <ele>22.200000762939</ele>
        <time>2022-08-21T08:51:49.000Z</time>
      </trkpt>
      <trkpt lat="47.28324" lon="-2.27966">
        <ele>22.200000762939</ele>
        <time>2022-08-21T08:51:56.000Z</time>
      </trkpt>
      <trkpt lat="47.28321" lon="-2.27982">
        <ele>22.200000762939</ele>
        <time>2022-08-21T08:51:59.000Z</time>
      </trkpt>
      <trkpt lat="47.28324" lon="-2.28">
        <ele>22.200000762939</ele>
        <time>2022-08-21T08:52:02.000Z</time>
      </trkpt>
      <trkpt lat="47.28325" lon="-2.28007">
        <ele>22.200000762939</ele>
        <time>2022-08-21T08:52:03.000Z</time>
      </trkpt>
      <trkpt lat="47.28326" lon="-2.28022">
        <ele>22.200000762939</ele>
        <time>2022-08-21T08:52:05.000Z</time>
      </trkpt>
      <trkpt lat="47.28327" lon="-2.2803">
        <ele>21.799999237061</ele>
        <time>2022-08-21T08:52:06.000Z</time>
      </trkpt>
      <trkpt lat="47.28328" lon="-2.28039">
        <ele>21.200000762939</ele>
        <time>2022-08-21T08:52:07.000Z</time>
      </trkpt>
      <trkpt lat="47.28329" lon="-2.28049">
        <ele>20.799999237061</ele>
        <time>2022-08-21T08:52:08.000Z</time>
      </trkpt>
      <trkpt lat="47.28329" lon="-2.28059">
        <ele>20.39999961853</ele>
        <time>2022-08-21T08:52:09.000Z</time>
      </trkpt>
      <trkpt lat="47.28329" lon="-2.28069">
        <ele>19.799999237061</ele>
        <time>2022-08-21T08:52:10.000Z</time>
      </trkpt>
      <trkpt lat="47.28329" lon="-2.28077">
        <ele>19.200000762939</ele>
        <time>2022-08-21T08:52:11.000Z</time>
      </trkpt>
      <trkpt lat="47.28329" lon="-2.28081">
        <ele>18.60000038147</ele>
        <time>2022-08-21T08:52:12.000Z</time>
      </trkpt>
      <trkpt lat="47.2833" lon="-2.28085">
        <ele>18</ele>
        <time>2022-08-21T08:52:13.000Z</time>
      </trkpt>
      <trkpt lat="47.28331" lon="-2.28086">
        <ele>17.39999961853</ele>
        <time>2022-08-21T08:52:14.000Z</time>
      </trkpt>
      <trkpt lat="47.28332" lon="-2.28088">
        <ele>17.39999961853</ele>
        <time>2022-08-21T08:52:15.000Z</time>
      </trkpt>
      <trkpt lat="47.28333" lon="-2.28089">
        <ele>17.39999961853</ele>
        <time>2022-08-21T08:52:16.000Z</time>
      </trkpt>
      <trkpt lat="47.2834" lon="-2.2809">
        <ele>17.39999961853</ele>
        <time>2022-08-21T08:52:25.000Z</time>
      </trkpt>
      <trkpt lat="47.28342" lon="-2.28088">
        <ele>17.39999961853</ele>
        <time>2022-08-21T08:52:26.000Z</time>
      </trkpt>
      <trkpt lat="47.28347" lon="-2.28077">
        <ele>17.39999961853</ele>
        <time>2022-08-21T08:52:30.000Z</time>
      </trkpt>
      <trkpt lat="47.28348" lon="-2.28073">
        <ele>17.39999961853</ele>
        <time>2022-08-21T08:52:31.000Z</time>
      </trkpt>
      <trkpt lat="47.28356" lon="-2.28055">
        <ele>17.39999961853</ele>
        <time>2022-08-21T08:52:37.000Z</time>
      </trkpt>
      <trkpt lat="47.28358" lon="-2.28052">
        <ele>18</ele>
        <time>2022-08-21T08:52:38.000Z</time>
      </trkpt>
      <trkpt lat="47.28358" lon="-2.28051">
        <ele>19</ele>
        <time>2022-08-21T08:52:39.000Z</time>
      </trkpt>
      <trkpt lat="47.28361" lon="-2.28048">
        <ele>19.39999961853</ele>
        <time>2022-08-21T08:52:40.000Z</time>
      </trkpt>
      <trkpt lat="47.28362" lon="-2.28046">
        <ele>19.799999237061</ele>
        <time>2022-08-21T08:52:41.000Z</time>
      </trkpt>
      <trkpt lat="47.28365" lon="-2.28044">
        <ele>19.799999237061</ele>
        <time>2022-08-21T08:52:42.000Z</time>
      </trkpt>
      <trkpt lat="47.28367" lon="-2.28041">
        <ele>19.799999237061</ele>
        <time>2022-08-21T08:52:43.000Z</time>
      </trkpt>
      <trkpt lat="47.28368" lon="-2.28037">
        <ele>20.200000762939</ele>
        <time>2022-08-21T08:52:44.000Z</time>
      </trkpt>
      <trkpt lat="47.28369" lon="-2.28035">
        <ele>20.60000038147</ele>
        <time>2022-08-21T08:52:45.000Z</time>
      </trkpt>
      <trkpt lat="47.2837" lon="-2.28032">
        <ele>21</ele>
        <time>2022-08-21T08:52:46.000Z</time>
      </trkpt>
      <trkpt lat="47.28371" lon="-2.2803">
        <ele>21.39999961853</ele>
        <time>2022-08-21T08:52:47.000Z</time>
      </trkpt>
      <trkpt lat="47.28373" lon="-2.28027">
        <ele>21.799999237061</ele>
        <time>2022-08-21T08:52:48.000Z</time>
      </trkpt>
      <trkpt lat="47.28376" lon="-2.28022">
        <ele>21.799999237061</ele>
        <time>2022-08-21T08:52:50.000Z</time>
      </trkpt>
      <trkpt lat="47.28383" lon="-2.28018">
        <ele>21.799999237061</ele>
        <time>2022-08-21T08:52:53.000Z</time>
      </trkpt>
      <trkpt lat="47.28384" lon="-2.28017">
        <ele>21.799999237061</ele>
        <time>2022-08-21T08:52:54.000Z</time>
      </trkpt>
      <trkpt lat="47.28388" lon="-2.28016">
        <ele>21.799999237061</ele>
        <time>2022-08-21T08:52:57.000Z</time>
      </trkpt>
      <trkpt lat="47.2839" lon="-2.28018">
        <ele>21.799999237061</ele>
        <time>2022-08-21T08:53:02.000Z</time>
      </trkpt>
      <trkpt lat="47.2839" lon="-2.28019">
        <ele>21.799999237061</ele>
        <time>2022-08-21T08:53:04.000Z</time>
      </trkpt>
      <trkpt lat="47.2839" lon="-2.28023">
        <ele>21.799999237061</ele>
        <time>2022-08-21T08:53:06.000Z</time>
      </trkpt>
      <trkpt lat="47.28389" lon="-2.28025">
        <ele>21.799999237061</ele>
        <time>2022-08-21T08:53:07.000Z</time>
      </trkpt>
      <trkpt lat="47.28387" lon="-2.28035">
        <ele>21.799999237061</ele>
        <time>2022-08-21T08:53:11.000Z</time>
      </trkpt>
      <trkpt lat="47.28386" lon="-2.2804">
        <ele>21.39999961853</ele>
        <time>2022-08-21T08:53:13.000Z</time>
      </trkpt>
      <trkpt lat="47.28386" lon="-2.28042">
        <ele>21</ele>
        <time>2022-08-21T08:53:14.000Z</time>
      </trkpt>
      <trkpt lat="47.28384" lon="-2.28044">
        <ele>20.60000038147</ele>
        <time>2022-08-21T08:53:15.000Z</time>
      </trkpt>
      <trkpt lat="47.28383" lon="-2.28046">
        <ele>20.200000762939</ele>
        <time>2022-08-21T08:53:16.000Z</time>
      </trkpt>
      <trkpt lat="47.28383" lon="-2.28048">
        <ele>19.799999237061</ele>
        <time>2022-08-21T08:53:17.000Z</time>
      </trkpt>
      <trkpt lat="47.28382" lon="-2.28051">
        <ele>19.39999961853</ele>
        <time>2022-08-21T08:53:18.000Z</time>
      </trkpt>
      <trkpt lat="47.28382" lon="-2.28054">
        <ele>19</ele>
        <time>2022-08-21T08:53:19.000Z</time>
      </trkpt>
      <trkpt lat="47.28382" lon="-2.28055">
        <ele>18.60000038147</ele>
        <time>2022-08-21T08:53:20.000Z</time>
      </trkpt>
      <trkpt lat="47.28382" lon="-2.28056">
        <ele>18.200000762939</ele>
        <time>2022-08-21T08:53:21.000Z</time>
      </trkpt>
      <trkpt lat="47.28382" lon="-2.28057">
        <ele>17.60000038147</ele>
        <time>2022-08-21T08:53:22.000Z</time>
      </trkpt>
      <trkpt lat="47.28384" lon="-2.28059">
        <ele>17.60000038147</ele>
        <time>2022-08-21T08:53:25.000Z</time>
      </trkpt>
      <trkpt lat="47.28384" lon="-2.28059">
        <ele>17.60000038147</ele>
        <time>2022-08-21T08:53:26.000Z</time>
      </trkpt>
      <trkpt lat="47.28385" lon="-2.2806">
        <ele>17.60000038147</ele>
        <time>2022-08-21T08:53:28.000Z</time>
      </trkpt>
      <trkpt lat="47.28386" lon="-2.28065">
        <ele>17.60000038147</ele>
        <time>2022-08-21T08:53:31.000Z</time>
      </trkpt>
      <trkpt lat="47.28394" lon="-2.28071">
        <ele>17.60000038147</ele>
        <time>2022-08-21T08:53:35.000Z</time>
      </trkpt>
      <trkpt lat="47.28404" lon="-2.28073">
        <ele>17.60000038147</ele>
        <time>2022-08-21T08:53:39.000Z</time>
      </trkpt>
      <trkpt lat="47.28413" lon="-2.28079">
        <ele>17.60000038147</ele>
        <time>2022-08-21T08:53:43.000Z</time>
      </trkpt>
      <trkpt lat="47.28421" lon="-2.28079">
        <ele>17.60000038147</ele>
        <time>2022-08-21T08:53:47.000Z</time>
      </trkpt>
      <trkpt lat="47.28429" lon="-2.28083">
        <ele>17.60000038147</ele>
        <time>2022-08-21T08:53:51.000Z</time>
      </trkpt>
      <trkpt lat="47.2844" lon="-2.28086">
        <ele>17.60000038147</ele>
        <time>2022-08-21T08:53:55.000Z</time>
      </trkpt>
      <trkpt lat="47.28447" lon="-2.28083">
        <ele>17.60000038147</ele>
        <time>2022-08-21T08:53:57.000Z</time>
      </trkpt>
      <trkpt lat="47.28453" lon="-2.28081">
        <ele>17.60000038147</ele>
        <time>2022-08-21T08:53:59.000Z</time>
      </trkpt>
      <trkpt lat="47.2846" lon="-2.28076">
        <ele>17.60000038147</ele>
        <time>2022-08-21T08:54:02.000Z</time>
      </trkpt>
      <trkpt lat="47.2846" lon="-2.28075">
        <ele>17.60000038147</ele>
        <time>2022-08-21T08:54:03.000Z</time>
      </trkpt>
      <trkpt lat="47.28459" lon="-2.2807">
        <ele>17.60000038147</ele>
        <time>2022-08-21T08:54:06.000Z</time>
      </trkpt>
      <trkpt lat="47.28459" lon="-2.28066">
        <ele>17.60000038147</ele>
        <time>2022-08-21T08:54:08.000Z</time>
      </trkpt>
      <trkpt lat="47.28462" lon="-2.2806">
        <ele>17.60000038147</ele>
        <time>2022-08-21T08:54:11.000Z</time>
      </trkpt>
      <trkpt lat="47.28462" lon="-2.28058">
        <ele>18.200000762939</ele>
        <time>2022-08-21T08:54:12.000Z</time>
      </trkpt>
      <trkpt lat="47.28465" lon="-2.28056">
        <ele>18.60000038147</ele>
        <time>2022-08-21T08:54:13.000Z</time>
      </trkpt>
      <trkpt lat="47.28468" lon="-2.28054">
        <ele>19</ele>
        <time>2022-08-21T08:54:14.000Z</time>
      </trkpt>
      <trkpt lat="47.2847" lon="-2.28052">
        <ele>19.39999961853</ele>
        <time>2022-08-21T08:54:15.000Z</time>
      </trkpt>
      <trkpt lat="47.28474" lon="-2.28049">
        <ele>19.799999237061</ele>
        <time>2022-08-21T08:54:16.000Z</time>
      </trkpt>
      <trkpt lat="47.28477" lon="-2.28048">
        <ele>19.799999237061</ele>
        <time>2022-08-21T08:54:17.000Z</time>
      </trkpt>
      <trkpt lat="47.28483" lon="-2.28048">
        <ele>19.799999237061</ele>
        <time>2022-08-21T08:54:19.000Z</time>
      </trkpt>
      <trkpt lat="47.28495" lon="-2.28052">
        <ele>19.39999961853</ele>
        <time>2022-08-21T08:54:23.000Z</time>
      </trkpt>
      <trkpt lat="47.28498" lon="-2.28052">
        <ele>19</ele>
        <time>2022-08-21T08:54:24.000Z</time>
      </trkpt>
      <trkpt lat="47.28501" lon="-2.28051">
        <ele>18.60000038147</ele>
        <time>2022-08-21T08:54:25.000Z</time>
      </trkpt>
      <trkpt lat="47.28506" lon="-2.2805">
        <ele>18.200000762939</ele>
        <time>2022-08-21T08:54:26.000Z</time>
      </trkpt>
      <trkpt lat="47.2851" lon="-2.28051">
        <ele>17.799999237061</ele>
        <time>2022-08-21T08:54:27.000Z</time>
      </trkpt>
      <trkpt lat="47.28514" lon="-2.28052">
        <ele>17.200000762939</ele>
        <time>2022-08-21T08:54:28.000Z</time>
      </trkpt>
      <trkpt lat="47.28517" lon="-2.28051">
        <ele>16.799999237061</ele>
        <time>2022-08-21T08:54:29.000Z</time>
      </trkpt>
      <trkpt lat="47.2852" lon="-2.2805">
        <ele>16.200000762939</ele>
        <time>2022-08-21T08:54:30.000Z</time>
      </trkpt>
      <trkpt lat="47.28524" lon="-2.28051">
        <ele>15.800000190735</ele>
        <time>2022-08-21T08:54:31.000Z</time>
      </trkpt>
      <trkpt lat="47.28527" lon="-2.28053">
        <ele>15.199999809265</ele>
        <time>2022-08-21T08:54:32.000Z</time>
      </trkpt>
      <trkpt lat="47.28532" lon="-2.28054">
        <ele>14.800000190735</ele>
        <time>2022-08-21T08:54:33.000Z</time>
      </trkpt>
      <trkpt lat="47.28537" lon="-2.28054">
        <ele>14.199999809265</ele>
        <time>2022-08-21T08:54:34.000Z</time>
      </trkpt>
      <trkpt lat="47.28542" lon="-2.28052">
        <ele>13.800000190735</ele>
        <time>2022-08-21T08:54:35.000Z</time>
      </trkpt>
      <trkpt lat="47.28546" lon="-2.28051">
        <ele>13.39999961853</ele>
        <time>2022-08-21T08:54:36.000Z</time>
      </trkpt>
      <trkpt lat="47.28549" lon="-2.2805">
        <ele>12.800000190735</ele>
        <time>2022-08-21T08:54:37.000Z</time>
      </trkpt>
      <trkpt lat="47.28556" lon="-2.28048">
        <ele>12.800000190735</ele>
        <time>2022-08-21T08:54:39.000Z</time>
      </trkpt>
      <trkpt lat="47.28571" lon="-2.28036">
        <ele>12.800000190735</ele>
        <time>2022-08-21T08:54:44.000Z</time>
      </trkpt>
      <trkpt lat="47.28587" lon="-2.28018">
        <ele>12.800000190735</ele>
        <time>2022-08-21T08:54:50.000Z</time>
      </trkpt>
      <trkpt lat="47.28592" lon="-2.28004">
        <ele>12.800000190735</ele>
        <time>2022-08-21T08:54:54.000Z</time>
      </trkpt>
      <trkpt lat="47.28595" lon="-2.27991">
        <ele>12.39999961853</ele>
        <time>2022-08-21T08:54:57.000Z</time>
      </trkpt>
      <trkpt lat="47.28597" lon="-2.27986">
        <ele>12</ele>
        <time>2022-08-21T08:54:58.000Z</time>
      </trkpt>
      <trkpt lat="47.28599" lon="-2.27982">
        <ele>11.60000038147</ele>
        <time>2022-08-21T08:54:59.000Z</time>
      </trkpt>
      <trkpt lat="47.28601" lon="-2.27979">
        <ele>11.199999809265</ele>
        <time>2022-08-21T08:55:00.000Z</time>
      </trkpt>
      <trkpt lat="47.28603" lon="-2.27975">
        <ele>10.800000190735</ele>
        <time>2022-08-21T08:55:01.000Z</time>
      </trkpt>
      <trkpt lat="47.28609" lon="-2.27969">
        <ele>10.800000190735</ele>
        <time>2022-08-21T08:55:05.000Z</time>
      </trkpt>
      <trkpt lat="47.28609" lon="-2.27968">
        <ele>10.800000190735</ele>
        <time>2022-08-21T08:55:06.000Z</time>
      </trkpt>
      <trkpt lat="47.28612" lon="-2.27953">
        <ele>2.5999999046326</ele>
        <time>2022-08-21T09:04:26.000Z</time>
      </trkpt>
      <trkpt lat="47.28612" lon="-2.27951">
        <ele>2.5999999046326</ele>
        <time>2022-08-21T09:04:27.000Z</time>
      </trkpt>
      <trkpt lat="47.28613" lon="-2.27928">
        <ele>2.5999999046326</ele>
        <time>2022-08-21T09:04:34.000Z</time>
      </trkpt>
      <trkpt lat="47.2862" lon="-2.27899">
        <ele>2.5999999046326</ele>
        <time>2022-08-21T09:04:40.000Z</time>
      </trkpt>
      <trkpt lat="47.28628" lon="-2.2786">
        <ele>2.5999999046326</ele>
        <time>2022-08-21T09:04:47.000Z</time>
      </trkpt>
      <trkpt lat="47.28633" lon="-2.27833">
        <ele>2.5999999046326</ele>
        <time>2022-08-21T09:04:53.000Z</time>
      </trkpt>
      <trkpt lat="47.2864" lon="-2.27803">
        <ele>2.5999999046326</ele>
        <time>2022-08-21T09:04:59.000Z</time>
      </trkpt>
      <trkpt lat="47.28648" lon="-2.27779">
        <ele>2.5999999046326</ele>
        <time>2022-08-21T09:05:04.000Z</time>
      </trkpt>
      <trkpt lat="47.28666" lon="-2.27745">
        <ele>2.5999999046326</ele>
        <time>2022-08-21T09:05:11.000Z</time>
      </trkpt>
      <trkpt lat="47.28684" lon="-2.27713">
        <ele>2.5999999046326</ele>
        <time>2022-08-21T09:05:19.000Z</time>
      </trkpt>
      <trkpt lat="47.28698" lon="-2.27688">
        <ele>2.5999999046326</ele>
        <time>2022-08-21T09:05:25.000Z</time>
      </trkpt>
      <trkpt lat="47.28709" lon="-2.27667">
        <ele>2.5999999046326</ele>
        <time>2022-08-21T09:05:30.000Z</time>
      </trkpt>
      <trkpt lat="47.28725" lon="-2.27642">
        <ele>2.5999999046326</ele>
        <time>2022-08-21T09:05:36.000Z</time>
      </trkpt>
      <trkpt lat="47.28738" lon="-2.27622">
        <ele>2.2000000476837</ele>
        <time>2022-08-21T09:05:41.000Z</time>
      </trkpt>
      <trkpt lat="47.28741" lon="-2.27618">
        <ele>1.7999999523163</ele>
        <time>2022-08-21T09:05:42.000Z</time>
      </trkpt>
      <trkpt lat="47.28745" lon="-2.27613">
        <ele>1</ele>
        <time>2022-08-21T09:05:43.000Z</time>
      </trkpt>
      <trkpt lat="47.28749" lon="-2.27608">
        <ele>0.60000002384186</ele>
        <time>2022-08-21T09:05:44.000Z</time>
      </trkpt>
      <trkpt lat="47.28758" lon="-2.27594">
        <ele>0.60000002384186</ele>
        <time>2022-08-21T09:05:47.000Z</time>
      </trkpt>
      <trkpt lat="47.28765" lon="-2.27585">
        <ele>0.60000002384186</ele>
        <time>2022-08-21T09:05:49.000Z</time>
      </trkpt>
      <trkpt lat="47.28783" lon="-2.27566">
        <ele>0.60000002384186</ele>
        <time>2022-08-21T09:05:53.000Z</time>
      </trkpt>
      <trkpt lat="47.28791" lon="-2.27554">
        <ele>0.60000002384186</ele>
        <time>2022-08-21T09:05:55.000Z</time>
      </trkpt>
      <trkpt lat="47.28801" lon="-2.27539">
        <ele>0.60000002384186</ele>
        <time>2022-08-21T09:05:58.000Z</time>
      </trkpt>
      <trkpt lat="47.28816" lon="-2.27536">
        <ele>0.60000002384186</ele>
        <time>2022-08-21T09:06:01.000Z</time>
      </trkpt>
      <trkpt lat="47.28821" lon="-2.27535">
        <ele>0.60000002384186</ele>
        <time>2022-08-21T09:06:02.000Z</time>
      </trkpt>
      <trkpt lat="47.28842" lon="-2.27533">
        <ele>0.60000002384186</ele>
        <time>2022-08-21T09:06:06.000Z</time>
      </trkpt>
      <trkpt lat="47.28847" lon="-2.27532">
        <ele>0.60000002384186</ele>
        <time>2022-08-21T09:06:07.000Z</time>
      </trkpt>
      <trkpt lat="47.28879" lon="-2.27527">
        <ele>0.60000002384186</ele>
        <time>2022-08-21T09:06:13.000Z</time>
      </trkpt>
      <trkpt lat="47.28913" lon="-2.27521">
        <ele>0.60000002384186</ele>
        <time>2022-08-21T09:06:19.000Z</time>
      </trkpt>
      <trkpt lat="47.28936" lon="-2.27519">
        <ele>0.60000002384186</ele>
        <time>2022-08-21T09:06:23.000Z</time>
      </trkpt>
      <trkpt lat="47.28947" lon="-2.2752">
        <ele>0.60000002384186</ele>
        <time>2022-08-21T09:06:25.000Z</time>
      </trkpt>
      <trkpt lat="47.28979" lon="-2.2752">
        <ele>0.60000002384186</ele>
        <time>2022-08-21T09:06:31.000Z</time>
      </trkpt>
      <trkpt lat="47.29014" lon="-2.2752">
        <ele>0.60000002384186</ele>
        <time>2022-08-21T09:06:37.000Z</time>
      </trkpt>
      <trkpt lat="47.29065" lon="-2.27524">
        <ele>0.60000002384186</ele>
        <time>2022-08-21T09:06:46.000Z</time>
      </trkpt>
      <trkpt lat="47.29098" lon="-2.27527">
        <ele>0.60000002384186</ele>
        <time>2022-08-21T09:06:53.000Z</time>
      </trkpt>
      <trkpt lat="47.291" lon="-2.27522">
        <ele>0.60000002384186</ele>
        <time>2022-08-21T09:06:55.000Z</time>
      </trkpt>
      <trkpt lat="47.291" lon="-2.27511">
        <ele>0.60000002384186</ele>
        <time>2022-08-21T09:06:57.000Z</time>
      </trkpt>
      <trkpt lat="47.29101" lon="-2.27498">
        <ele>0.60000002384186</ele>
        <time>2022-08-21T09:06:59.000Z</time>
      </trkpt>
      <trkpt lat="47.291" lon="-2.27482">
        <ele>0.60000002384186</ele>
        <time>2022-08-21T09:07:01.000Z</time>
      </trkpt>
      <trkpt lat="47.29104" lon="-2.27445">
        <ele>0.60000002384186</ele>
        <time>2022-08-21T09:07:06.000Z</time>
      </trkpt>
      <trkpt lat="47.29104" lon="-2.27428">
        <ele>0.60000002384186</ele>
        <time>2022-08-21T09:07:08.000Z</time>
      </trkpt>
      <trkpt lat="47.291" lon="-2.27404">
        <ele>0.60000002384186</ele>
        <time>2022-08-21T09:07:11.000Z</time>
      </trkpt>
      <trkpt lat="47.29095" lon="-2.27384">
        <ele>0.60000002384186</ele>
        <time>2022-08-21T09:07:14.000Z</time>
      </trkpt>
      <trkpt lat="47.29094" lon="-2.27369">
        <ele>0.60000002384186</ele>
        <time>2022-08-21T09:07:16.000Z</time>
      </trkpt>
      <trkpt lat="47.29096" lon="-2.27356">
        <ele>0.60000002384186</ele>
        <time>2022-08-21T09:07:18.000Z</time>
      </trkpt>
      <trkpt lat="47.29099" lon="-2.27343">
        <ele>0.20000000298023</ele>
        <time>2022-08-21T09:07:20.000Z</time>
      </trkpt>
      <trkpt lat="47.29101" lon="-2.27337">
        <ele>-0.20000000298023</ele>
        <time>2022-08-21T09:07:21.000Z</time>
      </trkpt>
      <trkpt lat="47.29102" lon="-2.2733">
        <ele>-1</ele>
        <time>2022-08-21T09:07:22.000Z</time>
      </trkpt>
      <trkpt lat="47.29103" lon="-2.27323">
        <ele>-1.3999999761581</ele>
        <time>2022-08-21T09:07:23.000Z</time>
      </trkpt>
      <trkpt lat="47.29104" lon="-2.27319">
        <ele>-1.3999999761581</ele>
        <time>2022-08-21T09:07:24.000Z</time>
      </trkpt>
      <trkpt lat="47.29111" lon="-2.27286">
        <ele>-1.3999999761581</ele>
        <time>2022-08-21T09:07:31.000Z</time>
      </trkpt>
      <trkpt lat="47.29114" lon="-2.27265">
        <ele>-1.3999999761581</ele>
        <time>2022-08-21T09:07:36.000Z</time>
      </trkpt>
      <trkpt lat="47.29118" lon="-2.27237">
        <ele>-1.3999999761581</ele>
        <time>2022-08-21T09:07:42.000Z</time>
      </trkpt>
      <trkpt lat="47.29128" lon="-2.2721">
        <ele>-1.3999999761581</ele>
        <time>2022-08-21T09:07:47.000Z</time>
      </trkpt>
      <trkpt lat="47.29143" lon="-2.272">
        <ele>-1.3999999761581</ele>
        <time>2022-08-21T09:07:51.000Z</time>
      </trkpt>
      <trkpt lat="47.29146" lon="-2.27199">
        <ele>-1.3999999761581</ele>
        <time>2022-08-21T09:07:52.000Z</time>
      </trkpt>
      <trkpt lat="47.29153" lon="-2.27197">
        <ele>-1.3999999761581</ele>
        <time>2022-08-21T09:07:55.000Z</time>
      </trkpt>
      <trkpt lat="47.29154" lon="-2.27196">
        <ele>-1.3999999761581</ele>
        <time>2022-08-21T09:07:56.000Z</time>
      </trkpt>
      <trkpt lat="47.29157" lon="-2.27194">
        <ele>-1.3999999761581</ele>
        <time>2022-08-21T09:07:57.000Z</time>
      </trkpt>
      <trkpt lat="47.29165" lon="-2.27194">
        <ele>-1.3999999761581</ele>
        <time>2022-08-21T09:08:00.000Z</time>
      </trkpt>
      <trkpt lat="47.29186" lon="-2.27188">
        <ele>-1.3999999761581</ele>
        <time>2022-08-21T09:08:06.000Z</time>
      </trkpt>
      <trkpt lat="47.29205" lon="-2.27183">
        <ele>-1.3999999761581</ele>
        <time>2022-08-21T09:08:12.000Z</time>
      </trkpt>
      <trkpt lat="47.29216" lon="-2.27168">
        <ele>-1.3999999761581</ele>
        <time>2022-08-21T09:08:16.000Z</time>
      </trkpt>
      <trkpt lat="47.29219" lon="-2.27148">
        <ele>-1.3999999761581</ele>
        <time>2022-08-21T09:08:20.000Z</time>
      </trkpt>
      <trkpt lat="47.29223" lon="-2.2712">
        <ele>-1.3999999761581</ele>
        <time>2022-08-21T09:08:25.000Z</time>
      </trkpt>
      <trkpt lat="47.29219" lon="-2.27092">
        <ele>-1.3999999761581</ele>
        <time>2022-08-21T09:08:30.000Z</time>
      </trkpt>
      <trkpt lat="47.29219" lon="-2.2708">
        <ele>-1.3999999761581</ele>
        <time>2022-08-21T09:08:32.000Z</time>
      </trkpt>
      <trkpt lat="47.29218" lon="-2.27067">
        <ele>-1.3999999761581</ele>
        <time>2022-08-21T09:08:34.000Z</time>
      </trkpt>
      <trkpt lat="47.29213" lon="-2.27033">
        <ele>-1.3999999761581</ele>
        <time>2022-08-21T09:08:40.000Z</time>
      </trkpt>
      <trkpt lat="47.29213" lon="-2.2702">
        <ele>-1.3999999761581</ele>
        <time>2022-08-21T09:08:42.000Z</time>
      </trkpt>
      <trkpt lat="47.29213" lon="-2.27006">
        <ele>-1.3999999761581</ele>
        <time>2022-08-21T09:08:44.000Z</time>
      </trkpt>
      <trkpt lat="47.29213" lon="-2.26991">
        <ele>-1.3999999761581</ele>
        <time>2022-08-21T09:08:46.000Z</time>
      </trkpt>
      <trkpt lat="47.29216" lon="-2.26971">
        <ele>-1.3999999761581</ele>
        <time>2022-08-21T09:08:49.000Z</time>
      </trkpt>
      <trkpt lat="47.29227" lon="-2.26947">
        <ele>-1.3999999761581</ele>
        <time>2022-08-21T09:08:53.000Z</time>
      </trkpt>
      <trkpt lat="47.29228" lon="-2.26941">
        <ele>-1.3999999761581</ele>
        <time>2022-08-21T09:08:55.000Z</time>
      </trkpt>
      <trkpt lat="47.29229" lon="-2.26938">
        <ele>-1.3999999761581</ele>
        <time>2022-08-21T09:09:17.000Z</time>
      </trkpt>
      <trkpt lat="47.29229" lon="-2.26913">
        <ele>-1.3999999761581</ele>
        <time>2022-08-21T09:09:22.000Z</time>
      </trkpt>
      <trkpt lat="47.29228" lon="-2.26905">
        <ele>-1.3999999761581</ele>
        <time>2022-08-21T09:09:24.000Z</time>
      </trkpt>
      <trkpt lat="47.29226" lon="-2.2688">
        <ele>-1.3999999761581</ele>
        <time>2022-08-21T09:09:29.000Z</time>
      </trkpt>
      <trkpt lat="47.29221" lon="-2.26856">
        <ele>-1.3999999761581</ele>
        <time>2022-08-21T09:09:33.000Z</time>
      </trkpt>
      <trkpt lat="47.2922" lon="-2.26842">
        <ele>-1.3999999761581</ele>
        <time>2022-08-21T09:09:35.000Z</time>
      </trkpt>
      <trkpt lat="47.29216" lon="-2.26803">
        <ele>-1.3999999761581</ele>
        <time>2022-08-21T09:09:41.000Z</time>
      </trkpt>
      <trkpt lat="47.29207" lon="-2.26753">
        <ele>-1.3999999761581</ele>
        <time>2022-08-21T09:09:48.000Z</time>
      </trkpt>
      <trkpt lat="47.29192" lon="-2.26694">
        <ele>-1.3999999761581</ele>
        <time>2022-08-21T09:09:56.000Z</time>
      </trkpt>
      <trkpt lat="47.29173" lon="-2.26631">
        <ele>-1.3999999761581</ele>
        <time>2022-08-21T09:10:05.000Z</time>
      </trkpt>
      <trkpt lat="47.29167" lon="-2.26611">
        <ele>-1.3999999761581</ele>
        <time>2022-08-21T09:10:08.000Z</time>
      </trkpt>
      <trkpt lat="47.29161" lon="-2.266">
        <ele>-1.3999999761581</ele>
        <time>2022-08-21T09:10:10.000Z</time>
      </trkpt>
      <trkpt lat="47.29154" lon="-2.26591">
        <ele>-1</ele>
        <time>2022-08-21T09:10:12.000Z</time>
      </trkpt>
      <trkpt lat="47.2915" lon="-2.26588">
        <ele>-0.60000002384186</ele>
        <time>2022-08-21T09:10:13.000Z</time>
      </trkpt>
      <trkpt lat="47.29146" lon="-2.26585">
        <ele>-0.20000000298023</ele>
        <time>2022-08-21T09:10:14.000Z</time>
      </trkpt>
      <trkpt lat="47.29141" lon="-2.26583">
        <ele>0.60000002384186</ele>
        <time>2022-08-21T09:10:15.000Z</time>
      </trkpt>
      <trkpt lat="47.29137" lon="-2.26581">
        <ele>0.60000002384186</ele>
        <time>2022-08-21T09:10:16.000Z</time>
      </trkpt>
      <trkpt lat="47.29122" lon="-2.26583">
        <ele>0.60000002384186</ele>
        <time>2022-08-21T09:10:19.000Z</time>
      </trkpt>
      <trkpt lat="47.29103" lon="-2.26585">
        <ele>0.60000002384186</ele>
        <time>2022-08-21T09:10:24.000Z</time>
      </trkpt>
      <trkpt lat="47.291" lon="-2.26585">
        <ele>1.2000000476837</ele>
        <time>2022-08-21T09:10:25.000Z</time>
      </trkpt>
      <trkpt lat="47.29096" lon="-2.26585">
        <ele>1.6000000238419</ele>
        <time>2022-08-21T09:10:26.000Z</time>
      </trkpt>
      <trkpt lat="47.29092" lon="-2.26586">
        <ele>2</ele>
        <time>2022-08-21T09:10:27.000Z</time>
      </trkpt>
      <trkpt lat="47.29089" lon="-2.26586">
        <ele>2.4000000953674</ele>
        <time>2022-08-21T09:10:28.000Z</time>
      </trkpt>
      <trkpt lat="47.29086" lon="-2.26586">
        <ele>2.7999999523163</ele>
        <time>2022-08-21T09:10:29.000Z</time>
      </trkpt>
      <trkpt lat="47.29069" lon="-2.26586">
        <ele>3.2000000476837</ele>
        <time>2022-08-21T09:10:35.000Z</time>
      </trkpt>
      <trkpt lat="47.29067" lon="-2.26587">
        <ele>3.5999999046326</ele>
        <time>2022-08-21T09:10:36.000Z</time>
      </trkpt>
      <trkpt lat="47.29064" lon="-2.26587">
        <ele>4</ele>
        <time>2022-08-21T09:10:37.000Z</time>
      </trkpt>
      <trkpt lat="47.29061" lon="-2.26587">
        <ele>4.4000000953674</ele>
        <time>2022-08-21T09:10:38.000Z</time>
      </trkpt>
      <trkpt lat="47.29058" lon="-2.26587">
        <ele>4.8000001907349</ele>
        <time>2022-08-21T09:10:39.000Z</time>
      </trkpt>
      <trkpt lat="47.29055" lon="-2.26587">
        <ele>4.8000001907349</ele>
        <time>2022-08-21T09:10:40.000Z</time>
      </trkpt>
      <trkpt lat="47.29045" lon="-2.26586">
        <ele>4.8000001907349</ele>
        <time>2022-08-21T09:10:44.000Z</time>
      </trkpt>
      <trkpt lat="47.29043" lon="-2.26583">
        <ele>5.1999998092651</ele>
        <time>2022-08-21T09:10:45.000Z</time>
      </trkpt>
      <trkpt lat="47.29041" lon="-2.2658">
        <ele>5.5999999046326</ele>
        <time>2022-08-21T09:10:46.000Z</time>
      </trkpt>
      <trkpt lat="47.2904" lon="-2.26576">
        <ele>6</ele>
        <time>2022-08-21T09:10:47.000Z</time>
      </trkpt>
      <trkpt lat="47.29038" lon="-2.26571">
        <ele>6.5999999046326</ele>
        <time>2022-08-21T09:10:48.000Z</time>
      </trkpt>
      <trkpt lat="47.29037" lon="-2.26566">
        <ele>7</ele>
        <time>2022-08-21T09:10:49.000Z</time>
      </trkpt>
      <trkpt lat="47.29036" lon="-2.26561">
        <ele>7</ele>
        <time>2022-08-21T09:10:50.000Z</time>
      </trkpt>
      <trkpt lat="47.29026" lon="-2.26522">
        <ele>7</ele>
        <time>2022-08-21T09:10:57.000Z</time>
      </trkpt>
      <trkpt lat="47.29022" lon="-2.26498">
        <ele>7</ele>
        <time>2022-08-21T09:11:02.000Z</time>
      </trkpt>
      <trkpt lat="47.29017" lon="-2.26474">
        <ele>7</ele>
        <time>2022-08-21T09:11:07.000Z</time>
      </trkpt>
      <trkpt lat="47.29014" lon="-2.26457">
        <ele>7</ele>
        <time>2022-08-21T09:11:12.000Z</time>
      </trkpt>
      <trkpt lat="47.29014" lon="-2.26457">
        <ele>7</ele>
        <time>2022-08-21T09:11:13.000Z</time>
      </trkpt>
      <trkpt lat="47.29013" lon="-2.26454">
        <ele>7</ele>
        <time>2022-08-21T09:11:27.000Z</time>
      </trkpt>
      <trkpt lat="47.29013" lon="-2.26452">
        <ele>7</ele>
        <time>2022-08-21T09:11:28.000Z</time>
      </trkpt>
      <trkpt lat="47.29011" lon="-2.26437">
        <ele>7.4000000953674</ele>
        <time>2022-08-21T09:11:32.000Z</time>
      </trkpt>
      <trkpt lat="47.29011" lon="-2.26433">
        <ele>7.8000001907349</ele>
        <time>2022-08-21T09:11:33.000Z</time>
      </trkpt>
      <trkpt lat="47.29011" lon="-2.26428">
        <ele>8.1999998092651</ele>
        <time>2022-08-21T09:11:34.000Z</time>
      </trkpt>
      <trkpt lat="47.29011" lon="-2.26424">
        <ele>8.6000003814697</ele>
        <time>2022-08-21T09:11:35.000Z</time>
      </trkpt>
      <trkpt lat="47.29011" lon="-2.2642">
        <ele>9</ele>
        <time>2022-08-21T09:11:36.000Z</time>
      </trkpt>
      <trkpt lat="47.29011" lon="-2.26404">
        <ele>9.3999996185303</ele>
        <time>2022-08-21T09:11:40.000Z</time>
      </trkpt>
      <trkpt lat="47.29011" lon="-2.264">
        <ele>9.8000001907349</ele>
        <time>2022-08-21T09:11:41.000Z</time>
      </trkpt>
      <trkpt lat="47.29011" lon="-2.26396">
        <ele>10.199999809265</ele>
        <time>2022-08-21T09:11:42.000Z</time>
      </trkpt>
      <trkpt lat="47.29012" lon="-2.26392">
        <ele>10.60000038147</ele>
        <time>2022-08-21T09:11:43.000Z</time>
      </trkpt>
      <trkpt lat="47.29013" lon="-2.26387">
        <ele>11</ele>
        <time>2022-08-21T09:11:44.000Z</time>
      </trkpt>
      <trkpt lat="47.29014" lon="-2.26382">
        <ele>11</ele>
        <time>2022-08-21T09:11:45.000Z</time>
      </trkpt>
      <trkpt lat="47.29027" lon="-2.26363">
        <ele>11</ele>
        <time>2022-08-21T09:11:49.000Z</time>
      </trkpt>
      <trkpt lat="47.29052" lon="-2.26336">
        <ele>11</ele>
        <time>2022-08-21T09:11:55.000Z</time>
      </trkpt>
      <trkpt lat="47.29056" lon="-2.2633">
        <ele>11</ele>
        <time>2022-08-21T09:11:56.000Z</time>
      </trkpt>
      <trkpt lat="47.29067" lon="-2.26303">
        <ele>11</ele>
        <time>2022-08-21T09:12:00.000Z</time>
      </trkpt>
      <trkpt lat="47.29077" lon="-2.26253">
        <ele>11</ele>
        <time>2022-08-21T09:12:06.000Z</time>
      </trkpt>
      <trkpt lat="47.29092" lon="-2.26173">
        <ele>11</ele>
        <time>2022-08-21T09:12:16.000Z</time>
      </trkpt>
      <trkpt lat="47.29098" lon="-2.2613">
        <ele>11</ele>
        <time>2022-08-21T09:12:22.000Z</time>
      </trkpt>
      <trkpt lat="47.29104" lon="-2.26115">
        <ele>11</ele>
        <time>2022-08-21T09:12:25.000Z</time>
      </trkpt>
      <trkpt lat="47.29103" lon="-2.26098">
        <ele>11</ele>
        <time>2022-08-21T09:12:28.000Z</time>
      </trkpt>
      <trkpt lat="47.29099" lon="-2.26088">
        <ele>11</ele>
        <time>2022-08-21T09:12:30.000Z</time>
      </trkpt>
      <trkpt lat="47.29098" lon="-2.26082">
        <ele>10.60000038147</ele>
        <time>2022-08-21T09:12:31.000Z</time>
      </trkpt>
      <trkpt lat="47.29096" lon="-2.26076">
        <ele>10.199999809265</ele>
        <time>2022-08-21T09:12:32.000Z</time>
      </trkpt>
      <trkpt lat="47.29093" lon="-2.2607">
        <ele>9.8000001907349</ele>
        <time>2022-08-21T09:12:33.000Z</time>
      </trkpt>
      <trkpt lat="47.29091" lon="-2.26063">
        <ele>9.3999996185303</ele>
        <time>2022-08-21T09:12:34.000Z</time>
      </trkpt>
      <trkpt lat="47.29088" lon="-2.26056">
        <ele>9</ele>
        <time>2022-08-21T09:12:35.000Z</time>
      </trkpt>
      <trkpt lat="47.29079" lon="-2.26028">
        <ele>9</ele>
        <time>2022-08-21T09:12:39.000Z</time>
      </trkpt>
      <trkpt lat="47.29078" lon="-2.2602">
        <ele>9</ele>
        <time>2022-08-21T09:12:40.000Z</time>
      </trkpt>
      <trkpt lat="47.2908" lon="-2.26001">
        <ele>9</ele>
        <time>2022-08-21T09:12:43.000Z</time>
      </trkpt>
      <trkpt lat="47.29093" lon="-2.25986">
        <ele>9</ele>
        <time>2022-08-21T09:12:47.000Z</time>
      </trkpt>
      <trkpt lat="47.29101" lon="-2.25979">
        <ele>9</ele>
        <time>2022-08-21T09:12:49.000Z</time>
      </trkpt>
      <trkpt lat="47.29106" lon="-2.25976">
        <ele>9</ele>
        <time>2022-08-21T09:12:50.000Z</time>
      </trkpt>
      <trkpt lat="47.29115" lon="-2.25974">
        <ele>9</ele>
        <time>2022-08-21T09:12:52.000Z</time>
      </trkpt>
      <trkpt lat="47.29125" lon="-2.25974">
        <ele>9</ele>
        <time>2022-08-21T09:12:54.000Z</time>
      </trkpt>
      <trkpt lat="47.29146" lon="-2.25977">
        <ele>9</ele>
        <time>2022-08-21T09:12:58.000Z</time>
      </trkpt>
      <trkpt lat="47.29176" lon="-2.25977">
        <ele>9</ele>
        <time>2022-08-21T09:13:04.000Z</time>
      </trkpt>
      <trkpt lat="47.29193" lon="-2.25976">
        <ele>9</ele>
        <time>2022-08-21T09:13:08.000Z</time>
      </trkpt>
      <trkpt lat="47.29206" lon="-2.25973">
        <ele>9</ele>
        <time>2022-08-21T09:13:11.000Z</time>
      </trkpt>
      <trkpt lat="47.29218" lon="-2.25969">
        <ele>9</ele>
        <time>2022-08-21T09:13:14.000Z</time>
      </trkpt>
      <trkpt lat="47.29221" lon="-2.25966">
        <ele>9</ele>
        <time>2022-08-21T09:13:15.000Z</time>
      </trkpt>
      <trkpt lat="47.29239" lon="-2.25953">
        <ele>9</ele>
        <time>2022-08-21T09:13:21.000Z</time>
      </trkpt>
      <trkpt lat="47.29254" lon="-2.25944">
        <ele>9</ele>
        <time>2022-08-21T09:13:26.000Z</time>
      </trkpt>
      <trkpt lat="47.29273" lon="-2.25937">
        <ele>9</ele>
        <time>2022-08-21T09:13:32.000Z</time>
      </trkpt>
      <trkpt lat="47.2929" lon="-2.25925">
        <ele>9</ele>
        <time>2022-08-21T09:13:37.000Z</time>
      </trkpt>
      <trkpt lat="47.293" lon="-2.25914">
        <ele>8.6000003814697</ele>
        <time>2022-08-21T09:13:40.000Z</time>
      </trkpt>
      <trkpt lat="47.29301" lon="-2.25911">
        <ele>8.1999998092651</ele>
        <time>2022-08-21T09:13:41.000Z</time>
      </trkpt>
      <trkpt lat="47.29302" lon="-2.25909">
        <ele>7.8000001907349</ele>
        <time>2022-08-21T09:13:42.000Z</time>
      </trkpt>
      <trkpt lat="47.29302" lon="-2.25907">
        <ele>7.4000000953674</ele>
        <time>2022-08-21T09:13:43.000Z</time>
      </trkpt>
      <trkpt lat="47.29301" lon="-2.25904">
        <ele>7</ele>
        <time>2022-08-21T09:13:44.000Z</time>
      </trkpt>
      <trkpt lat="47.29293" lon="-2.25891">
        <ele>7</ele>
        <time>2022-08-21T09:13:48.000Z</time>
      </trkpt>
      <trkpt lat="47.29291" lon="-2.25887">
        <ele>7</ele>
        <time>2022-08-21T09:13:49.000Z</time>
      </trkpt>
      <trkpt lat="47.29288" lon="-2.2588">
        <ele>7</ele>
        <time>2022-08-21T09:13:51.000Z</time>
      </trkpt>
      <trkpt lat="47.29289" lon="-2.25875">
        <ele>7</ele>
        <time>2022-08-21T09:13:52.000Z</time>
      </trkpt>
      <trkpt lat="47.29294" lon="-2.25871">
        <ele>7</ele>
        <time>2022-08-21T09:13:55.000Z</time>
      </trkpt>
      <trkpt lat="47.29303" lon="-2.25874">
        <ele>7</ele>
        <time>2022-08-21T09:13:59.000Z</time>
      </trkpt>
      <trkpt lat="47.29307" lon="-2.25877">
        <ele>7</ele>
        <time>2022-08-21T09:14:00.000Z</time>
      </trkpt>
      <trkpt lat="47.29326" lon="-2.25894">
        <ele>7</ele>
        <time>2022-08-21T09:14:05.000Z</time>
      </trkpt>
      <trkpt lat="47.29331" lon="-2.25898">
        <ele>7</ele>
        <time>2022-08-21T09:14:06.000Z</time>
      </trkpt>
      <trkpt lat="47.29343" lon="-2.25909">
        <ele>7</ele>
        <time>2022-08-21T09:14:09.000Z</time>
      </trkpt>
      <trkpt lat="47.29349" lon="-2.25914">
        <ele>7</ele>
        <time>2022-08-21T09:14:11.000Z</time>
      </trkpt>
      <trkpt lat="47.29356" lon="-2.25922">
        <ele>7</ele>
        <time>2022-08-21T09:14:14.000Z</time>
      </trkpt>
      <trkpt lat="47.29355" lon="-2.25925">
        <ele>7</ele>
        <time>2022-08-21T09:14:16.000Z</time>
      </trkpt>
      <trkpt lat="47.29354" lon="-2.25927">
        <ele>7</ele>
        <time>2022-08-21T09:14:17.000Z</time>
      </trkpt>
      <trkpt lat="47.29343" lon="-2.25922">
        <ele>7</ele>
        <time>2022-08-21T09:14:21.000Z</time>
      </trkpt>
      <trkpt lat="47.29327" lon="-2.25919">
        <ele>7</ele>
        <time>2022-08-21T09:14:25.000Z</time>
      </trkpt>
      <trkpt lat="47.29324" lon="-2.25926">
        <ele>7</ele>
        <time>2022-08-21T09:14:28.000Z</time>
      </trkpt>
      <trkpt lat="47.29325" lon="-2.25945">
        <ele>7</ele>
        <time>2022-08-21T09:14:33.000Z</time>
      </trkpt>
      <trkpt lat="47.29326" lon="-2.25964">
        <ele>7</ele>
        <time>2022-08-21T09:14:37.000Z</time>
      </trkpt>
      <trkpt lat="47.29333" lon="-2.25972">
        <ele>7</ele>
        <time>2022-08-21T09:14:40.000Z</time>
      </trkpt>
      <trkpt lat="47.29346" lon="-2.25973">
        <ele>7</ele>
        <time>2022-08-21T09:14:44.000Z</time>
      </trkpt>
      <trkpt lat="47.29349" lon="-2.25971">
        <ele>7</ele>
        <time>2022-08-21T09:14:45.000Z</time>
      </trkpt>
      <trkpt lat="47.29356" lon="-2.25964">
        <ele>7</ele>
        <time>2022-08-21T09:14:48.000Z</time>
      </trkpt>
      <trkpt lat="47.2937" lon="-2.25955">
        <ele>7</ele>
        <time>2022-08-21T09:14:53.000Z</time>
      </trkpt>
      <trkpt lat="47.29383" lon="-2.25957">
        <ele>6.5999999046326</ele>
        <time>2022-08-21T09:14:58.000Z</time>
      </trkpt>
      <trkpt lat="47.29387" lon="-2.25958">
        <ele>6</ele>
        <time>2022-08-21T09:14:59.000Z</time>
      </trkpt>
      <trkpt lat="47.29392" lon="-2.25957">
        <ele>5.5999999046326</ele>
        <time>2022-08-21T09:15:00.000Z</time>
      </trkpt>
      <trkpt lat="47.29396" lon="-2.25955">
        <ele>5.1999998092651</ele>
        <time>2022-08-21T09:15:01.000Z</time>
      </trkpt>
      <trkpt lat="47.29401" lon="-2.25953">
        <ele>4.5999999046326</ele>
        <time>2022-08-21T09:15:02.000Z</time>
      </trkpt>
      <trkpt lat="47.29407" lon="-2.25951">
        <ele>4.5999999046326</ele>
        <time>2022-08-21T09:15:03.000Z</time>
      </trkpt>
      <trkpt lat="47.29418" lon="-2.25946">
        <ele>4.5999999046326</ele>
        <time>2022-08-21T09:15:05.000Z</time>
      </trkpt>
      <trkpt lat="47.29425" lon="-2.25938">
        <ele>4.5999999046326</ele>
        <time>2022-08-21T09:15:07.000Z</time>
      </trkpt>
      <trkpt lat="47.29427" lon="-2.25934">
        <ele>4.1999998092651</ele>
        <time>2022-08-21T09:15:08.000Z</time>
      </trkpt>
      <trkpt lat="47.29429" lon="-2.25931">
        <ele>3.7999999523163</ele>
        <time>2022-08-21T09:15:09.000Z</time>
      </trkpt>
      <trkpt lat="47.2943" lon="-2.25927">
        <ele>3.2000000476837</ele>
        <time>2022-08-21T09:15:10.000Z</time>
      </trkpt>
      <trkpt lat="47.2943" lon="-2.25923">
        <ele>2.7999999523163</ele>
        <time>2022-08-21T09:15:11.000Z</time>
      </trkpt>
      <trkpt lat="47.2943" lon="-2.25919">
        <ele>2.4000000953674</ele>
        <time>2022-08-21T09:15:12.000Z</time>
      </trkpt>
      <trkpt lat="47.29428" lon="-2.25909">
        <ele>2.4000000953674</ele>
        <time>2022-08-21T09:15:14.000Z</time>
      </trkpt>
      <trkpt lat="47.29425" lon="-2.25896">
        <ele>2.4000000953674</ele>
        <time>2022-08-21T09:15:17.000Z</time>
      </trkpt>
      <trkpt lat="47.29416" lon="-2.25883">
        <ele>2.4000000953674</ele>
        <time>2022-08-21T09:15:21.000Z</time>
      </trkpt>
      <trkpt lat="47.29414" lon="-2.25881">
        <ele>2.7999999523163</ele>
        <time>2022-08-21T09:15:22.000Z</time>
      </trkpt>
      <trkpt lat="47.29411" lon="-2.25881">
        <ele>3.2000000476837</ele>
        <time>2022-08-21T09:15:23.000Z</time>
      </trkpt>
      <trkpt lat="47.29409" lon="-2.25882">
        <ele>3.5999999046326</ele>
        <time>2022-08-21T09:15:24.000Z</time>
      </trkpt>
      <trkpt lat="47.29406" lon="-2.25882">
        <ele>4</ele>
        <time>2022-08-21T09:15:25.000Z</time>
      </trkpt>
      <trkpt lat="47.29403" lon="-2.25882">
        <ele>4.4000000953674</ele>
        <time>2022-08-21T09:15:26.000Z</time>
      </trkpt>
      <trkpt lat="47.29393" lon="-2.2588">
        <ele>4.4000000953674</ele>
        <time>2022-08-21T09:15:30.000Z</time>
      </trkpt>
      <trkpt lat="47.29385" lon="-2.25887">
        <ele>4.4000000953674</ele>
        <time>2022-08-21T09:15:34.000Z</time>
      </trkpt>
      <trkpt lat="47.29384" lon="-2.25913">
        <ele>4.4000000953674</ele>
        <time>2022-08-21T09:15:40.000Z</time>
      </trkpt>
      <trkpt lat="47.29387" lon="-2.25935">
        <ele>4.4000000953674</ele>
        <time>2022-08-21T09:15:45.000Z</time>
      </trkpt>
      <trkpt lat="47.29386" lon="-2.25943">
        <ele>4.4000000953674</ele>
        <time>2022-08-21T09:15:49.000Z</time>
      </trkpt>
      <trkpt lat="47.29388" lon="-2.25954">
        <ele>4.4000000953674</ele>
        <time>2022-08-21T09:15:53.000Z</time>
      </trkpt>
      <trkpt lat="47.29395" lon="-2.25979">
        <ele>4.4000000953674</ele>
        <time>2022-08-21T09:15:58.000Z</time>
      </trkpt>
      <trkpt lat="47.29392" lon="-2.25997">
        <ele>4</ele>
        <time>2022-08-21T09:16:01.000Z</time>
      </trkpt>
      <trkpt lat="47.2939" lon="-2.26004">
        <ele>3.2000000476837</ele>
        <time>2022-08-21T09:16:02.000Z</time>
      </trkpt>
      <trkpt lat="47.29391" lon="-2.26011">
        <ele>2.7999999523163</ele>
        <time>2022-08-21T09:16:03.000Z</time>
      </trkpt>
      <trkpt lat="47.29393" lon="-2.26018">
        <ele>2.4000000953674</ele>
        <time>2022-08-21T09:16:04.000Z</time>
      </trkpt>
      <trkpt lat="47.29396" lon="-2.26024">
        <ele>2.4000000953674</ele>
        <time>2022-08-21T09:16:05.000Z</time>
      </trkpt>
      <trkpt lat="47.29401" lon="-2.26038">
        <ele>2.4000000953674</ele>
        <time>2022-08-21T09:16:07.000Z</time>
      </trkpt>
      <trkpt lat="47.29408" lon="-2.26055">
        <ele>2.4000000953674</ele>
        <time>2022-08-21T09:16:10.000Z</time>
      </trkpt>
      <trkpt lat="47.29412" lon="-2.26067">
        <ele>2.4000000953674</ele>
        <time>2022-08-21T09:16:12.000Z</time>
      </trkpt>
      <trkpt lat="47.29415" lon="-2.26089">
        <ele>2.4000000953674</ele>
        <time>2022-08-21T09:16:15.000Z</time>
      </trkpt>
      <trkpt lat="47.29411" lon="-2.26118">
        <ele>2.4000000953674</ele>
        <time>2022-08-21T09:16:19.000Z</time>
      </trkpt>
      <trkpt lat="47.29408" lon="-2.26143">
        <ele>2.4000000953674</ele>
        <time>2022-08-21T09:16:24.000Z</time>
      </trkpt>
      <trkpt lat="47.29407" lon="-2.26146">
        <ele>2.7999999523163</ele>
        <time>2022-08-21T09:16:25.000Z</time>
      </trkpt>
      <trkpt lat="47.29405" lon="-2.26147">
        <ele>3.2000000476837</ele>
        <time>2022-08-21T09:16:26.000Z</time>
      </trkpt>
      <trkpt lat="47.29403" lon="-2.26148">
        <ele>4.1999998092651</ele>
        <time>2022-08-21T09:16:27.000Z</time>
      </trkpt>
      <trkpt lat="47.29399" lon="-2.26148">
        <ele>4.5999999046326</ele>
        <time>2022-08-21T09:16:28.000Z</time>
      </trkpt>
      <trkpt lat="47.29386" lon="-2.26149">
        <ele>4.5999999046326</ele>
        <time>2022-08-21T09:16:33.000Z</time>
      </trkpt>
      <trkpt lat="47.29383" lon="-2.26148">
        <ele>5</ele>
        <time>2022-08-21T09:16:34.000Z</time>
      </trkpt>
      <trkpt lat="47.29381" lon="-2.26148">
        <ele>5.4000000953674</ele>
        <time>2022-08-21T09:16:35.000Z</time>
      </trkpt>
      <trkpt lat="47.29378" lon="-2.26149">
        <ele>5.8000001907349</ele>
        <time>2022-08-21T09:16:36.000Z</time>
      </trkpt>
      <trkpt lat="47.29375" lon="-2.2615">
        <ele>6.4000000953674</ele>
        <time>2022-08-21T09:16:37.000Z</time>
      </trkpt>
      <trkpt lat="47.29371" lon="-2.26152">
        <ele>6.8000001907349</ele>
        <time>2022-08-21T09:16:38.000Z</time>
      </trkpt>
      <trkpt lat="47.29367" lon="-2.26153">
        <ele>6.8000001907349</ele>
        <time>2022-08-21T09:16:39.000Z</time>
      </trkpt>
      <trkpt lat="47.29353" lon="-2.26155">
        <ele>6.8000001907349</ele>
        <time>2022-08-21T09:16:44.000Z</time>
      </trkpt>
      <trkpt lat="47.29344" lon="-2.26158">
        <ele>7.1999998092651</ele>
        <time>2022-08-21T09:16:47.000Z</time>
      </trkpt>
      <trkpt lat="47.29341" lon="-2.26159">
        <ele>7.5999999046326</ele>
        <time>2022-08-21T09:16:48.000Z</time>
      </trkpt>
      <trkpt lat="47.29338" lon="-2.26161">
        <ele>8</ele>
        <time>2022-08-21T09:16:49.000Z</time>
      </trkpt>
      <trkpt lat="47.29335" lon="-2.26162">
        <ele>8.3999996185303</ele>
        <time>2022-08-21T09:16:50.000Z</time>
      </trkpt>
      <trkpt lat="47.29332" lon="-2.26164">
        <ele>8.8000001907349</ele>
        <time>2022-08-21T09:16:51.000Z</time>
      </trkpt>
      <trkpt lat="47.29331" lon="-2.26167">
        <ele>8.8000001907349</ele>
        <time>2022-08-21T09:16:52.000Z</time>
      </trkpt>
      <trkpt lat="47.29325" lon="-2.26174">
        <ele>8.8000001907349</ele>
        <time>2022-08-21T09:16:54.000Z</time>
      </trkpt>
      <trkpt lat="47.29317" lon="-2.26172">
        <ele>8.8000001907349</ele>
        <time>2022-08-21T09:16:57.000Z</time>
      </trkpt>
      <trkpt lat="47.29301" lon="-2.26164">
        <ele>8.8000001907349</ele>
        <time>2022-08-21T09:17:03.000Z</time>
      </trkpt>
      <trkpt lat="47.29289" lon="-2.26166">
        <ele>8.8000001907349</ele>
        <time>2022-08-21T09:17:07.000Z</time>
      </trkpt>
      <trkpt lat="47.29284" lon="-2.26172">
        <ele>8.8000001907349</ele>
        <time>2022-08-21T09:17:10.000Z</time>
      </trkpt>
      <trkpt lat="47.29273" lon="-2.26174">
        <ele>8.8000001907349</ele>
        <time>2022-08-21T09:18:43.000Z</time>
      </trkpt>
      <trkpt lat="47.2927" lon="-2.26173">
        <ele>8.8000001907349</ele>
        <time>2022-08-21T09:18:44.000Z</time>
      </trkpt>
      <trkpt lat="47.2926" lon="-2.26164">
        <ele>8.8000001907349</ele>
        <time>2022-08-21T09:18:48.000Z</time>
      </trkpt>
      <trkpt lat="47.29257" lon="-2.26158">
        <ele>8.8000001907349</ele>
        <time>2022-08-21T09:18:50.000Z</time>
      </trkpt>
      <trkpt lat="47.29251" lon="-2.26148">
        <ele>9.1999998092651</ele>
        <time>2022-08-21T09:18:53.000Z</time>
      </trkpt>
      <trkpt lat="47.2925" lon="-2.26145">
        <ele>9.6000003814697</ele>
        <time>2022-08-21T09:18:54.000Z</time>
      </trkpt>
      <trkpt lat="47.29247" lon="-2.26141">
        <ele>10.39999961853</ele>
        <time>2022-08-21T09:18:55.000Z</time>
      </trkpt>
      <trkpt lat="47.29244" lon="-2.26136">
        <ele>10.800000190735</ele>
        <time>2022-08-21T09:18:56.000Z</time>
      </trkpt>
      <trkpt lat="47.29236" lon="-2.26119">
        <ele>10.800000190735</ele>
        <time>2022-08-21T09:19:00.000Z</time>
      </trkpt>
      <trkpt lat="47.29223" lon="-2.26095">
        <ele>10.800000190735</ele>
        <time>2022-08-21T09:19:06.000Z</time>
      </trkpt>
      <trkpt lat="47.29222" lon="-2.2609">
        <ele>10.800000190735</ele>
        <time>2022-08-21T09:19:07.000Z</time>
      </trkpt>
      <trkpt lat="47.29223" lon="-2.26082">
        <ele>10.800000190735</ele>
        <time>2022-08-21T09:19:09.000Z</time>
      </trkpt>
      <trkpt lat="47.29231" lon="-2.26056">
        <ele>10.800000190735</ele>
        <time>2022-08-21T09:19:15.000Z</time>
      </trkpt>
      <trkpt lat="47.29244" lon="-2.26035">
        <ele>10.800000190735</ele>
        <time>2022-08-21T09:19:21.000Z</time>
      </trkpt>
      <trkpt lat="47.29256" lon="-2.26024">
        <ele>10.39999961853</ele>
        <time>2022-08-21T09:19:26.000Z</time>
      </trkpt>
      <trkpt lat="47.29258" lon="-2.26022">
        <ele>10</ele>
        <time>2022-08-21T09:19:27.000Z</time>
      </trkpt>
      <trkpt lat="47.29258" lon="-2.26019">
        <ele>9.6000003814697</ele>
        <time>2022-08-21T09:19:28.000Z</time>
      </trkpt>
      <trkpt lat="47.29257" lon="-2.26017">
        <ele>9.1999998092651</ele>
        <time>2022-08-21T09:19:29.000Z</time>
      </trkpt>
      <trkpt lat="47.29256" lon="-2.26013">
        <ele>8.8000001907349</ele>
        <time>2022-08-21T09:19:30.000Z</time>
      </trkpt>
      <trkpt lat="47.29255" lon="-2.26003">
        <ele>8.8000001907349</ele>
        <time>2022-08-21T09:19:33.000Z</time>
      </trkpt>
      <trkpt lat="47.29254" lon="-2.25995">
        <ele>8.8000001907349</ele>
        <time>2022-08-21T09:19:35.000Z</time>
      </trkpt>
      <trkpt lat="47.29251" lon="-2.2598">
        <ele>8.8000001907349</ele>
        <time>2022-08-21T09:19:39.000Z</time>
      </trkpt>
      <trkpt lat="47.29252" lon="-2.25977">
        <ele>8.8000001907349</ele>
        <time>2022-08-21T09:19:40.000Z</time>
      </trkpt>
      <trkpt lat="47.29259" lon="-2.25969">
        <ele>8.8000001907349</ele>
        <time>2022-08-21T09:19:44.000Z</time>
      </trkpt>
      <trkpt lat="47.29262" lon="-2.25967">
        <ele>8.8000001907349</ele>
        <time>2022-08-21T09:19:45.000Z</time>
      </trkpt>
      <trkpt lat="47.29269" lon="-2.25962">
        <ele>8.8000001907349</ele>
        <time>2022-08-21T09:19:48.000Z</time>
      </trkpt>
      <trkpt lat="47.29274" lon="-2.25957">
        <ele>8.8000001907349</ele>
        <time>2022-08-21T09:19:51.000Z</time>
      </trkpt>
      <trkpt lat="47.29279" lon="-2.25949">
        <ele>8.8000001907349</ele>
        <time>2022-08-21T09:19:57.000Z</time>
      </trkpt>
      <trkpt lat="47.2928" lon="-2.25946">
        <ele>8.8000001907349</ele>
        <time>2022-08-21T09:19:58.000Z</time>
      </trkpt>
      <trkpt lat="47.29284" lon="-2.25937">
        <ele>8.8000001907349</ele>
        <time>2022-08-21T09:20:01.000Z</time>
      </trkpt>
      <trkpt lat="47.29287" lon="-2.25932">
        <ele>8.3999996185303</ele>
        <time>2022-08-21T09:20:02.000Z</time>
      </trkpt>
      <trkpt lat="47.29289" lon="-2.25926">
        <ele>7.8000001907349</ele>
        <time>2022-08-21T09:20:03.000Z</time>
      </trkpt>
      <trkpt lat="47.29292" lon="-2.2592">
        <ele>7.4000000953674</ele>
        <time>2022-08-21T09:20:04.000Z</time>
      </trkpt>
      <trkpt lat="47.29297" lon="-2.25911">
        <ele>7</ele>
        <time>2022-08-21T09:20:05.000Z</time>
      </trkpt>
      <trkpt lat="47.293" lon="-2.25905">
        <ele>6.5999999046326</ele>
        <time>2022-08-21T09:20:06.000Z</time>
      </trkpt>
      <trkpt lat="47.29302" lon="-2.25899">
        <ele>6.5999999046326</ele>
        <time>2022-08-21T09:20:07.000Z</time>
      </trkpt>
      <trkpt lat="47.29299" lon="-2.25876">
        <ele>6.5999999046326</ele>
        <time>2022-08-21T09:20:12.000Z</time>
      </trkpt>
      <trkpt lat="47.29296" lon="-2.25863">
        <ele>6.5999999046326</ele>
        <time>2022-08-21T09:20:16.000Z</time>
      </trkpt>
      <trkpt lat="47.29297" lon="-2.25857">
        <ele>6.5999999046326</ele>
        <time>2022-08-21T09:20:17.000Z</time>
      </trkpt>
      <trkpt lat="47.29299" lon="-2.25853">
        <ele>6.5999999046326</ele>
        <time>2022-08-21T09:20:19.000Z</time>
      </trkpt>
      <trkpt lat="47.29301" lon="-2.25855">
        <ele>6.5999999046326</ele>
        <time>2022-08-21T09:20:22.000Z</time>
      </trkpt>
      <trkpt lat="47.29303" lon="-2.25856">
        <ele>6.5999999046326</ele>
        <time>2022-08-21T09:20:23.000Z</time>
      </trkpt>
      <trkpt lat="47.29305" lon="-2.25856">
        <ele>6.5999999046326</ele>
        <time>2022-08-21T09:20:24.000Z</time>
      </trkpt>
      <trkpt lat="47.29312" lon="-2.25865">
        <ele>6.5999999046326</ele>
        <time>2022-08-21T09:20:38.000Z</time>
      </trkpt>
      <trkpt lat="47.29313" lon="-2.25867">
        <ele>6.5999999046326</ele>
        <time>2022-08-21T09:20:39.000Z</time>
      </trkpt>
      <trkpt lat="47.29323" lon="-2.2588">
        <ele>6.5999999046326</ele>
        <time>2022-08-21T09:20:44.000Z</time>
      </trkpt>
      <trkpt lat="47.29326" lon="-2.25882">
        <ele>6.5999999046326</ele>
        <time>2022-08-21T09:20:45.000Z</time>
      </trkpt>
      <trkpt lat="47.29331" lon="-2.25883">
        <ele>6.5999999046326</ele>
        <time>2022-08-21T09:20:47.000Z</time>
      </trkpt>
      <trkpt lat="47.29339" lon="-2.25878">
        <ele>6.5999999046326</ele>
        <time>2022-08-21T09:20:50.000Z</time>
      </trkpt>
      <trkpt lat="47.29344" lon="-2.25874">
        <ele>6.5999999046326</ele>
        <time>2022-08-21T09:20:52.000Z</time>
      </trkpt>
      <trkpt lat="47.29354" lon="-2.25869">
        <ele>6.5999999046326</ele>
        <time>2022-08-21T09:20:56.000Z</time>
      </trkpt>
      <trkpt lat="47.29358" lon="-2.25869">
        <ele>6.5999999046326</ele>
        <time>2022-08-21T09:20:58.000Z</time>
      </trkpt>
      <trkpt lat="47.2936" lon="-2.2587">
        <ele>6.5999999046326</ele>
        <time>2022-08-21T09:20:59.000Z</time>
      </trkpt>
      <trkpt lat="47.29372" lon="-2.2587">
        <ele>6.5999999046326</ele>
        <time>2022-08-21T09:21:03.000Z</time>
      </trkpt>
      <trkpt lat="47.29375" lon="-2.25869">
        <ele>6.5999999046326</ele>
        <time>2022-08-21T09:21:04.000Z</time>
      </trkpt>
      <trkpt lat="47.29386" lon="-2.25865">
        <ele>6.5999999046326</ele>
        <time>2022-08-21T09:21:09.000Z</time>
      </trkpt>
      <trkpt lat="47.29398" lon="-2.25868">
        <ele>6.5999999046326</ele>
        <time>2022-08-21T09:21:15.000Z</time>
      </trkpt>
      <trkpt lat="47.29405" lon="-2.25867">
        <ele>6.5999999046326</ele>
        <time>2022-08-21T09:21:20.000Z</time>
      </trkpt>
      <trkpt lat="47.29413" lon="-2.25862">
        <ele>4.5999999046326</ele>
        <time>2022-08-21T09:21:42.000Z</time>
      </trkpt>
      <trkpt lat="47.29421" lon="-2.2585">
        <ele>4.5999999046326</ele>
        <time>2022-08-21T09:21:45.000Z</time>
      </trkpt>
      <trkpt lat="47.29424" lon="-2.2584">
        <ele>4.5999999046326</ele>
        <time>2022-08-21T09:21:47.000Z</time>
      </trkpt>
      <trkpt lat="47.29425" lon="-2.25834">
        <ele>3.7999999523163</ele>
        <time>2022-08-21T09:21:48.000Z</time>
      </trkpt>
      <trkpt lat="47.29425" lon="-2.2583">
        <ele>3.4000000953674</ele>
        <time>2022-08-21T09:21:49.000Z</time>
      </trkpt>
      <trkpt lat="47.29424" lon="-2.25827">
        <ele>3</ele>
        <time>2022-08-21T09:21:50.000Z</time>
      </trkpt>
      <trkpt lat="47.29424" lon="-2.25824">
        <ele>2.5999999046326</ele>
        <time>2022-08-21T09:21:51.000Z</time>
      </trkpt>
      <trkpt lat="47.29423" lon="-2.25816">
        <ele>2.5999999046326</ele>
        <time>2022-08-21T09:21:53.000Z</time>
      </trkpt>
      <trkpt lat="47.29423" lon="-2.25798">
        <ele>2.5999999046326</ele>
        <time>2022-08-21T09:21:57.000Z</time>
      </trkpt>
      <trkpt lat="47.29417" lon="-2.25786">
        <ele>2.5999999046326</ele>
        <time>2022-08-21T09:22:02.000Z</time>
      </trkpt>
      <trkpt lat="47.29416" lon="-2.25784">
        <ele>2.5999999046326</ele>
        <time>2022-08-21T09:22:03.000Z</time>
      </trkpt>
      <trkpt lat="47.29414" lon="-2.25779">
        <ele>3</ele>
        <time>2022-08-21T09:22:05.000Z</time>
      </trkpt>
      <trkpt lat="47.29412" lon="-2.25777">
        <ele>3.4000000953674</ele>
        <time>2022-08-21T09:22:06.000Z</time>
      </trkpt>
      <trkpt lat="47.2941" lon="-2.25775">
        <ele>3.7999999523163</ele>
        <time>2022-08-21T09:22:07.000Z</time>
      </trkpt>
      <trkpt lat="47.29408" lon="-2.25774">
        <ele>4.1999998092651</ele>
        <time>2022-08-21T09:22:08.000Z</time>
      </trkpt>
      <trkpt lat="47.29406" lon="-2.25772">
        <ele>4.5999999046326</ele>
        <time>2022-08-21T09:22:09.000Z</time>
      </trkpt>
      <trkpt lat="47.29397" lon="-2.2576">
        <ele>4.5999999046326</ele>
        <time>2022-08-21T09:22:14.000Z</time>
      </trkpt>
      <trkpt lat="47.29395" lon="-2.25759">
        <ele>4.5999999046326</ele>
        <time>2022-08-21T09:22:15.000Z</time>
      </trkpt>
      <trkpt lat="47.29389" lon="-2.25761">
        <ele>4.5999999046326</ele>
        <time>2022-08-21T09:22:18.000Z</time>
      </trkpt>
      <trkpt lat="47.29386" lon="-2.2576">
        <ele>4.5999999046326</ele>
        <time>2022-08-21T09:22:20.000Z</time>
      </trkpt>
      <trkpt lat="47.29384" lon="-2.2576">
        <ele>5</ele>
        <time>2022-08-21T09:22:21.000Z</time>
      </trkpt>
      <trkpt lat="47.29381" lon="-2.2576">
        <ele>5.4000000953674</ele>
        <time>2022-08-21T09:22:22.000Z</time>
      </trkpt>
      <trkpt lat="47.29379" lon="-2.25762">
        <ele>5.8000001907349</ele>
        <time>2022-08-21T09:22:23.000Z</time>
      </trkpt>
      <trkpt lat="47.29378" lon="-2.25765">
        <ele>6.4000000953674</ele>
        <time>2022-08-21T09:22:24.000Z</time>
      </trkpt>
      <trkpt lat="47.29377" lon="-2.25768">
        <ele>6.8000001907349</ele>
        <time>2022-08-21T09:22:25.000Z</time>
      </trkpt>
      <trkpt lat="47.29373" lon="-2.25773">
        <ele>6.8000001907349</ele>
        <time>2022-08-21T09:22:28.000Z</time>
      </trkpt>
      <trkpt lat="47.29372" lon="-2.25775">
        <ele>6.8000001907349</ele>
        <time>2022-08-21T09:22:29.000Z</time>
      </trkpt>
      <trkpt lat="47.29367" lon="-2.25783">
        <ele>6.8000001907349</ele>
        <time>2022-08-21T09:22:33.000Z</time>
      </trkpt>
      <trkpt lat="47.29355" lon="-2.2579">
        <ele>6.8000001907349</ele>
        <time>2022-08-21T09:22:40.000Z</time>
      </trkpt>
      <trkpt lat="47.29336" lon="-2.25788">
        <ele>6.8000001907349</ele>
        <time>2022-08-21T09:22:46.000Z</time>
      </trkpt>
      <trkpt lat="47.2933" lon="-2.25788">
        <ele>7.1999998092651</ele>
        <time>2022-08-21T09:22:49.000Z</time>
      </trkpt>
      <trkpt lat="47.29329" lon="-2.25787">
        <ele>7.5999999046326</ele>
        <time>2022-08-21T09:22:50.000Z</time>
      </trkpt>
      <trkpt lat="47.29328" lon="-2.25784">
        <ele>8.8000001907349</ele>
        <time>2022-08-21T09:24:04.000Z</time>
      </trkpt>
      <trkpt lat="47.2933" lon="-2.25779">
        <ele>8.8000001907349</ele>
        <time>2022-08-21T09:24:06.000Z</time>
      </trkpt>
      <trkpt lat="47.29345" lon="-2.25765">
        <ele>8.8000001907349</ele>
        <time>2022-08-21T09:24:12.000Z</time>
      </trkpt>
      <trkpt lat="47.29363" lon="-2.25741">
        <ele>8.8000001907349</ele>
        <time>2022-08-21T09:24:18.000Z</time>
      </trkpt>
      <trkpt lat="47.29379" lon="-2.2571">
        <ele>8.8000001907349</ele>
        <time>2022-08-21T09:24:25.000Z</time>
      </trkpt>
      <trkpt lat="47.29382" lon="-2.25674">
        <ele>8.8000001907349</ele>
        <time>2022-08-21T09:24:30.000Z</time>
      </trkpt>
      <trkpt lat="47.29385" lon="-2.25652">
        <ele>8.8000001907349</ele>
        <time>2022-08-21T09:24:33.000Z</time>
      </trkpt>
      <trkpt lat="47.29389" lon="-2.2564">
        <ele>8.8000001907349</ele>
        <time>2022-08-21T09:24:35.000Z</time>
      </trkpt>
      <trkpt lat="47.29392" lon="-2.25635">
        <ele>8.8000001907349</ele>
        <time>2022-08-21T09:24:36.000Z</time>
      </trkpt>
      <trkpt lat="47.29396" lon="-2.25631">
        <ele>9.1999998092651</ele>
        <time>2022-08-21T09:24:37.000Z</time>
      </trkpt>
      <trkpt lat="47.294" lon="-2.25627">
        <ele>9.6000003814697</ele>
        <time>2022-08-21T09:24:38.000Z</time>
      </trkpt>
      <trkpt lat="47.29405" lon="-2.25624">
        <ele>10</ele>
        <time>2022-08-21T09:24:39.000Z</time>
      </trkpt>
      <trkpt lat="47.2941" lon="-2.25622">
        <ele>10.39999961853</ele>
        <time>2022-08-21T09:24:40.000Z</time>
      </trkpt>
      <trkpt lat="47.29415" lon="-2.25621">
        <ele>10.800000190735</ele>
        <time>2022-08-21T09:24:41.000Z</time>
      </trkpt>
      <trkpt lat="47.29431" lon="-2.25614">
        <ele>10.800000190735</ele>
        <time>2022-08-21T09:24:44.000Z</time>
      </trkpt>
      <trkpt lat="47.29475" lon="-2.25594">
        <ele>10.800000190735</ele>
        <time>2022-08-21T09:24:52.000Z</time>
      </trkpt>
      <trkpt lat="47.29521" lon="-2.25566">
        <ele>10.800000190735</ele>
        <time>2022-08-21T09:25:00.000Z</time>
      </trkpt>
      <trkpt lat="47.29539" lon="-2.25554">
        <ele>10.39999961853</ele>
        <time>2022-08-21T09:25:03.000Z</time>
      </trkpt>
      <trkpt lat="47.29545" lon="-2.25551">
        <ele>10</ele>
        <time>2022-08-21T09:25:04.000Z</time>
      </trkpt>
      <trkpt lat="47.2955" lon="-2.25547">
        <ele>9.6000003814697</ele>
        <time>2022-08-21T09:25:05.000Z</time>
      </trkpt>
      <trkpt lat="47.29556" lon="-2.25542">
        <ele>9.1999998092651</ele>
        <time>2022-08-21T09:25:06.000Z</time>
      </trkpt>
      <trkpt lat="47.29562" lon="-2.25538">
        <ele>8.8000001907349</ele>
        <time>2022-08-21T09:25:07.000Z</time>
      </trkpt>
      <trkpt lat="47.29568" lon="-2.25532">
        <ele>8.8000001907349</ele>
        <time>2022-08-21T09:25:08.000Z</time>
      </trkpt>
      <trkpt lat="47.29572" lon="-2.25526">
        <ele>8.8000001907349</ele>
        <time>2022-08-21T09:25:09.000Z</time>
      </trkpt>
      <trkpt lat="47.29582" lon="-2.25501">
        <ele>8.8000001907349</ele>
        <time>2022-08-21T09:25:12.000Z</time>
      </trkpt>
      <trkpt lat="47.29584" lon="-2.25464">
        <ele>8.8000001907349</ele>
        <time>2022-08-21T09:25:16.000Z</time>
      </trkpt>
      <trkpt lat="47.29584" lon="-2.25455">
        <ele>8.3999996185303</ele>
        <time>2022-08-21T09:25:17.000Z</time>
      </trkpt>
      <trkpt lat="47.29583" lon="-2.25445">
        <ele>8</ele>
        <time>2022-08-21T09:25:18.000Z</time>
      </trkpt>
      <trkpt lat="47.29583" lon="-2.25436">
        <ele>7.5999999046326</ele>
        <time>2022-08-21T09:25:19.000Z</time>
      </trkpt>
      <trkpt lat="47.29582" lon="-2.25426">
        <ele>7.1999998092651</ele>
        <time>2022-08-21T09:25:20.000Z</time>
      </trkpt>
      <trkpt lat="47.29581" lon="-2.25417">
        <ele>6.8000001907349</ele>
        <time>2022-08-21T09:25:21.000Z</time>
      </trkpt>
      <trkpt lat="47.29579" lon="-2.25396">
        <ele>6.8000001907349</ele>
        <time>2022-08-21T09:25:23.000Z</time>
      </trkpt>
      <trkpt lat="47.29577" lon="-2.25387">
        <ele>6.8000001907349</ele>
        <time>2022-08-21T09:25:24.000Z</time>
      </trkpt>
      <trkpt lat="47.29568" lon="-2.25359">
        <ele>6.8000001907349</ele>
        <time>2022-08-21T09:25:27.000Z</time>
      </trkpt>
      <trkpt lat="47.29553" lon="-2.25325">
        <ele>6.4000000953674</ele>
        <time>2022-08-21T09:25:31.000Z</time>
      </trkpt>
      <trkpt lat="47.29549" lon="-2.25316">
        <ele>5.5999999046326</ele>
        <time>2022-08-21T09:25:32.000Z</time>
      </trkpt>
      <trkpt lat="47.29545" lon="-2.25308">
        <ele>5.1999998092651</ele>
        <time>2022-08-21T09:25:33.000Z</time>
      </trkpt>
      <trkpt lat="47.29542" lon="-2.25299">
        <ele>4.5999999046326</ele>
        <time>2022-08-21T09:25:34.000Z</time>
      </trkpt>
      <trkpt lat="47.29538" lon="-2.25279">
        <ele>4.5999999046326</ele>
        <time>2022-08-21T09:25:36.000Z</time>
      </trkpt>
      <trkpt lat="47.29537" lon="-2.25269">
        <ele>4.5999999046326</ele>
        <time>2022-08-21T09:25:37.000Z</time>
      </trkpt>
      <trkpt lat="47.29537" lon="-2.2523">
        <ele>4.5999999046326</ele>
        <time>2022-08-21T09:25:41.000Z</time>
      </trkpt>
      <trkpt lat="47.29539" lon="-2.25213">
        <ele>4.5999999046326</ele>
        <time>2022-08-21T09:25:43.000Z</time>
      </trkpt>
      <trkpt lat="47.29543" lon="-2.25198">
        <ele>4.5999999046326</ele>
        <time>2022-08-21T09:25:45.000Z</time>
      </trkpt>
      <trkpt lat="47.29544" lon="-2.25191">
        <ele>4.5999999046326</ele>
        <time>2022-08-21T09:25:46.000Z</time>
      </trkpt>
      <trkpt lat="47.29545" lon="-2.25185">
        <ele>4.5999999046326</ele>
        <time>2022-08-21T09:25:47.000Z</time>
      </trkpt>
      <trkpt lat="47.29541" lon="-2.25178">
        <ele>4.5999999046326</ele>
        <time>2022-08-21T09:25:49.000Z</time>
      </trkpt>
      <trkpt lat="47.29532" lon="-2.25177">
        <ele>4.1999998092651</ele>
        <time>2022-08-21T09:25:52.000Z</time>
      </trkpt>
      <trkpt lat="47.29529" lon="-2.25177">
        <ele>3.7999999523163</ele>
        <time>2022-08-21T09:25:53.000Z</time>
      </trkpt>
      <trkpt lat="47.29524" lon="-2.25178">
        <ele>3.4000000953674</ele>
        <time>2022-08-21T09:25:54.000Z</time>
      </trkpt>
      <trkpt lat="47.29521" lon="-2.25179">
        <ele>3</ele>
        <time>2022-08-21T09:25:55.000Z</time>
      </trkpt>
      <trkpt lat="47.29516" lon="-2.2518">
        <ele>2.5999999046326</ele>
        <time>2022-08-21T09:25:56.000Z</time>
      </trkpt>
      <trkpt lat="47.29503" lon="-2.25184">
        <ele>2.5999999046326</ele>
        <time>2022-08-21T09:25:59.000Z</time>
      </trkpt>
      <trkpt lat="47.2947" lon="-2.25193">
        <ele>2.5999999046326</ele>
        <time>2022-08-21T09:26:04.000Z</time>
      </trkpt>
      <trkpt lat="47.29443" lon="-2.25201">
        <ele>2.2000000476837</ele>
        <time>2022-08-21T09:26:08.000Z</time>
      </trkpt>
      <trkpt lat="47.29435" lon="-2.25204">
        <ele>1.7999999523163</ele>
        <time>2022-08-21T09:26:09.000Z</time>
      </trkpt>
      <trkpt lat="47.29428" lon="-2.25207">
        <ele>1.3999999761581</ele>
        <time>2022-08-21T09:26:10.000Z</time>
      </trkpt>
      <trkpt lat="47.29421" lon="-2.25209">
        <ele>1</ele>
        <time>2022-08-21T09:26:11.000Z</time>
      </trkpt>
      <trkpt lat="47.29415" lon="-2.2521">
        <ele>0.60000002384186</ele>
        <time>2022-08-21T09:26:12.000Z</time>
      </trkpt>
      <trkpt lat="47.29403" lon="-2.25209">
        <ele>0.60000002384186</ele>
        <time>2022-08-21T09:26:14.000Z</time>
      </trkpt>
      <trkpt lat="47.29397" lon="-2.25207">
        <ele>0.60000002384186</ele>
        <time>2022-08-21T09:26:15.000Z</time>
      </trkpt>
      <trkpt lat="47.29364" lon="-2.25201">
        <ele>0.60000002384186</ele>
        <time>2022-08-21T09:26:20.000Z</time>
      </trkpt>
      <trkpt lat="47.29339" lon="-2.25197">
        <ele>0.60000002384186</ele>
        <time>2022-08-21T09:26:24.000Z</time>
      </trkpt>
      <trkpt lat="47.29333" lon="-2.25197">
        <ele>0.60000002384186</ele>
        <time>2022-08-21T09:26:25.000Z</time>
      </trkpt>
      <trkpt lat="47.29328" lon="-2.25198">
        <ele>0.60000002384186</ele>
        <time>2022-08-21T09:26:26.000Z</time>
      </trkpt>
      <trkpt lat="47.2932" lon="-2.25196">
        <ele>0.60000002384186</ele>
        <time>2022-08-21T09:26:28.000Z</time>
      </trkpt>
      <trkpt lat="47.29315" lon="-2.25191">
        <ele>0.60000002384186</ele>
        <time>2022-08-21T09:26:29.000Z</time>
      </trkpt>
      <trkpt lat="47.29309" lon="-2.25169">
        <ele>0.60000002384186</ele>
        <time>2022-08-21T09:26:32.000Z</time>
      </trkpt>
      <trkpt lat="47.29307" lon="-2.25162">
        <ele>0.60000002384186</ele>
        <time>2022-08-21T09:26:33.000Z</time>
      </trkpt>
      <trkpt lat="47.29299" lon="-2.25125">
        <ele>0.60000002384186</ele>
        <time>2022-08-21T09:26:38.000Z</time>
      </trkpt>
      <trkpt lat="47.2929" lon="-2.25084">
        <ele>0.60000002384186</ele>
        <time>2022-08-21T09:26:44.000Z</time>
      </trkpt>
      <trkpt lat="47.2928" lon="-2.25051">
        <ele>0.60000002384186</ele>
        <time>2022-08-21T09:26:49.000Z</time>
      </trkpt>
      <trkpt lat="47.29278" lon="-2.25044">
        <ele>1</ele>
        <time>2022-08-21T09:26:50.000Z</time>
      </trkpt>
      <trkpt lat="47.29277" lon="-2.25038">
        <ele>1.3999999761581</ele>
        <time>2022-08-21T09:26:51.000Z</time>
      </trkpt>
      <trkpt lat="47.29275" lon="-2.25031">
        <ele>1.7999999523163</ele>
        <time>2022-08-21T09:26:52.000Z</time>
      </trkpt>
      <trkpt lat="47.29274" lon="-2.25024">
        <ele>2.2000000476837</ele>
        <time>2022-08-21T09:26:53.000Z</time>
      </trkpt>
      <trkpt lat="47.29273" lon="-2.25017">
        <ele>2.5999999046326</ele>
        <time>2022-08-21T09:26:54.000Z</time>
      </trkpt>
      <trkpt lat="47.29271" lon="-2.25011">
        <ele>2.5999999046326</ele>
        <time>2022-08-21T09:26:55.000Z</time>
      </trkpt>
      <trkpt lat="47.2927" lon="-2.25005">
        <ele>2.5999999046326</ele>
        <time>2022-08-21T09:26:56.000Z</time>
      </trkpt>
      <trkpt lat="47.29261" lon="-2.24966">
        <ele>2.5999999046326</ele>
        <time>2022-08-21T09:27:02.000Z</time>
      </trkpt>
      <trkpt lat="47.2926" lon="-2.24959">
        <ele>2.5999999046326</ele>
        <time>2022-08-21T09:27:03.000Z</time>
      </trkpt>
      <trkpt lat="47.29261" lon="-2.24929">
        <ele>2.5999999046326</ele>
        <time>2022-08-21T09:27:08.000Z</time>
      </trkpt>
      <trkpt lat="47.29264" lon="-2.24926">
        <ele>2.5999999046326</ele>
        <time>2022-08-21T09:27:09.000Z</time>
      </trkpt>
      <trkpt lat="47.29278" lon="-2.24919">
        <ele>2.5999999046326</ele>
        <time>2022-08-21T09:27:13.000Z</time>
      </trkpt>
      <trkpt lat="47.29282" lon="-2.24918">
        <ele>2.5999999046326</ele>
        <time>2022-08-21T09:27:14.000Z</time>
      </trkpt>
      <trkpt lat="47.29314" lon="-2.24916">
        <ele>2.5999999046326</ele>
        <time>2022-08-21T09:27:21.000Z</time>
      </trkpt>
      <trkpt lat="47.29332" lon="-2.24912">
        <ele>2.5999999046326</ele>
        <time>2022-08-21T09:27:25.000Z</time>
      </trkpt>
      <trkpt lat="47.29335" lon="-2.24908">
        <ele>2.5999999046326</ele>
        <time>2022-08-21T09:27:26.000Z</time>
      </trkpt>
      <trkpt lat="47.29336" lon="-2.24891">
        <ele>2.5999999046326</ele>
        <time>2022-08-21T09:27:29.000Z</time>
      </trkpt>
      <trkpt lat="47.29335" lon="-2.24879">
        <ele>2.5999999046326</ele>
        <time>2022-08-21T09:27:31.000Z</time>
      </trkpt>
      <trkpt lat="47.29335" lon="-2.24865">
        <ele>2.5999999046326</ele>
        <time>2022-08-21T09:27:33.000Z</time>
      </trkpt>
      <trkpt lat="47.29334" lon="-2.24852">
        <ele>2.5999999046326</ele>
        <time>2022-08-21T09:27:35.000Z</time>
      </trkpt>
      <trkpt lat="47.29332" lon="-2.24832">
        <ele>2.5999999046326</ele>
        <time>2022-08-21T09:27:38.000Z</time>
      </trkpt>
      <trkpt lat="47.29329" lon="-2.24811">
        <ele>2.5999999046326</ele>
        <time>2022-08-21T09:27:41.000Z</time>
      </trkpt>
      <trkpt lat="47.29325" lon="-2.2479">
        <ele>2.5999999046326</ele>
        <time>2022-08-21T09:27:44.000Z</time>
      </trkpt>
      <trkpt lat="47.29317" lon="-2.2477">
        <ele>2.5999999046326</ele>
        <time>2022-08-21T09:27:47.000Z</time>
      </trkpt>
      <trkpt lat="47.29312" lon="-2.24754">
        <ele>2.5999999046326</ele>
        <time>2022-08-21T09:27:49.000Z</time>
      </trkpt>
      <trkpt lat="47.29306" lon="-2.24738">
        <ele>2.5999999046326</ele>
        <time>2022-08-21T09:27:51.000Z</time>
      </trkpt>
      <trkpt lat="47.29305" lon="-2.24729">
        <ele>2.5999999046326</ele>
        <time>2022-08-21T09:27:52.000Z</time>
      </trkpt>
      <trkpt lat="47.29294" lon="-2.24679">
        <ele>2.2000000476837</ele>
        <time>2022-08-21T09:27:58.000Z</time>
      </trkpt>
      <trkpt lat="47.29293" lon="-2.2467">
        <ele>1.6000000238419</ele>
        <time>2022-08-21T09:27:59.000Z</time>
      </trkpt>
      <trkpt lat="47.29293" lon="-2.2466">
        <ele>0.80000001192093</ele>
        <time>2022-08-21T09:28:00.000Z</time>
      </trkpt>
      <trkpt lat="47.29294" lon="-2.2465">
        <ele>0.40000000596046</ele>
        <time>2022-08-21T09:28:01.000Z</time>
      </trkpt>
      <trkpt lat="47.29295" lon="-2.2464">
        <ele>0.40000000596046</ele>
        <time>2022-08-21T09:28:02.000Z</time>
      </trkpt>
      <trkpt lat="47.29297" lon="-2.24592">
        <ele>0.40000000596046</ele>
        <time>2022-08-21T09:28:07.000Z</time>
      </trkpt>
      <trkpt lat="47.29294" lon="-2.24543">
        <ele>0.40000000596046</ele>
        <time>2022-08-21T09:28:13.000Z</time>
      </trkpt>
      <trkpt lat="47.29293" lon="-2.24499">
        <ele>0.40000000596046</ele>
        <time>2022-08-21T09:28:19.000Z</time>
      </trkpt>
      <trkpt lat="47.29294" lon="-2.24468">
        <ele>0.40000000596046</ele>
        <time>2022-08-21T09:28:24.000Z</time>
      </trkpt>
      <trkpt lat="47.29304" lon="-2.24449">
        <ele>0.40000000596046</ele>
        <time>2022-08-21T09:28:28.000Z</time>
      </trkpt>
      <trkpt lat="47.29322" lon="-2.24434">
        <ele>0.40000000596046</ele>
        <time>2022-08-21T09:28:32.000Z</time>
      </trkpt>
      <trkpt lat="47.29326" lon="-2.24429">
        <ele>0.40000000596046</ele>
        <time>2022-08-21T09:28:33.000Z</time>
      </trkpt>
      <trkpt lat="47.29348" lon="-2.24405">
        <ele>0.40000000596046</ele>
        <time>2022-08-21T09:28:38.000Z</time>
      </trkpt>
      <trkpt lat="47.29379" lon="-2.24372">
        <ele>0.40000000596046</ele>
        <time>2022-08-21T09:28:45.000Z</time>
      </trkpt>
      <trkpt lat="47.29411" lon="-2.24339">
        <ele>0.40000000596046</ele>
        <time>2022-08-21T09:28:52.000Z</time>
      </trkpt>
      <trkpt lat="47.29426" lon="-2.24326">
        <ele>0.40000000596046</ele>
        <time>2022-08-21T09:28:55.000Z</time>
      </trkpt>
      <trkpt lat="47.29442" lon="-2.24317">
        <ele>0.40000000596046</ele>
        <time>2022-08-21T09:28:58.000Z</time>
      </trkpt>
      <trkpt lat="47.29448" lon="-2.24315">
        <ele>9.2</ele>
        <time>2022-08-21T09:28:59.000Z</time>
      </trkpt>
      <trkpt lat="47.29454" lon="-2.24313">
        <ele>-0.40000000596046</ele>
        <time>2022-08-21T09:29:00.000Z</time>
      </trkpt>
      <trkpt lat="47.2946" lon="-2.24311">
        <ele>-1</ele>
        <time>2022-08-21T09:29:01.000Z</time>
      </trkpt>
      <trkpt lat="47.29466" lon="-2.24309">
        <ele>-1.3999999761581</ele>
        <time>2022-08-21T09:29:02.000Z</time>
      </trkpt>
      <trkpt lat="47.29472" lon="-2.24307">
        <ele>-1.7999999523163</ele>
        <time>2022-08-21T09:29:03.000Z</time>
      </trkpt>
      <trkpt lat="47.2949" lon="-2.243">
        <ele>-1.7999999523163</ele>
        <time>2022-08-21T09:29:06.000Z</time>
      </trkpt>
      <trkpt lat="47.29497" lon="-2.24297">
        <ele>-2.2000000476837</ele>
        <time>2022-08-21T09:29:07.000Z</time>
      </trkpt>
      <trkpt lat="47.29503" lon="-2.24295">
        <ele>-2.5999999046326</ele>
        <time>2022-08-21T09:29:08.000Z</time>
      </trkpt>
      <trkpt lat="47.2951" lon="-2.24292">
        <ele>-3</ele>
        <time>2022-08-21T09:29:09.000Z</time>
      </trkpt>
      <trkpt lat="47.29517" lon="-2.24289">
        <ele>-3.4000000953674</ele>
        <time>2022-08-21T09:29:10.000Z</time>
      </trkpt>
      <trkpt lat="47.29524" lon="-2.24287">
        <ele>-3.7999999523163</ele>
        <time>2022-08-21T09:29:11.000Z</time>
      </trkpt>
      <trkpt lat="47.29536" lon="-2.24283">
        <ele>-4.1999998092651</ele>
        <time>2022-08-21T09:29:13.000Z</time>
      </trkpt>
      <trkpt lat="47.29541" lon="-2.24282">
        <ele>-5.1999998092651</ele>
        <time>2022-08-21T09:29:14.000Z</time>
      </trkpt>
      <trkpt lat="47.29545" lon="-2.24282">
        <ele>-5.5999999046326</ele>
        <time>2022-08-21T09:29:15.000Z</time>
      </trkpt>
      <trkpt lat="47.29549" lon="-2.24282">
        <ele>-6</ele>
        <time>2022-08-21T09:29:16.000Z</time>
      </trkpt>
      <trkpt lat="47.29553" lon="-2.24284">
        <ele>-6</ele>
        <time>2022-08-21T09:29:17.000Z</time>
      </trkpt>
      <trkpt lat="47.29556" lon="-2.24288">
        <ele>-6</ele>
        <time>2022-08-21T09:29:18.000Z</time>
      </trkpt>
      <trkpt lat="47.2956" lon="-2.24297">
        <ele>-6</ele>
        <time>2022-08-21T09:29:20.000Z</time>
      </trkpt>
      <trkpt lat="47.29569" lon="-2.24308">
        <ele>-6</ele>
        <time>2022-08-21T09:29:23.000Z</time>
      </trkpt>
      <trkpt lat="47.29573" lon="-2.24311">
        <ele>-6</ele>
        <time>2022-08-21T09:29:24.000Z</time>
      </trkpt>
      <trkpt lat="47.29576" lon="-2.24313">
        <ele>-6</ele>
        <time>2022-08-21T09:29:25.000Z</time>
      </trkpt>
      <trkpt lat="47.29591" lon="-2.24313">
        <ele>-6</ele>
        <time>2022-08-21T09:29:29.000Z</time>
      </trkpt>
      <trkpt lat="47.296" lon="-2.24312">
        <ele>-6</ele>
        <time>2022-08-21T09:29:31.000Z</time>
      </trkpt>
      <trkpt lat="47.29618" lon="-2.24308">
        <ele>-6</ele>
        <time>2022-08-21T09:29:35.000Z</time>
      </trkpt>
      <trkpt lat="47.29623" lon="-2.24307">
        <ele>-6</ele>
        <time>2022-08-21T09:29:36.000Z</time>
      </trkpt>
      <trkpt lat="47.29643" lon="-2.24299">
        <ele>-5.5999999046326</ele>
        <time>2022-08-21T09:29:40.000Z</time>
      </trkpt>
      <trkpt lat="47.29648" lon="-2.24297">
        <ele>-5</ele>
        <time>2022-08-21T09:29:41.000Z</time>
      </trkpt>
      <trkpt lat="47.29652" lon="-2.24294">
        <ele>-4.5999999046326</ele>
        <time>2022-08-21T09:29:42.000Z</time>
      </trkpt>
      <trkpt lat="47.29657" lon="-2.24292">
        <ele>-4.1999998092651</ele>
        <time>2022-08-21T09:29:43.000Z</time>
      </trkpt>
      <trkpt lat="47.29661" lon="-2.24289">
        <ele>-3.7999999523163</ele>
        <time>2022-08-21T09:29:44.000Z</time>
      </trkpt>
      <trkpt lat="47.29679" lon="-2.24279">
        <ele>-3.7999999523163</ele>
        <time>2022-08-21T09:29:48.000Z</time>
      </trkpt>
      <trkpt lat="47.29706" lon="-2.24264">
        <ele>-3.4000000953674</ele>
        <time>2022-08-21T09:29:54.000Z</time>
      </trkpt>
      <trkpt lat="47.29711" lon="-2.24261">
        <ele>-3</ele>
        <time>2022-08-21T09:29:55.000Z</time>
      </trkpt>
      <trkpt lat="47.29715" lon="-2.24258">
        <ele>-2.5999999046326</ele>
        <time>2022-08-21T09:29:56.000Z</time>
      </trkpt>
      <trkpt lat="47.2972" lon="-2.24256">
        <ele>-2</ele>
        <time>2022-08-21T09:29:57.000Z</time>
      </trkpt>
      <trkpt lat="47.29724" lon="-2.24254">
        <ele>-1.6000000238419</ele>
        <time>2022-08-21T09:29:58.000Z</time>
      </trkpt>
      <trkpt lat="47.29737" lon="-2.24247">
        <ele>-1.6000000238419</ele>
        <time>2022-08-21T09:30:01.000Z</time>
      </trkpt>
      <trkpt lat="47.2975" lon="-2.2424">
        <ele>-0.80000001192093</ele>
        <time>2022-08-21T09:30:04.000Z</time>
      </trkpt>
      <trkpt lat="47.29755" lon="-2.24238">
        <ele>-0.40000000596046</ele>
        <time>2022-08-21T09:30:05.000Z</time>
      </trkpt>
      <trkpt lat="47.29759" lon="-2.24236">
        <ele>12.7</ele>
        <time>2022-08-21T09:30:06.000Z</time>
      </trkpt>
      <trkpt lat="47.29763" lon="-2.24234">
        <ele>0.60000002384186</ele>
        <time>2022-08-21T09:30:07.000Z</time>
      </trkpt>
      <trkpt lat="47.29767" lon="-2.24232">
        <ele>0.60000002384186</ele>
        <time>2022-08-21T09:30:08.000Z</time>
      </trkpt>
      <trkpt lat="47.2979" lon="-2.24222">
        <ele>1</ele>
        <time>2022-08-21T09:30:14.000Z</time>
      </trkpt>
      <trkpt lat="47.29793" lon="-2.2422">
        <ele>1.3999999761581</ele>
        <time>2022-08-21T09:30:15.000Z</time>
      </trkpt>
      <trkpt lat="47.29797" lon="-2.24219">
        <ele>1.7999999523163</ele>
        <time>2022-08-21T09:30:16.000Z</time>
      </trkpt>
      <trkpt lat="47.298" lon="-2.24217">
        <ele>2.2000000476837</ele>
        <time>2022-08-21T09:30:17.000Z</time>
      </trkpt>
      <trkpt lat="47.29803" lon="-2.24216">
        <ele>2.7999999523163</ele>
        <time>2022-08-21T09:30:18.000Z</time>
      </trkpt>
      <trkpt lat="47.29806" lon="-2.24217">
        <ele>2.7999999523163</ele>
        <time>2022-08-21T09:30:19.000Z</time>
      </trkpt>
      <trkpt lat="47.29809" lon="-2.24218">
        <ele>2.7999999523163</ele>
        <time>2022-08-21T09:30:20.000Z</time>
      </trkpt>
      <trkpt lat="47.29817" lon="-2.24224">
        <ele>2.7999999523163</ele>
        <time>2022-08-21T09:30:23.000Z</time>
      </trkpt>
      <trkpt lat="47.29822" lon="-2.24228">
        <ele>2.7999999523163</ele>
        <time>2022-08-21T09:30:25.000Z</time>
      </trkpt>
      <trkpt lat="47.29835" lon="-2.24234">
        <ele>3.5999999046326</ele>
        <time>2022-08-21T09:30:29.000Z</time>
      </trkpt>
      <trkpt lat="47.29839" lon="-2.24237">
        <ele>4</ele>
        <time>2022-08-21T09:30:30.000Z</time>
      </trkpt>
      <trkpt lat="47.29842" lon="-2.24238">
        <ele>4.4000000953674</ele>
        <time>2022-08-21T09:30:31.000Z</time>
      </trkpt>
      <trkpt lat="47.29846" lon="-2.2424">
        <ele>4.8000001907349</ele>
        <time>2022-08-21T09:30:32.000Z</time>
      </trkpt>
      <trkpt lat="47.29874" lon="-2.24254">
        <ele>4.8000001907349</ele>
        <time>2022-08-21T09:30:39.000Z</time>
      </trkpt>
      <trkpt lat="47.29901" lon="-2.24274">
        <ele>4.8000001907349</ele>
        <time>2022-08-21T09:30:45.000Z</time>
      </trkpt>
      <trkpt lat="47.29915" lon="-2.24282">
        <ele>4.8000001907349</ele>
        <time>2022-08-21T09:30:48.000Z</time>
      </trkpt>
      <trkpt lat="47.29925" lon="-2.24287">
        <ele>4.8000001907349</ele>
        <time>2022-08-21T09:30:50.000Z</time>
      </trkpt>
      <trkpt lat="47.29938" lon="-2.24298">
        <ele>4.8000001907349</ele>
        <time>2022-08-21T09:30:53.000Z</time>
      </trkpt>
      <trkpt lat="47.29944" lon="-2.24309">
        <ele>4.8000001907349</ele>
        <time>2022-08-21T09:30:55.000Z</time>
      </trkpt>
      <trkpt lat="47.29947" lon="-2.24314">
        <ele>4.8000001907349</ele>
        <time>2022-08-21T09:30:56.000Z</time>
      </trkpt>
      <trkpt lat="47.29959" lon="-2.24323">
        <ele>4.8000001907349</ele>
        <time>2022-08-21T09:30:59.000Z</time>
      </trkpt>
      <trkpt lat="47.29963" lon="-2.24326">
        <ele>4.8000001907349</ele>
        <time>2022-08-21T09:31:00.000Z</time>
      </trkpt>
      <trkpt lat="47.29974" lon="-2.24339">
        <ele>4.8000001907349</ele>
        <time>2022-08-21T09:31:03.000Z</time>
      </trkpt>
      <trkpt lat="47.2998" lon="-2.24347">
        <ele>4.8000001907349</ele>
        <time>2022-08-21T09:31:05.000Z</time>
      </trkpt>
      <trkpt lat="47.29995" lon="-2.24358">
        <ele>4.8000001907349</ele>
        <time>2022-08-21T09:31:10.000Z</time>
      </trkpt>
      <trkpt lat="47.3" lon="-2.24346">
        <ele>4.8000001907349</ele>
        <time>2022-08-21T09:31:13.000Z</time>
      </trkpt>
      <trkpt lat="47.30008" lon="-2.24318">
        <ele>4.8000001907349</ele>
        <time>2022-08-21T09:31:19.000Z</time>
      </trkpt>
      <trkpt lat="47.30016" lon="-2.24299">
        <ele>4.8000001907349</ele>
        <time>2022-08-21T09:31:24.000Z</time>
      </trkpt>
      <trkpt lat="47.30019" lon="-2.24289">
        <ele>4.8000001907349</ele>
        <time>2022-08-21T09:31:27.000Z</time>
      </trkpt>
      <trkpt lat="47.30021" lon="-2.24286">
        <ele>4.8000001907349</ele>
        <time>2022-08-21T09:31:28.000Z</time>
      </trkpt>
      <trkpt lat="47.30026" lon="-2.2427">
        <ele>4.8000001907349</ele>
        <time>2022-08-21T09:31:32.000Z</time>
      </trkpt>
      <trkpt lat="47.30026" lon="-2.24254">
        <ele>4.8000001907349</ele>
        <time>2022-08-21T09:31:35.000Z</time>
      </trkpt>
      <trkpt lat="47.30026" lon="-2.24246">
        <ele>4.8000001907349</ele>
        <time>2022-08-21T09:31:36.000Z</time>
      </trkpt>
      <trkpt lat="47.30026" lon="-2.24238">
        <ele>4.4000000953674</ele>
        <time>2022-08-21T09:31:37.000Z</time>
      </trkpt>
      <trkpt lat="47.30026" lon="-2.2423">
        <ele>3.7999999523163</ele>
        <time>2022-08-21T09:31:38.000Z</time>
      </trkpt>
      <trkpt lat="47.30026" lon="-2.24223">
        <ele>3.4000000953674</ele>
        <time>2022-08-21T09:31:39.000Z</time>
      </trkpt>
      <trkpt lat="47.30026" lon="-2.24216">
        <ele>3</ele>
        <time>2022-08-21T09:31:40.000Z</time>
      </trkpt>
      <trkpt lat="47.30025" lon="-2.24208">
        <ele>2.5999999046326</ele>
        <time>2022-08-21T09:31:41.000Z</time>
      </trkpt>
      <trkpt lat="47.30025" lon="-2.24192">
        <ele>1.3999999761581</ele>
        <time>2022-08-21T09:31:43.000Z</time>
      </trkpt>
      <trkpt lat="47.30024" lon="-2.24186">
        <ele>1</ele>
        <time>2022-08-21T09:31:44.000Z</time>
      </trkpt>
      <trkpt lat="47.30024" lon="-2.2418">
        <ele>0.40000000596046</ele>
        <time>2022-08-21T09:31:45.000Z</time>
      </trkpt>
      <trkpt lat="47.30023" lon="-2.24176">
        <ele>12.4</ele>
        <time>2022-08-21T09:31:46.000Z</time>
      </trkpt>
      <trkpt lat="47.30022" lon="-2.24172">
        <ele>-0.40000000596046</ele>
        <time>2022-08-21T09:31:48.000Z</time>
      </trkpt>
      <trkpt lat="47.30022" lon="-2.2417">
        <ele>-0.80000001192093</ele>
        <time>2022-08-21T09:31:49.000Z</time>
      </trkpt>
      <trkpt lat="47.30026" lon="-2.24159">
        <ele>-2</ele>
        <time>2022-08-21T09:31:57.000Z</time>
      </trkpt>
      <trkpt lat="47.30031" lon="-2.24151">
        <ele>-2</ele>
        <time>2022-08-21T09:32:00.000Z</time>
      </trkpt>
      <trkpt lat="47.30034" lon="-2.24144">
        <ele>-1.6000000238419</ele>
        <time>2022-08-21T09:32:02.000Z</time>
      </trkpt>
      <trkpt lat="47.30036" lon="-2.24141">
        <ele>-1.2000000476837</ele>
        <time>2022-08-21T09:32:03.000Z</time>
      </trkpt>
      <trkpt lat="47.30038" lon="-2.24139">
        <ele>-0.80000001192093</ele>
        <time>2022-08-21T09:32:04.000Z</time>
      </trkpt>
      <trkpt lat="47.3004" lon="-2.24137">
        <ele>-0.40000000596046</ele>
        <time>2022-08-21T09:32:05.000Z</time>
      </trkpt>
      <trkpt lat="47.30042" lon="-2.24134">
        <ele>0.20000000298023</ele>
        <time>2022-08-21T09:32:06.000Z</time>
      </trkpt>
      <trkpt lat="47.30045" lon="-2.24132">
        <ele>0.20000000298023</ele>
        <time>2022-08-21T09:32:07.000Z</time>
      </trkpt>
      <trkpt lat="47.30062" lon="-2.2412">
        <ele>0.20000000298023</ele>
        <time>2022-08-21T09:32:12.000Z</time>
      </trkpt>
      <trkpt lat="47.30088" lon="-2.24105">
        <ele>0.20000000298023</ele>
        <time>2022-08-21T09:32:18.000Z</time>
      </trkpt>
      <trkpt lat="47.30121" lon="-2.24088">
        <ele>0.20000000298023</ele>
        <time>2022-08-21T09:32:24.000Z</time>
      </trkpt>
      <trkpt lat="47.30148" lon="-2.24074">
        <ele>0.20000000298023</ele>
        <time>2022-08-21T09:32:29.000Z</time>
      </trkpt>
      <trkpt lat="47.30177" lon="-2.24065">
        <ele>0.20000000298023</ele>
        <time>2022-08-21T09:32:34.000Z</time>
      </trkpt>
      <trkpt lat="47.30217" lon="-2.24062">
        <ele>0.20000000298023</ele>
        <time>2022-08-21T09:32:40.000Z</time>
      </trkpt>
      <trkpt lat="47.30239" lon="-2.24065">
        <ele>0.20000000298023</ele>
        <time>2022-08-21T09:32:44.000Z</time>
      </trkpt>
      <trkpt lat="47.30244" lon="-2.24066">
        <ele>0.20000000298023</ele>
        <time>2022-08-21T09:32:45.000Z</time>
      </trkpt>
      <trkpt lat="47.30265" lon="-2.24066">
        <ele>0.20000000298023</ele>
        <time>2022-08-21T09:32:49.000Z</time>
      </trkpt>
      <trkpt lat="47.30269" lon="-2.24064">
        <ele>0.20000000298023</ele>
        <time>2022-08-21T09:32:50.000Z</time>
      </trkpt>
      <trkpt lat="47.30275" lon="-2.24053">
        <ele>0.20000000298023</ele>
        <time>2022-08-21T09:32:52.000Z</time>
      </trkpt>
      <trkpt lat="47.30275" lon="-2.24046">
        <ele>-0.40000000596046</ele>
        <time>2022-08-21T09:32:53.000Z</time>
      </trkpt>
      <trkpt lat="47.30276" lon="-2.2404">
        <ele>-0.80000001192093</ele>
        <time>2022-08-21T09:32:54.000Z</time>
      </trkpt>
      <trkpt lat="47.30276" lon="-2.24032">
        <ele>-1.2000000476837</ele>
        <time>2022-08-21T09:32:55.000Z</time>
      </trkpt>
      <trkpt lat="47.30275" lon="-2.24024">
        <ele>-1.6000000238419</ele>
        <time>2022-08-21T09:32:56.000Z</time>
      </trkpt>
      <trkpt lat="47.30274" lon="-2.24015">
        <ele>-2.2000000476837</ele>
        <time>2022-08-21T09:32:57.000Z</time>
      </trkpt>
      <trkpt lat="47.30273" lon="-2.24006">
        <ele>-2.5999999046326</ele>
        <time>2022-08-21T09:32:58.000Z</time>
      </trkpt>
      <trkpt lat="47.30272" lon="-2.23996">
        <ele>-3</ele>
        <time>2022-08-21T09:32:59.000Z</time>
      </trkpt>
      <trkpt lat="47.3027" lon="-2.23987">
        <ele>-3.4000000953674</ele>
        <time>2022-08-21T09:33:00.000Z</time>
      </trkpt>
      <trkpt lat="47.30267" lon="-2.23977">
        <ele>-4</ele>
        <time>2022-08-21T09:33:01.000Z</time>
      </trkpt>
      <trkpt lat="47.30265" lon="-2.23968">
        <ele>-4.4000000953674</ele>
        <time>2022-08-21T09:33:02.000Z</time>
      </trkpt>
      <trkpt lat="47.3026" lon="-2.23949">
        <ele>-4.4000000953674</ele>
        <time>2022-08-21T09:33:04.000Z</time>
      </trkpt>
      <trkpt lat="47.30259" lon="-2.23939">
        <ele>-4.8000001907349</ele>
        <time>2022-08-21T09:33:05.000Z</time>
      </trkpt>
      <trkpt lat="47.30259" lon="-2.23929">
        <ele>-5.1999998092651</ele>
        <time>2022-08-21T09:33:06.000Z</time>
      </trkpt>
      <trkpt lat="47.3026" lon="-2.2392">
        <ele>-5.5999999046326</ele>
        <time>2022-08-21T09:33:07.000Z</time>
      </trkpt>
      <trkpt lat="47.30262" lon="-2.23911">
        <ele>-6</ele>
        <time>2022-08-21T09:33:08.000Z</time>
      </trkpt>
      <trkpt lat="47.30264" lon="-2.23903">
        <ele>-6.5999999046326</ele>
        <time>2022-08-21T09:33:09.000Z</time>
      </trkpt>
      <trkpt lat="47.3027" lon="-2.23893">
        <ele>-6.5999999046326</ele>
        <time>2022-08-21T09:33:11.000Z</time>
      </trkpt>
      <trkpt lat="47.30275" lon="-2.23888">
        <ele>-6.5999999046326</ele>
        <time>2022-08-21T09:33:13.000Z</time>
      </trkpt>
      <trkpt lat="47.3028" lon="-2.23886">
        <ele>-6.5999999046326</ele>
        <time>2022-08-21T09:33:14.000Z</time>
      </trkpt>
      <trkpt lat="47.30297" lon="-2.23885">
        <ele>-6.5999999046326</ele>
        <time>2022-08-21T09:33:18.000Z</time>
      </trkpt>
      <trkpt lat="47.30302" lon="-2.23883">
        <ele>-6.5999999046326</ele>
        <time>2022-08-21T09:33:19.000Z</time>
      </trkpt>
      <trkpt lat="47.30331" lon="-2.2387">
        <ele>-6.5999999046326</ele>
        <time>2022-08-21T09:33:25.000Z</time>
      </trkpt>
      <trkpt lat="47.30368" lon="-2.23859">
        <ele>-6.5999999046326</ele>
        <time>2022-08-21T09:33:32.000Z</time>
      </trkpt>
      <trkpt lat="47.30417" lon="-2.2385">
        <ele>-6.5999999046326</ele>
        <time>2022-08-21T09:33:41.000Z</time>
      </trkpt>
      <trkpt lat="47.30456" lon="-2.23844">
        <ele>-6.5999999046326</ele>
        <time>2022-08-21T09:33:48.000Z</time>
      </trkpt>
      <trkpt lat="47.30489" lon="-2.23843">
        <ele>-6.5999999046326</ele>
        <time>2022-08-21T09:33:54.000Z</time>
      </trkpt>
      <trkpt lat="47.30494" lon="-2.23846">
        <ele>-6.5999999046326</ele>
        <time>2022-08-21T09:33:55.000Z</time>
      </trkpt>
      <trkpt lat="47.30511" lon="-2.23867">
        <ele>-6.5999999046326</ele>
        <time>2022-08-21T09:33:59.000Z</time>
      </trkpt>
      <trkpt lat="47.30515" lon="-2.23872">
        <ele>-6.5999999046326</ele>
        <time>2022-08-21T09:34:00.000Z</time>
      </trkpt>
      <trkpt lat="47.30541" lon="-2.2391">
        <ele>-6.5999999046326</ele>
        <time>2022-08-21T09:34:07.000Z</time>
      </trkpt>
      <trkpt lat="47.30545" lon="-2.23914">
        <ele>-6.5999999046326</ele>
        <time>2022-08-21T09:34:08.000Z</time>
      </trkpt>
      <trkpt lat="47.30552" lon="-2.23932">
        <ele>-6.5999999046326</ele>
        <time>2022-08-21T09:34:11.000Z</time>
      </trkpt>
      <trkpt lat="47.30545" lon="-2.2395">
        <ele>-6.5999999046326</ele>
        <time>2022-08-21T09:34:14.000Z</time>
      </trkpt>
      <trkpt lat="47.30536" lon="-2.23963">
        <ele>-6.5999999046326</ele>
        <time>2022-08-21T09:34:17.000Z</time>
      </trkpt>
      <trkpt lat="47.30532" lon="-2.23967">
        <ele>-6.5999999046326</ele>
        <time>2022-08-21T09:34:18.000Z</time>
      </trkpt>
      <trkpt lat="47.30522" lon="-2.23979">
        <ele>-6.5999999046326</ele>
        <time>2022-08-21T09:34:21.000Z</time>
      </trkpt>
      <trkpt lat="47.30515" lon="-2.23987">
        <ele>-6.5999999046326</ele>
        <time>2022-08-21T09:34:23.000Z</time>
      </trkpt>
      <trkpt lat="47.30512" lon="-2.23991">
        <ele>-6</ele>
        <time>2022-08-21T09:34:24.000Z</time>
      </trkpt>
      <trkpt lat="47.30509" lon="-2.23995">
        <ele>-5.5999999046326</ele>
        <time>2022-08-21T09:34:25.000Z</time>
      </trkpt>
      <trkpt lat="47.30506" lon="-2.24">
        <ele>-5.1999998092651</ele>
        <time>2022-08-21T09:34:26.000Z</time>
      </trkpt>
      <trkpt lat="47.30504" lon="-2.24004">
        <ele>-4.5999999046326</ele>
        <time>2022-08-21T09:34:27.000Z</time>
      </trkpt>
      <trkpt lat="47.30501" lon="-2.24008">
        <ele>-4.1999998092651</ele>
        <time>2022-08-21T09:34:28.000Z</time>
      </trkpt>
      <trkpt lat="47.30499" lon="-2.24012">
        <ele>-4.1999998092651</ele>
        <time>2022-08-21T09:34:29.000Z</time>
      </trkpt>
      <trkpt lat="47.3049" lon="-2.24022">
        <ele>-3.7999999523163</ele>
        <time>2022-08-21T09:34:32.000Z</time>
      </trkpt>
      <trkpt lat="47.30487" lon="-2.24025">
        <ele>-3.2000000476837</ele>
        <time>2022-08-21T09:34:33.000Z</time>
      </trkpt>
      <trkpt lat="47.30484" lon="-2.24028">
        <ele>-2.7999999523163</ele>
        <time>2022-08-21T09:34:34.000Z</time>
      </trkpt>
      <trkpt lat="47.30481" lon="-2.24031">
        <ele>-2.4000000953674</ele>
        <time>2022-08-21T09:34:35.000Z</time>
      </trkpt>
      <trkpt lat="47.30478" lon="-2.24033">
        <ele>-1.6000000238419</ele>
        <time>2022-08-21T09:34:36.000Z</time>
      </trkpt>
      <trkpt lat="47.30475" lon="-2.24035">
        <ele>-1.2000000476837</ele>
        <time>2022-08-21T09:34:37.000Z</time>
      </trkpt>
      <trkpt lat="47.30472" lon="-2.24037">
        <ele>-0.80000001192093</ele>
        <time>2022-08-21T09:34:38.000Z</time>
      </trkpt>
      <trkpt lat="47.30469" lon="-2.24037">
        <ele>-0.40000000596046</ele>
        <time>2022-08-21T09:34:39.000Z</time>
      </trkpt>
      <trkpt lat="47.30467" lon="-2.24038">
        <ele>11.8</ele>
        <time>2022-08-21T09:34:40.000Z</time>
      </trkpt>
      <trkpt lat="47.30456" lon="-2.24048">
        <ele>12.6</ele>
        <time>2022-08-21T09:34:44.000Z</time>
      </trkpt>
      <trkpt lat="47.3045" lon="-2.24055">
        <ele>0.60000002384186</ele>
        <time>2022-08-21T09:34:46.000Z</time>
      </trkpt>
      <trkpt lat="47.30448" lon="-2.24057">
        <ele>1</ele>
        <time>2022-08-21T09:34:47.000Z</time>
      </trkpt>
      <trkpt lat="47.30445" lon="-2.24059">
        <ele>1.3999999761581</ele>
        <time>2022-08-21T09:34:48.000Z</time>
      </trkpt>
      <trkpt lat="47.30443" lon="-2.24062">
        <ele>1.7999999523163</ele>
        <time>2022-08-21T09:34:49.000Z</time>
      </trkpt>
      <trkpt lat="47.3044" lon="-2.24065">
        <ele>2.2000000476837</ele>
        <time>2022-08-21T09:34:50.000Z</time>
      </trkpt>
      <trkpt lat="47.30432" lon="-2.24076">
        <ele>2.2000000476837</ele>
        <time>2022-08-21T09:34:54.000Z</time>
      </trkpt>
      <trkpt lat="47.30422" lon="-2.24086">
        <ele>2.5999999046326</ele>
        <time>2022-08-21T09:34:58.000Z</time>
      </trkpt>
      <trkpt lat="47.30419" lon="-2.24087">
        <ele>3</ele>
        <time>2022-08-21T09:34:59.000Z</time>
      </trkpt>
      <trkpt lat="47.30417" lon="-2.24091">
        <ele>3.4000000953674</ele>
        <time>2022-08-21T09:35:00.000Z</time>
      </trkpt>
      <trkpt lat="47.30414" lon="-2.24094">
        <ele>4.1999998092651</ele>
        <time>2022-08-21T09:35:01.000Z</time>
      </trkpt>
      <trkpt lat="47.30395" lon="-2.24115">
        <ele>4.1999998092651</ele>
        <time>2022-08-21T09:35:07.000Z</time>
      </trkpt>
      <trkpt lat="47.30387" lon="-2.24123">
        <ele>4.8000001907349</ele>
        <time>2022-08-21T09:35:09.000Z</time>
      </trkpt>
      <trkpt lat="47.30383" lon="-2.24126">
        <ele>5.1999998092651</ele>
        <time>2022-08-21T09:35:10.000Z</time>
      </trkpt>
      <trkpt lat="47.30379" lon="-2.24131">
        <ele>5.5999999046326</ele>
        <time>2022-08-21T09:35:11.000Z</time>
      </trkpt>
      <trkpt lat="47.30375" lon="-2.24136">
        <ele>6</ele>
        <time>2022-08-21T09:35:12.000Z</time>
      </trkpt>
      <trkpt lat="47.3037" lon="-2.24141">
        <ele>6.4000000953674</ele>
        <time>2022-08-21T09:35:13.000Z</time>
      </trkpt>
      <trkpt lat="47.30366" lon="-2.24148">
        <ele>6.4000000953674</ele>
        <time>2022-08-21T09:35:14.000Z</time>
      </trkpt>
      <trkpt lat="47.30355" lon="-2.24166">
        <ele>6.4000000953674</ele>
        <time>2022-08-21T09:35:17.000Z</time>
      </trkpt>
      <trkpt lat="47.30349" lon="-2.2418">
        <ele>6.4000000953674</ele>
        <time>2022-08-21T09:35:19.000Z</time>
      </trkpt>
      <trkpt lat="47.30349" lon="-2.24197">
        <ele>6.4000000953674</ele>
        <time>2022-08-21T09:35:21.000Z</time>
      </trkpt>
      <trkpt lat="47.30351" lon="-2.24204">
        <ele>6</ele>
        <time>2022-08-21T09:35:22.000Z</time>
      </trkpt>
      <trkpt lat="47.30355" lon="-2.2421">
        <ele>5.5999999046326</ele>
        <time>2022-08-21T09:35:23.000Z</time>
      </trkpt>
      <trkpt lat="47.30359" lon="-2.24214">
        <ele>5.1999998092651</ele>
        <time>2022-08-21T09:35:24.000Z</time>
      </trkpt>
      <trkpt lat="47.30363" lon="-2.24219">
        <ele>4.1999998092651</ele>
        <time>2022-08-21T09:35:25.000Z</time>
      </trkpt>
      <trkpt lat="47.30385" lon="-2.24243">
        <ele>4.1999998092651</ele>
        <time>2022-08-21T09:35:31.000Z</time>
      </trkpt>
      <trkpt lat="47.30406" lon="-2.24265">
        <ele>4.1999998092651</ele>
        <time>2022-08-21T09:35:37.000Z</time>
      </trkpt>
      <trkpt lat="47.3041" lon="-2.24269">
        <ele>4.1999998092651</ele>
        <time>2022-08-21T09:35:38.000Z</time>
      </trkpt>
      <trkpt lat="47.30429" lon="-2.24276">
        <ele>4.1999998092651</ele>
        <time>2022-08-21T09:35:42.000Z</time>
      </trkpt>
      <trkpt lat="47.30434" lon="-2.24277">
        <ele>4.1999998092651</ele>
        <time>2022-08-21T09:35:43.000Z</time>
      </trkpt>
      <trkpt lat="47.30466" lon="-2.24286">
        <ele>4.1999998092651</ele>
        <time>2022-08-21T09:35:49.000Z</time>
      </trkpt>
      <trkpt lat="47.30471" lon="-2.24288">
        <ele>4.1999998092651</ele>
        <time>2022-08-21T09:35:50.000Z</time>
      </trkpt>
      <trkpt lat="47.30498" lon="-2.24305">
        <ele>4.1999998092651</ele>
        <time>2022-08-21T09:35:56.000Z</time>
      </trkpt>
      <trkpt lat="47.30502" lon="-2.24309">
        <ele>4.1999998092651</ele>
        <time>2022-08-21T09:35:57.000Z</time>
      </trkpt>
      <trkpt lat="47.3054" lon="-2.24346">
        <ele>4.1999998092651</ele>
        <time>2022-08-21T09:36:06.000Z</time>
      </trkpt>
      <trkpt lat="47.30564" lon="-2.2437">
        <ele>4.1999998092651</ele>
        <time>2022-08-21T09:36:12.000Z</time>
      </trkpt>
      <trkpt lat="47.30597" lon="-2.24407">
        <ele>4.1999998092651</ele>
        <time>2022-08-21T09:36:20.000Z</time>
      </trkpt>
      <trkpt lat="47.30611" lon="-2.24415">
        <ele>4.1999998092651</ele>
        <time>2022-08-21T09:36:24.000Z</time>
      </trkpt>
      <trkpt lat="47.30626" lon="-2.24422">
        <ele>3.7999999523163</ele>
        <time>2022-08-21T09:36:28.000Z</time>
      </trkpt>
      <trkpt lat="47.30629" lon="-2.24424">
        <ele>3.4000000953674</ele>
        <time>2022-08-21T09:36:29.000Z</time>
      </trkpt>
      <trkpt lat="47.30631" lon="-2.24427">
        <ele>3</ele>
        <time>2022-08-21T09:36:30.000Z</time>
      </trkpt>
      <trkpt lat="47.30632" lon="-2.2443">
        <ele>2.5999999046326</ele>
        <time>2022-08-21T09:36:31.000Z</time>
      </trkpt>
      <trkpt lat="47.30633" lon="-2.24432">
        <ele>2.2000000476837</ele>
        <time>2022-08-21T09:36:32.000Z</time>
      </trkpt>
      <trkpt lat="47.30634" lon="-2.24434">
        <ele>2.2000000476837</ele>
        <time>2022-08-21T09:36:33.000Z</time>
      </trkpt>
      <trkpt lat="47.30633" lon="-2.24456">
        <ele>2.2000000476837</ele>
        <time>2022-08-21T09:36:38.000Z</time>
      </trkpt>
      <trkpt lat="47.30632" lon="-2.24464">
        <ele>1.7999999523163</ele>
        <time>2022-08-21T09:36:39.000Z</time>
      </trkpt>
      <trkpt lat="47.30631" lon="-2.24472">
        <ele>0.80000001192093</ele>
        <time>2022-08-21T09:36:40.000Z</time>
      </trkpt>
      <trkpt lat="47.30629" lon="-2.24479">
        <ele>0.40000000596046</ele>
        <time>2022-08-21T09:36:41.000Z</time>
      </trkpt>
      <trkpt lat="47.30628" lon="-2.24488">
        <ele>8.6</ele>
        <time>2022-08-21T09:36:42.000Z</time>
      </trkpt>
      <trkpt lat="47.30623" lon="-2.24516">
        <ele>-0.60000002384186</ele>
        <time>2022-08-21T09:36:45.000Z</time>
      </trkpt>
      <trkpt lat="47.30622" lon="-2.24527">
        <ele>-1</ele>
        <time>2022-08-21T09:36:46.000Z</time>
      </trkpt>
      <trkpt lat="47.3062" lon="-2.24539">
        <ele>-1.3999999761581</ele>
        <time>2022-08-21T09:36:47.000Z</time>
      </trkpt>
      <trkpt lat="47.30619" lon="-2.24549">
        <ele>-2</ele>
        <time>2022-08-21T09:36:48.000Z</time>
      </trkpt>
      <trkpt lat="47.30618" lon="-2.24561">
        <ele>-2.4000000953674</ele>
        <time>2022-08-21T09:36:49.000Z</time>
      </trkpt>
      <trkpt lat="47.30616" lon="-2.24573">
        <ele>-2.7999999523163</ele>
        <time>2022-08-21T09:36:50.000Z</time>
      </trkpt>
      <trkpt lat="47.30615" lon="-2.24584">
        <ele>-3.2000000476837</ele>
        <time>2022-08-21T09:36:51.000Z</time>
      </trkpt>
      <trkpt lat="47.30614" lon="-2.24596">
        <ele>-3.5999999046326</ele>
        <time>2022-08-21T09:36:52.000Z</time>
      </trkpt>
      <trkpt lat="47.30615" lon="-2.24608">
        <ele>-4</ele>
        <time>2022-08-21T09:36:53.000Z</time>
      </trkpt>
      <trkpt lat="47.30616" lon="-2.2462">
        <ele>-4.4000000953674</ele>
        <time>2022-08-21T09:36:54.000Z</time>
      </trkpt>
      <trkpt lat="47.30626" lon="-2.2466">
        <ele>-4.4000000953674</ele>
        <time>2022-08-21T09:36:58.000Z</time>
      </trkpt>
      <trkpt lat="47.30629" lon="-2.2467">
        <ele>-4.4000000953674</ele>
        <time>2022-08-21T09:36:59.000Z</time>
      </trkpt>
      <trkpt lat="47.30634" lon="-2.24689">
        <ele>-4.8000001907349</ele>
        <time>2022-08-21T09:37:01.000Z</time>
      </trkpt>
      <trkpt lat="47.30637" lon="-2.24698">
        <ele>-5.1999998092651</ele>
        <time>2022-08-21T09:37:02.000Z</time>
      </trkpt>
      <trkpt lat="47.3064" lon="-2.24706">
        <ele>-5.5999999046326</ele>
        <time>2022-08-21T09:37:03.000Z</time>
      </trkpt>
      <trkpt lat="47.30642" lon="-2.24714">
        <ele>-6</ele>
        <time>2022-08-21T09:37:04.000Z</time>
      </trkpt>
      <trkpt lat="47.30644" lon="-2.24723">
        <ele>-6.4000000953674</ele>
        <time>2022-08-21T09:37:05.000Z</time>
      </trkpt>
      <trkpt lat="47.30648" lon="-2.24731">
        <ele>-6.4000000953674</ele>
        <time>2022-08-21T09:37:06.000Z</time>
      </trkpt>
      <trkpt lat="47.30651" lon="-2.24747">
        <ele>-6.4000000953674</ele>
        <time>2022-08-21T09:37:08.000Z</time>
      </trkpt>
      <trkpt lat="47.30651" lon="-2.24762">
        <ele>-6.4000000953674</ele>
        <time>2022-08-21T09:37:10.000Z</time>
      </trkpt>
      <trkpt lat="47.30639" lon="-2.24782">
        <ele>-6.4000000953674</ele>
        <time>2022-08-21T09:37:13.000Z</time>
      </trkpt>
      <trkpt lat="47.30612" lon="-2.24819">
        <ele>-6.4000000953674</ele>
        <time>2022-08-21T09:37:19.000Z</time>
      </trkpt>
      <trkpt lat="47.30593" lon="-2.24857">
        <ele>-6.4000000953674</ele>
        <time>2022-08-21T09:37:24.000Z</time>
      </trkpt>
      <trkpt lat="47.3059" lon="-2.24864">
        <ele>-6.4000000953674</ele>
        <time>2022-08-21T09:37:25.000Z</time>
      </trkpt>
      <trkpt lat="47.30584" lon="-2.24886">
        <ele>-6.4000000953674</ele>
        <time>2022-08-21T09:37:28.000Z</time>
      </trkpt>
      <trkpt lat="47.30578" lon="-2.24912">
        <ele>-6.4000000953674</ele>
        <time>2022-08-21T09:37:31.000Z</time>
      </trkpt>
      <trkpt lat="47.30575" lon="-2.2493">
        <ele>-6.4000000953674</ele>
        <time>2022-08-21T09:37:33.000Z</time>
      </trkpt>
      <trkpt lat="47.30573" lon="-2.24958">
        <ele>-6.4000000953674</ele>
        <time>2022-08-21T09:37:36.000Z</time>
      </trkpt>
      <trkpt lat="47.30574" lon="-2.24976">
        <ele>-6.4000000953674</ele>
        <time>2022-08-21T09:37:38.000Z</time>
      </trkpt>
      <trkpt lat="47.30576" lon="-2.25014">
        <ele>-6.4000000953674</ele>
        <time>2022-08-21T09:37:42.000Z</time>
      </trkpt>
      <trkpt lat="47.30585" lon="-2.25084">
        <ele>-6.4000000953674</ele>
        <time>2022-08-21T09:37:50.000Z</time>
      </trkpt>
      <trkpt lat="47.30597" lon="-2.25139">
        <ele>-6.4000000953674</ele>
        <time>2022-08-21T09:37:57.000Z</time>
      </trkpt>
      <trkpt lat="47.30603" lon="-2.25151">
        <ele>-6.4000000953674</ele>
        <time>2022-08-21T09:37:59.000Z</time>
      </trkpt>
      <trkpt lat="47.3061" lon="-2.25166">
        <ele>-6.4000000953674</ele>
        <time>2022-08-21T09:38:01.000Z</time>
      </trkpt>
      <trkpt lat="47.30634" lon="-2.25224">
        <ele>-6.4000000953674</ele>
        <time>2022-08-21T09:38:09.000Z</time>
      </trkpt>
      <trkpt lat="47.30645" lon="-2.2527">
        <ele>-6.4000000953674</ele>
        <time>2022-08-21T09:38:15.000Z</time>
      </trkpt>
      <trkpt lat="47.30655" lon="-2.25314">
        <ele>-6.4000000953674</ele>
        <time>2022-08-21T09:38:21.000Z</time>
      </trkpt>
      <trkpt lat="47.30663" lon="-2.2536">
        <ele>-6.4000000953674</ele>
        <time>2022-08-21T09:38:27.000Z</time>
      </trkpt>
      <trkpt lat="47.30664" lon="-2.25373">
        <ele>-6.4000000953674</ele>
        <time>2022-08-21T09:38:29.000Z</time>
      </trkpt>
      <trkpt lat="47.30665" lon="-2.25393">
        <ele>-6.4000000953674</ele>
        <time>2022-08-21T09:38:32.000Z</time>
      </trkpt>
      <trkpt lat="47.30665" lon="-2.254">
        <ele>-6.4000000953674</ele>
        <time>2022-08-21T09:38:33.000Z</time>
      </trkpt>
      <trkpt lat="47.30668" lon="-2.25408">
        <ele>-6.4000000953674</ele>
        <time>2022-08-21T09:38:35.000Z</time>
      </trkpt>
      <trkpt lat="47.3067" lon="-2.25411">
        <ele>-6.4000000953674</ele>
        <time>2022-08-21T09:38:36.000Z</time>
      </trkpt>
      <trkpt lat="47.30676" lon="-2.25424">
        <ele>-6.4000000953674</ele>
        <time>2022-08-21T09:38:39.000Z</time>
      </trkpt>
      <trkpt lat="47.30686" lon="-2.25428">
        <ele>-6.4000000953674</ele>
        <time>2022-08-21T09:38:41.000Z</time>
      </trkpt>
      <trkpt lat="47.30706" lon="-2.25429">
        <ele>-6.4000000953674</ele>
        <time>2022-08-21T09:38:45.000Z</time>
      </trkpt>
      <trkpt lat="47.30711" lon="-2.2543">
        <ele>-6.4000000953674</ele>
        <time>2022-08-21T09:38:46.000Z</time>
      </trkpt>
      <trkpt lat="47.30737" lon="-2.25432">
        <ele>-6.4000000953674</ele>
        <time>2022-08-21T09:38:51.000Z</time>
      </trkpt>
      <trkpt lat="47.30742" lon="-2.25431">
        <ele>-6.4000000953674</ele>
        <time>2022-08-21T09:38:52.000Z</time>
      </trkpt>
      <trkpt lat="47.30765" lon="-2.25426">
        <ele>-6.4000000953674</ele>
        <time>2022-08-21T09:38:57.000Z</time>
      </trkpt>
      <trkpt lat="47.3077" lon="-2.25425">
        <ele>-6</ele>
        <time>2022-08-21T09:38:58.000Z</time>
      </trkpt>
      <trkpt lat="47.30774" lon="-2.25424">
        <ele>-5.5999999046326</ele>
        <time>2022-08-21T09:38:59.000Z</time>
      </trkpt>
      <trkpt lat="47.30778" lon="-2.25424">
        <ele>-5.1999998092651</ele>
        <time>2022-08-21T09:39:00.000Z</time>
      </trkpt>
      <trkpt lat="47.30783" lon="-2.25424">
        <ele>-4.8000001907349</ele>
        <time>2022-08-21T09:39:01.000Z</time>
      </trkpt>
      <trkpt lat="47.30787" lon="-2.25423">
        <ele>-4.4000000953674</ele>
        <time>2022-08-21T09:39:02.000Z</time>
      </trkpt>
      <trkpt lat="47.30795" lon="-2.25423">
        <ele>-4.4000000953674</ele>
        <time>2022-08-21T09:39:04.000Z</time>
      </trkpt>
      <trkpt lat="47.30803" lon="-2.25421">
        <ele>-4</ele>
        <time>2022-08-21T09:39:06.000Z</time>
      </trkpt>
      <trkpt lat="47.30807" lon="-2.2542">
        <ele>-3.5999999046326</ele>
        <time>2022-08-21T09:39:07.000Z</time>
      </trkpt>
      <trkpt lat="47.30812" lon="-2.2542">
        <ele>-2.7999999523163</ele>
        <time>2022-08-21T09:39:08.000Z</time>
      </trkpt>
      <trkpt lat="47.30815" lon="-2.25419">
        <ele>-2.4000000953674</ele>
        <time>2022-08-21T09:39:09.000Z</time>
      </trkpt>
      <trkpt lat="47.30823" lon="-2.25416">
        <ele>-2.4000000953674</ele>
        <time>2022-08-21T09:39:11.000Z</time>
      </trkpt>
      <trkpt lat="47.30846" lon="-2.25417">
        <ele>-2.4000000953674</ele>
        <time>2022-08-21T09:39:17.000Z</time>
      </trkpt>
      <trkpt lat="47.3085" lon="-2.2542">
        <ele>-2</ele>
        <time>2022-08-21T09:39:18.000Z</time>
      </trkpt>
      <trkpt lat="47.30853" lon="-2.25425">
        <ele>-1.6000000238419</ele>
        <time>2022-08-21T09:39:19.000Z</time>
      </trkpt>
      <trkpt lat="47.30854" lon="-2.25429">
        <ele>-1</ele>
        <time>2022-08-21T09:39:20.000Z</time>
      </trkpt>
      <trkpt lat="47.30854" lon="-2.25435">
        <ele>-0.60000002384186</ele>
        <time>2022-08-21T09:39:21.000Z</time>
      </trkpt>
      <trkpt lat="47.30854" lon="-2.2544">
        <ele>-0.20000000298023</ele>
        <time>2022-08-21T09:39:22.000Z</time>
      </trkpt>
      <trkpt lat="47.30855" lon="-2.25445">
        <ele>-0.20000000298023</ele>
        <time>2022-08-21T09:39:23.000Z</time>
      </trkpt>
      <trkpt lat="47.30855" lon="-2.25451">
        <ele>-0.20000000298023</ele>
        <time>2022-08-21T09:39:24.000Z</time>
      </trkpt>
      <trkpt lat="47.30858" lon="-2.2548">
        <ele>-0.20000000298023</ele>
        <time>2022-08-21T09:39:29.000Z</time>
      </trkpt>
      <trkpt lat="47.30863" lon="-2.25527">
        <ele>-0.20000000298023</ele>
        <time>2022-08-21T09:39:37.000Z</time>
      </trkpt>
      <trkpt lat="47.30864" lon="-2.25534">
        <ele>-0.20000000298023</ele>
        <time>2022-08-21T09:39:38.000Z</time>
      </trkpt>
      <trkpt lat="47.30867" lon="-2.25561">
        <ele>-0.20000000298023</ele>
        <time>2022-08-21T09:39:42.000Z</time>
      </trkpt>
      <trkpt lat="47.30867" lon="-2.25567">
        <ele>-0.20000000298023</ele>
        <time>2022-08-21T09:39:43.000Z</time>
      </trkpt>
      <trkpt lat="47.3087" lon="-2.25605">
        <ele>0.20000000298023</ele>
        <time>2022-08-21T09:39:48.000Z</time>
      </trkpt>
      <trkpt lat="47.3087" lon="-2.25612">
        <ele>0.60000002384186</ele>
        <time>2022-08-21T09:39:49.000Z</time>
      </trkpt>
      <trkpt lat="47.30871" lon="-2.2562">
        <ele>1</ele>
        <time>2022-08-21T09:39:50.000Z</time>
      </trkpt>
      <trkpt lat="47.30872" lon="-2.25629">
        <ele>1.3999999761581</ele>
        <time>2022-08-21T09:39:51.000Z</time>
      </trkpt>
      <trkpt lat="47.30873" lon="-2.25636">
        <ele>1.7999999523163</ele>
        <time>2022-08-21T09:39:52.000Z</time>
      </trkpt>
      <trkpt lat="47.30874" lon="-2.25651">
        <ele>1.7999999523163</ele>
        <time>2022-08-21T09:39:54.000Z</time>
      </trkpt>
      <trkpt lat="47.30876" lon="-2.25694">
        <ele>1.7999999523163</ele>
        <time>2022-08-21T09:40:00.000Z</time>
      </trkpt>
      <trkpt lat="47.30877" lon="-2.25742">
        <ele>1.7999999523163</ele>
        <time>2022-08-21T09:40:06.000Z</time>
      </trkpt>
      <trkpt lat="47.3088" lon="-2.25764">
        <ele>2.2000000476837</ele>
        <time>2022-08-21T09:40:09.000Z</time>
      </trkpt>
      <trkpt lat="47.30881" lon="-2.2577">
        <ele>2.5999999046326</ele>
        <time>2022-08-21T09:40:10.000Z</time>
      </trkpt>
      <trkpt lat="47.30883" lon="-2.25777">
        <ele>3</ele>
        <time>2022-08-21T09:40:11.000Z</time>
      </trkpt>
      <trkpt lat="47.30884" lon="-2.25784">
        <ele>3.4000000953674</ele>
        <time>2022-08-21T09:40:12.000Z</time>
      </trkpt>
      <trkpt lat="47.30886" lon="-2.25791">
        <ele>3.7999999523163</ele>
        <time>2022-08-21T09:40:13.000Z</time>
      </trkpt>
      <trkpt lat="47.30893" lon="-2.25817">
        <ele>3.7999999523163</ele>
        <time>2022-08-21T09:40:17.000Z</time>
      </trkpt>
      <trkpt lat="47.30903" lon="-2.25847">
        <ele>3.7999999523163</ele>
        <time>2022-08-21T09:40:22.000Z</time>
      </trkpt>
      <trkpt lat="47.30908" lon="-2.25858">
        <ele>3.7999999523163</ele>
        <time>2022-08-21T09:40:24.000Z</time>
      </trkpt>
      <trkpt lat="47.30912" lon="-2.25888">
        <ele>3.7999999523163</ele>
        <time>2022-08-21T09:40:30.000Z</time>
      </trkpt>
      <trkpt lat="47.30896" lon="-2.25909">
        <ele>3.7999999523163</ele>
        <time>2022-08-21T09:40:35.000Z</time>
      </trkpt>
      <trkpt lat="47.30875" lon="-2.25937">
        <ele>3.7999999523163</ele>
        <time>2022-08-21T09:40:41.000Z</time>
      </trkpt>
      <trkpt lat="47.30849" lon="-2.25967">
        <ele>3.7999999523163</ele>
        <time>2022-08-21T09:40:47.000Z</time>
      </trkpt>
      <trkpt lat="47.30818" lon="-2.26002">
        <ele>3.7999999523163</ele>
        <time>2022-08-21T09:40:54.000Z</time>
      </trkpt>
      <trkpt lat="47.30788" lon="-2.26027">
        <ele>3.7999999523163</ele>
        <time>2022-08-21T09:41:00.000Z</time>
      </trkpt>
      <trkpt lat="47.30756" lon="-2.26046">
        <ele>3.7999999523163</ele>
        <time>2022-08-21T09:41:06.000Z</time>
      </trkpt>
      <trkpt lat="47.30702" lon="-2.26076">
        <ele>3.7999999523163</ele>
        <time>2022-08-21T09:41:15.000Z</time>
      </trkpt>
      <trkpt lat="47.30696" lon="-2.26079">
        <ele>3.7999999523163</ele>
        <time>2022-08-21T09:41:16.000Z</time>
      </trkpt>
      <trkpt lat="47.30641" lon="-2.2611">
        <ele>3.7999999523163</ele>
        <time>2022-08-21T09:41:25.000Z</time>
      </trkpt>
      <trkpt lat="47.30636" lon="-2.26113">
        <ele>3.4000000953674</ele>
        <time>2022-08-21T09:41:26.000Z</time>
      </trkpt>
      <trkpt lat="47.30631" lon="-2.26116">
        <ele>3</ele>
        <time>2022-08-21T09:41:27.000Z</time>
      </trkpt>
      <trkpt lat="47.30627" lon="-2.2612">
        <ele>2.5999999046326</ele>
        <time>2022-08-21T09:41:28.000Z</time>
      </trkpt>
      <trkpt lat="47.30623" lon="-2.26126">
        <ele>2</ele>
        <time>2022-08-21T09:41:29.000Z</time>
      </trkpt>
      <trkpt lat="47.3062" lon="-2.26133">
        <ele>1.6000000238419</ele>
        <time>2022-08-21T09:41:30.000Z</time>
      </trkpt>
      <trkpt lat="47.306" lon="-2.26168">
        <ele>1.6000000238419</ele>
        <time>2022-08-21T09:41:36.000Z</time>
      </trkpt>
      <trkpt lat="47.30594" lon="-2.26182">
        <ele>1.6000000238419</ele>
        <time>2022-08-21T09:41:38.000Z</time>
      </trkpt>
      <trkpt lat="47.30591" lon="-2.26196">
        <ele>1.6000000238419</ele>
        <time>2022-08-21T09:41:40.000Z</time>
      </trkpt>
      <trkpt lat="47.30586" lon="-2.26226">
        <ele>1.6000000238419</ele>
        <time>2022-08-21T09:41:44.000Z</time>
      </trkpt>
      <trkpt lat="47.30581" lon="-2.26251">
        <ele>1.6000000238419</ele>
        <time>2022-08-21T09:41:48.000Z</time>
      </trkpt>
      <trkpt lat="47.30579" lon="-2.26259">
        <ele>1.6000000238419</ele>
        <time>2022-08-21T09:41:49.000Z</time>
      </trkpt>
      <trkpt lat="47.30565" lon="-2.26314">
        <ele>1.6000000238419</ele>
        <time>2022-08-21T09:41:56.000Z</time>
      </trkpt>
      <trkpt lat="47.30554" lon="-2.26355">
        <ele>1.6000000238419</ele>
        <time>2022-08-21T09:42:01.000Z</time>
      </trkpt>
      <trkpt lat="47.30551" lon="-2.26363">
        <ele>1.6000000238419</ele>
        <time>2022-08-21T09:42:02.000Z</time>
      </trkpt>
      <trkpt lat="47.30542" lon="-2.26389">
        <ele>1.6000000238419</ele>
        <time>2022-08-21T09:42:06.000Z</time>
      </trkpt>
      <trkpt lat="47.3053" lon="-2.26422">
        <ele>1.6000000238419</ele>
        <time>2022-08-21T09:42:11.000Z</time>
      </trkpt>
      <trkpt lat="47.30519" lon="-2.26445">
        <ele>1.6000000238419</ele>
        <time>2022-08-21T09:42:14.000Z</time>
      </trkpt>
      <trkpt lat="47.30509" lon="-2.26466">
        <ele>1.6000000238419</ele>
        <time>2022-08-21T09:42:17.000Z</time>
      </trkpt>
      <trkpt lat="47.30503" lon="-2.26479">
        <ele>1.6000000238419</ele>
        <time>2022-08-21T09:42:19.000Z</time>
      </trkpt>
      <trkpt lat="47.30495" lon="-2.26494">
        <ele>1.6000000238419</ele>
        <time>2022-08-21T09:42:22.000Z</time>
      </trkpt>
      <trkpt lat="47.30486" lon="-2.26512">
        <ele>1.6000000238419</ele>
        <time>2022-08-21T09:42:26.000Z</time>
      </trkpt>
      <trkpt lat="47.30482" lon="-2.26518">
        <ele>1.6000000238419</ele>
        <time>2022-08-21T09:42:27.000Z</time>
      </trkpt>
      <trkpt lat="47.30474" lon="-2.26535">
        <ele>1.6000000238419</ele>
        <time>2022-08-21T09:42:30.000Z</time>
      </trkpt>
      <trkpt lat="47.30466" lon="-2.26553">
        <ele>1.6000000238419</ele>
        <time>2022-08-21T09:42:33.000Z</time>
      </trkpt>
      <trkpt lat="47.30442" lon="-2.26605">
        <ele>1.6000000238419</ele>
        <time>2022-08-21T09:42:41.000Z</time>
      </trkpt>
      <trkpt lat="47.30425" lon="-2.26641">
        <ele>1.6000000238419</ele>
        <time>2022-08-21T09:42:46.000Z</time>
      </trkpt>
      <trkpt lat="47.30406" lon="-2.26684">
        <ele>1.6000000238419</ele>
        <time>2022-08-21T09:42:52.000Z</time>
      </trkpt>
      <trkpt lat="47.30399" lon="-2.26698">
        <ele>1.6000000238419</ele>
        <time>2022-08-21T09:42:54.000Z</time>
      </trkpt>
      <trkpt lat="47.30387" lon="-2.26719">
        <ele>1.6000000238419</ele>
        <time>2022-08-21T09:42:57.000Z</time>
      </trkpt>
      <trkpt lat="47.30364" lon="-2.2676">
        <ele>1.6000000238419</ele>
        <time>2022-08-21T09:43:03.000Z</time>
      </trkpt>
      <trkpt lat="47.30356" lon="-2.26791">
        <ele>1.6000000238419</ele>
        <time>2022-08-21T09:43:07.000Z</time>
      </trkpt>
      <trkpt lat="47.30355" lon="-2.26826">
        <ele>1.6000000238419</ele>
        <time>2022-08-21T09:43:11.000Z</time>
      </trkpt>
      <trkpt lat="47.30357" lon="-2.26869">
        <ele>1.6000000238419</ele>
        <time>2022-08-21T09:43:16.000Z</time>
      </trkpt>
      <trkpt lat="47.30364" lon="-2.2692">
        <ele>1.6000000238419</ele>
        <time>2022-08-21T09:43:22.000Z</time>
      </trkpt>
      <trkpt lat="47.30367" lon="-2.26938">
        <ele>1.2000000476837</ele>
        <time>2022-08-21T09:43:24.000Z</time>
      </trkpt>
      <trkpt lat="47.30367" lon="-2.26947">
        <ele>0.80000001192093</ele>
        <time>2022-08-21T09:43:25.000Z</time>
      </trkpt>
      <trkpt lat="47.30367" lon="-2.26956">
        <ele>0.40000000596046</ele>
        <time>2022-08-21T09:43:26.000Z</time>
      </trkpt>
      <trkpt lat="47.30368" lon="-2.26965">
        <ele>8</ele>
        <time>2022-08-21T09:43:27.000Z</time>
      </trkpt>
      <trkpt lat="47.30369" lon="-2.26974">
        <ele>-0.40000000596046</ele>
        <time>2022-08-21T09:43:28.000Z</time>
      </trkpt>
      <trkpt lat="47.3037" lon="-2.27017">
        <ele>-0.40000000596046</ele>
        <time>2022-08-21T09:43:33.000Z</time>
      </trkpt>
      <trkpt lat="47.30371" lon="-2.27032">
        <ele>-0.40000000596046</ele>
        <time>2022-08-21T09:43:35.000Z</time>
      </trkpt>
      <trkpt lat="47.30378" lon="-2.27051">
        <ele>-0.40000000596046</ele>
        <time>2022-08-21T09:43:38.000Z</time>
      </trkpt>
      <trkpt lat="47.30387" lon="-2.27057">
        <ele>-0.40000000596046</ele>
        <time>2022-08-21T09:43:40.000Z</time>
      </trkpt>
      <trkpt lat="47.30392" lon="-2.27059">
        <ele>-0.40000000596046</ele>
        <time>2022-08-21T09:43:41.000Z</time>
      </trkpt>
      <trkpt lat="47.30396" lon="-2.27063">
        <ele>-0.40000000596046</ele>
        <time>2022-08-21T09:43:42.000Z</time>
      </trkpt>
      <trkpt lat="47.30408" lon="-2.27092">
        <ele>-0.40000000596046</ele>
        <time>2022-08-21T09:43:46.000Z</time>
      </trkpt>
      <trkpt lat="47.30411" lon="-2.27109">
        <ele>-0.40000000596046</ele>
        <time>2022-08-21T09:43:48.000Z</time>
      </trkpt>
      <trkpt lat="47.30414" lon="-2.27132">
        <ele>-0.40000000596046</ele>
        <time>2022-08-21T09:43:51.000Z</time>
      </trkpt>
      <trkpt lat="47.30415" lon="-2.2714">
        <ele>-0.40000000596046</ele>
        <time>2022-08-21T09:43:52.000Z</time>
      </trkpt>
      <trkpt lat="47.30411" lon="-2.27153">
        <ele>-0.80000001192093</ele>
        <time>2022-08-21T09:43:54.000Z</time>
      </trkpt>
      <trkpt lat="47.30407" lon="-2.27157">
        <ele>-1.2000000476837</ele>
        <time>2022-08-21T09:43:55.000Z</time>
      </trkpt>
      <trkpt lat="47.30403" lon="-2.27159">
        <ele>-1.6000000238419</ele>
        <time>2022-08-21T09:43:56.000Z</time>
      </trkpt>
      <trkpt lat="47.30399" lon="-2.27161">
        <ele>-2</ele>
        <time>2022-08-21T09:43:57.000Z</time>
      </trkpt>
      <trkpt lat="47.30395" lon="-2.27161">
        <ele>-2.4000000953674</ele>
        <time>2022-08-21T09:43:58.000Z</time>
      </trkpt>
      <trkpt lat="47.30392" lon="-2.27161">
        <ele>-2.4000000953674</ele>
        <time>2022-08-21T09:43:59.000Z</time>
      </trkpt>
      <trkpt lat="47.30384" lon="-2.27163">
        <ele>-2.4000000953674</ele>
        <time>2022-08-21T09:44:01.000Z</time>
      </trkpt>
      <trkpt lat="47.3038" lon="-2.27164">
        <ele>-2.4000000953674</ele>
        <time>2022-08-21T09:44:02.000Z</time>
      </trkpt>
      <trkpt lat="47.30371" lon="-2.27167">
        <ele>-2.4000000953674</ele>
        <time>2022-08-21T09:44:04.000Z</time>
      </trkpt>
      <trkpt lat="47.30338" lon="-2.27175">
        <ele>-2.4000000953674</ele>
        <time>2022-08-21T09:44:10.000Z</time>
      </trkpt>
      <trkpt lat="47.30327" lon="-2.27177">
        <ele>-2.4000000953674</ele>
        <time>2022-08-21T09:44:12.000Z</time>
      </trkpt>
      <trkpt lat="47.30306" lon="-2.27182">
        <ele>-2.4000000953674</ele>
        <time>2022-08-21T09:44:16.000Z</time>
      </trkpt>
      <trkpt lat="47.30276" lon="-2.27182">
        <ele>-2.4000000953674</ele>
        <time>2022-08-21T09:44:22.000Z</time>
      </trkpt>
      <trkpt lat="47.30271" lon="-2.27181">
        <ele>-2.4000000953674</ele>
        <time>2022-08-21T09:44:23.000Z</time>
      </trkpt>
      <trkpt lat="47.30252" lon="-2.27172">
        <ele>-2.4000000953674</ele>
        <time>2022-08-21T09:44:27.000Z</time>
      </trkpt>
      <trkpt lat="47.30248" lon="-2.2717">
        <ele>-2</ele>
        <time>2022-08-21T09:44:28.000Z</time>
      </trkpt>
      <trkpt lat="47.30243" lon="-2.27168">
        <ele>-1.6000000238419</ele>
        <time>2022-08-21T09:44:29.000Z</time>
      </trkpt>
      <trkpt lat="47.30239" lon="-2.27166">
        <ele>-0.80000001192093</ele>
        <time>2022-08-21T09:44:30.000Z</time>
      </trkpt>
      <trkpt lat="47.30235" lon="-2.27164">
        <ele>-0.40000000596046</ele>
        <time>2022-08-21T09:44:31.000Z</time>
      </trkpt>
      <trkpt lat="47.30219" lon="-2.27158">
        <ele>-0.40000000596046</ele>
        <time>2022-08-21T09:44:35.000Z</time>
      </trkpt>
      <trkpt lat="47.30204" lon="-2.27167">
        <ele>-0.40000000596046</ele>
        <time>2022-08-21T09:44:38.000Z</time>
      </trkpt>
      <trkpt lat="47.30199" lon="-2.27172">
        <ele>-0.40000000596046</ele>
        <time>2022-08-21T09:44:39.000Z</time>
      </trkpt>
      <trkpt lat="47.30175" lon="-2.272">
        <ele>-0.40000000596046</ele>
        <time>2022-08-21T09:44:44.000Z</time>
      </trkpt>
      <trkpt lat="47.30141" lon="-2.27242">
        <ele>-0.40000000596046</ele>
        <time>2022-08-21T09:44:51.000Z</time>
      </trkpt>
      <trkpt lat="47.3011" lon="-2.27285">
        <ele>-0.40000000596046</ele>
        <time>2022-08-21T09:44:58.000Z</time>
      </trkpt>
      <trkpt lat="47.30087" lon="-2.27326">
        <ele>-0.40000000596046</ele>
        <time>2022-08-21T09:45:04.000Z</time>
      </trkpt>
      <trkpt lat="47.30067" lon="-2.27375">
        <ele>-0.40000000596046</ele>
        <time>2022-08-21T09:45:11.000Z</time>
      </trkpt>
      <trkpt lat="47.30048" lon="-2.27407">
        <ele>-0.40000000596046</ele>
        <time>2022-08-21T09:45:16.000Z</time>
      </trkpt>
      <trkpt lat="47.30009" lon="-2.27465">
        <ele>-0.40000000596046</ele>
        <time>2022-08-21T09:45:25.000Z</time>
      </trkpt>
      <trkpt lat="47.30006" lon="-2.27473">
        <ele>-0.40000000596046</ele>
        <time>2022-08-21T09:45:26.000Z</time>
      </trkpt>
      <trkpt lat="47.29996" lon="-2.27502">
        <ele>-0.40000000596046</ele>
        <time>2022-08-21T09:45:30.000Z</time>
      </trkpt>
      <trkpt lat="47.29993" lon="-2.27517">
        <ele>-0.40000000596046</ele>
        <time>2022-08-21T09:45:32.000Z</time>
      </trkpt>
      <trkpt lat="47.2999" lon="-2.27532">
        <ele>-0.40000000596046</ele>
        <time>2022-08-21T09:45:34.000Z</time>
      </trkpt>
      <trkpt lat="47.29988" lon="-2.27539">
        <ele>-0.40000000596046</ele>
        <time>2022-08-21T09:45:35.000Z</time>
      </trkpt>
      <trkpt lat="47.29978" lon="-2.27575">
        <ele>-0.40000000596046</ele>
        <time>2022-08-21T09:45:40.000Z</time>
      </trkpt>
      <trkpt lat="47.29975" lon="-2.27581">
        <ele>-0.40000000596046</ele>
        <time>2022-08-21T09:45:41.000Z</time>
      </trkpt>
      <trkpt lat="47.29973" lon="-2.27588">
        <ele>9.2</ele>
        <time>2022-08-21T09:45:42.000Z</time>
      </trkpt>
      <trkpt lat="47.29971" lon="-2.27595">
        <ele>0.40000000596046</ele>
        <time>2022-08-21T09:45:43.000Z</time>
      </trkpt>
      <trkpt lat="47.29969" lon="-2.27602">
        <ele>1.2000000476837</ele>
        <time>2022-08-21T09:45:44.000Z</time>
      </trkpt>
      <trkpt lat="47.29967" lon="-2.27609">
        <ele>1.6000000238419</ele>
        <time>2022-08-21T09:45:45.000Z</time>
      </trkpt>
      <trkpt lat="47.29965" lon="-2.27617">
        <ele>1.6000000238419</ele>
        <time>2022-08-21T09:45:46.000Z</time>
      </trkpt>
      <trkpt lat="47.29963" lon="-2.27625">
        <ele>1.6000000238419</ele>
        <time>2022-08-21T09:45:47.000Z</time>
      </trkpt>
      <trkpt lat="47.29962" lon="-2.27634">
        <ele>1.6000000238419</ele>
        <time>2022-08-21T09:45:48.000Z</time>
      </trkpt>
      <trkpt lat="47.29958" lon="-2.27667">
        <ele>1.6000000238419</ele>
        <time>2022-08-21T09:45:52.000Z</time>
      </trkpt>
      <trkpt lat="47.29952" lon="-2.27745">
        <ele>1.6000000238419</ele>
        <time>2022-08-21T09:46:01.000Z</time>
      </trkpt>
      <trkpt lat="47.29951" lon="-2.27754">
        <ele>2</ele>
        <time>2022-08-21T09:46:02.000Z</time>
      </trkpt>
      <trkpt lat="47.29951" lon="-2.27763">
        <ele>2.4000000953674</ele>
        <time>2022-08-21T09:46:03.000Z</time>
      </trkpt>
      <trkpt lat="47.2995" lon="-2.27772">
        <ele>2.7999999523163</ele>
        <time>2022-08-21T09:46:04.000Z</time>
      </trkpt>
      <trkpt lat="47.29949" lon="-2.2778">
        <ele>3.2000000476837</ele>
        <time>2022-08-21T09:46:05.000Z</time>
      </trkpt>
      <trkpt lat="47.29949" lon="-2.27789">
        <ele>3.5999999046326</ele>
        <time>2022-08-21T09:46:06.000Z</time>
      </trkpt>
      <trkpt lat="47.29948" lon="-2.27797">
        <ele>3.5999999046326</ele>
        <time>2022-08-21T09:46:07.000Z</time>
      </trkpt>
      <trkpt lat="47.29942" lon="-2.27866">
        <ele>3.5999999046326</ele>
        <time>2022-08-21T09:46:15.000Z</time>
      </trkpt>
      <trkpt lat="47.29939" lon="-2.27919">
        <ele>3.5999999046326</ele>
        <time>2022-08-21T09:46:21.000Z</time>
      </trkpt>
      <trkpt lat="47.29934" lon="-2.27975">
        <ele>3.5999999046326</ele>
        <time>2022-08-21T09:46:28.000Z</time>
      </trkpt>
      <trkpt lat="47.29935" lon="-2.27999">
        <ele>3.5999999046326</ele>
        <time>2022-08-21T09:46:31.000Z</time>
      </trkpt>
      <trkpt lat="47.29938" lon="-2.28014">
        <ele>3.5999999046326</ele>
        <time>2022-08-21T09:46:33.000Z</time>
      </trkpt>
      <trkpt lat="47.2994" lon="-2.28021">
        <ele>3.5999999046326</ele>
        <time>2022-08-21T09:46:34.000Z</time>
      </trkpt>
      <trkpt lat="47.29944" lon="-2.28035">
        <ele>3.5999999046326</ele>
        <time>2022-08-21T09:46:36.000Z</time>
      </trkpt>
      <trkpt lat="47.29956" lon="-2.28047">
        <ele>3.5999999046326</ele>
        <time>2022-08-21T09:46:39.000Z</time>
      </trkpt>
      <trkpt lat="47.2997" lon="-2.28042">
        <ele>3.5999999046326</ele>
        <time>2022-08-21T09:46:42.000Z</time>
      </trkpt>
      <trkpt lat="47.29974" lon="-2.28039">
        <ele>3.5999999046326</ele>
        <time>2022-08-21T09:46:43.000Z</time>
      </trkpt>
      <trkpt lat="47.29989" lon="-2.28034">
        <ele>3.5999999046326</ele>
        <time>2022-08-21T09:46:47.000Z</time>
      </trkpt>
      <trkpt lat="47.29992" lon="-2.28044">
        <ele>3.5999999046326</ele>
        <time>2022-08-21T09:46:50.000Z</time>
      </trkpt>
      <trkpt lat="47.29989" lon="-2.28053">
        <ele>3.5999999046326</ele>
        <time>2022-08-21T09:46:52.000Z</time>
      </trkpt>
      <trkpt lat="47.29985" lon="-2.28065">
        <ele>3.5999999046326</ele>
        <time>2022-08-21T09:46:54.000Z</time>
      </trkpt>
      <trkpt lat="47.29982" lon="-2.28078">
        <ele>3.5999999046326</ele>
        <time>2022-08-21T09:46:56.000Z</time>
      </trkpt>
      <trkpt lat="47.29977" lon="-2.28097">
        <ele>3.5999999046326</ele>
        <time>2022-08-21T09:46:59.000Z</time>
      </trkpt>
      <trkpt lat="47.29971" lon="-2.28118">
        <ele>3.5999999046326</ele>
        <time>2022-08-21T09:47:02.000Z</time>
      </trkpt>
      <trkpt lat="47.29967" lon="-2.28131">
        <ele>3.5999999046326</ele>
        <time>2022-08-21T09:47:04.000Z</time>
      </trkpt>
      <trkpt lat="47.29959" lon="-2.28156">
        <ele>3.5999999046326</ele>
        <time>2022-08-21T09:47:08.000Z</time>
      </trkpt>
      <trkpt lat="47.29956" lon="-2.2817">
        <ele>3.5999999046326</ele>
        <time>2022-08-21T09:47:10.000Z</time>
      </trkpt>
      <trkpt lat="47.29949" lon="-2.28197">
        <ele>3.5999999046326</ele>
        <time>2022-08-21T09:47:14.000Z</time>
      </trkpt>
      <trkpt lat="47.29949" lon="-2.28204">
        <ele>3.5999999046326</ele>
        <time>2022-08-21T09:47:15.000Z</time>
      </trkpt>
      <trkpt lat="47.2995" lon="-2.28231">
        <ele>3.5999999046326</ele>
        <time>2022-08-21T09:47:19.000Z</time>
      </trkpt>
      <trkpt lat="47.2995" lon="-2.28247">
        <ele>3.5999999046326</ele>
        <time>2022-08-21T09:47:21.000Z</time>
      </trkpt>
      <trkpt lat="47.29951" lon="-2.28263">
        <ele>3.5999999046326</ele>
        <time>2022-08-21T09:47:23.000Z</time>
      </trkpt>
      <trkpt lat="47.29952" lon="-2.2829">
        <ele>3.5999999046326</ele>
        <time>2022-08-21T09:47:26.000Z</time>
      </trkpt>
      <trkpt lat="47.29953" lon="-2.28328">
        <ele>3.5999999046326</ele>
        <time>2022-08-21T09:47:30.000Z</time>
      </trkpt>
      <trkpt lat="47.29952" lon="-2.28336">
        <ele>3.5999999046326</ele>
        <time>2022-08-21T09:47:31.000Z</time>
      </trkpt>
      <trkpt lat="47.2995" lon="-2.28351">
        <ele>3.5999999046326</ele>
        <time>2022-08-21T09:47:33.000Z</time>
      </trkpt>
      <trkpt lat="47.29949" lon="-2.28376">
        <ele>3.5999999046326</ele>
        <time>2022-08-21T09:47:36.000Z</time>
      </trkpt>
      <trkpt lat="47.29949" lon="-2.28384">
        <ele>3.5999999046326</ele>
        <time>2022-08-21T09:47:37.000Z</time>
      </trkpt>
      <trkpt lat="47.29951" lon="-2.28409">
        <ele>3.5999999046326</ele>
        <time>2022-08-21T09:47:40.000Z</time>
      </trkpt>
      <trkpt lat="47.29944" lon="-2.28427">
        <ele>3.5999999046326</ele>
        <time>2022-08-21T09:47:43.000Z</time>
      </trkpt>
      <trkpt lat="47.29942" lon="-2.28442">
        <ele>3.5999999046326</ele>
        <time>2022-08-21T09:47:45.000Z</time>
      </trkpt>
      <trkpt lat="47.2994" lon="-2.28456">
        <ele>3.5999999046326</ele>
        <time>2022-08-21T09:47:47.000Z</time>
      </trkpt>
      <trkpt lat="47.2994" lon="-2.28481">
        <ele>3.5999999046326</ele>
        <time>2022-08-21T09:47:50.000Z</time>
      </trkpt>
      <trkpt lat="47.29939" lon="-2.28488">
        <ele>3.5999999046326</ele>
        <time>2022-08-21T09:47:51.000Z</time>
      </trkpt>
      <trkpt lat="47.29929" lon="-2.28523">
        <ele>3.5999999046326</ele>
        <time>2022-08-21T09:47:55.000Z</time>
      </trkpt>
      <trkpt lat="47.29933" lon="-2.28549">
        <ele>3.5999999046326</ele>
        <time>2022-08-21T09:47:58.000Z</time>
      </trkpt>
      <trkpt lat="47.29943" lon="-2.28564">
        <ele>3.5999999046326</ele>
        <time>2022-08-21T09:48:01.000Z</time>
      </trkpt>
      <trkpt lat="47.29941" lon="-2.28594">
        <ele>3.5999999046326</ele>
        <time>2022-08-21T09:48:05.000Z</time>
      </trkpt>
      <trkpt lat="47.29938" lon="-2.2861">
        <ele>3.5999999046326</ele>
        <time>2022-08-21T09:48:07.000Z</time>
      </trkpt>
      <trkpt lat="47.29935" lon="-2.28632">
        <ele>3.5999999046326</ele>
        <time>2022-08-21T09:48:10.000Z</time>
      </trkpt>
      <trkpt lat="47.29932" lon="-2.28646">
        <ele>3.2000000476837</ele>
        <time>2022-08-21T09:48:12.000Z</time>
      </trkpt>
      <trkpt lat="47.2993" lon="-2.28653">
        <ele>2.4000000953674</ele>
        <time>2022-08-21T09:48:13.000Z</time>
      </trkpt>
      <trkpt lat="47.29927" lon="-2.2866">
        <ele>2</ele>
        <time>2022-08-21T09:48:14.000Z</time>
      </trkpt>
      <trkpt lat="47.29925" lon="-2.28667">
        <ele>1.6000000238419</ele>
        <time>2022-08-21T09:48:15.000Z</time>
      </trkpt>
      <trkpt lat="47.29923" lon="-2.28673">
        <ele>1.6000000238419</ele>
        <time>2022-08-21T09:48:16.000Z</time>
      </trkpt>
      <trkpt lat="47.29918" lon="-2.28694">
        <ele>1.6000000238419</ele>
        <time>2022-08-21T09:48:19.000Z</time>
      </trkpt>
      <trkpt lat="47.29914" lon="-2.28711">
        <ele>1.6000000238419</ele>
        <time>2022-08-21T09:48:21.000Z</time>
      </trkpt>
      <trkpt lat="47.29912" lon="-2.2872">
        <ele>1.6000000238419</ele>
        <time>2022-08-21T09:48:22.000Z</time>
      </trkpt>
      <trkpt lat="47.29906" lon="-2.28747">
        <ele>1.6000000238419</ele>
        <time>2022-08-21T09:48:25.000Z</time>
      </trkpt>
      <trkpt lat="47.29903" lon="-2.28764">
        <ele>1.6000000238419</ele>
        <time>2022-08-21T09:48:27.000Z</time>
      </trkpt>
      <trkpt lat="47.29899" lon="-2.28793">
        <ele>1.6000000238419</ele>
        <time>2022-08-21T09:48:31.000Z</time>
      </trkpt>
      <trkpt lat="47.29897" lon="-2.288">
        <ele>1.6000000238419</ele>
        <time>2022-08-21T09:48:32.000Z</time>
      </trkpt>
      <trkpt lat="47.2989" lon="-2.28841">
        <ele>1.6000000238419</ele>
        <time>2022-08-21T09:48:37.000Z</time>
      </trkpt>
      <trkpt lat="47.29883" lon="-2.2888">
        <ele>1.6000000238419</ele>
        <time>2022-08-21T09:48:41.000Z</time>
      </trkpt>
      <trkpt lat="47.29876" lon="-2.28894">
        <ele>1.6000000238419</ele>
        <time>2022-08-21T09:48:43.000Z</time>
      </trkpt>
      <trkpt lat="47.29874" lon="-2.28918">
        <ele>1.6000000238419</ele>
        <time>2022-08-21T09:48:46.000Z</time>
      </trkpt>
      <trkpt lat="47.29875" lon="-2.28932">
        <ele>1.6000000238419</ele>
        <time>2022-08-21T09:48:48.000Z</time>
      </trkpt>
      <trkpt lat="47.2988" lon="-2.28942">
        <ele>1.6000000238419</ele>
        <time>2022-08-21T09:48:50.000Z</time>
      </trkpt>
      <trkpt lat="47.29893" lon="-2.28945">
        <ele>1.6000000238419</ele>
        <time>2022-08-21T09:48:53.000Z</time>
      </trkpt>
      <trkpt lat="47.29898" lon="-2.28946">
        <ele>1.6000000238419</ele>
        <time>2022-08-21T09:48:54.000Z</time>
      </trkpt>
      <trkpt lat="47.29917" lon="-2.28951">
        <ele>1.6000000238419</ele>
        <time>2022-08-21T09:48:58.000Z</time>
      </trkpt>
      <trkpt lat="47.29921" lon="-2.28956">
        <ele>1.2000000476837</ele>
        <time>2022-08-21T09:48:59.000Z</time>
      </trkpt>
      <trkpt lat="47.29924" lon="-2.28961">
        <ele>0.80000001192093</ele>
        <time>2022-08-21T09:49:00.000Z</time>
      </trkpt>
      <trkpt lat="47.29928" lon="-2.28967">
        <ele>0.40000000596046</ele>
        <time>2022-08-21T09:49:01.000Z</time>
      </trkpt>
      <trkpt lat="47.29931" lon="-2.28973">
        <ele>-0.40000000596046</ele>
        <time>2022-08-21T09:49:02.000Z</time>
      </trkpt>
      <trkpt lat="47.29945" lon="-2.28998">
        <ele>-0.40000000596046</ele>
        <time>2022-08-21T09:49:06.000Z</time>
      </trkpt>
      <trkpt lat="47.29973" lon="-2.29048">
        <ele>-0.40000000596046</ele>
        <time>2022-08-21T09:49:13.000Z</time>
      </trkpt>
      <trkpt lat="47.29994" lon="-2.29086">
        <ele>-0.40000000596046</ele>
        <time>2022-08-21T09:49:18.000Z</time>
      </trkpt>
      <trkpt lat="47.30008" lon="-2.29101">
        <ele>-0.40000000596046</ele>
        <time>2022-08-21T09:49:21.000Z</time>
      </trkpt>
      <trkpt lat="47.30019" lon="-2.29111">
        <ele>-0.40000000596046</ele>
        <time>2022-08-21T09:49:23.000Z</time>
      </trkpt>
      <trkpt lat="47.30047" lon="-2.2913">
        <ele>-0.40000000596046</ele>
        <time>2022-08-21T09:49:28.000Z</time>
      </trkpt>
      <trkpt lat="47.30052" lon="-2.29134">
        <ele>-0.40000000596046</ele>
        <time>2022-08-21T09:49:29.000Z</time>
      </trkpt>
      <trkpt lat="47.30062" lon="-2.29147">
        <ele>-0.40000000596046</ele>
        <time>2022-08-21T09:49:31.000Z</time>
      </trkpt>
      <trkpt lat="47.30072" lon="-2.29163">
        <ele>-0.80000001192093</ele>
        <time>2022-08-21T09:49:33.000Z</time>
      </trkpt>
      <trkpt lat="47.30077" lon="-2.29171">
        <ele>-1.2000000476837</ele>
        <time>2022-08-21T09:49:34.000Z</time>
      </trkpt>
      <trkpt lat="47.30082" lon="-2.29178">
        <ele>-1.6000000238419</ele>
        <time>2022-08-21T09:49:35.000Z</time>
      </trkpt>
      <trkpt lat="47.30087" lon="-2.29186">
        <ele>-2</ele>
        <time>2022-08-21T09:49:36.000Z</time>
      </trkpt>
      <trkpt lat="47.30092" lon="-2.29193">
        <ele>-2.4000000953674</ele>
        <time>2022-08-21T09:49:37.000Z</time>
      </trkpt>
      <trkpt lat="47.30111" lon="-2.29224">
        <ele>-2.4000000953674</ele>
        <time>2022-08-21T09:49:41.000Z</time>
      </trkpt>
      <trkpt lat="47.30145" lon="-2.29279">
        <ele>-2.4000000953674</ele>
        <time>2022-08-21T09:49:48.000Z</time>
      </trkpt>
      <trkpt lat="47.30179" lon="-2.29331">
        <ele>-2.4000000953674</ele>
        <time>2022-08-21T09:49:55.000Z</time>
      </trkpt>
      <trkpt lat="47.30184" lon="-2.29338">
        <ele>-2.7999999523163</ele>
        <time>2022-08-21T09:49:56.000Z</time>
      </trkpt>
      <trkpt lat="47.30189" lon="-2.29346">
        <ele>-3.2000000476837</ele>
        <time>2022-08-21T09:49:57.000Z</time>
      </trkpt>
      <trkpt lat="47.30193" lon="-2.29354">
        <ele>-3.5999999046326</ele>
        <time>2022-08-21T09:49:58.000Z</time>
      </trkpt>
      <trkpt lat="47.30197" lon="-2.29362">
        <ele>-4</ele>
        <time>2022-08-21T09:49:59.000Z</time>
      </trkpt>
      <trkpt lat="47.302" lon="-2.29371">
        <ele>-4.4000000953674</ele>
        <time>2022-08-21T09:50:00.000Z</time>
      </trkpt>
      <trkpt lat="47.30202" lon="-2.29379">
        <ele>-4.4000000953674</ele>
        <time>2022-08-21T09:50:01.000Z</time>
      </trkpt>
      <trkpt lat="47.30205" lon="-2.29387">
        <ele>-4.4000000953674</ele>
        <time>2022-08-21T09:50:02.000Z</time>
      </trkpt>
      <trkpt lat="47.30214" lon="-2.29407">
        <ele>-4.4000000953674</ele>
        <time>2022-08-21T09:50:05.000Z</time>
      </trkpt>
      <trkpt lat="47.30212" lon="-2.29424">
        <ele>-4.4000000953674</ele>
        <time>2022-08-21T09:50:08.000Z</time>
      </trkpt>
      <trkpt lat="47.30208" lon="-2.29434">
        <ele>-4.4000000953674</ele>
        <time>2022-08-21T09:50:10.000Z</time>
      </trkpt>
      <trkpt lat="47.30197" lon="-2.29457">
        <ele>-4.4000000953674</ele>
        <time>2022-08-21T09:50:14.000Z</time>
      </trkpt>
      <trkpt lat="47.30183" lon="-2.29487">
        <ele>-4.4000000953674</ele>
        <time>2022-08-21T09:50:19.000Z</time>
      </trkpt>
      <trkpt lat="47.30171" lon="-2.29513">
        <ele>-4.4000000953674</ele>
        <time>2022-08-21T09:50:23.000Z</time>
      </trkpt>
      <trkpt lat="47.3015" lon="-2.29555">
        <ele>-4.4000000953674</ele>
        <time>2022-08-21T09:50:29.000Z</time>
      </trkpt>
      <trkpt lat="47.30148" lon="-2.29563">
        <ele>-4.4000000953674</ele>
        <time>2022-08-21T09:50:30.000Z</time>
      </trkpt>
      <trkpt lat="47.30146" lon="-2.29587">
        <ele>-4.4000000953674</ele>
        <time>2022-08-21T09:50:33.000Z</time>
      </trkpt>
      <trkpt lat="47.30146" lon="-2.29595">
        <ele>-4.4000000953674</ele>
        <time>2022-08-21T09:50:34.000Z</time>
      </trkpt>
      <trkpt lat="47.30145" lon="-2.29626">
        <ele>-4.4000000953674</ele>
        <time>2022-08-21T09:50:38.000Z</time>
      </trkpt>
      <trkpt lat="47.30144" lon="-2.29632">
        <ele>-4.4000000953674</ele>
        <time>2022-08-21T09:50:39.000Z</time>
      </trkpt>
      <trkpt lat="47.30138" lon="-2.29648">
        <ele>-4.4000000953674</ele>
        <time>2022-08-21T09:50:42.000Z</time>
      </trkpt>
      <trkpt lat="47.3013" lon="-2.29651">
        <ele>-4.4000000953674</ele>
        <time>2022-08-21T09:50:44.000Z</time>
      </trkpt>
      <trkpt lat="47.30125" lon="-2.29652">
        <ele>-4.4000000953674</ele>
        <time>2022-08-21T09:50:45.000Z</time>
      </trkpt>
      <trkpt lat="47.3012" lon="-2.29652">
        <ele>-4.4000000953674</ele>
        <time>2022-08-21T09:50:46.000Z</time>
      </trkpt>
      <trkpt lat="47.3009" lon="-2.29646">
        <ele>-4.4000000953674</ele>
        <time>2022-08-21T09:50:52.000Z</time>
      </trkpt>
      <trkpt lat="47.30045" lon="-2.29635">
        <ele>-4.4000000953674</ele>
        <time>2022-08-21T09:51:01.000Z</time>
      </trkpt>
      <trkpt lat="47.30006" lon="-2.29635">
        <ele>-4.4000000953674</ele>
        <time>2022-08-21T09:51:08.000Z</time>
      </trkpt>
      <trkpt lat="47.2996" lon="-2.29641">
        <ele>-4.4000000953674</ele>
        <time>2022-08-21T09:51:17.000Z</time>
      </trkpt>
      <trkpt lat="47.29943" lon="-2.29651">
        <ele>-4</ele>
        <time>2022-08-21T09:51:21.000Z</time>
      </trkpt>
      <trkpt lat="47.29938" lon="-2.29654">
        <ele>-3.5999999046326</ele>
        <time>2022-08-21T09:51:22.000Z</time>
      </trkpt>
      <trkpt lat="47.29934" lon="-2.29657">
        <ele>-3.2000000476837</ele>
        <time>2022-08-21T09:51:23.000Z</time>
      </trkpt>
      <trkpt lat="47.2993" lon="-2.2966">
        <ele>-2.7999999523163</ele>
        <time>2022-08-21T09:51:24.000Z</time>
      </trkpt>
      <trkpt lat="47.29925" lon="-2.29662">
        <ele>-2.4000000953674</ele>
        <time>2022-08-21T09:51:25.000Z</time>
      </trkpt>
      <trkpt lat="47.29918" lon="-2.29672">
        <ele>-2.4000000953674</ele>
        <time>2022-08-21T09:51:28.000Z</time>
      </trkpt>
      <trkpt lat="47.29921" lon="-2.29695">
        <ele>-2.4000000953674</ele>
        <time>2022-08-21T09:51:32.000Z</time>
      </trkpt>
      <trkpt lat="47.29925" lon="-2.29709">
        <ele>-2.4000000953674</ele>
        <time>2022-08-21T09:51:34.000Z</time>
      </trkpt>
      <trkpt lat="47.29931" lon="-2.2973">
        <ele>-2.4000000953674</ele>
        <time>2022-08-21T09:51:37.000Z</time>
      </trkpt>
      <trkpt lat="47.29934" lon="-2.29736">
        <ele>-2.4000000953674</ele>
        <time>2022-08-21T09:51:38.000Z</time>
      </trkpt>
      <trkpt lat="47.29951" lon="-2.29782">
        <ele>-2.4000000953674</ele>
        <time>2022-08-21T09:51:45.000Z</time>
      </trkpt>
      <trkpt lat="47.29952" lon="-2.29796">
        <ele>-2.4000000953674</ele>
        <time>2022-08-21T09:51:48.000Z</time>
      </trkpt>
      <trkpt lat="47.29951" lon="-2.298">
        <ele>-2.4000000953674</ele>
        <time>2022-08-21T09:51:49.000Z</time>
      </trkpt>
      <trkpt lat="47.29938" lon="-2.29813">
        <ele>-2.4000000953674</ele>
        <time>2022-08-21T09:51:54.000Z</time>
      </trkpt>
      <trkpt lat="47.29916" lon="-2.29827">
        <ele>-2.4000000953674</ele>
        <time>2022-08-21T09:52:00.000Z</time>
      </trkpt>
      <trkpt lat="47.29908" lon="-2.29834">
        <ele>-2.4000000953674</ele>
        <time>2022-08-21T09:52:02.000Z</time>
      </trkpt>
      <trkpt lat="47.29903" lon="-2.29848">
        <ele>-2.4000000953674</ele>
        <time>2022-08-21T09:52:04.000Z</time>
      </trkpt>
      <trkpt lat="47.29905" lon="-2.29882">
        <ele>-2.4000000953674</ele>
        <time>2022-08-21T09:52:08.000Z</time>
      </trkpt>
      <trkpt lat="47.29907" lon="-2.29919">
        <ele>-2.4000000953674</ele>
        <time>2022-08-21T09:52:12.000Z</time>
      </trkpt>
      <trkpt lat="47.29906" lon="-2.29927">
        <ele>-2.4000000953674</ele>
        <time>2022-08-21T09:52:13.000Z</time>
      </trkpt>
      <trkpt lat="47.29897" lon="-2.29939">
        <ele>-2.4000000953674</ele>
        <time>2022-08-21T09:52:15.000Z</time>
      </trkpt>
      <trkpt lat="47.29879" lon="-2.29944">
        <ele>-2.4000000953674</ele>
        <time>2022-08-21T09:52:18.000Z</time>
      </trkpt>
      <trkpt lat="47.29857" lon="-2.29949">
        <ele>-2.4000000953674</ele>
        <time>2022-08-21T09:52:22.000Z</time>
      </trkpt>
      <trkpt lat="47.2984" lon="-2.29953">
        <ele>-2.4000000953674</ele>
        <time>2022-08-21T09:52:25.000Z</time>
      </trkpt>
      <trkpt lat="47.29805" lon="-2.29954">
        <ele>-2.4000000953674</ele>
        <time>2022-08-21T09:52:31.000Z</time>
      </trkpt>
      <trkpt lat="47.29783" lon="-2.29954">
        <ele>-2.4000000953674</ele>
        <time>2022-08-21T09:52:35.000Z</time>
      </trkpt>
      <trkpt lat="47.29778" lon="-2.29957">
        <ele>-2.4000000953674</ele>
        <time>2022-08-21T09:52:36.000Z</time>
      </trkpt>
      <trkpt lat="47.29748" lon="-2.29981">
        <ele>-2.4000000953674</ele>
        <time>2022-08-21T09:52:42.000Z</time>
      </trkpt>
      <trkpt lat="47.29712" lon="-2.29999">
        <ele>-2.4000000953674</ele>
        <time>2022-08-21T09:52:48.000Z</time>
      </trkpt>
      <trkpt lat="47.2968" lon="-2.3">
        <ele>-2.4000000953674</ele>
        <time>2022-08-21T09:52:53.000Z</time>
      </trkpt>
      <trkpt lat="47.29662" lon="-2.29996">
        <ele>-2.4000000953674</ele>
        <time>2022-08-21T09:52:56.000Z</time>
      </trkpt>
      <trkpt lat="47.29652" lon="-2.29989">
        <ele>-2.4000000953674</ele>
        <time>2022-08-21T09:52:58.000Z</time>
      </trkpt>
      <trkpt lat="47.29638" lon="-2.29987">
        <ele>-2.4000000953674</ele>
        <time>2022-08-21T09:53:01.000Z</time>
      </trkpt>
      <trkpt lat="47.29623" lon="-2.29998">
        <ele>-2.4000000953674</ele>
        <time>2022-08-21T09:53:04.000Z</time>
      </trkpt>
      <trkpt lat="47.29616" lon="-2.30001">
        <ele>-2.4000000953674</ele>
        <time>2022-08-21T09:53:05.000Z</time>
      </trkpt>
      <trkpt lat="47.29584" lon="-2.30011">
        <ele>-2.4000000953674</ele>
        <time>2022-08-21T09:53:10.000Z</time>
      </trkpt>
      <trkpt lat="47.29532" lon="-2.3003">
        <ele>-2.4000000953674</ele>
        <time>2022-08-21T09:53:18.000Z</time>
      </trkpt>
      <trkpt lat="47.29526" lon="-2.30031">
        <ele>-2.4000000953674</ele>
        <time>2022-08-21T09:53:19.000Z</time>
      </trkpt>
      <trkpt lat="47.29509" lon="-2.30027">
        <ele>-2.4000000953674</ele>
        <time>2022-08-21T09:53:22.000Z</time>
      </trkpt>
      <trkpt lat="47.29493" lon="-2.30029">
        <ele>-2.4000000953674</ele>
        <time>2022-08-21T09:53:25.000Z</time>
      </trkpt>
      <trkpt lat="47.29488" lon="-2.3003">
        <ele>-2.4000000953674</ele>
        <time>2022-08-21T09:53:26.000Z</time>
      </trkpt>
      <trkpt lat="47.29453" lon="-2.3003">
        <ele>-2.4000000953674</ele>
        <time>2022-08-21T09:53:32.000Z</time>
      </trkpt>
      <trkpt lat="47.29413" lon="-2.30029">
        <ele>-2</ele>
        <time>2022-08-21T09:53:39.000Z</time>
      </trkpt>
      <trkpt lat="47.29408" lon="-2.30028">
        <ele>-1.6000000238419</ele>
        <time>2022-08-21T09:53:40.000Z</time>
      </trkpt>
      <trkpt lat="47.29403" lon="-2.30027">
        <ele>-1.2000000476837</ele>
        <time>2022-08-21T09:53:41.000Z</time>
      </trkpt>
      <trkpt lat="47.29398" lon="-2.30025">
        <ele>-0.80000001192093</ele>
        <time>2022-08-21T09:53:42.000Z</time>
      </trkpt>
      <trkpt lat="47.29393" lon="-2.30023">
        <ele>-0.40000000596046</ele>
        <time>2022-08-21T09:53:43.000Z</time>
      </trkpt>
      <trkpt lat="47.29383" lon="-2.3002">
        <ele>-0.40000000596046</ele>
        <time>2022-08-21T09:53:45.000Z</time>
      </trkpt>
      <trkpt lat="47.29363" lon="-2.3001">
        <ele>-0.40000000596046</ele>
        <time>2022-08-21T09:53:50.000Z</time>
      </trkpt>
      <trkpt lat="47.29348" lon="-2.30005">
        <ele>-0.40000000596046</ele>
        <time>2022-08-21T09:53:55.000Z</time>
      </trkpt>
      <trkpt lat="47.29345" lon="-2.30017">
        <ele>-0.40000000596046</ele>
        <time>2022-08-21T09:53:58.000Z</time>
      </trkpt>
      <trkpt lat="47.29341" lon="-2.3005">
        <ele>-0.40000000596046</ele>
        <time>2022-08-21T09:54:03.000Z</time>
      </trkpt>
      <trkpt lat="47.29337" lon="-2.30096">
        <ele>-0.40000000596046</ele>
        <time>2022-08-21T09:54:09.000Z</time>
      </trkpt>
      <trkpt lat="47.29335" lon="-2.30103">
        <ele>-0.40000000596046</ele>
        <time>2022-08-21T09:54:10.000Z</time>
      </trkpt>
      <trkpt lat="47.29327" lon="-2.30119">
        <ele>-0.40000000596046</ele>
        <time>2022-08-21T09:54:13.000Z</time>
      </trkpt>
      <trkpt lat="47.29307" lon="-2.30124">
        <ele>-0.40000000596046</ele>
        <time>2022-08-21T09:54:17.000Z</time>
      </trkpt>
      <trkpt lat="47.29272" lon="-2.30124">
        <ele>-0.40000000596046</ele>
        <time>2022-08-21T09:54:24.000Z</time>
      </trkpt>
      <trkpt lat="47.2924" lon="-2.30129">
        <ele>-0.40000000596046</ele>
        <time>2022-08-21T09:54:30.000Z</time>
      </trkpt>
      <trkpt lat="47.29236" lon="-2.30134">
        <ele>-0.40000000596046</ele>
        <time>2022-08-21T09:54:31.000Z</time>
      </trkpt>
      <trkpt lat="47.29224" lon="-2.30149">
        <ele>-0.40000000596046</ele>
        <time>2022-08-21T09:54:34.000Z</time>
      </trkpt>
      <trkpt lat="47.29219" lon="-2.30153">
        <ele>-0.40000000596046</ele>
        <time>2022-08-21T09:54:35.000Z</time>
      </trkpt>
      <trkpt lat="47.29192" lon="-2.3017">
        <ele>8.1</ele>
        <time>2022-08-21T09:54:40.000Z</time>
      </trkpt>
      <trkpt lat="47.29186" lon="-2.30174">
        <ele>0.40000000596046</ele>
        <time>2022-08-21T09:54:41.000Z</time>
      </trkpt>
      <trkpt lat="47.2918" lon="-2.30177">
        <ele>0.80000001192093</ele>
        <time>2022-08-21T09:54:42.000Z</time>
      </trkpt>
      <trkpt lat="47.29174" lon="-2.3018">
        <ele>1.3999999761581</ele>
        <time>2022-08-21T09:54:43.000Z</time>
      </trkpt>
      <trkpt lat="47.29169" lon="-2.30183">
        <ele>1.7999999523163</ele>
        <time>2022-08-21T09:54:44.000Z</time>
      </trkpt>
      <trkpt lat="47.2915" lon="-2.30193">
        <ele>1.7999999523163</ele>
        <time>2022-08-21T09:54:47.000Z</time>
      </trkpt>
      <trkpt lat="47.29103" lon="-2.30219">
        <ele>1.7999999523163</ele>
        <time>2022-08-21T09:54:55.000Z</time>
      </trkpt>
      <trkpt lat="47.29055" lon="-2.3024">
        <ele>1.7999999523163</ele>
        <time>2022-08-21T09:55:03.000Z</time>
      </trkpt>
      <trkpt lat="47.29018" lon="-2.30252">
        <ele>1.7999999523163</ele>
        <time>2022-08-21T09:55:10.000Z</time>
      </trkpt>
      <trkpt lat="47.28993" lon="-2.30258">
        <ele>1.7999999523163</ele>
        <time>2022-08-21T09:55:15.000Z</time>
      </trkpt>
      <trkpt lat="47.28989" lon="-2.30258">
        <ele>1.7999999523163</ele>
        <time>2022-08-21T09:55:16.000Z</time>
      </trkpt>
      <trkpt lat="47.28978" lon="-2.3026">
        <ele>1.7999999523163</ele>
        <time>2022-08-21T09:55:20.000Z</time>
      </trkpt>
      <trkpt lat="47.28976" lon="-2.30262">
        <ele>2.2000000476837</ele>
        <time>2022-08-21T09:55:21.000Z</time>
      </trkpt>
      <trkpt lat="47.28974" lon="-2.30265">
        <ele>2.5999999046326</ele>
        <time>2022-08-21T09:55:22.000Z</time>
      </trkpt>
      <trkpt lat="47.28973" lon="-2.30268">
        <ele>3</ele>
        <time>2022-08-21T09:55:23.000Z</time>
      </trkpt>
      <trkpt lat="47.28973" lon="-2.30272">
        <ele>3.4000000953674</ele>
        <time>2022-08-21T09:55:24.000Z</time>
      </trkpt>
      <trkpt lat="47.28973" lon="-2.30276">
        <ele>3.7999999523163</ele>
        <time>2022-08-21T09:55:25.000Z</time>
      </trkpt>
      <trkpt lat="47.28973" lon="-2.3028">
        <ele>3.7999999523163</ele>
        <time>2022-08-21T09:55:26.000Z</time>
      </trkpt>
      <trkpt lat="47.28976" lon="-2.30308">
        <ele>3.7999999523163</ele>
        <time>2022-08-21T09:55:32.000Z</time>
      </trkpt>
      <trkpt lat="47.28978" lon="-2.3034">
        <ele>3.7999999523163</ele>
        <time>2022-08-21T09:55:38.000Z</time>
      </trkpt>
      <trkpt lat="47.28978" lon="-2.30376">
        <ele>3.7999999523163</ele>
        <time>2022-08-21T09:55:44.000Z</time>
      </trkpt>
      <trkpt lat="47.2898" lon="-2.30408">
        <ele>3.7999999523163</ele>
        <time>2022-08-21T09:55:49.000Z</time>
      </trkpt>
      <trkpt lat="47.28981" lon="-2.3042">
        <ele>3.7999999523163</ele>
        <time>2022-08-21T09:55:51.000Z</time>
      </trkpt>
      <trkpt lat="47.28986" lon="-2.30461">
        <ele>4.1999998092651</ele>
        <time>2022-08-21T09:55:57.000Z</time>
      </trkpt>
      <trkpt lat="47.28988" lon="-2.30469">
        <ele>4.5999999046326</ele>
        <time>2022-08-21T09:55:58.000Z</time>
      </trkpt>
      <trkpt lat="47.28989" lon="-2.30476">
        <ele>5</ele>
        <time>2022-08-21T09:55:59.000Z</time>
      </trkpt>
      <trkpt lat="47.28989" lon="-2.30484">
        <ele>5.4000000953674</ele>
        <time>2022-08-21T09:56:00.000Z</time>
      </trkpt>
      <trkpt lat="47.28991" lon="-2.30491">
        <ele>5.8000001907349</ele>
        <time>2022-08-21T09:56:01.000Z</time>
      </trkpt>
      <trkpt lat="47.28992" lon="-2.30498">
        <ele>5.8000001907349</ele>
        <time>2022-08-21T09:56:02.000Z</time>
      </trkpt>
      <trkpt lat="47.28994" lon="-2.30505">
        <ele>5.8000001907349</ele>
        <time>2022-08-21T09:56:03.000Z</time>
      </trkpt>
      <trkpt lat="47.28999" lon="-2.30549">
        <ele>5.8000001907349</ele>
        <time>2022-08-21T09:56:09.000Z</time>
      </trkpt>
      <trkpt lat="47.29005" lon="-2.30603">
        <ele>5.8000001907349</ele>
        <time>2022-08-21T09:56:16.000Z</time>
      </trkpt>
      <trkpt lat="47.29004" lon="-2.30638">
        <ele>5.8000001907349</ele>
        <time>2022-08-21T09:56:21.000Z</time>
      </trkpt>
      <trkpt lat="47.29006" lon="-2.30685">
        <ele>5.8000001907349</ele>
        <time>2022-08-21T09:56:27.000Z</time>
      </trkpt>
      <trkpt lat="47.29008" lon="-2.30751">
        <ele>5.8000001907349</ele>
        <time>2022-08-21T09:56:35.000Z</time>
      </trkpt>
      <trkpt lat="47.29011" lon="-2.30768">
        <ele>5.8000001907349</ele>
        <time>2022-08-21T09:56:37.000Z</time>
      </trkpt>
      <trkpt lat="47.29018" lon="-2.308">
        <ele>5.8000001907349</ele>
        <time>2022-08-21T09:56:41.000Z</time>
      </trkpt>
      <trkpt lat="47.29025" lon="-2.30849">
        <ele>5.8000001907349</ele>
        <time>2022-08-21T09:56:47.000Z</time>
      </trkpt>
      <trkpt lat="47.29031" lon="-2.30915">
        <ele>6.1999998092651</ele>
        <time>2022-08-21T09:56:56.000Z</time>
      </trkpt>
      <trkpt lat="47.29032" lon="-2.30925">
        <ele>6.8000001907349</ele>
        <time>2022-08-21T09:56:57.000Z</time>
      </trkpt>
      <trkpt lat="47.29032" lon="-2.30933">
        <ele>7.1999998092651</ele>
        <time>2022-08-21T09:56:58.000Z</time>
      </trkpt>
      <trkpt lat="47.29032" lon="-2.30941">
        <ele>7.5999999046326</ele>
        <time>2022-08-21T09:56:59.000Z</time>
      </trkpt>
      <trkpt lat="47.29033" lon="-2.30949">
        <ele>8</ele>
        <time>2022-08-21T09:57:00.000Z</time>
      </trkpt>
      <trkpt lat="47.29033" lon="-2.30966">
        <ele>8</ele>
        <time>2022-08-21T09:57:02.000Z</time>
      </trkpt>
      <trkpt lat="47.29034" lon="-2.30982">
        <ele>8.6000003814697</ele>
        <time>2022-08-21T09:57:04.000Z</time>
      </trkpt>
      <trkpt lat="47.29034" lon="-2.30991">
        <ele>9</ele>
        <time>2022-08-21T09:57:05.000Z</time>
      </trkpt>
      <trkpt lat="47.29033" lon="-2.31">
        <ele>9.3999996185303</ele>
        <time>2022-08-21T09:57:06.000Z</time>
      </trkpt>
      <trkpt lat="47.29033" lon="-2.31008">
        <ele>9.8000001907349</ele>
        <time>2022-08-21T09:57:07.000Z</time>
      </trkpt>
      <trkpt lat="47.29033" lon="-2.31016">
        <ele>10.39999961853</ele>
        <time>2022-08-21T09:57:08.000Z</time>
      </trkpt>
      <trkpt lat="47.29033" lon="-2.31058">
        <ele>10.800000190735</ele>
        <time>2022-08-21T09:57:13.000Z</time>
      </trkpt>
      <trkpt lat="47.29033" lon="-2.31066">
        <ele>11.199999809265</ele>
        <time>2022-08-21T09:57:14.000Z</time>
      </trkpt>
      <trkpt lat="47.29034" lon="-2.31074">
        <ele>11.60000038147</ele>
        <time>2022-08-21T09:57:15.000Z</time>
      </trkpt>
      <trkpt lat="47.29034" lon="-2.31083">
        <ele>12</ele>
        <time>2022-08-21T09:57:16.000Z</time>
      </trkpt>
      <trkpt lat="47.29034" lon="-2.31091">
        <ele>12.39999961853</ele>
        <time>2022-08-21T09:57:17.000Z</time>
      </trkpt>
      <trkpt lat="47.29035" lon="-2.31108">
        <ele>12.39999961853</ele>
        <time>2022-08-21T09:57:19.000Z</time>
      </trkpt>
      <trkpt lat="47.29035" lon="-2.31116">
        <ele>12.800000190735</ele>
        <time>2022-08-21T09:57:20.000Z</time>
      </trkpt>
      <trkpt lat="47.29036" lon="-2.31124">
        <ele>13.199999809265</ele>
        <time>2022-08-21T09:57:21.000Z</time>
      </trkpt>
      <trkpt lat="47.29037" lon="-2.31132">
        <ele>13.60000038147</ele>
        <time>2022-08-21T09:57:22.000Z</time>
      </trkpt>
      <trkpt lat="47.29037" lon="-2.3114">
        <ele>14</ele>
        <time>2022-08-21T09:57:23.000Z</time>
      </trkpt>
      <trkpt lat="47.29038" lon="-2.31147">
        <ele>14.39999961853</ele>
        <time>2022-08-21T09:57:24.000Z</time>
      </trkpt>
      <trkpt lat="47.29039" lon="-2.31164">
        <ele>14.39999961853</ele>
        <time>2022-08-21T09:57:26.000Z</time>
      </trkpt>
      <trkpt lat="47.29042" lon="-2.31214">
        <ele>14.39999961853</ele>
        <time>2022-08-21T09:57:32.000Z</time>
      </trkpt>
      <trkpt lat="47.29035" lon="-2.31246">
        <ele>14.39999961853</ele>
        <time>2022-08-21T09:57:36.000Z</time>
      </trkpt>
      <trkpt lat="47.29029" lon="-2.3126">
        <ele>14.39999961853</ele>
        <time>2022-08-21T09:57:38.000Z</time>
      </trkpt>
      <trkpt lat="47.29016" lon="-2.31288">
        <ele>15.199999809265</ele>
        <time>2022-08-21T09:57:42.000Z</time>
      </trkpt>
      <trkpt lat="47.29013" lon="-2.31295">
        <ele>15.60000038147</ele>
        <time>2022-08-21T09:57:43.000Z</time>
      </trkpt>
      <trkpt lat="47.2901" lon="-2.31302">
        <ele>16</ele>
        <time>2022-08-21T09:57:44.000Z</time>
      </trkpt>
      <trkpt lat="47.29007" lon="-2.3131">
        <ele>16.39999961853</ele>
        <time>2022-08-21T09:57:45.000Z</time>
      </trkpt>
      <trkpt lat="47.28998" lon="-2.3133">
        <ele>16.39999961853</ele>
        <time>2022-08-21T09:57:48.000Z</time>
      </trkpt>
      <trkpt lat="47.28995" lon="-2.31336">
        <ele>16.39999961853</ele>
        <time>2022-08-21T09:57:49.000Z</time>
      </trkpt>
      <trkpt lat="47.28966" lon="-2.31374">
        <ele>16.39999961853</ele>
        <time>2022-08-21T09:57:56.000Z</time>
      </trkpt>
      <trkpt lat="47.28946" lon="-2.31389">
        <ele>16.39999961853</ele>
        <time>2022-08-21T09:58:00.000Z</time>
      </trkpt>
      <trkpt lat="47.2894" lon="-2.31391">
        <ele>16.39999961853</ele>
        <time>2022-08-21T09:58:01.000Z</time>
      </trkpt>
      <trkpt lat="47.28923" lon="-2.31393">
        <ele>16.39999961853</ele>
        <time>2022-08-21T09:58:04.000Z</time>
      </trkpt>
      <trkpt lat="47.28911" lon="-2.31394">
        <ele>16.39999961853</ele>
        <time>2022-08-21T09:58:06.000Z</time>
      </trkpt>
      <trkpt lat="47.28882" lon="-2.31396">
        <ele>16.799999237061</ele>
        <time>2022-08-21T09:58:11.000Z</time>
      </trkpt>
      <trkpt lat="47.28876" lon="-2.31397">
        <ele>17.39999961853</ele>
        <time>2022-08-21T09:58:12.000Z</time>
      </trkpt>
      <trkpt lat="47.28871" lon="-2.314">
        <ele>17.799999237061</ele>
        <time>2022-08-21T09:58:13.000Z</time>
      </trkpt>
      <trkpt lat="47.28865" lon="-2.31402">
        <ele>18.200000762939</ele>
        <time>2022-08-21T09:58:14.000Z</time>
      </trkpt>
      <trkpt lat="47.28859" lon="-2.31405">
        <ele>18.60000038147</ele>
        <time>2022-08-21T09:58:15.000Z</time>
      </trkpt>
      <trkpt lat="47.28849" lon="-2.3141">
        <ele>18.60000038147</ele>
        <time>2022-08-21T09:58:17.000Z</time>
      </trkpt>
      <trkpt lat="47.2881" lon="-2.31432">
        <ele>18.60000038147</ele>
        <time>2022-08-21T09:58:24.000Z</time>
      </trkpt>
      <trkpt lat="47.28769" lon="-2.31461">
        <ele>18.60000038147</ele>
        <time>2022-08-21T09:58:32.000Z</time>
      </trkpt>
      <trkpt lat="47.28741" lon="-2.31476">
        <ele>18.60000038147</ele>
        <time>2022-08-21T09:58:37.000Z</time>
      </trkpt>
      <trkpt lat="47.2873" lon="-2.31483">
        <ele>18.60000038147</ele>
        <time>2022-08-21T09:58:39.000Z</time>
      </trkpt>
      <trkpt lat="47.28696" lon="-2.31496">
        <ele>18.60000038147</ele>
        <time>2022-08-21T09:58:45.000Z</time>
      </trkpt>
      <trkpt lat="47.28691" lon="-2.31496">
        <ele>18.60000038147</ele>
        <time>2022-08-21T09:58:46.000Z</time>
      </trkpt>
      <trkpt lat="47.28676" lon="-2.31484">
        <ele>18.60000038147</ele>
        <time>2022-08-21T09:58:49.000Z</time>
      </trkpt>
      <trkpt lat="47.28668" lon="-2.31459">
        <ele>19</ele>
        <time>2022-08-21T09:58:53.000Z</time>
      </trkpt>
      <trkpt lat="47.28665" lon="-2.31455">
        <ele>19.39999961853</ele>
        <time>2022-08-21T09:58:54.000Z</time>
      </trkpt>
      <trkpt lat="47.28661" lon="-2.31454">
        <ele>19.799999237061</ele>
        <time>2022-08-21T09:58:55.000Z</time>
      </trkpt>
      <trkpt lat="47.28656" lon="-2.31455">
        <ele>20.799999237061</ele>
        <time>2022-08-21T09:58:56.000Z</time>
      </trkpt>
      <trkpt lat="47.28648" lon="-2.3146">
        <ele>20.799999237061</ele>
        <time>2022-08-21T09:58:58.000Z</time>
      </trkpt>
      <trkpt lat="47.28634" lon="-2.31468">
        <ele>20.799999237061</ele>
        <time>2022-08-21T09:59:02.000Z</time>
      </trkpt>
      <trkpt lat="47.2862" lon="-2.31479">
        <ele>20.799999237061</ele>
        <time>2022-08-21T09:59:07.000Z</time>
      </trkpt>
      <trkpt lat="47.28622" lon="-2.31494">
        <ele>20.799999237061</ele>
        <time>2022-08-21T09:59:10.000Z</time>
      </trkpt>
      <trkpt lat="47.28622" lon="-2.31501">
        <ele>20.799999237061</ele>
        <time>2022-08-21T09:59:11.000Z</time>
      </trkpt>
      <trkpt lat="47.28626" lon="-2.31537">
        <ele>20.799999237061</ele>
        <time>2022-08-21T09:59:16.000Z</time>
      </trkpt>
      <trkpt lat="47.28624" lon="-2.31605">
        <ele>20.799999237061</ele>
        <time>2022-08-21T09:59:24.000Z</time>
      </trkpt>
      <trkpt lat="47.28626" lon="-2.31677">
        <ele>20.799999237061</ele>
        <time>2022-08-21T09:59:32.000Z</time>
      </trkpt>
      <trkpt lat="47.28638" lon="-2.31751">
        <ele>20.799999237061</ele>
        <time>2022-08-21T09:59:40.000Z</time>
      </trkpt>
      <trkpt lat="47.28646" lon="-2.31816">
        <ele>20.799999237061</ele>
        <time>2022-08-21T09:59:47.000Z</time>
      </trkpt>
      <trkpt lat="47.28653" lon="-2.31883">
        <ele>20.799999237061</ele>
        <time>2022-08-21T09:59:54.000Z</time>
      </trkpt>
      <trkpt lat="47.28659" lon="-2.3194">
        <ele>20.799999237061</ele>
        <time>2022-08-21T10:00:00.000Z</time>
      </trkpt>
      <trkpt lat="47.2867" lon="-2.32006">
        <ele>20.799999237061</ele>
        <time>2022-08-21T10:00:07.000Z</time>
      </trkpt>
      <trkpt lat="47.28686" lon="-2.32074">
        <ele>20.799999237061</ele>
        <time>2022-08-21T10:00:15.000Z</time>
      </trkpt>
      <trkpt lat="47.28693" lon="-2.32109">
        <ele>20.799999237061</ele>
        <time>2022-08-21T10:00:19.000Z</time>
      </trkpt>
      <trkpt lat="47.28693" lon="-2.32128">
        <ele>20.799999237061</ele>
        <time>2022-08-21T10:00:21.000Z</time>
      </trkpt>
      <trkpt lat="47.28687" lon="-2.32157">
        <ele>20.39999961853</ele>
        <time>2022-08-21T10:00:24.000Z</time>
      </trkpt>
      <trkpt lat="47.28684" lon="-2.32166">
        <ele>20</ele>
        <time>2022-08-21T10:00:25.000Z</time>
      </trkpt>
      <trkpt lat="47.2868" lon="-2.32174">
        <ele>19.60000038147</ele>
        <time>2022-08-21T10:00:26.000Z</time>
      </trkpt>
      <trkpt lat="47.28675" lon="-2.32182">
        <ele>19.200000762939</ele>
        <time>2022-08-21T10:00:27.000Z</time>
      </trkpt>
      <trkpt lat="47.28671" lon="-2.32191">
        <ele>18.60000038147</ele>
        <time>2022-08-21T10:00:28.000Z</time>
      </trkpt>
      <trkpt lat="47.28662" lon="-2.32206">
        <ele>18.60000038147</ele>
        <time>2022-08-21T10:00:30.000Z</time>
      </trkpt>
      <trkpt lat="47.28657" lon="-2.32213">
        <ele>18.60000038147</ele>
        <time>2022-08-21T10:00:31.000Z</time>
      </trkpt>
      <trkpt lat="47.28645" lon="-2.32225">
        <ele>18.200000762939</ele>
        <time>2022-08-21T10:00:33.000Z</time>
      </trkpt>
      <trkpt lat="47.28638" lon="-2.3223">
        <ele>17.799999237061</ele>
        <time>2022-08-21T10:00:34.000Z</time>
      </trkpt>
      <trkpt lat="47.28631" lon="-2.32235">
        <ele>17</ele>
        <time>2022-08-21T10:00:35.000Z</time>
      </trkpt>
      <trkpt lat="47.28625" lon="-2.3224">
        <ele>16.60000038147</ele>
        <time>2022-08-21T10:00:36.000Z</time>
      </trkpt>
      <trkpt lat="47.286" lon="-2.32257">
        <ele>16.60000038147</ele>
        <time>2022-08-21T10:00:40.000Z</time>
      </trkpt>
      <trkpt lat="47.28594" lon="-2.32261">
        <ele>16.200000762939</ele>
        <time>2022-08-21T10:00:41.000Z</time>
      </trkpt>
      <trkpt lat="47.28587" lon="-2.32266">
        <ele>15.800000190735</ele>
        <time>2022-08-21T10:00:42.000Z</time>
      </trkpt>
      <trkpt lat="47.28581" lon="-2.3227">
        <ele>15.39999961853</ele>
        <time>2022-08-21T10:00:43.000Z</time>
      </trkpt>
      <trkpt lat="47.28575" lon="-2.32275">
        <ele>15</ele>
        <time>2022-08-21T10:00:44.000Z</time>
      </trkpt>
      <trkpt lat="47.2857" lon="-2.3228">
        <ele>14.60000038147</ele>
        <time>2022-08-21T10:00:45.000Z</time>
      </trkpt>
      <trkpt lat="47.28558" lon="-2.32293">
        <ele>14.60000038147</ele>
        <time>2022-08-21T10:00:47.000Z</time>
      </trkpt>
      <trkpt lat="47.2852" lon="-2.32327">
        <ele>14.60000038147</ele>
        <time>2022-08-21T10:00:53.000Z</time>
      </trkpt>
      <trkpt lat="47.28494" lon="-2.32347">
        <ele>14.199999809265</ele>
        <time>2022-08-21T10:00:57.000Z</time>
      </trkpt>
      <trkpt lat="47.28487" lon="-2.32351">
        <ele>13.800000190735</ele>
        <time>2022-08-21T10:00:58.000Z</time>
      </trkpt>
      <trkpt lat="47.28481" lon="-2.32355">
        <ele>13</ele>
        <time>2022-08-21T10:00:59.000Z</time>
      </trkpt>
      <trkpt lat="47.28475" lon="-2.3236">
        <ele>12.60000038147</ele>
        <time>2022-08-21T10:01:00.000Z</time>
      </trkpt>
      <trkpt lat="47.2843" lon="-2.32389">
        <ele>12.60000038147</ele>
        <time>2022-08-21T10:01:07.000Z</time>
      </trkpt>
      <trkpt lat="47.28386" lon="-2.32418">
        <ele>12.60000038147</ele>
        <time>2022-08-21T10:01:15.000Z</time>
      </trkpt>
      <trkpt lat="47.28378" lon="-2.32426">
        <ele>12.60000038147</ele>
        <time>2022-08-21T10:01:17.000Z</time>
      </trkpt>
      <trkpt lat="47.28376" lon="-2.3244">
        <ele>12.60000038147</ele>
        <time>2022-08-21T10:01:19.000Z</time>
      </trkpt>
      <trkpt lat="47.28381" lon="-2.32463">
        <ele>12.60000038147</ele>
        <time>2022-08-21T10:01:22.000Z</time>
      </trkpt>
      <trkpt lat="47.28383" lon="-2.32471">
        <ele>12.60000038147</ele>
        <time>2022-08-21T10:01:23.000Z</time>
      </trkpt>
      <trkpt lat="47.28388" lon="-2.32494">
        <ele>12.199999809265</ele>
        <time>2022-08-21T10:01:26.000Z</time>
      </trkpt>
      <trkpt lat="47.28389" lon="-2.32502">
        <ele>11.800000190735</ele>
        <time>2022-08-21T10:01:27.000Z</time>
      </trkpt>
      <trkpt lat="47.28391" lon="-2.32509">
        <ele>11.39999961853</ele>
        <time>2022-08-21T10:01:28.000Z</time>
      </trkpt>
      <trkpt lat="47.28393" lon="-2.32516">
        <ele>11</ele>
        <time>2022-08-21T10:01:29.000Z</time>
      </trkpt>
      <trkpt lat="47.28393" lon="-2.32521">
        <ele>10.60000038147</ele>
        <time>2022-08-21T10:01:30.000Z</time>
      </trkpt>
      <trkpt lat="47.28391" lon="-2.32525">
        <ele>10.60000038147</ele>
        <time>2022-08-21T10:01:31.000Z</time>
      </trkpt>
      <trkpt lat="47.28388" lon="-2.32526">
        <ele>10.60000038147</ele>
        <time>2022-08-21T10:01:33.000Z</time>
      </trkpt>
      <trkpt lat="47.28378" lon="-2.32525">
        <ele>10.60000038147</ele>
        <time>2022-08-21T10:01:37.000Z</time>
      </trkpt>
      <trkpt lat="47.28374" lon="-2.32525">
        <ele>10.60000038147</ele>
        <time>2022-08-21T10:01:38.000Z</time>
      </trkpt>
      <trkpt lat="47.28352" lon="-2.32526">
        <ele>10.60000038147</ele>
        <time>2022-08-21T10:01:44.000Z</time>
      </trkpt>
      <trkpt lat="47.28335" lon="-2.32527">
        <ele>10.60000038147</ele>
        <time>2022-08-21T10:01:48.000Z</time>
      </trkpt>
      <trkpt lat="47.28322" lon="-2.32527">
        <ele>10.60000038147</ele>
        <time>2022-08-21T10:01:51.000Z</time>
      </trkpt>
      <trkpt lat="47.28294" lon="-2.32525">
        <ele>10.60000038147</ele>
        <time>2022-08-21T10:01:57.000Z</time>
      </trkpt>
      <trkpt lat="47.28271" lon="-2.3252">
        <ele>10.60000038147</ele>
        <time>2022-08-21T10:02:02.000Z</time>
      </trkpt>
      <trkpt lat="47.28267" lon="-2.32516">
        <ele>10.60000038147</ele>
        <time>2022-08-21T10:02:03.000Z</time>
      </trkpt>
      <trkpt lat="47.28255" lon="-2.325">
        <ele>10.60000038147</ele>
        <time>2022-08-21T10:02:06.000Z</time>
      </trkpt>
      <trkpt lat="47.2825" lon="-2.32495">
        <ele>10.60000038147</ele>
        <time>2022-08-21T10:02:07.000Z</time>
      </trkpt>
      <trkpt lat="47.28223" lon="-2.3247">
        <ele>10.60000038147</ele>
        <time>2022-08-21T10:02:13.000Z</time>
      </trkpt>
      <trkpt lat="47.28196" lon="-2.32463">
        <ele>10.60000038147</ele>
        <time>2022-08-21T10:02:18.000Z</time>
      </trkpt>
      <trkpt lat="47.28185" lon="-2.32461">
        <ele>10.60000038147</ele>
        <time>2022-08-21T10:02:20.000Z</time>
      </trkpt>
      <trkpt lat="47.28169" lon="-2.32459">
        <ele>10.60000038147</ele>
        <time>2022-08-21T10:02:23.000Z</time>
      </trkpt>
      <trkpt lat="47.2814" lon="-2.32463">
        <ele>10.60000038147</ele>
        <time>2022-08-21T10:02:28.000Z</time>
      </trkpt>
      <trkpt lat="47.28135" lon="-2.32462">
        <ele>10.60000038147</ele>
        <time>2022-08-21T10:02:29.000Z</time>
      </trkpt>
      <trkpt lat="47.28113" lon="-2.32454">
        <ele>10.60000038147</ele>
        <time>2022-08-21T10:02:34.000Z</time>
      </trkpt>
      <trkpt lat="47.28096" lon="-2.32444">
        <ele>10.60000038147</ele>
        <time>2022-08-21T10:02:38.000Z</time>
      </trkpt>
      <trkpt lat="47.28085" lon="-2.3244">
        <ele>10.60000038147</ele>
        <time>2022-08-21T10:02:40.000Z</time>
      </trkpt>
      <trkpt lat="47.28073" lon="-2.32439">
        <ele>10.60000038147</ele>
        <time>2022-08-21T10:02:42.000Z</time>
      </trkpt>
      <trkpt lat="47.28057" lon="-2.3244">
        <ele>10.60000038147</ele>
        <time>2022-08-21T10:02:45.000Z</time>
      </trkpt>
      <trkpt lat="47.28029" lon="-2.32435">
        <ele>10.60000038147</ele>
        <time>2022-08-21T10:02:50.000Z</time>
      </trkpt>
      <trkpt lat="47.2799" lon="-2.32421">
        <ele>10.60000038147</ele>
        <time>2022-08-21T10:02:57.000Z</time>
      </trkpt>
      <trkpt lat="47.27965" lon="-2.32411">
        <ele>10.60000038147</ele>
        <time>2022-08-21T10:03:02.000Z</time>
      </trkpt>
      <trkpt lat="47.27961" lon="-2.3241">
        <ele>10.60000038147</ele>
        <time>2022-08-21T10:03:03.000Z</time>
      </trkpt>
      <trkpt lat="47.27947" lon="-2.32408">
        <ele>10.60000038147</ele>
        <time>2022-08-21T10:03:06.000Z</time>
      </trkpt>
      <trkpt lat="47.27937" lon="-2.32403">
        <ele>10.60000038147</ele>
        <time>2022-08-21T10:03:09.000Z</time>
      </trkpt>
      <trkpt lat="47.2793" lon="-2.32402">
        <ele>10.60000038147</ele>
        <time>2022-08-21T10:03:11.000Z</time>
      </trkpt>
      <trkpt lat="47.27915" lon="-2.32393">
        <ele>10.60000038147</ele>
        <time>2022-08-21T10:03:16.000Z</time>
      </trkpt>
      <trkpt lat="47.27911" lon="-2.32391">
        <ele>10.60000038147</ele>
        <time>2022-08-21T10:03:20.000Z</time>
      </trkpt>
      <trkpt lat="47.27904" lon="-2.32391">
        <ele>10.60000038147</ele>
        <time>2022-08-21T10:03:28.000Z</time>
      </trkpt>
      <trkpt lat="47.279" lon="-2.32392">
        <ele>11</ele>
        <time>2022-08-21T10:03:30.000Z</time>
      </trkpt>
      <trkpt lat="47.27899" lon="-2.32392">
        <ele>11.39999961853</ele>
        <time>2022-08-21T10:03:31.000Z</time>
      </trkpt>
      <trkpt lat="47.27896" lon="-2.32392">
        <ele>11.800000190735</ele>
        <time>2022-08-21T10:03:32.000Z</time>
      </trkpt>
      <trkpt lat="47.27894" lon="-2.32393">
        <ele>12.199999809265</ele>
        <time>2022-08-21T10:03:33.000Z</time>
      </trkpt>
      <trkpt lat="47.27892" lon="-2.32394">
        <ele>12.60000038147</ele>
        <time>2022-08-21T10:03:34.000Z</time>
      </trkpt>
      <trkpt lat="47.27885" lon="-2.32394">
        <ele>12.60000038147</ele>
        <time>2022-08-21T10:03:36.000Z</time>
      </trkpt>
      <trkpt lat="47.27879" lon="-2.32394">
        <ele>12.60000038147</ele>
        <time>2022-08-21T10:03:38.000Z</time>
      </trkpt>
      <trkpt lat="47.27866" lon="-2.32388">
        <ele>12.60000038147</ele>
        <time>2022-08-21T10:03:42.000Z</time>
      </trkpt>
      <trkpt lat="47.27848" lon="-2.32383">
        <ele>12.60000038147</ele>
        <time>2022-08-21T10:03:47.000Z</time>
      </trkpt>
      <trkpt lat="47.27835" lon="-2.32385">
        <ele>12.60000038147</ele>
        <time>2022-08-21T10:03:51.000Z</time>
      </trkpt>
      <trkpt lat="47.27817" lon="-2.32387">
        <ele>12.60000038147</ele>
        <time>2022-08-21T10:03:56.000Z</time>
      </trkpt>
      <trkpt lat="47.27798" lon="-2.32388">
        <ele>12.60000038147</ele>
        <time>2022-08-21T10:04:01.000Z</time>
      </trkpt>
      <trkpt lat="47.2778" lon="-2.32389">
        <ele>12.60000038147</ele>
        <time>2022-08-21T10:04:06.000Z</time>
      </trkpt>
      <trkpt lat="47.27777" lon="-2.32384">
        <ele>12.60000038147</ele>
        <time>2022-08-21T10:04:07.000Z</time>
      </trkpt>
      <trkpt lat="47.2777" lon="-2.32379">
        <ele>12.60000038147</ele>
        <time>2022-08-21T10:04:09.000Z</time>
      </trkpt>
      <trkpt lat="47.27754" lon="-2.32371">
        <ele>12.60000038147</ele>
        <time>2022-08-21T10:04:13.000Z</time>
      </trkpt>
      <trkpt lat="47.27746" lon="-2.32365">
        <ele>12.60000038147</ele>
        <time>2022-08-21T10:04:15.000Z</time>
      </trkpt>
      <trkpt lat="47.27735" lon="-2.32356">
        <ele>13</ele>
        <time>2022-08-21T10:04:18.000Z</time>
      </trkpt>
      <trkpt lat="47.27731" lon="-2.32354">
        <ele>13.39999961853</ele>
        <time>2022-08-21T10:04:19.000Z</time>
      </trkpt>
      <trkpt lat="47.27727" lon="-2.32351">
        <ele>13.800000190735</ele>
        <time>2022-08-21T10:04:20.000Z</time>
      </trkpt>
      <trkpt lat="47.27723" lon="-2.32348">
        <ele>14.199999809265</ele>
        <time>2022-08-21T10:04:21.000Z</time>
      </trkpt>
      <trkpt lat="47.27719" lon="-2.32345">
        <ele>14.60000038147</ele>
        <time>2022-08-21T10:04:22.000Z</time>
      </trkpt>
      <trkpt lat="47.27712" lon="-2.32342">
        <ele>14.60000038147</ele>
        <time>2022-08-21T10:04:24.000Z</time>
      </trkpt>
      <trkpt lat="47.27691" lon="-2.32334">
        <ele>14.60000038147</ele>
        <time>2022-08-21T10:04:30.000Z</time>
      </trkpt>
      <trkpt lat="47.27666" lon="-2.32324">
        <ele>14.60000038147</ele>
        <time>2022-08-21T10:04:35.000Z</time>
      </trkpt>
      <trkpt lat="47.27656" lon="-2.32321">
        <ele>14.60000038147</ele>
        <time>2022-08-21T10:04:37.000Z</time>
      </trkpt>
      <trkpt lat="47.27642" lon="-2.32314">
        <ele>14.60000038147</ele>
        <time>2022-08-21T10:04:40.000Z</time>
      </trkpt>
      <trkpt lat="47.27634" lon="-2.32309">
        <ele>14.60000038147</ele>
        <time>2022-08-21T10:04:42.000Z</time>
      </trkpt>
      <trkpt lat="47.2763" lon="-2.32306">
        <ele>14.199999809265</ele>
        <time>2022-08-21T10:04:43.000Z</time>
      </trkpt>
      <trkpt lat="47.27627" lon="-2.32303">
        <ele>13.800000190735</ele>
        <time>2022-08-21T10:04:44.000Z</time>
      </trkpt>
      <trkpt lat="47.27623" lon="-2.32301">
        <ele>13.199999809265</ele>
        <time>2022-08-21T10:04:45.000Z</time>
      </trkpt>
      <trkpt lat="47.27618" lon="-2.32298">
        <ele>12.800000190735</ele>
        <time>2022-08-21T10:04:46.000Z</time>
      </trkpt>
      <trkpt lat="47.27613" lon="-2.32294">
        <ele>12.39999961853</ele>
        <time>2022-08-21T10:04:47.000Z</time>
      </trkpt>
      <trkpt lat="47.27597" lon="-2.3228">
        <ele>12.39999961853</ele>
        <time>2022-08-21T10:04:50.000Z</time>
      </trkpt>
      <trkpt lat="47.27573" lon="-2.32259">
        <ele>12</ele>
        <time>2022-08-21T10:04:54.000Z</time>
      </trkpt>
      <trkpt lat="47.27567" lon="-2.32254">
        <ele>11.60000038147</ele>
        <time>2022-08-21T10:04:55.000Z</time>
      </trkpt>
      <trkpt lat="47.27561" lon="-2.32249">
        <ele>11.199999809265</ele>
        <time>2022-08-21T10:04:56.000Z</time>
      </trkpt>
      <trkpt lat="47.27555" lon="-2.32243">
        <ele>10.60000038147</ele>
        <time>2022-08-21T10:04:57.000Z</time>
      </trkpt>
      <trkpt lat="47.27549" lon="-2.32238">
        <ele>10.199999809265</ele>
        <time>2022-08-21T10:04:58.000Z</time>
      </trkpt>
      <trkpt lat="47.27535" lon="-2.32227">
        <ele>9.8000001907349</ele>
        <time>2022-08-21T10:05:00.000Z</time>
      </trkpt>
      <trkpt lat="47.27529" lon="-2.3222">
        <ele>9.3999996185303</ele>
        <time>2022-08-21T10:05:01.000Z</time>
      </trkpt>
      <trkpt lat="47.27524" lon="-2.32212">
        <ele>9</ele>
        <time>2022-08-21T10:05:02.000Z</time>
      </trkpt>
      <trkpt lat="47.27518" lon="-2.32205">
        <ele>8.6000003814697</ele>
        <time>2022-08-21T10:05:03.000Z</time>
      </trkpt>
      <trkpt lat="47.27512" lon="-2.32197">
        <ele>8.1999998092651</ele>
        <time>2022-08-21T10:05:04.000Z</time>
      </trkpt>
      <trkpt lat="47.27501" lon="-2.32182">
        <ele>7.5999999046326</ele>
        <time>2022-08-21T10:05:06.000Z</time>
      </trkpt>
      <trkpt lat="47.27494" lon="-2.32174">
        <ele>6.8000001907349</ele>
        <time>2022-08-21T10:05:07.000Z</time>
      </trkpt>
      <trkpt lat="47.27488" lon="-2.32165">
        <ele>6.4000000953674</ele>
        <time>2022-08-21T10:05:08.000Z</time>
      </trkpt>
      <trkpt lat="47.27482" lon="-2.32157">
        <ele>6</ele>
        <time>2022-08-21T10:05:09.000Z</time>
      </trkpt>
      <trkpt lat="47.27451" lon="-2.32116">
        <ele>6</ele>
        <time>2022-08-21T10:05:15.000Z</time>
      </trkpt>
      <trkpt lat="47.2743" lon="-2.32089">
        <ele>5.5999999046326</ele>
        <time>2022-08-21T10:05:19.000Z</time>
      </trkpt>
      <trkpt lat="47.27425" lon="-2.32083">
        <ele>5.1999998092651</ele>
        <time>2022-08-21T10:05:20.000Z</time>
      </trkpt>
      <trkpt lat="47.27419" lon="-2.32076">
        <ele>4.8000001907349</ele>
        <time>2022-08-21T10:05:21.000Z</time>
      </trkpt>
      <trkpt lat="47.27413" lon="-2.3207">
        <ele>4.4000000953674</ele>
        <time>2022-08-21T10:05:22.000Z</time>
      </trkpt>
      <trkpt lat="47.27406" lon="-2.32064">
        <ele>4</ele>
        <time>2022-08-21T10:05:23.000Z</time>
      </trkpt>
      <trkpt lat="47.27382" lon="-2.32038">
        <ele>3.5999999046326</ele>
        <time>2022-08-21T10:05:27.000Z</time>
      </trkpt>
      <trkpt lat="47.27375" lon="-2.32032">
        <ele>3</ele>
        <time>2022-08-21T10:05:28.000Z</time>
      </trkpt>
      <trkpt lat="47.2737" lon="-2.32026">
        <ele>2.5999999046326</ele>
        <time>2022-08-21T10:05:29.000Z</time>
      </trkpt>
      <trkpt lat="47.27366" lon="-2.32021">
        <ele>2.2000000476837</ele>
        <time>2022-08-21T10:05:30.000Z</time>
      </trkpt>
      <trkpt lat="47.27361" lon="-2.32017">
        <ele>1.7999999523163</ele>
        <time>2022-08-21T10:05:31.000Z</time>
      </trkpt>
      <trkpt lat="47.27359" lon="-2.32016">
        <ele>1.2000000476837</ele>
        <time>2022-08-21T10:05:32.000Z</time>
      </trkpt>
      <trkpt lat="47.27357" lon="-2.32018">
        <ele>0.80000001192093</ele>
        <time>2022-08-21T10:05:33.000Z</time>
      </trkpt>
      <trkpt lat="47.27356" lon="-2.3202">
        <ele>0.40000000596046</ele>
        <time>2022-08-21T10:05:34.000Z</time>
      </trkpt>
      <trkpt lat="47.27356" lon="-2.32024">
        <ele>6</ele>
        <time>2022-08-21T10:05:35.000Z</time>
      </trkpt>
      <trkpt lat="47.27357" lon="-2.32026">
        <ele>-0.40000000596046</ele>
        <time>2022-08-21T10:05:36.000Z</time>
      </trkpt>
      <trkpt lat="47.27363" lon="-2.32036">
        <ele>-0.40000000596046</ele>
        <time>2022-08-21T10:05:40.000Z</time>
      </trkpt>
      <trkpt lat="47.27365" lon="-2.3204">
        <ele>-0.40000000596046</ele>
        <time>2022-08-21T10:05:41.000Z</time>
      </trkpt>
      <trkpt lat="47.2738" lon="-2.32066">
        <ele>-0.40000000596046</ele>
        <time>2022-08-21T10:05:47.000Z</time>
      </trkpt>
      <trkpt lat="47.27398" lon="-2.32097">
        <ele>-0.40000000596046</ele>
        <time>2022-08-21T10:05:52.000Z</time>
      </trkpt>
      <trkpt lat="47.274" lon="-2.3212">
        <ele>-0.40000000596046</ele>
        <time>2022-08-21T10:05:55.000Z</time>
      </trkpt>
      <trkpt lat="47.27399" lon="-2.32135">
        <ele>-0.40000000596046</ele>
        <time>2022-08-21T10:05:57.000Z</time>
      </trkpt>
      <trkpt lat="47.27397" lon="-2.3216">
        <ele>-0.40000000596046</ele>
        <time>2022-08-21T10:06:00.000Z</time>
      </trkpt>
      <trkpt lat="47.27392" lon="-2.32219">
        <ele>-0.40000000596046</ele>
        <time>2022-08-21T10:06:07.000Z</time>
      </trkpt>
      <trkpt lat="47.27385" lon="-2.32257">
        <ele>-0.40000000596046</ele>
        <time>2022-08-21T10:06:12.000Z</time>
      </trkpt>
      <trkpt lat="47.27383" lon="-2.32263">
        <ele>-0.40000000596046</ele>
        <time>2022-08-21T10:06:13.000Z</time>
      </trkpt>
      <trkpt lat="47.27378" lon="-2.32285">
        <ele>-0.40000000596046</ele>
        <time>2022-08-21T10:06:16.000Z</time>
      </trkpt>
      <trkpt lat="47.27376" lon="-2.32297">
        <ele>-0.40000000596046</ele>
        <time>2022-08-21T10:06:18.000Z</time>
      </trkpt>
      <trkpt lat="47.27373" lon="-2.3231">
        <ele>-0.40000000596046</ele>
        <time>2022-08-21T10:06:20.000Z</time>
      </trkpt>
      <trkpt lat="47.27369" lon="-2.32331">
        <ele>-0.40000000596046</ele>
        <time>2022-08-21T10:06:23.000Z</time>
      </trkpt>
      <trkpt lat="47.27365" lon="-2.32346">
        <ele>-0.40000000596046</ele>
        <time>2022-08-21T10:06:25.000Z</time>
      </trkpt>
      <trkpt lat="47.27357" lon="-2.32387">
        <ele>-0.40000000596046</ele>
        <time>2022-08-21T10:06:30.000Z</time>
      </trkpt>
      <trkpt lat="47.27343" lon="-2.32439">
        <ele>-0.40000000596046</ele>
        <time>2022-08-21T10:06:36.000Z</time>
      </trkpt>
      <trkpt lat="47.27325" lon="-2.32477">
        <ele>-0.40000000596046</ele>
        <time>2022-08-21T10:06:41.000Z</time>
      </trkpt>
      <trkpt lat="47.2732" lon="-2.32483">
        <ele>-0.40000000596046</ele>
        <time>2022-08-21T10:06:42.000Z</time>
      </trkpt>
      <trkpt lat="47.27307" lon="-2.32509">
        <ele>-0.40000000596046</ele>
        <time>2022-08-21T10:06:46.000Z</time>
      </trkpt>
      <trkpt lat="47.27302" lon="-2.32514">
        <ele>-0.40000000596046</ele>
        <time>2022-08-21T10:06:47.000Z</time>
      </trkpt>
      <trkpt lat="47.27279" lon="-2.32547">
        <ele>-0.40000000596046</ele>
        <time>2022-08-21T10:06:53.000Z</time>
      </trkpt>
      <trkpt lat="47.2725" lon="-2.32582">
        <ele>-0.40000000596046</ele>
        <time>2022-08-21T10:07:00.000Z</time>
      </trkpt>
      <trkpt lat="47.27246" lon="-2.32586">
        <ele>-0.40000000596046</ele>
        <time>2022-08-21T10:07:01.000Z</time>
      </trkpt>
      <trkpt lat="47.27228" lon="-2.32604">
        <ele>-0.40000000596046</ele>
        <time>2022-08-21T10:07:05.000Z</time>
      </trkpt>
      <trkpt lat="47.27197" lon="-2.32634">
        <ele>-0.40000000596046</ele>
        <time>2022-08-21T10:07:12.000Z</time>
      </trkpt>
      <trkpt lat="47.27161" lon="-2.32666">
        <ele>-0.40000000596046</ele>
        <time>2022-08-21T10:07:20.000Z</time>
      </trkpt>
      <trkpt lat="47.27135" lon="-2.32693">
        <ele>-0.40000000596046</ele>
        <time>2022-08-21T10:07:26.000Z</time>
      </trkpt>
      <trkpt lat="47.27133" lon="-2.32701">
        <ele>-0.40000000596046</ele>
        <time>2022-08-21T10:07:27.000Z</time>
      </trkpt>
      <trkpt lat="47.27126" lon="-2.32711">
        <ele>-0.40000000596046</ele>
        <time>2022-08-21T10:07:29.000Z</time>
      </trkpt>
      <trkpt lat="47.27117" lon="-2.32718">
        <ele>-0.40000000596046</ele>
        <time>2022-08-21T10:07:31.000Z</time>
      </trkpt>
      <trkpt lat="47.27104" lon="-2.32729">
        <ele>-0.40000000596046</ele>
        <time>2022-08-21T10:07:34.000Z</time>
      </trkpt>
      <trkpt lat="47.27095" lon="-2.32738">
        <ele>-0.40000000596046</ele>
        <time>2022-08-21T10:07:36.000Z</time>
      </trkpt>
      <trkpt lat="47.27051" lon="-2.32779">
        <ele>-0.40000000596046</ele>
        <time>2022-08-21T10:07:45.000Z</time>
      </trkpt>
      <trkpt lat="47.27012" lon="-2.32815">
        <ele>-0.40000000596046</ele>
        <time>2022-08-21T10:07:53.000Z</time>
      </trkpt>
      <trkpt lat="47.2698" lon="-2.32844">
        <ele>-0.40000000596046</ele>
        <time>2022-08-21T10:08:00.000Z</time>
      </trkpt>
      <trkpt lat="47.26957" lon="-2.32864">
        <ele>-0.40000000596046</ele>
        <time>2022-08-21T10:08:05.000Z</time>
      </trkpt>
      <trkpt lat="47.26927" lon="-2.32892">
        <ele>-0.40000000596046</ele>
        <time>2022-08-21T10:08:11.000Z</time>
      </trkpt>
      <trkpt lat="47.26895" lon="-2.32922">
        <ele>-0.40000000596046</ele>
        <time>2022-08-21T10:08:18.000Z</time>
      </trkpt>
      <trkpt lat="47.2687" lon="-2.32943">
        <ele>-0.40000000596046</ele>
        <time>2022-08-21T10:08:23.000Z</time>
      </trkpt>
      <trkpt lat="47.26848" lon="-2.32964">
        <ele>-0.40000000596046</ele>
        <time>2022-08-21T10:08:28.000Z</time>
      </trkpt>
      <trkpt lat="47.26819" lon="-2.32992">
        <ele>-0.40000000596046</ele>
        <time>2022-08-21T10:08:34.000Z</time>
      </trkpt>
      <trkpt lat="47.26814" lon="-2.32996">
        <ele>-0.40000000596046</ele>
        <time>2022-08-21T10:08:35.000Z</time>
      </trkpt>
      <trkpt lat="47.26786" lon="-2.33027">
        <ele>-0.40000000596046</ele>
        <time>2022-08-21T10:08:41.000Z</time>
      </trkpt>
      <trkpt lat="47.26757" lon="-2.33055">
        <ele>-1.2000000476837</ele>
        <time>2022-08-21T10:08:48.000Z</time>
      </trkpt>
      <trkpt lat="47.26754" lon="-2.33057">
        <ele>-1.6000000238419</ele>
        <time>2022-08-21T10:08:49.000Z</time>
      </trkpt>
      <trkpt lat="47.26751" lon="-2.3306">
        <ele>-2</ele>
        <time>2022-08-21T10:08:50.000Z</time>
      </trkpt>
      <trkpt lat="47.26748" lon="-2.33062">
        <ele>-2.5999999046326</ele>
        <time>2022-08-21T10:08:51.000Z</time>
      </trkpt>
      <trkpt lat="47.26746" lon="-2.33063">
        <ele>-2.5999999046326</ele>
        <time>2022-08-21T10:08:52.000Z</time>
      </trkpt>
      <trkpt lat="47.26744" lon="-2.33062">
        <ele>-2.5999999046326</ele>
        <time>2022-08-21T10:08:53.000Z</time>
      </trkpt>
      <trkpt lat="47.26735" lon="-2.33059">
        <ele>-2.5999999046326</ele>
        <time>2022-08-21T10:08:56.000Z</time>
      </trkpt>
      <trkpt lat="47.26722" lon="-2.33068">
        <ele>-2.5999999046326</ele>
        <time>2022-08-21T10:08:59.000Z</time>
      </trkpt>
      <trkpt lat="47.26714" lon="-2.33079">
        <ele>-2.5999999046326</ele>
        <time>2022-08-21T10:09:01.000Z</time>
      </trkpt>
      <trkpt lat="47.267" lon="-2.33094">
        <ele>-2.5999999046326</ele>
        <time>2022-08-21T10:09:04.000Z</time>
      </trkpt>
      <trkpt lat="47.26696" lon="-2.331">
        <ele>-2.5999999046326</ele>
        <time>2022-08-21T10:09:05.000Z</time>
      </trkpt>
      <trkpt lat="47.26682" lon="-2.33114">
        <ele>-2.5999999046326</ele>
        <time>2022-08-21T10:09:08.000Z</time>
      </trkpt>
      <trkpt lat="47.26677" lon="-2.33118">
        <ele>-2.5999999046326</ele>
        <time>2022-08-21T10:09:09.000Z</time>
      </trkpt>
      <trkpt lat="47.26643" lon="-2.33145">
        <ele>-2.5999999046326</ele>
        <time>2022-08-21T10:09:16.000Z</time>
      </trkpt>
      <trkpt lat="47.26629" lon="-2.33153">
        <ele>-2.5999999046326</ele>
        <time>2022-08-21T10:09:19.000Z</time>
      </trkpt>
      <trkpt lat="47.26621" lon="-2.33152">
        <ele>-2.5999999046326</ele>
        <time>2022-08-21T10:09:21.000Z</time>
      </trkpt>
      <trkpt lat="47.26609" lon="-2.33154">
        <ele>-2.5999999046326</ele>
        <time>2022-08-21T10:09:24.000Z</time>
      </trkpt>
      <trkpt lat="47.26606" lon="-2.33159">
        <ele>-2.5999999046326</ele>
        <time>2022-08-21T10:09:25.000Z</time>
      </trkpt>
      <trkpt lat="47.26594" lon="-2.33189">
        <ele>-2.5999999046326</ele>
        <time>2022-08-21T10:09:30.000Z</time>
      </trkpt>
      <trkpt lat="47.26594" lon="-2.33196">
        <ele>-2.5999999046326</ele>
        <time>2022-08-21T10:09:31.000Z</time>
      </trkpt>
      <trkpt lat="47.26587" lon="-2.33203">
        <ele>-2.5999999046326</ele>
        <time>2022-08-21T10:09:33.000Z</time>
      </trkpt>
      <trkpt lat="47.26579" lon="-2.33208">
        <ele>-2.5999999046326</ele>
        <time>2022-08-21T10:09:35.000Z</time>
      </trkpt>
      <trkpt lat="47.26574" lon="-2.33212">
        <ele>-2.5999999046326</ele>
        <time>2022-08-21T10:09:36.000Z</time>
      </trkpt>
      <trkpt lat="47.26566" lon="-2.33217">
        <ele>-2.5999999046326</ele>
        <time>2022-08-21T10:09:38.000Z</time>
      </trkpt>
      <trkpt lat="47.26539" lon="-2.33235">
        <ele>-2.5999999046326</ele>
        <time>2022-08-21T10:09:44.000Z</time>
      </trkpt>
      <trkpt lat="47.26508" lon="-2.33255">
        <ele>-2.5999999046326</ele>
        <time>2022-08-21T10:09:52.000Z</time>
      </trkpt>
      <trkpt lat="47.26493" lon="-2.33271">
        <ele>-2.5999999046326</ele>
        <time>2022-08-21T10:09:57.000Z</time>
      </trkpt>
      <trkpt lat="47.26489" lon="-2.3328">
        <ele>-2.5999999046326</ele>
        <time>2022-08-21T10:10:00.000Z</time>
      </trkpt>
      <trkpt lat="47.26487" lon="-2.33281">
        <ele>-2.5999999046326</ele>
        <time>2022-08-21T10:10:01.000Z</time>
      </trkpt>
      <trkpt lat="47.26483" lon="-2.33289">
        <ele>-2.5999999046326</ele>
        <time>2022-08-21T10:10:05.000Z</time>
      </trkpt>
      <trkpt lat="47.26483" lon="-2.33288">
        <ele>-2.5999999046326</ele>
        <time>2022-08-21T10:10:06.000Z</time>
      </trkpt>
      <trkpt lat="47.26481" lon="-2.33294">
        <ele>-2.5999999046326</ele>
        <time>2022-08-21T10:12:01.000Z</time>
      </trkpt>
      <trkpt lat="47.26478" lon="-2.33298">
        <ele>-2.5999999046326</ele>
        <time>2022-08-21T10:12:03.000Z</time>
      </trkpt>
      <trkpt lat="47.26466" lon="-2.33309">
        <ele>-2.5999999046326</ele>
        <time>2022-08-21T10:12:07.000Z</time>
      </trkpt>
      <trkpt lat="47.26434" lon="-2.33334">
        <ele>-2.5999999046326</ele>
        <time>2022-08-21T10:12:15.000Z</time>
      </trkpt>
      <trkpt lat="47.26394" lon="-2.33362">
        <ele>-2.5999999046326</ele>
        <time>2022-08-21T10:12:24.000Z</time>
      </trkpt>
      <trkpt lat="47.2635" lon="-2.33387">
        <ele>-2.5999999046326</ele>
        <time>2022-08-21T10:12:33.000Z</time>
      </trkpt>
      <trkpt lat="47.26321" lon="-2.33402">
        <ele>-2.5999999046326</ele>
        <time>2022-08-21T10:12:39.000Z</time>
      </trkpt>
      <trkpt lat="47.26318" lon="-2.33406">
        <ele>-2.5999999046326</ele>
        <time>2022-08-21T10:12:40.000Z</time>
      </trkpt>
      <trkpt lat="47.26309" lon="-2.33419">
        <ele>-2.5999999046326</ele>
        <time>2022-08-21T10:12:43.000Z</time>
      </trkpt>
      <trkpt lat="47.26301" lon="-2.33423">
        <ele>-2.5999999046326</ele>
        <time>2022-08-21T10:12:45.000Z</time>
      </trkpt>
      <trkpt lat="47.26291" lon="-2.33425">
        <ele>-2.5999999046326</ele>
        <time>2022-08-21T10:12:47.000Z</time>
      </trkpt>
      <trkpt lat="47.26261" lon="-2.33432">
        <ele>-2.5999999046326</ele>
        <time>2022-08-21T10:12:53.000Z</time>
      </trkpt>
      <trkpt lat="47.26231" lon="-2.33439">
        <ele>-2.5999999046326</ele>
        <time>2022-08-21T10:12:59.000Z</time>
      </trkpt>
      <trkpt lat="47.26195" lon="-2.33445">
        <ele>-2.5999999046326</ele>
        <time>2022-08-21T10:13:06.000Z</time>
      </trkpt>
      <trkpt lat="47.26173" lon="-2.33444">
        <ele>-2.5999999046326</ele>
        <time>2022-08-21T10:13:11.000Z</time>
      </trkpt>
      <trkpt lat="47.26146" lon="-2.33433">
        <ele>-2.5999999046326</ele>
        <time>2022-08-21T10:13:17.000Z</time>
      </trkpt>
      <trkpt lat="47.26141" lon="-2.33433">
        <ele>-2.5999999046326</ele>
        <time>2022-08-21T10:13:19.000Z</time>
      </trkpt>
      <trkpt lat="47.2614" lon="-2.33435">
        <ele>-2.5999999046326</ele>
        <time>2022-08-21T10:13:20.000Z</time>
      </trkpt>
      <trkpt lat="47.26136" lon="-2.33446">
        <ele>-2.5999999046326</ele>
        <time>2022-08-21T10:13:23.000Z</time>
      </trkpt>
      <trkpt lat="47.26135" lon="-2.3345">
        <ele>-2.5999999046326</ele>
        <time>2022-08-21T10:13:24.000Z</time>
      </trkpt>
      <trkpt lat="47.26131" lon="-2.33452">
        <ele>-2.5999999046326</ele>
        <time>2022-08-21T10:13:25.000Z</time>
      </trkpt>
      <trkpt lat="47.26125" lon="-2.33453">
        <ele>-2.5999999046326</ele>
        <time>2022-08-21T10:13:27.000Z</time>
      </trkpt>
      <trkpt lat="47.26116" lon="-2.33455">
        <ele>-2.5999999046326</ele>
        <time>2022-08-21T10:13:31.000Z</time>
      </trkpt>
      <trkpt lat="47.26109" lon="-2.33462">
        <ele>-2.5999999046326</ele>
        <time>2022-08-21T10:13:33.000Z</time>
      </trkpt>
      <trkpt lat="47.26105" lon="-2.33466">
        <ele>-2.5999999046326</ele>
        <time>2022-08-21T10:13:34.000Z</time>
      </trkpt>
      <trkpt lat="47.26091" lon="-2.33476">
        <ele>-2.5999999046326</ele>
        <time>2022-08-21T10:13:37.000Z</time>
      </trkpt>
      <trkpt lat="47.2608" lon="-2.33473">
        <ele>-2.5999999046326</ele>
        <time>2022-08-21T10:13:39.000Z</time>
      </trkpt>
      <trkpt lat="47.26065" lon="-2.3346">
        <ele>-2.5999999046326</ele>
        <time>2022-08-21T10:13:42.000Z</time>
      </trkpt>
      <trkpt lat="47.26056" lon="-2.33453">
        <ele>-2.5999999046326</ele>
        <time>2022-08-21T10:13:44.000Z</time>
      </trkpt>
      <trkpt lat="47.26047" lon="-2.33459">
        <ele>-2.5999999046326</ele>
        <time>2022-08-21T10:13:46.000Z</time>
      </trkpt>
      <trkpt lat="47.26037" lon="-2.33479">
        <ele>-2.5999999046326</ele>
        <time>2022-08-21T10:13:49.000Z</time>
      </trkpt>
      <trkpt lat="47.26033" lon="-2.33484">
        <ele>-2.5999999046326</ele>
        <time>2022-08-21T10:13:50.000Z</time>
      </trkpt>
      <trkpt lat="47.26028" lon="-2.33487">
        <ele>-2.5999999046326</ele>
        <time>2022-08-21T10:13:51.000Z</time>
      </trkpt>
      <trkpt lat="47.26011" lon="-2.33492">
        <ele>-2.5999999046326</ele>
        <time>2022-08-21T10:13:54.000Z</time>
      </trkpt>
      <trkpt lat="47.26006" lon="-2.33493">
        <ele>-2.5999999046326</ele>
        <time>2022-08-21T10:13:55.000Z</time>
      </trkpt>
      <trkpt lat="47.25985" lon="-2.335">
        <ele>-2.5999999046326</ele>
        <time>2022-08-21T10:13:59.000Z</time>
      </trkpt>
      <trkpt lat="47.2598" lon="-2.33504">
        <ele>-2.5999999046326</ele>
        <time>2022-08-21T10:14:00.000Z</time>
      </trkpt>
      <trkpt lat="47.25959" lon="-2.33509">
        <ele>-2.5999999046326</ele>
        <time>2022-08-21T10:14:04.000Z</time>
      </trkpt>
      <trkpt lat="47.25943" lon="-2.33519">
        <ele>-2.5999999046326</ele>
        <time>2022-08-21T10:14:07.000Z</time>
      </trkpt>
      <trkpt lat="47.2593" lon="-2.33532">
        <ele>-2.5999999046326</ele>
        <time>2022-08-21T10:14:10.000Z</time>
      </trkpt>
      <trkpt lat="47.25921" lon="-2.33541">
        <ele>-2.5999999046326</ele>
        <time>2022-08-21T10:14:12.000Z</time>
      </trkpt>
      <trkpt lat="47.25885" lon="-2.33572">
        <ele>-2.5999999046326</ele>
        <time>2022-08-21T10:14:20.000Z</time>
      </trkpt>
      <trkpt lat="47.2588" lon="-2.33575">
        <ele>-2</ele>
        <time>2022-08-21T10:14:21.000Z</time>
      </trkpt>
      <trkpt lat="47.25875" lon="-2.33577">
        <ele>-1.6000000238419</ele>
        <time>2022-08-21T10:14:22.000Z</time>
      </trkpt>
      <trkpt lat="47.25869" lon="-2.33578">
        <ele>-1.2000000476837</ele>
        <time>2022-08-21T10:14:23.000Z</time>
      </trkpt>
      <trkpt lat="47.25864" lon="-2.33578">
        <ele>-0.80000001192093</ele>
        <time>2022-08-21T10:14:24.000Z</time>
      </trkpt>
      <trkpt lat="47.25858" lon="-2.33579">
        <ele>-0.40000000596046</ele>
        <time>2022-08-21T10:14:25.000Z</time>
      </trkpt>
      <trkpt lat="47.25827" lon="-2.3358">
        <ele>-0.40000000596046</ele>
        <time>2022-08-21T10:14:31.000Z</time>
      </trkpt>
      <trkpt lat="47.25795" lon="-2.33583">
        <ele>-0.40000000596046</ele>
        <time>2022-08-21T10:14:37.000Z</time>
      </trkpt>
      <trkpt lat="47.25757" lon="-2.33585">
        <ele>-0.40000000596046</ele>
        <time>2022-08-21T10:14:44.000Z</time>
      </trkpt>
      <trkpt lat="47.25752" lon="-2.33587">
        <ele>-0.40000000596046</ele>
        <time>2022-08-21T10:14:45.000Z</time>
      </trkpt>
      <trkpt lat="47.25737" lon="-2.33587">
        <ele>-0.40000000596046</ele>
        <time>2022-08-21T10:14:48.000Z</time>
      </trkpt>
      <trkpt lat="47.2572" lon="-2.33586">
        <ele>-0.40000000596046</ele>
        <time>2022-08-21T10:14:51.000Z</time>
      </trkpt>
      <trkpt lat="47.25714" lon="-2.33586">
        <ele>-0.40000000596046</ele>
        <time>2022-08-21T10:14:52.000Z</time>
      </trkpt>
      <trkpt lat="47.25687" lon="-2.33586">
        <ele>-0.40000000596046</ele>
        <time>2022-08-21T10:14:57.000Z</time>
      </trkpt>
      <trkpt lat="47.25676" lon="-2.33583">
        <ele>-0.40000000596046</ele>
        <time>2022-08-21T10:14:59.000Z</time>
      </trkpt>
      <trkpt lat="47.25643" lon="-2.3357">
        <ele>-0.40000000596046</ele>
        <time>2022-08-21T10:15:05.000Z</time>
      </trkpt>
      <trkpt lat="47.25622" lon="-2.33557">
        <ele>-0.40000000596046</ele>
        <time>2022-08-21T10:15:09.000Z</time>
      </trkpt>
      <trkpt lat="47.25607" lon="-2.33545">
        <ele>-0.40000000596046</ele>
        <time>2022-08-21T10:15:12.000Z</time>
      </trkpt>
      <trkpt lat="47.25575" lon="-2.33505">
        <ele>-0.40000000596046</ele>
        <time>2022-08-21T10:15:19.000Z</time>
      </trkpt>
      <trkpt lat="47.25563" lon="-2.33485">
        <ele>7.9</ele>
        <time>2022-08-21T10:15:22.000Z</time>
      </trkpt>
      <trkpt lat="47.25559" lon="-2.33478">
        <ele>0.80000001192093</ele>
        <time>2022-08-21T10:15:23.000Z</time>
      </trkpt>
      <trkpt lat="47.25556" lon="-2.33471">
        <ele>1.2000000476837</ele>
        <time>2022-08-21T10:15:24.000Z</time>
      </trkpt>
      <trkpt lat="47.25553" lon="-2.33464">
        <ele>1.6000000238419</ele>
        <time>2022-08-21T10:15:25.000Z</time>
      </trkpt>
      <trkpt lat="47.25537" lon="-2.33418">
        <ele>1.6000000238419</ele>
        <time>2022-08-21T10:15:31.000Z</time>
      </trkpt>
      <trkpt lat="47.25527" lon="-2.33369">
        <ele>1.6000000238419</ele>
        <time>2022-08-21T10:15:37.000Z</time>
      </trkpt>
      <trkpt lat="47.25518" lon="-2.33293">
        <ele>1.6000000238419</ele>
        <time>2022-08-21T10:15:46.000Z</time>
      </trkpt>
      <trkpt lat="47.25506" lon="-2.33208">
        <ele>1.6000000238419</ele>
        <time>2022-08-21T10:15:56.000Z</time>
      </trkpt>
      <trkpt lat="47.25498" lon="-2.33146">
        <ele>1.6000000238419</ele>
        <time>2022-08-21T10:16:04.000Z</time>
      </trkpt>
      <trkpt lat="47.25492" lon="-2.33104">
        <ele>1.6000000238419</ele>
        <time>2022-08-21T10:16:10.000Z</time>
      </trkpt>
      <trkpt lat="47.25489" lon="-2.33098">
        <ele>1.6000000238419</ele>
        <time>2022-08-21T10:16:11.000Z</time>
      </trkpt>
      <trkpt lat="47.25477" lon="-2.33096">
        <ele>1.6000000238419</ele>
        <time>2022-08-21T10:16:14.000Z</time>
      </trkpt>
      <trkpt lat="47.25468" lon="-2.33101">
        <ele>1.6000000238419</ele>
        <time>2022-08-21T10:16:16.000Z</time>
      </trkpt>
      <trkpt lat="47.25448" lon="-2.33111">
        <ele>1.6000000238419</ele>
        <time>2022-08-21T10:16:20.000Z</time>
      </trkpt>
      <trkpt lat="47.25419" lon="-2.33122">
        <ele>1.6000000238419</ele>
        <time>2022-08-21T10:16:26.000Z</time>
      </trkpt>
      <trkpt lat="47.25394" lon="-2.33134">
        <ele>1.6000000238419</ele>
        <time>2022-08-21T10:16:32.000Z</time>
      </trkpt>
      <trkpt lat="47.25383" lon="-2.33137">
        <ele>1.6000000238419</ele>
        <time>2022-08-21T10:16:35.000Z</time>
      </trkpt>
      <trkpt lat="47.25378" lon="-2.33131">
        <ele>1.6000000238419</ele>
        <time>2022-08-21T10:16:37.000Z</time>
      </trkpt>
      <trkpt lat="47.25375" lon="-2.33118">
        <ele>1.6000000238419</ele>
        <time>2022-08-21T10:16:41.000Z</time>
      </trkpt>
      <trkpt lat="47.25374" lon="-2.33115">
        <ele>1.6000000238419</ele>
        <time>2022-08-21T10:16:42.000Z</time>
      </trkpt>
      <trkpt lat="47.25369" lon="-2.33106">
        <ele>1.6000000238419</ele>
        <time>2022-08-21T10:16:49.000Z</time>
      </trkpt>
      <trkpt lat="47.25368" lon="-2.33103">
        <ele>1.6000000238419</ele>
        <time>2022-08-21T10:23:17.000Z</time>
      </trkpt>
      <trkpt lat="47.25367" lon="-2.33096">
        <ele>1.6000000238419</ele>
        <time>2022-08-21T10:23:20.000Z</time>
      </trkpt>
      <trkpt lat="47.25362" lon="-2.33086">
        <ele>1.6000000238419</ele>
        <time>2022-08-21T10:23:24.000Z</time>
      </trkpt>
      <trkpt lat="47.25361" lon="-2.33082">
        <ele>1.6000000238419</ele>
        <time>2022-08-21T10:23:25.000Z</time>
      </trkpt>
      <trkpt lat="47.25351" lon="-2.33057">
        <ele>1.6000000238419</ele>
        <time>2022-08-21T10:23:30.000Z</time>
      </trkpt>
      <trkpt lat="47.25341" lon="-2.33033">
        <ele>2</ele>
        <time>2022-08-21T10:23:35.000Z</time>
      </trkpt>
      <trkpt lat="47.25339" lon="-2.33028">
        <ele>2.7999999523163</ele>
        <time>2022-08-21T10:23:36.000Z</time>
      </trkpt>
      <trkpt lat="47.25337" lon="-2.33023">
        <ele>3.2000000476837</ele>
        <time>2022-08-21T10:23:37.000Z</time>
      </trkpt>
      <trkpt lat="47.25335" lon="-2.33018">
        <ele>3.5999999046326</ele>
        <time>2022-08-21T10:23:38.000Z</time>
      </trkpt>
      <trkpt lat="47.25324" lon="-2.32989">
        <ele>3.5999999046326</ele>
        <time>2022-08-21T10:23:44.000Z</time>
      </trkpt>
      <trkpt lat="47.25312" lon="-2.32956">
        <ele>3.5999999046326</ele>
        <time>2022-08-21T10:23:51.000Z</time>
      </trkpt>
      <trkpt lat="47.25306" lon="-2.32932">
        <ele>3.5999999046326</ele>
        <time>2022-08-21T10:23:56.000Z</time>
      </trkpt>
      <trkpt lat="47.25314" lon="-2.32914">
        <ele>3.5999999046326</ele>
        <time>2022-08-21T10:24:00.000Z</time>
      </trkpt>
      <trkpt lat="47.25334" lon="-2.32895">
        <ele>3.5999999046326</ele>
        <time>2022-08-21T10:24:06.000Z</time>
      </trkpt>
      <trkpt lat="47.25362" lon="-2.32869">
        <ele>3.5999999046326</ele>
        <time>2022-08-21T10:24:14.000Z</time>
      </trkpt>
      <trkpt lat="47.25393" lon="-2.32836">
        <ele>3.5999999046326</ele>
        <time>2022-08-21T10:24:23.000Z</time>
      </trkpt>
      <trkpt lat="47.25416" lon="-2.32802">
        <ele>3.5999999046326</ele>
        <time>2022-08-21T10:24:31.000Z</time>
      </trkpt>
      <trkpt lat="47.25425" lon="-2.32784">
        <ele>3.5999999046326</ele>
        <time>2022-08-21T10:24:37.000Z</time>
      </trkpt>
      <trkpt lat="47.25428" lon="-2.32777">
        <ele>4</ele>
        <time>2022-08-21T10:24:39.000Z</time>
      </trkpt>
      <trkpt lat="47.25429" lon="-2.32774">
        <ele>4.4000000953674</ele>
        <time>2022-08-21T10:24:40.000Z</time>
      </trkpt>
      <trkpt lat="47.25431" lon="-2.32771">
        <ele>4.8000001907349</ele>
        <time>2022-08-21T10:24:41.000Z</time>
      </trkpt>
      <trkpt lat="47.25434" lon="-2.32767">
        <ele>5.4000000953674</ele>
        <time>2022-08-21T10:24:42.000Z</time>
      </trkpt>
      <trkpt lat="47.25437" lon="-2.32762">
        <ele>5.8000001907349</ele>
        <time>2022-08-21T10:24:43.000Z</time>
      </trkpt>
      <trkpt lat="47.25455" lon="-2.32737">
        <ele>5.8000001907349</ele>
        <time>2022-08-21T10:24:49.000Z</time>
      </trkpt>
      <trkpt lat="47.25477" lon="-2.32709">
        <ele>5.8000001907349</ele>
        <time>2022-08-21T10:24:56.000Z</time>
      </trkpt>
      <trkpt lat="47.25489" lon="-2.32681">
        <ele>5.8000001907349</ele>
        <time>2022-08-21T10:25:02.000Z</time>
      </trkpt>
      <trkpt lat="47.25489" lon="-2.32675">
        <ele>5.8000001907349</ele>
        <time>2022-08-21T10:25:03.000Z</time>
      </trkpt>
      <trkpt lat="47.25489" lon="-2.32663">
        <ele>5.8000001907349</ele>
        <time>2022-08-21T10:25:05.000Z</time>
      </trkpt>
      <trkpt lat="47.25487" lon="-2.32651">
        <ele>5.8000001907349</ele>
        <time>2022-08-21T10:25:07.000Z</time>
      </trkpt>
      <trkpt lat="47.25478" lon="-2.32599">
        <ele>5.8000001907349</ele>
        <time>2022-08-21T10:25:15.000Z</time>
      </trkpt>
      <trkpt lat="47.25475" lon="-2.32581">
        <ele>5.8000001907349</ele>
        <time>2022-08-21T10:25:18.000Z</time>
      </trkpt>
      <trkpt lat="47.25478" lon="-2.32563">
        <ele>5.8000001907349</ele>
        <time>2022-08-21T10:25:21.000Z</time>
      </trkpt>
      <trkpt lat="47.25488" lon="-2.32551">
        <ele>5.8000001907349</ele>
        <time>2022-08-21T10:25:24.000Z</time>
      </trkpt>
      <trkpt lat="47.25493" lon="-2.32547">
        <ele>5.8000001907349</ele>
        <time>2022-08-21T10:25:25.000Z</time>
      </trkpt>
      <trkpt lat="47.25501" lon="-2.3254">
        <ele>5.8000001907349</ele>
        <time>2022-08-21T10:25:27.000Z</time>
      </trkpt>
      <trkpt lat="47.25515" lon="-2.32527">
        <ele>5.8000001907349</ele>
        <time>2022-08-21T10:25:30.000Z</time>
      </trkpt>
      <trkpt lat="47.25552" lon="-2.32493">
        <ele>5.8000001907349</ele>
        <time>2022-08-21T10:25:37.000Z</time>
      </trkpt>
      <trkpt lat="47.2558" lon="-2.32465">
        <ele>5.1999998092651</ele>
        <time>2022-08-21T10:25:42.000Z</time>
      </trkpt>
      <trkpt lat="47.25586" lon="-2.32459">
        <ele>4.8000001907349</ele>
        <time>2022-08-21T10:25:43.000Z</time>
      </trkpt>
      <trkpt lat="47.25593" lon="-2.32452">
        <ele>4.4000000953674</ele>
        <time>2022-08-21T10:25:44.000Z</time>
      </trkpt>
      <trkpt lat="47.25598" lon="-2.32446">
        <ele>3.7999999523163</ele>
        <time>2022-08-21T10:25:45.000Z</time>
      </trkpt>
      <trkpt lat="47.25604" lon="-2.32439">
        <ele>3.4000000953674</ele>
        <time>2022-08-21T10:25:46.000Z</time>
      </trkpt>
      <trkpt lat="47.25623" lon="-2.3242">
        <ele>3</ele>
        <time>2022-08-21T10:25:49.000Z</time>
      </trkpt>
      <trkpt lat="47.25629" lon="-2.32414">
        <ele>2.5999999046326</ele>
        <time>2022-08-21T10:25:50.000Z</time>
      </trkpt>
      <trkpt lat="47.25635" lon="-2.32408">
        <ele>2</ele>
        <time>2022-08-21T10:25:51.000Z</time>
      </trkpt>
      <trkpt lat="47.2564" lon="-2.32405">
        <ele>1.6000000238419</ele>
        <time>2022-08-21T10:25:52.000Z</time>
      </trkpt>
      <trkpt lat="47.25645" lon="-2.32403">
        <ele>1.2000000476837</ele>
        <time>2022-08-21T10:25:53.000Z</time>
      </trkpt>
      <trkpt lat="47.2565" lon="-2.32403">
        <ele>1.2000000476837</ele>
        <time>2022-08-21T10:25:54.000Z</time>
      </trkpt>
      <trkpt lat="47.25659" lon="-2.32403">
        <ele>1.2000000476837</ele>
        <time>2022-08-21T10:25:56.000Z</time>
      </trkpt>
      <trkpt lat="47.25668" lon="-2.32408">
        <ele>1.2000000476837</ele>
        <time>2022-08-21T10:25:58.000Z</time>
      </trkpt>
      <trkpt lat="47.25689" lon="-2.3242">
        <ele>1.2000000476837</ele>
        <time>2022-08-21T10:26:02.000Z</time>
      </trkpt>
      <trkpt lat="47.25695" lon="-2.3242">
        <ele>1.2000000476837</ele>
        <time>2022-08-21T10:26:03.000Z</time>
      </trkpt>
      <trkpt lat="47.25732" lon="-2.32423">
        <ele>1.2000000476837</ele>
        <time>2022-08-21T10:26:09.000Z</time>
      </trkpt>
      <trkpt lat="47.25757" lon="-2.32421">
        <ele>1.2000000476837</ele>
        <time>2022-08-21T10:26:13.000Z</time>
      </trkpt>
      <trkpt lat="47.25763" lon="-2.3242">
        <ele>1.2000000476837</ele>
        <time>2022-08-21T10:26:14.000Z</time>
      </trkpt>
      <trkpt lat="47.25768" lon="-2.32417">
        <ele>1.2000000476837</ele>
        <time>2022-08-21T10:26:15.000Z</time>
      </trkpt>
      <trkpt lat="47.25777" lon="-2.32413">
        <ele>1.2000000476837</ele>
        <time>2022-08-21T10:26:17.000Z</time>
      </trkpt>
      <trkpt lat="47.25781" lon="-2.32414">
        <ele>1.2000000476837</ele>
        <time>2022-08-21T10:26:18.000Z</time>
      </trkpt>
      <trkpt lat="47.25791" lon="-2.32429">
        <ele>1.2000000476837</ele>
        <time>2022-08-21T10:26:21.000Z</time>
      </trkpt>
      <trkpt lat="47.25807" lon="-2.32453">
        <ele>1.2000000476837</ele>
        <time>2022-08-21T10:26:25.000Z</time>
      </trkpt>
      <trkpt lat="47.25818" lon="-2.3246">
        <ele>1.2000000476837</ele>
        <time>2022-08-21T10:26:27.000Z</time>
      </trkpt>
      <trkpt lat="47.25835" lon="-2.3247">
        <ele>1.2000000476837</ele>
        <time>2022-08-21T10:26:30.000Z</time>
      </trkpt>
      <trkpt lat="47.25841" lon="-2.32472">
        <ele>1.2000000476837</ele>
        <time>2022-08-21T10:26:31.000Z</time>
      </trkpt>
      <trkpt lat="47.25865" lon="-2.32476">
        <ele>1.2000000476837</ele>
        <time>2022-08-21T10:26:35.000Z</time>
      </trkpt>
      <trkpt lat="47.25888" lon="-2.32471">
        <ele>1.2000000476837</ele>
        <time>2022-08-21T10:26:39.000Z</time>
      </trkpt>
      <trkpt lat="47.25894" lon="-2.32468">
        <ele>1.2000000476837</ele>
        <time>2022-08-21T10:26:40.000Z</time>
      </trkpt>
      <trkpt lat="47.25907" lon="-2.32452">
        <ele>1.2000000476837</ele>
        <time>2022-08-21T10:26:43.000Z</time>
      </trkpt>
      <trkpt lat="47.25912" lon="-2.32446">
        <ele>1.2000000476837</ele>
        <time>2022-08-21T10:26:44.000Z</time>
      </trkpt>
      <trkpt lat="47.25917" lon="-2.32442">
        <ele>1.2000000476837</ele>
        <time>2022-08-21T10:26:45.000Z</time>
      </trkpt>
      <trkpt lat="47.25922" lon="-2.32437">
        <ele>0.80000001192093</ele>
        <time>2022-08-21T10:26:46.000Z</time>
      </trkpt>
      <trkpt lat="47.25927" lon="-2.32431">
        <ele>0.40000000596046</ele>
        <time>2022-08-21T10:26:47.000Z</time>
      </trkpt>
      <trkpt lat="47.25931" lon="-2.32425">
        <ele>3.5</ele>
        <time>2022-08-21T10:26:48.000Z</time>
      </trkpt>
      <trkpt lat="47.25935" lon="-2.32419">
        <ele>-0.40000000596046</ele>
        <time>2022-08-21T10:26:49.000Z</time>
      </trkpt>
      <trkpt lat="47.25939" lon="-2.32413">
        <ele>-0.80000001192093</ele>
        <time>2022-08-21T10:26:50.000Z</time>
      </trkpt>
      <trkpt lat="47.25956" lon="-2.32388">
        <ele>-0.80000001192093</ele>
        <time>2022-08-21T10:26:54.000Z</time>
      </trkpt>
      <trkpt lat="47.25992" lon="-2.32341">
        <ele>-0.80000001192093</ele>
        <time>2022-08-21T10:27:02.000Z</time>
      </trkpt>
      <trkpt lat="47.26014" lon="-2.32312">
        <ele>-0.80000001192093</ele>
        <time>2022-08-21T10:27:07.000Z</time>
      </trkpt>
      <trkpt lat="47.26019" lon="-2.32306">
        <ele>-0.80000001192093</ele>
        <time>2022-08-21T10:27:08.000Z</time>
      </trkpt>
      <trkpt lat="47.26046" lon="-2.32276">
        <ele>-0.80000001192093</ele>
        <time>2022-08-21T10:27:14.000Z</time>
      </trkpt>
      <trkpt lat="47.26077" lon="-2.32241">
        <ele>-0.80000001192093</ele>
        <time>2022-08-21T10:27:21.000Z</time>
      </trkpt>
      <trkpt lat="47.26093" lon="-2.32217">
        <ele>-0.80000001192093</ele>
        <time>2022-08-21T10:27:25.000Z</time>
      </trkpt>
      <trkpt lat="47.26099" lon="-2.32204">
        <ele>-0.80000001192093</ele>
        <time>2022-08-21T10:27:27.000Z</time>
      </trkpt>
      <trkpt lat="47.26106" lon="-2.32191">
        <ele>-0.80000001192093</ele>
        <time>2022-08-21T10:27:29.000Z</time>
      </trkpt>
      <trkpt lat="47.26116" lon="-2.32164">
        <ele>-0.80000001192093</ele>
        <time>2022-08-21T10:27:33.000Z</time>
      </trkpt>
      <trkpt lat="47.26132" lon="-2.32116">
        <ele>-0.80000001192093</ele>
        <time>2022-08-21T10:27:40.000Z</time>
      </trkpt>
      <trkpt lat="47.26149" lon="-2.3206">
        <ele>-0.80000001192093</ele>
        <time>2022-08-21T10:27:48.000Z</time>
      </trkpt>
      <trkpt lat="47.26157" lon="-2.32031">
        <ele>-0.80000001192093</ele>
        <time>2022-08-21T10:27:53.000Z</time>
      </trkpt>
      <trkpt lat="47.26168" lon="-2.32021">
        <ele>-0.80000001192093</ele>
        <time>2022-08-21T10:27:57.000Z</time>
      </trkpt>
      <trkpt lat="47.26184" lon="-2.32024">
        <ele>-0.80000001192093</ele>
        <time>2022-08-21T10:28:02.000Z</time>
      </trkpt>
      <trkpt lat="47.26193" lon="-2.32021">
        <ele>-0.80000001192093</ele>
        <time>2022-08-21T10:28:07.000Z</time>
      </trkpt>
      <trkpt lat="47.26192" lon="-2.32011">
        <ele>-0.80000001192093</ele>
        <time>2022-08-21T10:28:10.000Z</time>
      </trkpt>
      <trkpt lat="47.26196" lon="-2.32006">
        <ele>-0.80000001192093</ele>
        <time>2022-08-21T10:28:13.000Z</time>
      </trkpt>
      <trkpt lat="47.26199" lon="-2.32002">
        <ele>-0.80000001192093</ele>
        <time>2022-08-21T10:28:15.000Z</time>
      </trkpt>
      <trkpt lat="47.26206" lon="-2.31993">
        <ele>-0.80000001192093</ele>
        <time>2022-08-21T10:28:18.000Z</time>
      </trkpt>
      <trkpt lat="47.2622" lon="-2.31977">
        <ele>-0.80000001192093</ele>
        <time>2022-08-21T10:28:22.000Z</time>
      </trkpt>
      <trkpt lat="47.26238" lon="-2.31961">
        <ele>-0.80000001192093</ele>
        <time>2022-08-21T10:28:27.000Z</time>
      </trkpt>
      <trkpt lat="47.2625" lon="-2.3194">
        <ele>-0.80000001192093</ele>
        <time>2022-08-21T10:28:32.000Z</time>
      </trkpt>
      <trkpt lat="47.26266" lon="-2.31916">
        <ele>-0.80000001192093</ele>
        <time>2022-08-21T10:28:37.000Z</time>
      </trkpt>
      <trkpt lat="47.26286" lon="-2.319">
        <ele>-0.80000001192093</ele>
        <time>2022-08-21T10:28:42.000Z</time>
      </trkpt>
      <trkpt lat="47.26289" lon="-2.31896">
        <ele>-0.80000001192093</ele>
        <time>2022-08-21T10:28:43.000Z</time>
      </trkpt>
      <trkpt lat="47.26291" lon="-2.31885">
        <ele>-0.80000001192093</ele>
        <time>2022-08-21T10:28:45.000Z</time>
      </trkpt>
      <trkpt lat="47.26293" lon="-2.31874">
        <ele>-0.80000001192093</ele>
        <time>2022-08-21T10:28:47.000Z</time>
      </trkpt>
      <trkpt lat="47.26295" lon="-2.31854">
        <ele>-0.80000001192093</ele>
        <time>2022-08-21T10:28:50.000Z</time>
      </trkpt>
      <trkpt lat="47.26297" lon="-2.31819">
        <ele>-0.80000001192093</ele>
        <time>2022-08-21T10:28:56.000Z</time>
      </trkpt>
      <trkpt lat="47.26302" lon="-2.3179">
        <ele>-0.80000001192093</ele>
        <time>2022-08-21T10:29:01.000Z</time>
      </trkpt>
      <trkpt lat="47.263" lon="-2.31756">
        <ele>-0.80000001192093</ele>
        <time>2022-08-21T10:29:07.000Z</time>
      </trkpt>
      <trkpt lat="47.26301" lon="-2.3173">
        <ele>-0.80000001192093</ele>
        <time>2022-08-21T10:29:11.000Z</time>
      </trkpt>
      <trkpt lat="47.26303" lon="-2.31725">
        <ele>-0.80000001192093</ele>
        <time>2022-08-21T10:29:12.000Z</time>
      </trkpt>
      <trkpt lat="47.26315" lon="-2.31715">
        <ele>-0.80000001192093</ele>
        <time>2022-08-21T10:29:16.000Z</time>
      </trkpt>
      <trkpt lat="47.26326" lon="-2.31707">
        <ele>-0.80000001192093</ele>
        <time>2022-08-21T10:29:20.000Z</time>
      </trkpt>
      <trkpt lat="47.2633" lon="-2.317">
        <ele>-0.40000000596046</ele>
        <time>2022-08-21T10:29:22.000Z</time>
      </trkpt>
      <trkpt lat="47.26331" lon="-2.31696">
        <ele>5.9</ele>
        <time>2022-08-21T10:29:23.000Z</time>
      </trkpt>
      <trkpt lat="47.26334" lon="-2.31693">
        <ele>0.40000000596046</ele>
        <time>2022-08-21T10:29:24.000Z</time>
      </trkpt>
      <trkpt lat="47.26337" lon="-2.3169">
        <ele>0.80000001192093</ele>
        <time>2022-08-21T10:29:25.000Z</time>
      </trkpt>
      <trkpt lat="47.26339" lon="-2.31689">
        <ele>1.2000000476837</ele>
        <time>2022-08-21T10:29:26.000Z</time>
      </trkpt>
      <trkpt lat="47.26352" lon="-2.31681">
        <ele>1.2000000476837</ele>
        <time>2022-08-21T10:29:31.000Z</time>
      </trkpt>
      <trkpt lat="47.26355" lon="-2.3168">
        <ele>1.2000000476837</ele>
        <time>2022-08-21T10:29:32.000Z</time>
      </trkpt>
      <trkpt lat="47.26365" lon="-2.31676">
        <ele>1.2000000476837</ele>
        <time>2022-08-21T10:29:36.000Z</time>
      </trkpt>
      <trkpt lat="47.2637" lon="-2.31673">
        <ele>1.6000000238419</ele>
        <time>2022-08-21T10:29:38.000Z</time>
      </trkpt>
      <trkpt lat="47.26373" lon="-2.31672">
        <ele>2</ele>
        <time>2022-08-21T10:29:39.000Z</time>
      </trkpt>
      <trkpt lat="47.26376" lon="-2.3167">
        <ele>2.5999999046326</ele>
        <time>2022-08-21T10:29:40.000Z</time>
      </trkpt>
      <trkpt lat="47.26379" lon="-2.31669">
        <ele>3</ele>
        <time>2022-08-21T10:29:41.000Z</time>
      </trkpt>
      <trkpt lat="47.26382" lon="-2.31667">
        <ele>3.4000000953674</ele>
        <time>2022-08-21T10:29:42.000Z</time>
      </trkpt>
      <trkpt lat="47.26384" lon="-2.31665">
        <ele>3.4000000953674</ele>
        <time>2022-08-21T10:29:43.000Z</time>
      </trkpt>
      <trkpt lat="47.26398" lon="-2.31659">
        <ele>3.4000000953674</ele>
        <time>2022-08-21T10:29:49.000Z</time>
      </trkpt>
      <trkpt lat="47.26408" lon="-2.31652">
        <ele>3.4000000953674</ele>
        <time>2022-08-21T10:29:53.000Z</time>
      </trkpt>
      <trkpt lat="47.2641" lon="-2.31648">
        <ele>3.4000000953674</ele>
        <time>2022-08-21T10:29:54.000Z</time>
      </trkpt>
      <trkpt lat="47.26411" lon="-2.31632">
        <ele>3.4000000953674</ele>
        <time>2022-08-21T10:29:58.000Z</time>
      </trkpt>
      <trkpt lat="47.26411" lon="-2.31627">
        <ele>3.4000000953674</ele>
        <time>2022-08-21T10:29:59.000Z</time>
      </trkpt>
      <trkpt lat="47.2641" lon="-2.31599">
        <ele>3.4000000953674</ele>
        <time>2022-08-21T10:30:05.000Z</time>
      </trkpt>
      <trkpt lat="47.2641" lon="-2.31573">
        <ele>3.4000000953674</ele>
        <time>2022-08-21T10:30:11.000Z</time>
      </trkpt>
      <trkpt lat="47.26413" lon="-2.31553">
        <ele>3.4000000953674</ele>
        <time>2022-08-21T10:30:17.000Z</time>
      </trkpt>
      <trkpt lat="47.26415" lon="-2.31554">
        <ele>3.7999999523163</ele>
        <time>2022-08-21T10:30:19.000Z</time>
      </trkpt>
      <trkpt lat="47.26417" lon="-2.31553">
        <ele>4.1999998092651</ele>
        <time>2022-08-21T10:30:20.000Z</time>
      </trkpt>
      <trkpt lat="47.26417" lon="-2.31553">
        <ele>4.5999999046326</ele>
        <time>2022-08-21T10:30:21.000Z</time>
      </trkpt>
      <trkpt lat="47.26417" lon="-2.31553">
        <ele>5.1999998092651</ele>
        <time>2022-08-21T10:30:22.000Z</time>
      </trkpt>
    </trkseg>
  </trk>
</gpx>